<?xml version="1.0" encoding="UTF-8" standalone="no" ?>
<gpx xmlns="http://www.topografix.com/GPX/1/1" xmlns:xsi="http://www.w3.org/2001/XMLSchema-instance" xsi:schemaLocation="http://www.topografix.com/GPX/1/1 http://www.topografix.com/GPX/1/1/gpx.xsd" version="1.1" creator="VisuGPX - https://www.visugpx.com">
  <metadata>
    <name>Col de l'Arc par St Paul de Varces</name>
    <desc><![CDATA[Au départ du village de St Paul puis Col de l'Arc et retour au lieu dit la Bascule]]></desc>
  </metadata>
  <trk>
    <name><![CDATA[2010-10-30T10:58:14Z]]></name>
    <trkseg>
      <trkpt lat="45.0701" lon="5.63733">
        <ele>420.9</ele>
        <time>2010-10-30T10:58:14Z</time>
      </trkpt>
      <trkpt lat="45.07013" lon="5.63737">
        <ele>433.6</ele>
        <time>2010-10-30T10:58:19Z</time>
      </trkpt>
      <trkpt lat="45.07017" lon="5.63747">
        <ele>433.8</ele>
        <time>2010-10-30T10:58:27Z</time>
      </trkpt>
      <trkpt lat="45.07021" lon="5.63757">
        <ele>435.4</ele>
        <time>2010-10-30T10:58:34Z</time>
      </trkpt>
      <trkpt lat="45.07022" lon="5.63759">
        <ele>436</ele>
        <time>2010-10-30T10:58:36Z</time>
      </trkpt>
      <trkpt lat="45.07031" lon="5.63765">
        <ele>438</ele>
        <time>2010-10-30T10:58:44Z</time>
      </trkpt>
      <trkpt lat="45.07038" lon="5.63768">
        <ele>439</ele>
        <time>2010-10-30T10:58:49Z</time>
      </trkpt>
      <trkpt lat="45.07042" lon="5.63769">
        <ele>439</ele>
        <time>2010-10-30T10:58:52Z</time>
      </trkpt>
      <trkpt lat="45.07052" lon="5.63773">
        <ele>439</ele>
        <time>2010-10-30T10:58:59Z</time>
      </trkpt>
      <trkpt lat="45.07057" lon="5.63774">
        <ele>439</ele>
        <time>2010-10-30T10:59:02Z</time>
      </trkpt>
      <trkpt lat="45.07066" lon="5.63774">
        <ele>439.2</ele>
        <time>2010-10-30T10:59:08Z</time>
      </trkpt>
      <trkpt lat="45.07076" lon="5.63776">
        <ele>439.4</ele>
        <time>2010-10-30T10:59:14Z</time>
      </trkpt>
      <trkpt lat="45.07077" lon="5.63776">
        <ele>439.6</ele>
        <time>2010-10-30T10:59:15Z</time>
      </trkpt>
      <trkpt lat="45.0709" lon="5.6378">
        <ele>440.2</ele>
        <time>2010-10-30T10:59:23Z</time>
      </trkpt>
      <trkpt lat="45.07094" lon="5.63781">
        <ele>440.2</ele>
        <time>2010-10-30T10:59:26Z</time>
      </trkpt>
      <trkpt lat="45.07103" lon="5.63785">
        <ele>440.2</ele>
        <time>2010-10-30T10:59:33Z</time>
      </trkpt>
      <trkpt lat="45.07106" lon="5.63787">
        <ele>440.2</ele>
        <time>2010-10-30T10:59:35Z</time>
      </trkpt>
      <trkpt lat="45.07111" lon="5.63788">
        <ele>440.2</ele>
        <time>2010-10-30T10:59:39Z</time>
      </trkpt>
      <trkpt lat="45.07112" lon="5.6379">
        <ele>440.2</ele>
        <time>2010-10-30T10:59:40Z</time>
      </trkpt>
      <trkpt lat="45.07118" lon="5.63792">
        <ele>440</ele>
        <time>2010-10-30T10:59:45Z</time>
      </trkpt>
      <trkpt lat="45.07128" lon="5.63798">
        <ele>440</ele>
        <time>2010-10-30T10:59:53Z</time>
      </trkpt>
      <trkpt lat="45.07129" lon="5.63799">
        <ele>440</ele>
        <time>2010-10-30T10:59:54Z</time>
      </trkpt>
      <trkpt lat="45.07131" lon="5.63798">
        <ele>440</ele>
        <time>2010-10-30T10:59:56Z</time>
      </trkpt>
      <trkpt lat="45.07136" lon="5.63797">
        <ele>439.8</ele>
        <time>2010-10-30T10:59:59Z</time>
      </trkpt>
      <trkpt lat="45.0714" lon="5.63797">
        <ele>439.6</ele>
        <time>2010-10-30T11:00:02Z</time>
      </trkpt>
      <trkpt lat="45.07143" lon="5.63797">
        <ele>439.6</ele>
        <time>2010-10-30T11:00:04Z</time>
      </trkpt>
      <trkpt lat="45.07144" lon="5.63797">
        <ele>439.6</ele>
        <time>2010-10-30T11:00:05Z</time>
      </trkpt>
      <trkpt lat="45.07147" lon="5.63797">
        <ele>439.6</ele>
        <time>2010-10-30T11:00:07Z</time>
      </trkpt>
      <trkpt lat="45.07154" lon="5.63795">
        <ele>440</ele>
        <time>2010-10-30T11:00:12Z</time>
      </trkpt>
      <trkpt lat="45.07165" lon="5.63792">
        <ele>441.4</ele>
        <time>2010-10-30T11:00:21Z</time>
      </trkpt>
      <trkpt lat="45.07173" lon="5.63791">
        <ele>441.8</ele>
        <time>2010-10-30T11:00:28Z</time>
      </trkpt>
      <trkpt lat="45.07176" lon="5.63791">
        <ele>441.8</ele>
        <time>2010-10-30T11:00:31Z</time>
      </trkpt>
      <trkpt lat="45.07181" lon="5.63789">
        <ele>442.2</ele>
        <time>2010-10-30T11:00:35Z</time>
      </trkpt>
      <trkpt lat="45.07183" lon="5.63788">
        <ele>442.4</ele>
        <time>2010-10-30T11:00:37Z</time>
      </trkpt>
      <trkpt lat="45.07186" lon="5.63785">
        <ele>442.4</ele>
        <time>2010-10-30T11:00:40Z</time>
      </trkpt>
      <trkpt lat="45.07188" lon="5.63781">
        <ele>442.6</ele>
        <time>2010-10-30T11:00:43Z</time>
      </trkpt>
      <trkpt lat="45.07189" lon="5.63776">
        <ele>442.6</ele>
        <time>2010-10-30T11:00:47Z</time>
      </trkpt>
      <trkpt lat="45.0719" lon="5.63772">
        <ele>443</ele>
        <time>2010-10-30T11:00:51Z</time>
      </trkpt>
      <trkpt lat="45.0719" lon="5.63765">
        <ele>443</ele>
        <time>2010-10-30T11:00:56Z</time>
      </trkpt>
      <trkpt lat="45.07189" lon="5.63761">
        <ele>443.2</ele>
        <time>2010-10-30T11:01:00Z</time>
      </trkpt>
      <trkpt lat="45.07186" lon="5.63752">
        <ele>443.2</ele>
        <time>2010-10-30T11:01:06Z</time>
      </trkpt>
      <trkpt lat="45.07186" lon="5.6375">
        <ele>443</ele>
        <time>2010-10-30T11:01:07Z</time>
      </trkpt>
      <trkpt lat="45.07187" lon="5.63742">
        <ele>443.2</ele>
        <time>2010-10-30T11:01:13Z</time>
      </trkpt>
      <trkpt lat="45.07187" lon="5.6374">
        <ele>443.2</ele>
        <time>2010-10-30T11:01:14Z</time>
      </trkpt>
      <trkpt lat="45.07188" lon="5.63731">
        <ele>443.4</ele>
        <time>2010-10-30T11:01:20Z</time>
      </trkpt>
      <trkpt lat="45.0719" lon="5.63724">
        <ele>443.6</ele>
        <time>2010-10-30T11:01:24Z</time>
      </trkpt>
      <trkpt lat="45.07191" lon="5.6372">
        <ele>443.6</ele>
        <time>2010-10-30T11:01:27Z</time>
      </trkpt>
      <trkpt lat="45.07193" lon="5.63716">
        <ele>444</ele>
        <time>2010-10-30T11:01:30Z</time>
      </trkpt>
      <trkpt lat="45.07195" lon="5.63712">
        <ele>444.2</ele>
        <time>2010-10-30T11:01:33Z</time>
      </trkpt>
      <trkpt lat="45.07201" lon="5.637">
        <ele>445.4</ele>
        <time>2010-10-30T11:01:42Z</time>
      </trkpt>
      <trkpt lat="45.07204" lon="5.63695">
        <ele>445.8</ele>
        <time>2010-10-30T11:01:45Z</time>
      </trkpt>
      <trkpt lat="45.07206" lon="5.6369">
        <ele>446.2</ele>
        <time>2010-10-30T11:01:49Z</time>
      </trkpt>
      <trkpt lat="45.07209" lon="5.63678">
        <ele>446.6</ele>
        <time>2010-10-30T11:01:56Z</time>
      </trkpt>
      <trkpt lat="45.0721" lon="5.63671">
        <ele>446.8</ele>
        <time>2010-10-30T11:02:00Z</time>
      </trkpt>
      <trkpt lat="45.0721" lon="5.63669">
        <ele>446.8</ele>
        <time>2010-10-30T11:02:01Z</time>
      </trkpt>
      <trkpt lat="45.0721" lon="5.63667">
        <ele>447</ele>
        <time>2010-10-30T11:02:02Z</time>
      </trkpt>
      <trkpt lat="45.07211" lon="5.6366">
        <ele>446.8</ele>
        <time>2010-10-30T11:02:06Z</time>
      </trkpt>
      <trkpt lat="45.07211" lon="5.63658">
        <ele>446.8</ele>
        <time>2010-10-30T11:02:08Z</time>
      </trkpt>
      <trkpt lat="45.07216" lon="5.6365">
        <ele>446.4</ele>
        <time>2010-10-30T11:02:16Z</time>
      </trkpt>
      <trkpt lat="45.07218" lon="5.63649">
        <ele>446.4</ele>
        <time>2010-10-30T11:02:18Z</time>
      </trkpt>
      <trkpt lat="45.07221" lon="5.63646">
        <ele>446.4</ele>
        <time>2010-10-30T11:02:21Z</time>
      </trkpt>
      <trkpt lat="45.07223" lon="5.63644">
        <ele>447</ele>
        <time>2010-10-30T11:02:24Z</time>
      </trkpt>
      <trkpt lat="45.07227" lon="5.63639">
        <ele>448</ele>
        <time>2010-10-30T11:02:28Z</time>
      </trkpt>
      <trkpt lat="45.07228" lon="5.63636">
        <ele>448.2</ele>
        <time>2010-10-30T11:02:30Z</time>
      </trkpt>
      <trkpt lat="45.07231" lon="5.63631">
        <ele>449.2</ele>
        <time>2010-10-30T11:02:35Z</time>
      </trkpt>
      <trkpt lat="45.07233" lon="5.63627">
        <ele>450.2</ele>
        <time>2010-10-30T11:02:38Z</time>
      </trkpt>
      <trkpt lat="45.07238" lon="5.63622">
        <ele>451.6</ele>
        <time>2010-10-30T11:02:42Z</time>
      </trkpt>
      <trkpt lat="45.07239" lon="5.63621">
        <ele>452</ele>
        <time>2010-10-30T11:02:43Z</time>
      </trkpt>
      <trkpt lat="45.07245" lon="5.63616">
        <ele>454</ele>
        <time>2010-10-30T11:02:49Z</time>
      </trkpt>
      <trkpt lat="45.0725" lon="5.63613">
        <ele>456.2</ele>
        <time>2010-10-30T11:02:56Z</time>
      </trkpt>
      <trkpt lat="45.07253" lon="5.63612">
        <ele>457</ele>
        <time>2010-10-30T11:02:59Z</time>
      </trkpt>
      <trkpt lat="45.07257" lon="5.6361">
        <ele>458.6</ele>
        <time>2010-10-30T11:03:03Z</time>
      </trkpt>
      <trkpt lat="45.0726" lon="5.6361">
        <ele>459.6</ele>
        <time>2010-10-30T11:03:05Z</time>
      </trkpt>
      <trkpt lat="45.07263" lon="5.63609">
        <ele>460</ele>
        <time>2010-10-30T11:03:07Z</time>
      </trkpt>
      <trkpt lat="45.07265" lon="5.63608">
        <ele>460.8</ele>
        <time>2010-10-30T11:03:10Z</time>
      </trkpt>
      <trkpt lat="45.07268" lon="5.63607">
        <ele>461.8</ele>
        <time>2010-10-30T11:03:14Z</time>
      </trkpt>
      <trkpt lat="45.07269" lon="5.63607">
        <ele>462.2</ele>
        <time>2010-10-30T11:03:15Z</time>
      </trkpt>
      <trkpt lat="45.0727" lon="5.63607">
        <ele>462.4</ele>
        <time>2010-10-30T11:03:16Z</time>
      </trkpt>
      <trkpt lat="45.07271" lon="5.63607">
        <ele>463.2</ele>
        <time>2010-10-30T11:03:19Z</time>
      </trkpt>
      <trkpt lat="45.07275" lon="5.63606">
        <ele>464.2</ele>
        <time>2010-10-30T11:03:23Z</time>
      </trkpt>
      <trkpt lat="45.07279" lon="5.63606">
        <ele>466.2</ele>
        <time>2010-10-30T11:03:29Z</time>
      </trkpt>
      <trkpt lat="45.07281" lon="5.63606">
        <ele>466.8</ele>
        <time>2010-10-30T11:03:31Z</time>
      </trkpt>
      <trkpt lat="45.07286" lon="5.63604">
        <ele>468.4</ele>
        <time>2010-10-30T11:03:36Z</time>
      </trkpt>
      <trkpt lat="45.07289" lon="5.63602">
        <ele>469.2</ele>
        <time>2010-10-30T11:03:40Z</time>
      </trkpt>
      <trkpt lat="45.07289" lon="5.63601">
        <ele>469.4</ele>
        <time>2010-10-30T11:03:41Z</time>
      </trkpt>
      <trkpt lat="45.07291" lon="5.63601">
        <ele>470.2</ele>
        <time>2010-10-30T11:03:44Z</time>
      </trkpt>
      <trkpt lat="45.07291" lon="5.636">
        <ele>470.2</ele>
        <time>2010-10-30T11:03:45Z</time>
      </trkpt>
      <trkpt lat="45.07294" lon="5.63597">
        <ele>471.2</ele>
        <time>2010-10-30T11:03:49Z</time>
      </trkpt>
      <trkpt lat="45.07295" lon="5.63595">
        <ele>471.4</ele>
        <time>2010-10-30T11:03:50Z</time>
      </trkpt>
      <trkpt lat="45.07297" lon="5.63593">
        <ele>471.8</ele>
        <time>2010-10-30T11:03:52Z</time>
      </trkpt>
      <trkpt lat="45.07298" lon="5.6359">
        <ele>472.8</ele>
        <time>2010-10-30T11:03:55Z</time>
      </trkpt>
      <trkpt lat="45.07299" lon="5.63589">
        <ele>473</ele>
        <time>2010-10-30T11:03:56Z</time>
      </trkpt>
      <trkpt lat="45.073" lon="5.63587">
        <ele>473.8</ele>
        <time>2010-10-30T11:03:59Z</time>
      </trkpt>
      <trkpt lat="45.07303" lon="5.63585">
        <ele>476.6</ele>
        <time>2010-10-30T11:04:06Z</time>
      </trkpt>
      <trkpt lat="45.07305" lon="5.63583">
        <ele>478</ele>
        <time>2010-10-30T11:04:10Z</time>
      </trkpt>
      <trkpt lat="45.07308" lon="5.6358">
        <ele>479.2</ele>
        <time>2010-10-30T11:04:15Z</time>
      </trkpt>
      <trkpt lat="45.0731" lon="5.63581">
        <ele>481</ele>
        <time>2010-10-30T11:04:21Z</time>
      </trkpt>
      <trkpt lat="45.07312" lon="5.63582">
        <ele>481.6</ele>
        <time>2010-10-30T11:04:23Z</time>
      </trkpt>
      <trkpt lat="45.07313" lon="5.63582">
        <ele>482.6</ele>
        <time>2010-10-30T11:04:25Z</time>
      </trkpt>
      <trkpt lat="45.07315" lon="5.63584">
        <ele>483.4</ele>
        <time>2010-10-30T11:04:27Z</time>
      </trkpt>
      <trkpt lat="45.07318" lon="5.63586">
        <ele>484.4</ele>
        <time>2010-10-30T11:04:31Z</time>
      </trkpt>
      <trkpt lat="45.07318" lon="5.63587">
        <ele>484.6</ele>
        <time>2010-10-30T11:04:32Z</time>
      </trkpt>
      <trkpt lat="45.07321" lon="5.63591">
        <ele>486.4</ele>
        <time>2010-10-30T11:04:37Z</time>
      </trkpt>
      <trkpt lat="45.07324" lon="5.63594">
        <ele>487.4</ele>
        <time>2010-10-30T11:04:41Z</time>
      </trkpt>
      <trkpt lat="45.07327" lon="5.63597">
        <ele>489</ele>
        <time>2010-10-30T11:04:46Z</time>
      </trkpt>
      <trkpt lat="45.07331" lon="5.636">
        <ele>490.8</ele>
        <time>2010-10-30T11:04:51Z</time>
      </trkpt>
      <trkpt lat="45.07334" lon="5.63603">
        <ele>492.4</ele>
        <time>2010-10-30T11:04:55Z</time>
      </trkpt>
      <trkpt lat="45.07334" lon="5.63603">
        <ele>492.6</ele>
        <time>2010-10-30T11:04:56Z</time>
      </trkpt>
      <trkpt lat="45.07335" lon="5.63604">
        <ele>493</ele>
        <time>2010-10-30T11:04:57Z</time>
      </trkpt>
      <trkpt lat="45.07336" lon="5.63607">
        <ele>493.8</ele>
        <time>2010-10-30T11:05:00Z</time>
      </trkpt>
      <trkpt lat="45.0734" lon="5.63612">
        <ele>495.2</ele>
        <time>2010-10-30T11:05:06Z</time>
      </trkpt>
      <trkpt lat="45.07341" lon="5.63613">
        <ele>495.4</ele>
        <time>2010-10-30T11:05:08Z</time>
      </trkpt>
      <trkpt lat="45.07343" lon="5.63617">
        <ele>495.8</ele>
        <time>2010-10-30T11:05:11Z</time>
      </trkpt>
      <trkpt lat="45.07344" lon="5.6362">
        <ele>496.2</ele>
        <time>2010-10-30T11:05:14Z</time>
      </trkpt>
      <trkpt lat="45.07345" lon="5.63623">
        <ele>496.8</ele>
        <time>2010-10-30T11:05:17Z</time>
      </trkpt>
      <trkpt lat="45.07346" lon="5.63626">
        <ele>497.4</ele>
        <time>2010-10-30T11:05:21Z</time>
      </trkpt>
      <trkpt lat="45.07348" lon="5.63632">
        <ele>498.2</ele>
        <time>2010-10-30T11:05:27Z</time>
      </trkpt>
      <trkpt lat="45.0735" lon="5.63635">
        <ele>498.8</ele>
        <time>2010-10-30T11:05:30Z</time>
      </trkpt>
      <trkpt lat="45.07352" lon="5.63638">
        <ele>499.6</ele>
        <time>2010-10-30T11:05:33Z</time>
      </trkpt>
      <trkpt lat="45.07352" lon="5.63639">
        <ele>499.8</ele>
        <time>2010-10-30T11:05:34Z</time>
      </trkpt>
      <trkpt lat="45.07354" lon="5.63644">
        <ele>500.6</ele>
        <time>2010-10-30T11:05:39Z</time>
      </trkpt>
      <trkpt lat="45.07355" lon="5.63645">
        <ele>500.6</ele>
        <time>2010-10-30T11:05:40Z</time>
      </trkpt>
      <trkpt lat="45.07356" lon="5.63648">
        <ele>501.2</ele>
        <time>2010-10-30T11:05:44Z</time>
      </trkpt>
      <trkpt lat="45.07358" lon="5.63655">
        <ele>501.8</ele>
        <time>2010-10-30T11:05:50Z</time>
      </trkpt>
      <trkpt lat="45.07359" lon="5.63658">
        <ele>502.4</ele>
        <time>2010-10-30T11:05:54Z</time>
      </trkpt>
      <trkpt lat="45.07359" lon="5.63658">
        <ele>502.6</ele>
        <time>2010-10-30T11:05:55Z</time>
      </trkpt>
      <trkpt lat="45.07361" lon="5.63663">
        <ele>503.4</ele>
        <time>2010-10-30T11:06:00Z</time>
      </trkpt>
      <trkpt lat="45.07364" lon="5.63666">
        <ele>503.8</ele>
        <time>2010-10-30T11:06:04Z</time>
      </trkpt>
      <trkpt lat="45.07367" lon="5.63668">
        <ele>504.6</ele>
        <time>2010-10-30T11:06:09Z</time>
      </trkpt>
      <trkpt lat="45.07369" lon="5.63671">
        <ele>505.4</ele>
        <time>2010-10-30T11:06:13Z</time>
      </trkpt>
      <trkpt lat="45.0737" lon="5.63671">
        <ele>505.6</ele>
        <time>2010-10-30T11:06:14Z</time>
      </trkpt>
      <trkpt lat="45.07371" lon="5.63672">
        <ele>506.2</ele>
        <time>2010-10-30T11:06:17Z</time>
      </trkpt>
      <trkpt lat="45.07372" lon="5.63673">
        <ele>506.6</ele>
        <time>2010-10-30T11:06:18Z</time>
      </trkpt>
      <trkpt lat="45.07375" lon="5.63674">
        <ele>508.4</ele>
        <time>2010-10-30T11:06:23Z</time>
      </trkpt>
      <trkpt lat="45.07378" lon="5.63676">
        <ele>510.6</ele>
        <time>2010-10-30T11:06:28Z</time>
      </trkpt>
      <trkpt lat="45.07379" lon="5.63678">
        <ele>512</ele>
        <time>2010-10-30T11:06:32Z</time>
      </trkpt>
      <trkpt lat="45.07382" lon="5.63679">
        <ele>513.4</ele>
        <time>2010-10-30T11:06:36Z</time>
      </trkpt>
      <trkpt lat="45.07385" lon="5.63679">
        <ele>515.8</ele>
        <time>2010-10-30T11:06:42Z</time>
      </trkpt>
      <trkpt lat="45.07389" lon="5.63682">
        <ele>517.2</ele>
        <time>2010-10-30T11:06:47Z</time>
      </trkpt>
      <trkpt lat="45.07389" lon="5.63681">
        <ele>517.4</ele>
        <time>2010-10-30T11:06:49Z</time>
      </trkpt>
      <trkpt lat="45.07392" lon="5.63682">
        <ele>519.2</ele>
        <time>2010-10-30T11:06:52Z</time>
      </trkpt>
      <trkpt lat="45.07396" lon="5.63682">
        <ele>520.4</ele>
        <time>2010-10-30T11:06:57Z</time>
      </trkpt>
      <trkpt lat="45.07399" lon="5.63683">
        <ele>521.6</ele>
        <time>2010-10-30T11:07:02Z</time>
      </trkpt>
      <trkpt lat="45.07402" lon="5.63684">
        <ele>522.6</ele>
        <time>2010-10-30T11:07:06Z</time>
      </trkpt>
      <trkpt lat="45.07405" lon="5.63683">
        <ele>524</ele>
        <time>2010-10-30T11:07:11Z</time>
      </trkpt>
      <trkpt lat="45.07407" lon="5.63685">
        <ele>525.6</ele>
        <time>2010-10-30T11:07:16Z</time>
      </trkpt>
      <trkpt lat="45.07409" lon="5.63686">
        <ele>526</ele>
        <time>2010-10-30T11:07:18Z</time>
      </trkpt>
      <trkpt lat="45.07414" lon="5.63689">
        <ele>528.8</ele>
        <time>2010-10-30T11:07:24Z</time>
      </trkpt>
      <trkpt lat="45.07416" lon="5.63691">
        <ele>530</ele>
        <time>2010-10-30T11:07:28Z</time>
      </trkpt>
      <trkpt lat="45.0742" lon="5.63694">
        <ele>532.4</ele>
        <time>2010-10-30T11:07:33Z</time>
      </trkpt>
      <trkpt lat="45.07421" lon="5.63694">
        <ele>533</ele>
        <time>2010-10-30T11:07:34Z</time>
      </trkpt>
      <trkpt lat="45.07423" lon="5.63697">
        <ele>534.4</ele>
        <time>2010-10-30T11:07:38Z</time>
      </trkpt>
      <trkpt lat="45.07424" lon="5.63697">
        <ele>535</ele>
        <time>2010-10-30T11:07:41Z</time>
      </trkpt>
      <trkpt lat="45.07426" lon="5.637">
        <ele>535.4</ele>
        <time>2010-10-30T11:07:44Z</time>
      </trkpt>
      <trkpt lat="45.07428" lon="5.63704">
        <ele>536</ele>
        <time>2010-10-30T11:07:49Z</time>
      </trkpt>
      <trkpt lat="45.07431" lon="5.63706">
        <ele>536.4</ele>
        <time>2010-10-30T11:07:54Z</time>
      </trkpt>
      <trkpt lat="45.07434" lon="5.63709">
        <ele>536.2</ele>
        <time>2010-10-30T11:07:57Z</time>
      </trkpt>
      <trkpt lat="45.07434" lon="5.63709">
        <ele>536.2</ele>
        <time>2010-10-30T11:07:59Z</time>
      </trkpt>
      <trkpt lat="45.07437" lon="5.63712">
        <ele>536.2</ele>
        <time>2010-10-30T11:08:03Z</time>
      </trkpt>
      <trkpt lat="45.07439" lon="5.63714">
        <ele>536</ele>
        <time>2010-10-30T11:08:06Z</time>
      </trkpt>
      <trkpt lat="45.0744" lon="5.63714">
        <ele>536</ele>
        <time>2010-10-30T11:08:07Z</time>
      </trkpt>
      <trkpt lat="45.07442" lon="5.63716">
        <ele>536</ele>
        <time>2010-10-30T11:08:12Z</time>
      </trkpt>
      <trkpt lat="45.07444" lon="5.63718">
        <ele>536</ele>
        <time>2010-10-30T11:08:16Z</time>
      </trkpt>
      <trkpt lat="45.07447" lon="5.63721">
        <ele>536.2</ele>
        <time>2010-10-30T11:08:20Z</time>
      </trkpt>
      <trkpt lat="45.07448" lon="5.63722">
        <ele>536.6</ele>
        <time>2010-10-30T11:08:26Z</time>
      </trkpt>
      <trkpt lat="45.0745" lon="5.63725">
        <ele>537</ele>
        <time>2010-10-30T11:08:31Z</time>
      </trkpt>
      <trkpt lat="45.07453" lon="5.63728">
        <ele>537.8</ele>
        <time>2010-10-30T11:08:34Z</time>
      </trkpt>
      <trkpt lat="45.07454" lon="5.63729">
        <ele>538</ele>
        <time>2010-10-30T11:08:36Z</time>
      </trkpt>
      <trkpt lat="45.07457" lon="5.6373">
        <ele>539</ele>
        <time>2010-10-30T11:08:39Z</time>
      </trkpt>
      <trkpt lat="45.07459" lon="5.63732">
        <ele>539.6</ele>
        <time>2010-10-30T11:08:42Z</time>
      </trkpt>
      <trkpt lat="45.07461" lon="5.63733">
        <ele>540.4</ele>
        <time>2010-10-30T11:08:47Z</time>
      </trkpt>
      <trkpt lat="45.07462" lon="5.63734">
        <ele>540.4</ele>
        <time>2010-10-30T11:08:48Z</time>
      </trkpt>
      <trkpt lat="45.07464" lon="5.63738">
        <ele>540.8</ele>
        <time>2010-10-30T11:08:53Z</time>
      </trkpt>
      <trkpt lat="45.07466" lon="5.63743">
        <ele>541.6</ele>
        <time>2010-10-30T11:08:58Z</time>
      </trkpt>
      <trkpt lat="45.07467" lon="5.63744">
        <ele>541.8</ele>
        <time>2010-10-30T11:08:59Z</time>
      </trkpt>
      <trkpt lat="45.07467" lon="5.63745">
        <ele>542</ele>
        <time>2010-10-30T11:09:00Z</time>
      </trkpt>
      <trkpt lat="45.0747" lon="5.63747">
        <ele>543</ele>
        <time>2010-10-30T11:09:04Z</time>
      </trkpt>
      <trkpt lat="45.07472" lon="5.6375">
        <ele>544</ele>
        <time>2010-10-30T11:09:09Z</time>
      </trkpt>
      <trkpt lat="45.07474" lon="5.63753">
        <ele>544.4</ele>
        <time>2010-10-30T11:09:12Z</time>
      </trkpt>
      <trkpt lat="45.07476" lon="5.63758">
        <ele>545</ele>
        <time>2010-10-30T11:09:17Z</time>
      </trkpt>
      <trkpt lat="45.07478" lon="5.63762">
        <ele>545.6</ele>
        <time>2010-10-30T11:09:21Z</time>
      </trkpt>
      <trkpt lat="45.07479" lon="5.63765">
        <ele>546.2</ele>
        <time>2010-10-30T11:09:25Z</time>
      </trkpt>
      <trkpt lat="45.07481" lon="5.63768">
        <ele>546.6</ele>
        <time>2010-10-30T11:09:30Z</time>
      </trkpt>
      <trkpt lat="45.07482" lon="5.63772">
        <ele>547.4</ele>
        <time>2010-10-30T11:09:33Z</time>
      </trkpt>
      <trkpt lat="45.07484" lon="5.63774">
        <ele>548.4</ele>
        <time>2010-10-30T11:09:39Z</time>
      </trkpt>
      <trkpt lat="45.07486" lon="5.63776">
        <ele>549.2</ele>
        <time>2010-10-30T11:09:43Z</time>
      </trkpt>
      <trkpt lat="45.07488" lon="5.63778">
        <ele>550.2</ele>
        <time>2010-10-30T11:09:47Z</time>
      </trkpt>
      <trkpt lat="45.0749" lon="5.63781">
        <ele>551.2</ele>
        <time>2010-10-30T11:09:51Z</time>
      </trkpt>
      <trkpt lat="45.07492" lon="5.63783">
        <ele>551.8</ele>
        <time>2010-10-30T11:09:55Z</time>
      </trkpt>
      <trkpt lat="45.07492" lon="5.63784">
        <ele>552</ele>
        <time>2010-10-30T11:09:56Z</time>
      </trkpt>
      <trkpt lat="45.07497" lon="5.63784">
        <ele>553</ele>
        <time>2010-10-30T11:10:02Z</time>
      </trkpt>
      <trkpt lat="45.07498" lon="5.63783">
        <ele>553.6</ele>
        <time>2010-10-30T11:10:06Z</time>
      </trkpt>
      <trkpt lat="45.07499" lon="5.6378">
        <ele>553.8</ele>
        <time>2010-10-30T11:10:11Z</time>
      </trkpt>
      <trkpt lat="45.07501" lon="5.63776">
        <ele>554.4</ele>
        <time>2010-10-30T11:10:17Z</time>
      </trkpt>
      <trkpt lat="45.07502" lon="5.63774">
        <ele>555</ele>
        <time>2010-10-30T11:10:21Z</time>
      </trkpt>
      <trkpt lat="45.07503" lon="5.6377">
        <ele>555.8</ele>
        <time>2010-10-30T11:10:25Z</time>
      </trkpt>
      <trkpt lat="45.07503" lon="5.63769">
        <ele>556</ele>
        <time>2010-10-30T11:10:26Z</time>
      </trkpt>
      <trkpt lat="45.07504" lon="5.63766">
        <ele>557</ele>
        <time>2010-10-30T11:10:31Z</time>
      </trkpt>
      <trkpt lat="45.07504" lon="5.6376">
        <ele>558</ele>
        <time>2010-10-30T11:10:37Z</time>
      </trkpt>
      <trkpt lat="45.07504" lon="5.63756">
        <ele>558.8</ele>
        <time>2010-10-30T11:10:41Z</time>
      </trkpt>
      <trkpt lat="45.07506" lon="5.6375">
        <ele>559.6</ele>
        <time>2010-10-30T11:10:46Z</time>
      </trkpt>
      <trkpt lat="45.07507" lon="5.63745">
        <ele>560.4</ele>
        <time>2010-10-30T11:10:50Z</time>
      </trkpt>
      <trkpt lat="45.07507" lon="5.63743">
        <ele>560.4</ele>
        <time>2010-10-30T11:10:51Z</time>
      </trkpt>
      <trkpt lat="45.07507" lon="5.63737">
        <ele>561.2</ele>
        <time>2010-10-30T11:10:57Z</time>
      </trkpt>
      <trkpt lat="45.07508" lon="5.63734">
        <ele>561.4</ele>
        <time>2010-10-30T11:10:59Z</time>
      </trkpt>
      <trkpt lat="45.07509" lon="5.63731">
        <ele>562</ele>
        <time>2010-10-30T11:11:02Z</time>
      </trkpt>
      <trkpt lat="45.07509" lon="5.63725">
        <ele>562.8</ele>
        <time>2010-10-30T11:11:08Z</time>
      </trkpt>
      <trkpt lat="45.0751" lon="5.6372">
        <ele>563.6</ele>
        <time>2010-10-30T11:11:13Z</time>
      </trkpt>
      <trkpt lat="45.07512" lon="5.63716">
        <ele>564.6</ele>
        <time>2010-10-30T11:11:18Z</time>
      </trkpt>
      <trkpt lat="45.07513" lon="5.63712">
        <ele>565.6</ele>
        <time>2010-10-30T11:11:21Z</time>
      </trkpt>
      <trkpt lat="45.07515" lon="5.63707">
        <ele>566.6</ele>
        <time>2010-10-30T11:11:27Z</time>
      </trkpt>
      <trkpt lat="45.07517" lon="5.63699">
        <ele>568</ele>
        <time>2010-10-30T11:11:34Z</time>
      </trkpt>
      <trkpt lat="45.07518" lon="5.63697">
        <ele>568.4</ele>
        <time>2010-10-30T11:11:36Z</time>
      </trkpt>
      <trkpt lat="45.07518" lon="5.63695">
        <ele>568.8</ele>
        <time>2010-10-30T11:11:38Z</time>
      </trkpt>
      <trkpt lat="45.07519" lon="5.63689">
        <ele>569.6</ele>
        <time>2010-10-30T11:11:43Z</time>
      </trkpt>
      <trkpt lat="45.0752" lon="5.63686">
        <ele>570.6</ele>
        <time>2010-10-30T11:11:47Z</time>
      </trkpt>
      <trkpt lat="45.07522" lon="5.63685">
        <ele>571.8</ele>
        <time>2010-10-30T11:11:51Z</time>
      </trkpt>
      <trkpt lat="45.07524" lon="5.63685">
        <ele>572.8</ele>
        <time>2010-10-30T11:11:55Z</time>
      </trkpt>
      <trkpt lat="45.07527" lon="5.63685">
        <ele>574</ele>
        <time>2010-10-30T11:11:59Z</time>
      </trkpt>
      <trkpt lat="45.07529" lon="5.63687">
        <ele>575.4</ele>
        <time>2010-10-30T11:12:04Z</time>
      </trkpt>
      <trkpt lat="45.0753" lon="5.63687">
        <ele>576</ele>
        <time>2010-10-30T11:12:06Z</time>
      </trkpt>
      <trkpt lat="45.07535" lon="5.63689">
        <ele>578.6</ele>
        <time>2010-10-30T11:12:12Z</time>
      </trkpt>
      <trkpt lat="45.07539" lon="5.63694">
        <ele>581.4</ele>
        <time>2010-10-30T11:12:19Z</time>
      </trkpt>
      <trkpt lat="45.07542" lon="5.63695">
        <ele>582.8</ele>
        <time>2010-10-30T11:12:23Z</time>
      </trkpt>
      <trkpt lat="45.07542" lon="5.63695">
        <ele>583.2</ele>
        <time>2010-10-30T11:12:24Z</time>
      </trkpt>
      <trkpt lat="45.07546" lon="5.63696">
        <ele>584.6</ele>
        <time>2010-10-30T11:12:29Z</time>
      </trkpt>
      <trkpt lat="45.07547" lon="5.63696">
        <ele>585</ele>
        <time>2010-10-30T11:12:31Z</time>
      </trkpt>
      <trkpt lat="45.0755" lon="5.63699">
        <ele>586.4</ele>
        <time>2010-10-30T11:12:36Z</time>
      </trkpt>
      <trkpt lat="45.07553" lon="5.63702">
        <ele>587.6</ele>
        <time>2010-10-30T11:12:41Z</time>
      </trkpt>
      <trkpt lat="45.07556" lon="5.63701">
        <ele>588.6</ele>
        <time>2010-10-30T11:12:47Z</time>
      </trkpt>
      <trkpt lat="45.07556" lon="5.63699">
        <ele>589.6</ele>
        <time>2010-10-30T11:12:53Z</time>
      </trkpt>
      <trkpt lat="45.07557" lon="5.63701">
        <ele>593.6</ele>
        <time>2010-10-30T11:13:36Z</time>
      </trkpt>
      <trkpt lat="45.07558" lon="5.63696">
        <ele>593.8</ele>
        <time>2010-10-30T11:13:40Z</time>
      </trkpt>
      <trkpt lat="45.07559" lon="5.63693">
        <ele>594.2</ele>
        <time>2010-10-30T11:13:44Z</time>
      </trkpt>
      <trkpt lat="45.07559" lon="5.63692">
        <ele>594.4</ele>
        <time>2010-10-30T11:13:45Z</time>
      </trkpt>
      <trkpt lat="45.07559" lon="5.6369">
        <ele>594.8</ele>
        <time>2010-10-30T11:13:48Z</time>
      </trkpt>
      <trkpt lat="45.0756" lon="5.63685">
        <ele>595.6</ele>
        <time>2010-10-30T11:13:54Z</time>
      </trkpt>
      <trkpt lat="45.0756" lon="5.63679">
        <ele>596.2</ele>
        <time>2010-10-30T11:13:57Z</time>
      </trkpt>
      <trkpt lat="45.07561" lon="5.63676">
        <ele>596.6</ele>
        <time>2010-10-30T11:14:01Z</time>
      </trkpt>
      <trkpt lat="45.07562" lon="5.63676">
        <ele>596.8</ele>
        <time>2010-10-30T11:14:02Z</time>
      </trkpt>
      <trkpt lat="45.07563" lon="5.63674">
        <ele>597</ele>
        <time>2010-10-30T11:14:05Z</time>
      </trkpt>
      <trkpt lat="45.07563" lon="5.63673">
        <ele>597.2</ele>
        <time>2010-10-30T11:14:06Z</time>
      </trkpt>
      <trkpt lat="45.07565" lon="5.63669">
        <ele>597.8</ele>
        <time>2010-10-30T11:14:11Z</time>
      </trkpt>
      <trkpt lat="45.07567" lon="5.63664">
        <ele>598.4</ele>
        <time>2010-10-30T11:14:16Z</time>
      </trkpt>
      <trkpt lat="45.07568" lon="5.63661">
        <ele>598.8</ele>
        <time>2010-10-30T11:14:20Z</time>
      </trkpt>
      <trkpt lat="45.07569" lon="5.63658">
        <ele>599.4</ele>
        <time>2010-10-30T11:14:24Z</time>
      </trkpt>
      <trkpt lat="45.0757" lon="5.63654">
        <ele>600.4</ele>
        <time>2010-10-30T11:14:29Z</time>
      </trkpt>
      <trkpt lat="45.0757" lon="5.63651">
        <ele>601</ele>
        <time>2010-10-30T11:14:33Z</time>
      </trkpt>
      <trkpt lat="45.07571" lon="5.63647">
        <ele>602</ele>
        <time>2010-10-30T11:14:38Z</time>
      </trkpt>
      <trkpt lat="45.07571" lon="5.63643">
        <ele>603</ele>
        <time>2010-10-30T11:14:43Z</time>
      </trkpt>
      <trkpt lat="45.07571" lon="5.63638">
        <ele>603.8</ele>
        <time>2010-10-30T11:14:48Z</time>
      </trkpt>
      <trkpt lat="45.07571" lon="5.63634">
        <ele>604.6</ele>
        <time>2010-10-30T11:14:52Z</time>
      </trkpt>
      <trkpt lat="45.07571" lon="5.63631">
        <ele>605.4</ele>
        <time>2010-10-30T11:14:56Z</time>
      </trkpt>
      <trkpt lat="45.07571" lon="5.6363">
        <ele>606</ele>
        <time>2010-10-30T11:14:58Z</time>
      </trkpt>
      <trkpt lat="45.07572" lon="5.63628">
        <ele>606.8</ele>
        <time>2010-10-30T11:15:01Z</time>
      </trkpt>
      <trkpt lat="45.07573" lon="5.63624">
        <ele>607.6</ele>
        <time>2010-10-30T11:15:05Z</time>
      </trkpt>
      <trkpt lat="45.07574" lon="5.63621">
        <ele>608.8</ele>
        <time>2010-10-30T11:15:09Z</time>
      </trkpt>
      <trkpt lat="45.07573" lon="5.63616">
        <ele>609.8</ele>
        <time>2010-10-30T11:15:13Z</time>
      </trkpt>
      <trkpt lat="45.07572" lon="5.63609">
        <ele>611.4</ele>
        <time>2010-10-30T11:15:19Z</time>
      </trkpt>
      <trkpt lat="45.07571" lon="5.63605">
        <ele>612.4</ele>
        <time>2010-10-30T11:15:23Z</time>
      </trkpt>
      <trkpt lat="45.07571" lon="5.63604">
        <ele>613</ele>
        <time>2010-10-30T11:15:25Z</time>
      </trkpt>
      <trkpt lat="45.0757" lon="5.63599">
        <ele>614.2</ele>
        <time>2010-10-30T11:15:30Z</time>
      </trkpt>
      <trkpt lat="45.07569" lon="5.63595">
        <ele>615.2</ele>
        <time>2010-10-30T11:15:34Z</time>
      </trkpt>
      <trkpt lat="45.07568" lon="5.63594">
        <ele>615.4</ele>
        <time>2010-10-30T11:15:35Z</time>
      </trkpt>
      <trkpt lat="45.07568" lon="5.63593">
        <ele>615.8</ele>
        <time>2010-10-30T11:15:36Z</time>
      </trkpt>
      <trkpt lat="45.07567" lon="5.63588">
        <ele>616.6</ele>
        <time>2010-10-30T11:15:40Z</time>
      </trkpt>
      <trkpt lat="45.07566" lon="5.63581">
        <ele>618</ele>
        <time>2010-10-30T11:15:46Z</time>
      </trkpt>
      <trkpt lat="45.07567" lon="5.63575">
        <ele>618.4</ele>
        <time>2010-10-30T11:15:50Z</time>
      </trkpt>
      <trkpt lat="45.07567" lon="5.6357">
        <ele>619.4</ele>
        <time>2010-10-30T11:15:54Z</time>
      </trkpt>
      <trkpt lat="45.07567" lon="5.63569">
        <ele>619.6</ele>
        <time>2010-10-30T11:15:55Z</time>
      </trkpt>
      <trkpt lat="45.07568" lon="5.63566">
        <ele>620.2</ele>
        <time>2010-10-30T11:15:58Z</time>
      </trkpt>
      <trkpt lat="45.07569" lon="5.63563">
        <ele>620.8</ele>
        <time>2010-10-30T11:16:00Z</time>
      </trkpt>
      <trkpt lat="45.0757" lon="5.63561">
        <ele>621.2</ele>
        <time>2010-10-30T11:16:02Z</time>
      </trkpt>
      <trkpt lat="45.0757" lon="5.63557">
        <ele>622</ele>
        <time>2010-10-30T11:16:06Z</time>
      </trkpt>
      <trkpt lat="45.07571" lon="5.63556">
        <ele>622.4</ele>
        <time>2010-10-30T11:16:07Z</time>
      </trkpt>
      <trkpt lat="45.07572" lon="5.63553">
        <ele>623.2</ele>
        <time>2010-10-30T11:16:10Z</time>
      </trkpt>
      <trkpt lat="45.07571" lon="5.6355">
        <ele>624.4</ele>
        <time>2010-10-30T11:16:14Z</time>
      </trkpt>
      <trkpt lat="45.07571" lon="5.63545">
        <ele>625.6</ele>
        <time>2010-10-30T11:16:18Z</time>
      </trkpt>
      <trkpt lat="45.0757" lon="5.63541">
        <ele>627</ele>
        <time>2010-10-30T11:16:23Z</time>
      </trkpt>
      <trkpt lat="45.07569" lon="5.63536">
        <ele>628.2</ele>
        <time>2010-10-30T11:16:28Z</time>
      </trkpt>
      <trkpt lat="45.07569" lon="5.63534">
        <ele>628.6</ele>
        <time>2010-10-30T11:16:30Z</time>
      </trkpt>
      <trkpt lat="45.0757" lon="5.63531">
        <ele>629.4</ele>
        <time>2010-10-30T11:16:33Z</time>
      </trkpt>
      <trkpt lat="45.0757" lon="5.63528">
        <ele>629.8</ele>
        <time>2010-10-30T11:16:35Z</time>
      </trkpt>
      <trkpt lat="45.07573" lon="5.63524">
        <ele>631</ele>
        <time>2010-10-30T11:16:40Z</time>
      </trkpt>
      <trkpt lat="45.07576" lon="5.63518">
        <ele>632.4</ele>
        <time>2010-10-30T11:16:46Z</time>
      </trkpt>
      <trkpt lat="45.07577" lon="5.63516">
        <ele>632.6</ele>
        <time>2010-10-30T11:16:48Z</time>
      </trkpt>
      <trkpt lat="45.07578" lon="5.63513">
        <ele>633.2</ele>
        <time>2010-10-30T11:16:51Z</time>
      </trkpt>
      <trkpt lat="45.07579" lon="5.6351">
        <ele>633.8</ele>
        <time>2010-10-30T11:16:54Z</time>
      </trkpt>
      <trkpt lat="45.07579" lon="5.63507">
        <ele>634.2</ele>
        <time>2010-10-30T11:16:56Z</time>
      </trkpt>
      <trkpt lat="45.07581" lon="5.635">
        <ele>635.4</ele>
        <time>2010-10-30T11:17:03Z</time>
      </trkpt>
      <trkpt lat="45.07581" lon="5.63493">
        <ele>636.8</ele>
        <time>2010-10-30T11:17:09Z</time>
      </trkpt>
      <trkpt lat="45.0758" lon="5.63487">
        <ele>638</ele>
        <time>2010-10-30T11:17:14Z</time>
      </trkpt>
      <trkpt lat="45.0758" lon="5.63487">
        <ele>638.2</ele>
        <time>2010-10-30T11:17:15Z</time>
      </trkpt>
      <trkpt lat="45.0758" lon="5.63485">
        <ele>638.8</ele>
        <time>2010-10-30T11:17:17Z</time>
      </trkpt>
      <trkpt lat="45.0758" lon="5.63484">
        <ele>639</ele>
        <time>2010-10-30T11:17:18Z</time>
      </trkpt>
      <trkpt lat="45.07584" lon="5.63476">
        <ele>640</ele>
        <time>2010-10-30T11:17:24Z</time>
      </trkpt>
      <trkpt lat="45.07587" lon="5.63471">
        <ele>641.2</ele>
        <time>2010-10-30T11:17:30Z</time>
      </trkpt>
      <trkpt lat="45.07589" lon="5.63467">
        <ele>642.2</ele>
        <time>2010-10-30T11:17:35Z</time>
      </trkpt>
      <trkpt lat="45.07589" lon="5.63464">
        <ele>643.2</ele>
        <time>2010-10-30T11:17:39Z</time>
      </trkpt>
      <trkpt lat="45.07589" lon="5.63463">
        <ele>643.4</ele>
        <time>2010-10-30T11:17:40Z</time>
      </trkpt>
      <trkpt lat="45.0759" lon="5.63457">
        <ele>644.8</ele>
        <time>2010-10-30T11:17:45Z</time>
      </trkpt>
      <trkpt lat="45.07592" lon="5.63452">
        <ele>645.8</ele>
        <time>2010-10-30T11:17:50Z</time>
      </trkpt>
      <trkpt lat="45.07591" lon="5.6345">
        <ele>646.2</ele>
        <time>2010-10-30T11:17:51Z</time>
      </trkpt>
      <trkpt lat="45.07592" lon="5.63445">
        <ele>647</ele>
        <time>2010-10-30T11:17:55Z</time>
      </trkpt>
      <trkpt lat="45.07592" lon="5.63439">
        <ele>647.8</ele>
        <time>2010-10-30T11:17:59Z</time>
      </trkpt>
      <trkpt lat="45.07592" lon="5.63436">
        <ele>648.4</ele>
        <time>2010-10-30T11:18:01Z</time>
      </trkpt>
      <trkpt lat="45.07594" lon="5.63431">
        <ele>649.2</ele>
        <time>2010-10-30T11:18:05Z</time>
      </trkpt>
      <trkpt lat="45.07595" lon="5.6343">
        <ele>649.4</ele>
        <time>2010-10-30T11:18:06Z</time>
      </trkpt>
      <trkpt lat="45.07596" lon="5.63423">
        <ele>650.2</ele>
        <time>2010-10-30T11:18:11Z</time>
      </trkpt>
      <trkpt lat="45.07595" lon="5.63421">
        <ele>650.8</ele>
        <time>2010-10-30T11:18:13Z</time>
      </trkpt>
      <trkpt lat="45.07595" lon="5.63418">
        <ele>651.2</ele>
        <time>2010-10-30T11:18:15Z</time>
      </trkpt>
      <trkpt lat="45.07596" lon="5.63415">
        <ele>651.8</ele>
        <time>2010-10-30T11:18:18Z</time>
      </trkpt>
      <trkpt lat="45.07596" lon="5.63414">
        <ele>652.2</ele>
        <time>2010-10-30T11:18:19Z</time>
      </trkpt>
      <trkpt lat="45.07597" lon="5.63413">
        <ele>652.2</ele>
        <time>2010-10-30T11:18:20Z</time>
      </trkpt>
      <trkpt lat="45.07598" lon="5.63409">
        <ele>653.2</ele>
        <time>2010-10-30T11:18:24Z</time>
      </trkpt>
      <trkpt lat="45.076" lon="5.63405">
        <ele>654</ele>
        <time>2010-10-30T11:18:28Z</time>
      </trkpt>
      <trkpt lat="45.07602" lon="5.63401">
        <ele>655</ele>
        <time>2010-10-30T11:18:33Z</time>
      </trkpt>
      <trkpt lat="45.07605" lon="5.63398">
        <ele>656</ele>
        <time>2010-10-30T11:18:38Z</time>
      </trkpt>
      <trkpt lat="45.07608" lon="5.63399">
        <ele>656.2</ele>
        <time>2010-10-30T11:18:41Z</time>
      </trkpt>
      <trkpt lat="45.07609" lon="5.63399">
        <ele>656.4</ele>
        <time>2010-10-30T11:18:42Z</time>
      </trkpt>
      <trkpt lat="45.07611" lon="5.634">
        <ele>657</ele>
        <time>2010-10-30T11:18:48Z</time>
      </trkpt>
      <trkpt lat="45.07615" lon="5.63401">
        <ele>657.6</ele>
        <time>2010-10-30T11:18:53Z</time>
      </trkpt>
      <trkpt lat="45.07618" lon="5.634">
        <ele>658.4</ele>
        <time>2010-10-30T11:18:58Z</time>
      </trkpt>
      <trkpt lat="45.0762" lon="5.63397">
        <ele>659.8</ele>
        <time>2010-10-30T11:19:03Z</time>
      </trkpt>
      <trkpt lat="45.07622" lon="5.63392">
        <ele>661</ele>
        <time>2010-10-30T11:19:08Z</time>
      </trkpt>
      <trkpt lat="45.07624" lon="5.6339">
        <ele>662</ele>
        <time>2010-10-30T11:19:11Z</time>
      </trkpt>
      <trkpt lat="45.07625" lon="5.6339">
        <ele>662.2</ele>
        <time>2010-10-30T11:19:12Z</time>
      </trkpt>
      <trkpt lat="45.07626" lon="5.6339">
        <ele>662.6</ele>
        <time>2010-10-30T11:19:13Z</time>
      </trkpt>
      <trkpt lat="45.0763" lon="5.63392">
        <ele>664.2</ele>
        <time>2010-10-30T11:19:18Z</time>
      </trkpt>
      <trkpt lat="45.07631" lon="5.63394">
        <ele>665</ele>
        <time>2010-10-30T11:19:20Z</time>
      </trkpt>
      <trkpt lat="45.07632" lon="5.63395">
        <ele>666</ele>
        <time>2010-10-30T11:19:22Z</time>
      </trkpt>
      <trkpt lat="45.07634" lon="5.63399">
        <ele>668.2</ele>
        <time>2010-10-30T11:19:28Z</time>
      </trkpt>
      <trkpt lat="45.07635" lon="5.63402">
        <ele>669.8</ele>
        <time>2010-10-30T11:19:33Z</time>
      </trkpt>
      <trkpt lat="45.07637" lon="5.63406">
        <ele>671.4</ele>
        <time>2010-10-30T11:19:38Z</time>
      </trkpt>
      <trkpt lat="45.07639" lon="5.63408">
        <ele>672.8</ele>
        <time>2010-10-30T11:19:43Z</time>
      </trkpt>
      <trkpt lat="45.07642" lon="5.63412">
        <ele>674</ele>
        <time>2010-10-30T11:19:48Z</time>
      </trkpt>
      <trkpt lat="45.07643" lon="5.63416">
        <ele>675.2</ele>
        <time>2010-10-30T11:19:52Z</time>
      </trkpt>
      <trkpt lat="45.07646" lon="5.63419">
        <ele>676.4</ele>
        <time>2010-10-30T11:19:58Z</time>
      </trkpt>
      <trkpt lat="45.07649" lon="5.63421">
        <ele>677.8</ele>
        <time>2010-10-30T11:20:03Z</time>
      </trkpt>
      <trkpt lat="45.0765" lon="5.63423">
        <ele>678.4</ele>
        <time>2010-10-30T11:20:05Z</time>
      </trkpt>
      <trkpt lat="45.07652" lon="5.63426">
        <ele>679</ele>
        <time>2010-10-30T11:20:08Z</time>
      </trkpt>
      <trkpt lat="45.07654" lon="5.63428">
        <ele>680</ele>
        <time>2010-10-30T11:20:12Z</time>
      </trkpt>
      <trkpt lat="45.07656" lon="5.63428">
        <ele>681.2</ele>
        <time>2010-10-30T11:20:17Z</time>
      </trkpt>
      <trkpt lat="45.07657" lon="5.63424">
        <ele>682.2</ele>
        <time>2010-10-30T11:20:22Z</time>
      </trkpt>
      <trkpt lat="45.07658" lon="5.63419">
        <ele>683.4</ele>
        <time>2010-10-30T11:20:28Z</time>
      </trkpt>
      <trkpt lat="45.07661" lon="5.6342">
        <ele>684.2</ele>
        <time>2010-10-30T11:20:32Z</time>
      </trkpt>
      <trkpt lat="45.07661" lon="5.6342">
        <ele>684.6</ele>
        <time>2010-10-30T11:20:33Z</time>
      </trkpt>
      <trkpt lat="45.07663" lon="5.63423">
        <ele>685.2</ele>
        <time>2010-10-30T11:20:36Z</time>
      </trkpt>
      <trkpt lat="45.07664" lon="5.63428">
        <ele>686.6</ele>
        <time>2010-10-30T11:20:42Z</time>
      </trkpt>
      <trkpt lat="45.07667" lon="5.63432">
        <ele>688.2</ele>
        <time>2010-10-30T11:20:48Z</time>
      </trkpt>
      <trkpt lat="45.07667" lon="5.63435">
        <ele>690</ele>
        <time>2010-10-30T11:20:53Z</time>
      </trkpt>
      <trkpt lat="45.07669" lon="5.63436">
        <ele>691.4</ele>
        <time>2010-10-30T11:20:57Z</time>
      </trkpt>
      <trkpt lat="45.07671" lon="5.63435">
        <ele>692.6</ele>
        <time>2010-10-30T11:21:01Z</time>
      </trkpt>
      <trkpt lat="45.07673" lon="5.63433">
        <ele>693.4</ele>
        <time>2010-10-30T11:21:04Z</time>
      </trkpt>
      <trkpt lat="45.07675" lon="5.63432">
        <ele>693.8</ele>
        <time>2010-10-30T11:21:06Z</time>
      </trkpt>
      <trkpt lat="45.07678" lon="5.63436">
        <ele>695.2</ele>
        <time>2010-10-30T11:21:11Z</time>
      </trkpt>
      <trkpt lat="45.07679" lon="5.63438">
        <ele>695.6</ele>
        <time>2010-10-30T11:21:13Z</time>
      </trkpt>
      <trkpt lat="45.0768" lon="5.6344">
        <ele>696</ele>
        <time>2010-10-30T11:21:15Z</time>
      </trkpt>
      <trkpt lat="45.07681" lon="5.63441">
        <ele>696.4</ele>
        <time>2010-10-30T11:21:17Z</time>
      </trkpt>
      <trkpt lat="45.07683" lon="5.63443">
        <ele>697.4</ele>
        <time>2010-10-30T11:21:22Z</time>
      </trkpt>
      <trkpt lat="45.07684" lon="5.63447">
        <ele>698.4</ele>
        <time>2010-10-30T11:21:27Z</time>
      </trkpt>
      <trkpt lat="45.07685" lon="5.63451">
        <ele>699.2</ele>
        <time>2010-10-30T11:21:31Z</time>
      </trkpt>
      <trkpt lat="45.07686" lon="5.63454">
        <ele>700</ele>
        <time>2010-10-30T11:21:34Z</time>
      </trkpt>
      <trkpt lat="45.07685" lon="5.6346">
        <ele>706.4</ele>
        <time>2010-10-30T11:22:16Z</time>
      </trkpt>
      <trkpt lat="45.0769" lon="5.63463">
        <ele>706.2</ele>
        <time>2010-10-30T11:22:27Z</time>
      </trkpt>
      <trkpt lat="45.07691" lon="5.63463">
        <ele>706.2</ele>
        <time>2010-10-30T11:22:28Z</time>
      </trkpt>
      <trkpt lat="45.07693" lon="5.63468">
        <ele>706.6</ele>
        <time>2010-10-30T11:22:33Z</time>
      </trkpt>
      <trkpt lat="45.07696" lon="5.63472">
        <ele>707</ele>
        <time>2010-10-30T11:22:38Z</time>
      </trkpt>
      <trkpt lat="45.07698" lon="5.63475">
        <ele>707.8</ele>
        <time>2010-10-30T11:22:42Z</time>
      </trkpt>
      <trkpt lat="45.077" lon="5.63479">
        <ele>709.4</ele>
        <time>2010-10-30T11:22:48Z</time>
      </trkpt>
      <trkpt lat="45.07703" lon="5.63482">
        <ele>710.8</ele>
        <time>2010-10-30T11:22:54Z</time>
      </trkpt>
      <trkpt lat="45.07706" lon="5.63486">
        <ele>712</ele>
        <time>2010-10-30T11:22:59Z</time>
      </trkpt>
      <trkpt lat="45.07708" lon="5.63489">
        <ele>713</ele>
        <time>2010-10-30T11:23:03Z</time>
      </trkpt>
      <trkpt lat="45.07709" lon="5.63493">
        <ele>714.2</ele>
        <time>2010-10-30T11:23:08Z</time>
      </trkpt>
      <trkpt lat="45.0771" lon="5.63496">
        <ele>715.2</ele>
        <time>2010-10-30T11:23:12Z</time>
      </trkpt>
      <trkpt lat="45.07714" lon="5.63497">
        <ele>717</ele>
        <time>2010-10-30T11:23:18Z</time>
      </trkpt>
      <trkpt lat="45.07717" lon="5.63495">
        <ele>718.6</ele>
        <time>2010-10-30T11:23:24Z</time>
      </trkpt>
      <trkpt lat="45.07717" lon="5.63495">
        <ele>719</ele>
        <time>2010-10-30T11:23:25Z</time>
      </trkpt>
      <trkpt lat="45.07719" lon="5.63492">
        <ele>721</ele>
        <time>2010-10-30T11:23:32Z</time>
      </trkpt>
      <trkpt lat="45.07721" lon="5.6349">
        <ele>722.2</ele>
        <time>2010-10-30T11:23:37Z</time>
      </trkpt>
      <trkpt lat="45.07723" lon="5.63492">
        <ele>723.2</ele>
        <time>2010-10-30T11:23:41Z</time>
      </trkpt>
      <trkpt lat="45.07725" lon="5.63496">
        <ele>724.4</ele>
        <time>2010-10-30T11:23:46Z</time>
      </trkpt>
      <trkpt lat="45.07725" lon="5.63499">
        <ele>725.8</ele>
        <time>2010-10-30T11:23:51Z</time>
      </trkpt>
      <trkpt lat="45.07725" lon="5.63504">
        <ele>727.4</ele>
        <time>2010-10-30T11:23:56Z</time>
      </trkpt>
      <trkpt lat="45.07724" lon="5.63505">
        <ele>727.8</ele>
        <time>2010-10-30T11:23:57Z</time>
      </trkpt>
      <trkpt lat="45.07724" lon="5.63512">
        <ele>730</ele>
        <time>2010-10-30T11:24:04Z</time>
      </trkpt>
      <trkpt lat="45.07722" lon="5.63518">
        <ele>731.8</ele>
        <time>2010-10-30T11:24:10Z</time>
      </trkpt>
      <trkpt lat="45.07723" lon="5.63522">
        <ele>733</ele>
        <time>2010-10-30T11:24:14Z</time>
      </trkpt>
      <trkpt lat="45.07724" lon="5.63525">
        <ele>733.6</ele>
        <time>2010-10-30T11:24:16Z</time>
      </trkpt>
      <trkpt lat="45.07727" lon="5.63526">
        <ele>734.6</ele>
        <time>2010-10-30T11:24:20Z</time>
      </trkpt>
      <trkpt lat="45.07728" lon="5.63526">
        <ele>734.8</ele>
        <time>2010-10-30T11:24:21Z</time>
      </trkpt>
      <trkpt lat="45.07729" lon="5.63526">
        <ele>735.4</ele>
        <time>2010-10-30T11:24:23Z</time>
      </trkpt>
      <trkpt lat="45.07731" lon="5.63527">
        <ele>736</ele>
        <time>2010-10-30T11:24:26Z</time>
      </trkpt>
      <trkpt lat="45.07732" lon="5.63527">
        <ele>737.2</ele>
        <time>2010-10-30T11:24:31Z</time>
      </trkpt>
      <trkpt lat="45.07736" lon="5.63528">
        <ele>738.2</ele>
        <time>2010-10-30T11:24:36Z</time>
      </trkpt>
      <trkpt lat="45.07738" lon="5.63524">
        <ele>739.2</ele>
        <time>2010-10-30T11:24:41Z</time>
      </trkpt>
      <trkpt lat="45.07738" lon="5.63521">
        <ele>739.8</ele>
        <time>2010-10-30T11:24:45Z</time>
      </trkpt>
      <trkpt lat="45.07739" lon="5.63516">
        <ele>740.2</ele>
        <time>2010-10-30T11:24:49Z</time>
      </trkpt>
      <trkpt lat="45.07739" lon="5.63515">
        <ele>740.4</ele>
        <time>2010-10-30T11:24:50Z</time>
      </trkpt>
      <trkpt lat="45.07742" lon="5.63509">
        <ele>740.8</ele>
        <time>2010-10-30T11:24:55Z</time>
      </trkpt>
      <trkpt lat="45.07743" lon="5.63503">
        <ele>741.4</ele>
        <time>2010-10-30T11:25:00Z</time>
      </trkpt>
      <trkpt lat="45.07744" lon="5.63501">
        <ele>741.6</ele>
        <time>2010-10-30T11:25:02Z</time>
      </trkpt>
      <trkpt lat="45.07747" lon="5.63495">
        <ele>742.2</ele>
        <time>2010-10-30T11:25:06Z</time>
      </trkpt>
      <trkpt lat="45.07748" lon="5.63493">
        <ele>742.4</ele>
        <time>2010-10-30T11:25:07Z</time>
      </trkpt>
      <trkpt lat="45.07749" lon="5.6349">
        <ele>742.8</ele>
        <time>2010-10-30T11:25:10Z</time>
      </trkpt>
      <trkpt lat="45.0775" lon="5.63486">
        <ele>743.8</ele>
        <time>2010-10-30T11:25:16Z</time>
      </trkpt>
      <trkpt lat="45.0775" lon="5.63481">
        <ele>745</ele>
        <time>2010-10-30T11:25:22Z</time>
      </trkpt>
      <trkpt lat="45.07751" lon="5.63476">
        <ele>746.2</ele>
        <time>2010-10-30T11:25:27Z</time>
      </trkpt>
      <trkpt lat="45.0775" lon="5.63473">
        <ele>747.8</ele>
        <time>2010-10-30T11:25:32Z</time>
      </trkpt>
      <trkpt lat="45.0775" lon="5.63468">
        <ele>749</ele>
        <time>2010-10-30T11:25:36Z</time>
      </trkpt>
      <trkpt lat="45.0775" lon="5.63467">
        <ele>749.2</ele>
        <time>2010-10-30T11:25:37Z</time>
      </trkpt>
      <trkpt lat="45.07751" lon="5.63462">
        <ele>750.4</ele>
        <time>2010-10-30T11:25:42Z</time>
      </trkpt>
      <trkpt lat="45.07752" lon="5.63458">
        <ele>751.2</ele>
        <time>2010-10-30T11:25:45Z</time>
      </trkpt>
      <trkpt lat="45.07754" lon="5.63457">
        <ele>751.8</ele>
        <time>2010-10-30T11:25:47Z</time>
      </trkpt>
      <trkpt lat="45.07755" lon="5.63458">
        <ele>752.2</ele>
        <time>2010-10-30T11:25:49Z</time>
      </trkpt>
      <trkpt lat="45.07756" lon="5.63459">
        <ele>753</ele>
        <time>2010-10-30T11:25:52Z</time>
      </trkpt>
      <trkpt lat="45.07758" lon="5.63464">
        <ele>754.6</ele>
        <time>2010-10-30T11:25:57Z</time>
      </trkpt>
      <trkpt lat="45.0776" lon="5.63465">
        <ele>755.2</ele>
        <time>2010-10-30T11:25:59Z</time>
      </trkpt>
      <trkpt lat="45.07762" lon="5.63467">
        <ele>756</ele>
        <time>2010-10-30T11:26:02Z</time>
      </trkpt>
      <trkpt lat="45.07764" lon="5.63472">
        <ele>758</ele>
        <time>2010-10-30T11:26:08Z</time>
      </trkpt>
      <trkpt lat="45.07765" lon="5.63476">
        <ele>759.4</ele>
        <time>2010-10-30T11:26:12Z</time>
      </trkpt>
      <trkpt lat="45.07766" lon="5.63476">
        <ele>759.8</ele>
        <time>2010-10-30T11:26:13Z</time>
      </trkpt>
      <trkpt lat="45.0777" lon="5.63477">
        <ele>761.2</ele>
        <time>2010-10-30T11:26:18Z</time>
      </trkpt>
      <trkpt lat="45.07773" lon="5.63478">
        <ele>762.6</ele>
        <time>2010-10-30T11:26:24Z</time>
      </trkpt>
      <trkpt lat="45.07774" lon="5.63478">
        <ele>763</ele>
        <time>2010-10-30T11:26:25Z</time>
      </trkpt>
      <trkpt lat="45.07777" lon="5.63478">
        <ele>764.2</ele>
        <time>2010-10-30T11:26:30Z</time>
      </trkpt>
      <trkpt lat="45.0778" lon="5.6348">
        <ele>765.6</ele>
        <time>2010-10-30T11:26:35Z</time>
      </trkpt>
      <trkpt lat="45.07781" lon="5.63478">
        <ele>766.4</ele>
        <time>2010-10-30T11:26:38Z</time>
      </trkpt>
      <trkpt lat="45.07781" lon="5.63477">
        <ele>766.8</ele>
        <time>2010-10-30T11:26:39Z</time>
      </trkpt>
      <trkpt lat="45.0778" lon="5.63474">
        <ele>768.4</ele>
        <time>2010-10-30T11:26:45Z</time>
      </trkpt>
      <trkpt lat="45.07781" lon="5.63471">
        <ele>769.4</ele>
        <time>2010-10-30T11:26:49Z</time>
      </trkpt>
      <trkpt lat="45.07781" lon="5.63467">
        <ele>770.8</ele>
        <time>2010-10-30T11:26:54Z</time>
      </trkpt>
      <trkpt lat="45.07781" lon="5.63465">
        <ele>771.6</ele>
        <time>2010-10-30T11:26:57Z</time>
      </trkpt>
      <trkpt lat="45.0778" lon="5.63462">
        <ele>772.2</ele>
        <time>2010-10-30T11:26:59Z</time>
      </trkpt>
      <trkpt lat="45.07779" lon="5.6346">
        <ele>773</ele>
        <time>2010-10-30T11:27:03Z</time>
      </trkpt>
      <trkpt lat="45.0778" lon="5.63455">
        <ele>774</ele>
        <time>2010-10-30T11:27:07Z</time>
      </trkpt>
      <trkpt lat="45.07781" lon="5.63449">
        <ele>775</ele>
        <time>2010-10-30T11:27:12Z</time>
      </trkpt>
      <trkpt lat="45.07782" lon="5.63445">
        <ele>776</ele>
        <time>2010-10-30T11:27:17Z</time>
      </trkpt>
      <trkpt lat="45.07782" lon="5.63443">
        <ele>776.2</ele>
        <time>2010-10-30T11:27:18Z</time>
      </trkpt>
      <trkpt lat="45.07782" lon="5.6344">
        <ele>776.8</ele>
        <time>2010-10-30T11:27:21Z</time>
      </trkpt>
      <trkpt lat="45.07784" lon="5.63435">
        <ele>778</ele>
        <time>2010-10-30T11:27:26Z</time>
      </trkpt>
      <trkpt lat="45.07785" lon="5.63432">
        <ele>778.6</ele>
        <time>2010-10-30T11:27:29Z</time>
      </trkpt>
      <trkpt lat="45.07785" lon="5.63431">
        <ele>778.8</ele>
        <time>2010-10-30T11:27:30Z</time>
      </trkpt>
      <trkpt lat="45.07786" lon="5.63429">
        <ele>779.2</ele>
        <time>2010-10-30T11:27:32Z</time>
      </trkpt>
      <trkpt lat="45.07788" lon="5.63424">
        <ele>780.2</ele>
        <time>2010-10-30T11:27:36Z</time>
      </trkpt>
      <trkpt lat="45.07788" lon="5.63423">
        <ele>780.4</ele>
        <time>2010-10-30T11:27:37Z</time>
      </trkpt>
      <trkpt lat="45.07788" lon="5.63417">
        <ele>781.6</ele>
        <time>2010-10-30T11:27:42Z</time>
      </trkpt>
      <trkpt lat="45.07789" lon="5.63416">
        <ele>781.8</ele>
        <time>2010-10-30T11:27:43Z</time>
      </trkpt>
      <trkpt lat="45.07791" lon="5.63413">
        <ele>782.4</ele>
        <time>2010-10-30T11:27:46Z</time>
      </trkpt>
      <trkpt lat="45.07793" lon="5.63411">
        <ele>783</ele>
        <time>2010-10-30T11:27:49Z</time>
      </trkpt>
      <trkpt lat="45.07796" lon="5.63408">
        <ele>784</ele>
        <time>2010-10-30T11:27:53Z</time>
      </trkpt>
      <trkpt lat="45.07797" lon="5.63405">
        <ele>784.4</ele>
        <time>2010-10-30T11:27:56Z</time>
      </trkpt>
      <trkpt lat="45.07799" lon="5.63404">
        <ele>784.8</ele>
        <time>2010-10-30T11:27:58Z</time>
      </trkpt>
      <trkpt lat="45.07803" lon="5.63403">
        <ele>785.6</ele>
        <time>2010-10-30T11:28:02Z</time>
      </trkpt>
      <trkpt lat="45.07806" lon="5.634">
        <ele>786.4</ele>
        <time>2010-10-30T11:28:06Z</time>
      </trkpt>
      <trkpt lat="45.07807" lon="5.63399">
        <ele>786.6</ele>
        <time>2010-10-30T11:28:07Z</time>
      </trkpt>
      <trkpt lat="45.07808" lon="5.63399">
        <ele>787</ele>
        <time>2010-10-30T11:28:09Z</time>
      </trkpt>
      <trkpt lat="45.07808" lon="5.63398">
        <ele>787.2</ele>
        <time>2010-10-30T11:28:10Z</time>
      </trkpt>
      <trkpt lat="45.07809" lon="5.63396">
        <ele>788</ele>
        <time>2010-10-30T11:28:13Z</time>
      </trkpt>
      <trkpt lat="45.0781" lon="5.63395">
        <ele>788.4</ele>
        <time>2010-10-30T11:28:14Z</time>
      </trkpt>
      <trkpt lat="45.07811" lon="5.63392">
        <ele>789.4</ele>
        <time>2010-10-30T11:28:18Z</time>
      </trkpt>
      <trkpt lat="45.07813" lon="5.63389">
        <ele>790.2</ele>
        <time>2010-10-30T11:28:22Z</time>
      </trkpt>
      <trkpt lat="45.07812" lon="5.63386">
        <ele>791.6</ele>
        <time>2010-10-30T11:28:26Z</time>
      </trkpt>
      <trkpt lat="45.07813" lon="5.63385">
        <ele>792.2</ele>
        <time>2010-10-30T11:28:28Z</time>
      </trkpt>
      <trkpt lat="45.07816" lon="5.63386">
        <ele>793</ele>
        <time>2010-10-30T11:28:31Z</time>
      </trkpt>
      <trkpt lat="45.07819" lon="5.63387">
        <ele>794.6</ele>
        <time>2010-10-30T11:28:36Z</time>
      </trkpt>
      <trkpt lat="45.07819" lon="5.63389">
        <ele>795.8</ele>
        <time>2010-10-30T11:28:40Z</time>
      </trkpt>
      <trkpt lat="45.07821" lon="5.63394">
        <ele>797.4</ele>
        <time>2010-10-30T11:28:45Z</time>
      </trkpt>
      <trkpt lat="45.07822" lon="5.63397">
        <ele>798.4</ele>
        <time>2010-10-30T11:28:48Z</time>
      </trkpt>
      <trkpt lat="45.07825" lon="5.634">
        <ele>799.8</ele>
        <time>2010-10-30T11:28:53Z</time>
      </trkpt>
      <trkpt lat="45.07825" lon="5.63401">
        <ele>800.2</ele>
        <time>2010-10-30T11:28:54Z</time>
      </trkpt>
      <trkpt lat="45.07825" lon="5.63403">
        <ele>800.8</ele>
        <time>2010-10-30T11:28:56Z</time>
      </trkpt>
      <trkpt lat="45.07824" lon="5.63405">
        <ele>801.4</ele>
        <time>2010-10-30T11:28:58Z</time>
      </trkpt>
      <trkpt lat="45.07822" lon="5.63411">
        <ele>803.2</ele>
        <time>2010-10-30T11:29:04Z</time>
      </trkpt>
      <trkpt lat="45.0782" lon="5.63414">
        <ele>804.2</ele>
        <time>2010-10-30T11:29:07Z</time>
      </trkpt>
      <trkpt lat="45.0782" lon="5.63416">
        <ele>804.8</ele>
        <time>2010-10-30T11:29:09Z</time>
      </trkpt>
      <trkpt lat="45.07821" lon="5.6342">
        <ele>805.6</ele>
        <time>2010-10-30T11:29:12Z</time>
      </trkpt>
      <trkpt lat="45.07823" lon="5.63424">
        <ele>806.8</ele>
        <time>2010-10-30T11:29:16Z</time>
      </trkpt>
      <trkpt lat="45.07824" lon="5.63424">
        <ele>807.2</ele>
        <time>2010-10-30T11:29:18Z</time>
      </trkpt>
      <trkpt lat="45.07826" lon="5.63424">
        <ele>807.4</ele>
        <time>2010-10-30T11:29:19Z</time>
      </trkpt>
      <trkpt lat="45.07828" lon="5.63424">
        <ele>808</ele>
        <time>2010-10-30T11:29:22Z</time>
      </trkpt>
      <trkpt lat="45.07829" lon="5.63424">
        <ele>808.2</ele>
        <time>2010-10-30T11:29:23Z</time>
      </trkpt>
      <trkpt lat="45.07832" lon="5.63424">
        <ele>808.8</ele>
        <time>2010-10-30T11:29:26Z</time>
      </trkpt>
      <trkpt lat="45.07835" lon="5.63426">
        <ele>809.2</ele>
        <time>2010-10-30T11:29:29Z</time>
      </trkpt>
      <trkpt lat="45.07839" lon="5.63428">
        <ele>809.8</ele>
        <time>2010-10-30T11:29:32Z</time>
      </trkpt>
      <trkpt lat="45.07842" lon="5.63431">
        <ele>810.4</ele>
        <time>2010-10-30T11:29:36Z</time>
      </trkpt>
      <trkpt lat="45.07843" lon="5.63431">
        <ele>810.2</ele>
        <time>2010-10-30T11:29:37Z</time>
      </trkpt>
      <trkpt lat="45.07844" lon="5.63432">
        <ele>810.4</ele>
        <time>2010-10-30T11:29:38Z</time>
      </trkpt>
      <trkpt lat="45.07848" lon="5.63433">
        <ele>811</ele>
        <time>2010-10-30T11:29:42Z</time>
      </trkpt>
      <trkpt lat="45.0785" lon="5.63434">
        <ele>811.2</ele>
        <time>2010-10-30T11:29:44Z</time>
      </trkpt>
      <trkpt lat="45.07853" lon="5.63435">
        <ele>812.4</ele>
        <time>2010-10-30T11:29:50Z</time>
      </trkpt>
      <trkpt lat="45.07857" lon="5.63437">
        <ele>813.4</ele>
        <time>2010-10-30T11:29:56Z</time>
      </trkpt>
      <trkpt lat="45.07858" lon="5.63437">
        <ele>813.4</ele>
        <time>2010-10-30T11:29:57Z</time>
      </trkpt>
      <trkpt lat="45.0786" lon="5.63439">
        <ele>814</ele>
        <time>2010-10-30T11:30:00Z</time>
      </trkpt>
      <trkpt lat="45.07861" lon="5.63439">
        <ele>814.2</ele>
        <time>2010-10-30T11:30:01Z</time>
      </trkpt>
      <trkpt lat="45.07864" lon="5.6344">
        <ele>814.6</ele>
        <time>2010-10-30T11:30:04Z</time>
      </trkpt>
      <trkpt lat="45.07865" lon="5.63442">
        <ele>814.8</ele>
        <time>2010-10-30T11:30:06Z</time>
      </trkpt>
      <trkpt lat="45.07865" lon="5.63442">
        <ele>815.2</ele>
        <time>2010-10-30T11:30:07Z</time>
      </trkpt>
      <trkpt lat="45.07866" lon="5.63443">
        <ele>815.4</ele>
        <time>2010-10-30T11:30:09Z</time>
      </trkpt>
      <trkpt lat="45.0787" lon="5.63446">
        <ele>816.2</ele>
        <time>2010-10-30T11:30:13Z</time>
      </trkpt>
      <trkpt lat="45.07871" lon="5.6345">
        <ele>816.8</ele>
        <time>2010-10-30T11:30:16Z</time>
      </trkpt>
      <trkpt lat="45.07872" lon="5.63455">
        <ele>817.4</ele>
        <time>2010-10-30T11:30:19Z</time>
      </trkpt>
      <trkpt lat="45.07873" lon="5.63457">
        <ele>817.6</ele>
        <time>2010-10-30T11:30:21Z</time>
      </trkpt>
      <trkpt lat="45.07874" lon="5.63459">
        <ele>818.2</ele>
        <time>2010-10-30T11:30:24Z</time>
      </trkpt>
      <trkpt lat="45.07875" lon="5.6346">
        <ele>818.4</ele>
        <time>2010-10-30T11:30:25Z</time>
      </trkpt>
      <trkpt lat="45.07876" lon="5.63463">
        <ele>819.4</ele>
        <time>2010-10-30T11:30:29Z</time>
      </trkpt>
      <trkpt lat="45.07877" lon="5.63467">
        <ele>820.8</ele>
        <time>2010-10-30T11:30:33Z</time>
      </trkpt>
      <trkpt lat="45.07879" lon="5.63466">
        <ele>822</ele>
        <time>2010-10-30T11:30:38Z</time>
      </trkpt>
      <trkpt lat="45.0788" lon="5.63464">
        <ele>823.4</ele>
        <time>2010-10-30T11:30:42Z</time>
      </trkpt>
      <trkpt lat="45.0788" lon="5.63461">
        <ele>824.6</ele>
        <time>2010-10-30T11:30:46Z</time>
      </trkpt>
      <trkpt lat="45.07881" lon="5.63458">
        <ele>825.8</ele>
        <time>2010-10-30T11:30:50Z</time>
      </trkpt>
      <trkpt lat="45.07882" lon="5.63452">
        <ele>827</ele>
        <time>2010-10-30T11:30:55Z</time>
      </trkpt>
      <trkpt lat="45.07883" lon="5.63443">
        <ele>828.2</ele>
        <time>2010-10-30T11:31:01Z</time>
      </trkpt>
      <trkpt lat="45.07883" lon="5.63436">
        <ele>829.2</ele>
        <time>2010-10-30T11:31:06Z</time>
      </trkpt>
      <trkpt lat="45.07884" lon="5.63434">
        <ele>829.8</ele>
        <time>2010-10-30T11:31:08Z</time>
      </trkpt>
      <trkpt lat="45.07885" lon="5.63434">
        <ele>830.2</ele>
        <time>2010-10-30T11:31:09Z</time>
      </trkpt>
      <trkpt lat="45.07885" lon="5.63433">
        <ele>830.4</ele>
        <time>2010-10-30T11:31:10Z</time>
      </trkpt>
      <trkpt lat="45.07885" lon="5.6343">
        <ele>831.2</ele>
        <time>2010-10-30T11:31:13Z</time>
      </trkpt>
      <trkpt lat="45.0788" lon="5.63423">
        <ele>832.8</ele>
        <time>2010-10-30T11:31:19Z</time>
      </trkpt>
      <trkpt lat="45.0788" lon="5.63422">
        <ele>833</ele>
        <time>2010-10-30T11:31:20Z</time>
      </trkpt>
      <trkpt lat="45.07876" lon="5.63414">
        <ele>834.6</ele>
        <time>2010-10-30T11:31:26Z</time>
      </trkpt>
      <trkpt lat="45.07875" lon="5.63411">
        <ele>835.4</ele>
        <time>2010-10-30T11:31:29Z</time>
      </trkpt>
      <trkpt lat="45.07875" lon="5.6341">
        <ele>835.6</ele>
        <time>2010-10-30T11:31:30Z</time>
      </trkpt>
      <trkpt lat="45.07873" lon="5.63407">
        <ele>836.4</ele>
        <time>2010-10-30T11:31:33Z</time>
      </trkpt>
      <trkpt lat="45.07872" lon="5.63404">
        <ele>837</ele>
        <time>2010-10-30T11:31:35Z</time>
      </trkpt>
      <trkpt lat="45.07873" lon="5.63397">
        <ele>838.2</ele>
        <time>2010-10-30T11:31:40Z</time>
      </trkpt>
      <trkpt lat="45.07873" lon="5.63396">
        <ele>838.2</ele>
        <time>2010-10-30T11:31:41Z</time>
      </trkpt>
      <trkpt lat="45.07872" lon="5.6339">
        <ele>839.4</ele>
        <time>2010-10-30T11:31:46Z</time>
      </trkpt>
      <trkpt lat="45.07872" lon="5.63388">
        <ele>839.6</ele>
        <time>2010-10-30T11:31:47Z</time>
      </trkpt>
      <trkpt lat="45.07872" lon="5.63387">
        <ele>839.8</ele>
        <time>2010-10-30T11:31:48Z</time>
      </trkpt>
      <trkpt lat="45.07872" lon="5.63384">
        <ele>840.2</ele>
        <time>2010-10-30T11:31:50Z</time>
      </trkpt>
      <trkpt lat="45.07871" lon="5.6338">
        <ele>841</ele>
        <time>2010-10-30T11:31:53Z</time>
      </trkpt>
      <trkpt lat="45.07871" lon="5.63379">
        <ele>841.2</ele>
        <time>2010-10-30T11:31:54Z</time>
      </trkpt>
      <trkpt lat="45.07871" lon="5.63378">
        <ele>841.2</ele>
        <time>2010-10-30T11:31:55Z</time>
      </trkpt>
      <trkpt lat="45.0787" lon="5.63373">
        <ele>842.4</ele>
        <time>2010-10-30T11:32:00Z</time>
      </trkpt>
      <trkpt lat="45.0787" lon="5.63369">
        <ele>843.4</ele>
        <time>2010-10-30T11:32:04Z</time>
      </trkpt>
      <trkpt lat="45.07871" lon="5.63365">
        <ele>844.2</ele>
        <time>2010-10-30T11:32:09Z</time>
      </trkpt>
      <trkpt lat="45.07871" lon="5.63361">
        <ele>845</ele>
        <time>2010-10-30T11:32:13Z</time>
      </trkpt>
      <trkpt lat="45.07872" lon="5.63361">
        <ele>845.2</ele>
        <time>2010-10-30T11:32:14Z</time>
      </trkpt>
      <trkpt lat="45.07872" lon="5.63355">
        <ele>846.6</ele>
        <time>2010-10-30T11:32:20Z</time>
      </trkpt>
      <trkpt lat="45.07871" lon="5.63352">
        <ele>847.4</ele>
        <time>2010-10-30T11:32:24Z</time>
      </trkpt>
      <trkpt lat="45.07871" lon="5.63349">
        <ele>848.2</ele>
        <time>2010-10-30T11:32:27Z</time>
      </trkpt>
      <trkpt lat="45.07869" lon="5.63345">
        <ele>849.2</ele>
        <time>2010-10-30T11:32:31Z</time>
      </trkpt>
      <trkpt lat="45.07866" lon="5.63338">
        <ele>850.8</ele>
        <time>2010-10-30T11:32:37Z</time>
      </trkpt>
      <trkpt lat="45.07866" lon="5.63337">
        <ele>851</ele>
        <time>2010-10-30T11:32:38Z</time>
      </trkpt>
      <trkpt lat="45.07864" lon="5.6333">
        <ele>852</ele>
        <time>2010-10-30T11:32:42Z</time>
      </trkpt>
      <trkpt lat="45.0786" lon="5.63313">
        <ele>853.2</ele>
        <time>2010-10-30T11:32:48Z</time>
      </trkpt>
      <trkpt lat="45.07859" lon="5.63295">
        <ele>853.4</ele>
        <time>2010-10-30T11:32:54Z</time>
      </trkpt>
      <trkpt lat="45.07858" lon="5.63288">
        <ele>853.8</ele>
        <time>2010-10-30T11:32:57Z</time>
      </trkpt>
      <trkpt lat="45.07858" lon="5.63287">
        <ele>853.8</ele>
        <time>2010-10-30T11:32:58Z</time>
      </trkpt>
      <trkpt lat="45.07857" lon="5.63285">
        <ele>854</ele>
        <time>2010-10-30T11:32:59Z</time>
      </trkpt>
      <trkpt lat="45.07852" lon="5.63275">
        <ele>855</ele>
        <time>2010-10-30T11:33:05Z</time>
      </trkpt>
      <trkpt lat="45.07848" lon="5.63264">
        <ele>855.8</ele>
        <time>2010-10-30T11:33:11Z</time>
      </trkpt>
      <trkpt lat="45.07848" lon="5.6325">
        <ele>856.6</ele>
        <time>2010-10-30T11:33:18Z</time>
      </trkpt>
      <trkpt lat="45.07846" lon="5.63238">
        <ele>858</ele>
        <time>2010-10-30T11:33:24Z</time>
      </trkpt>
      <trkpt lat="45.07845" lon="5.63229">
        <ele>859.4</ele>
        <time>2010-10-30T11:33:30Z</time>
      </trkpt>
      <trkpt lat="45.07845" lon="5.63224">
        <ele>860.6</ele>
        <time>2010-10-30T11:33:34Z</time>
      </trkpt>
      <trkpt lat="45.07845" lon="5.63221">
        <ele>861.6</ele>
        <time>2010-10-30T11:33:37Z</time>
      </trkpt>
      <trkpt lat="45.07845" lon="5.63219">
        <ele>862.2</ele>
        <time>2010-10-30T11:33:39Z</time>
      </trkpt>
      <trkpt lat="45.07844" lon="5.63214">
        <ele>864</ele>
        <time>2010-10-30T11:33:44Z</time>
      </trkpt>
      <trkpt lat="45.07843" lon="5.6321">
        <ele>865.2</ele>
        <time>2010-10-30T11:33:48Z</time>
      </trkpt>
      <trkpt lat="45.07843" lon="5.63208">
        <ele>865.6</ele>
        <time>2010-10-30T11:33:49Z</time>
      </trkpt>
      <trkpt lat="45.07844" lon="5.63206">
        <ele>866.2</ele>
        <time>2010-10-30T11:33:51Z</time>
      </trkpt>
      <trkpt lat="45.07844" lon="5.63204">
        <ele>867</ele>
        <time>2010-10-30T11:33:53Z</time>
      </trkpt>
      <trkpt lat="45.07844" lon="5.632">
        <ele>868.4</ele>
        <time>2010-10-30T11:33:57Z</time>
      </trkpt>
      <trkpt lat="45.07844" lon="5.63198">
        <ele>868.6</ele>
        <time>2010-10-30T11:33:58Z</time>
      </trkpt>
      <trkpt lat="45.07846" lon="5.63193">
        <ele>869.8</ele>
        <time>2010-10-30T11:34:02Z</time>
      </trkpt>
      <trkpt lat="45.07847" lon="5.6319">
        <ele>872</ele>
        <time>2010-10-30T11:34:08Z</time>
      </trkpt>
      <trkpt lat="45.07847" lon="5.63186">
        <ele>873.6</ele>
        <time>2010-10-30T11:34:13Z</time>
      </trkpt>
      <trkpt lat="45.07847" lon="5.63184">
        <ele>875.8</ele>
        <time>2010-10-30T11:34:19Z</time>
      </trkpt>
      <trkpt lat="45.07846" lon="5.6318">
        <ele>876.4</ele>
        <time>2010-10-30T11:34:22Z</time>
      </trkpt>
      <trkpt lat="45.07847" lon="5.63177">
        <ele>877.2</ele>
        <time>2010-10-30T11:34:25Z</time>
      </trkpt>
      <trkpt lat="45.07846" lon="5.63174">
        <ele>877.8</ele>
        <time>2010-10-30T11:34:27Z</time>
      </trkpt>
      <trkpt lat="45.07844" lon="5.63172">
        <ele>879.8</ele>
        <time>2010-10-30T11:34:34Z</time>
      </trkpt>
      <trkpt lat="45.07845" lon="5.63166">
        <ele>881</ele>
        <time>2010-10-30T11:34:39Z</time>
      </trkpt>
      <trkpt lat="45.07846" lon="5.63161">
        <ele>882</ele>
        <time>2010-10-30T11:34:44Z</time>
      </trkpt>
      <trkpt lat="45.07846" lon="5.63158">
        <ele>882.8</ele>
        <time>2010-10-30T11:34:48Z</time>
      </trkpt>
      <trkpt lat="45.07846" lon="5.63155">
        <ele>883.2</ele>
        <time>2010-10-30T11:34:50Z</time>
      </trkpt>
      <trkpt lat="45.07846" lon="5.63153">
        <ele>883.6</ele>
        <time>2010-10-30T11:34:52Z</time>
      </trkpt>
      <trkpt lat="45.07846" lon="5.63151">
        <ele>884</ele>
        <time>2010-10-30T11:34:54Z</time>
      </trkpt>
      <trkpt lat="45.07846" lon="5.6315">
        <ele>884.2</ele>
        <time>2010-10-30T11:34:55Z</time>
      </trkpt>
      <trkpt lat="45.07845" lon="5.63146">
        <ele>885</ele>
        <time>2010-10-30T11:34:59Z</time>
      </trkpt>
      <trkpt lat="45.07842" lon="5.63142">
        <ele>886</ele>
        <time>2010-10-30T11:35:03Z</time>
      </trkpt>
      <trkpt lat="45.07842" lon="5.6314">
        <ele>886.2</ele>
        <time>2010-10-30T11:35:04Z</time>
      </trkpt>
      <trkpt lat="45.07841" lon="5.63134">
        <ele>887</ele>
        <time>2010-10-30T11:35:09Z</time>
      </trkpt>
      <trkpt lat="45.07841" lon="5.63133">
        <ele>887.4</ele>
        <time>2010-10-30T11:35:10Z</time>
      </trkpt>
      <trkpt lat="45.07841" lon="5.6313">
        <ele>887.8</ele>
        <time>2010-10-30T11:35:13Z</time>
      </trkpt>
      <trkpt lat="45.07841" lon="5.63128">
        <ele>888</ele>
        <time>2010-10-30T11:35:14Z</time>
      </trkpt>
      <trkpt lat="45.07841" lon="5.63124">
        <ele>888.6</ele>
        <time>2010-10-30T11:35:17Z</time>
      </trkpt>
      <trkpt lat="45.07842" lon="5.6312">
        <ele>888.8</ele>
        <time>2010-10-30T11:35:19Z</time>
      </trkpt>
      <trkpt lat="45.07842" lon="5.63118">
        <ele>889.2</ele>
        <time>2010-10-30T11:35:21Z</time>
      </trkpt>
      <trkpt lat="45.07842" lon="5.63116">
        <ele>889.4</ele>
        <time>2010-10-30T11:35:23Z</time>
      </trkpt>
      <trkpt lat="45.07842" lon="5.63114">
        <ele>889.8</ele>
        <time>2010-10-30T11:35:25Z</time>
      </trkpt>
      <trkpt lat="45.07842" lon="5.63112">
        <ele>890.4</ele>
        <time>2010-10-30T11:35:28Z</time>
      </trkpt>
      <trkpt lat="45.07842" lon="5.63109">
        <ele>890.8</ele>
        <time>2010-10-30T11:35:30Z</time>
      </trkpt>
      <trkpt lat="45.07842" lon="5.63107">
        <ele>891.2</ele>
        <time>2010-10-30T11:35:32Z</time>
      </trkpt>
      <trkpt lat="45.07842" lon="5.63102">
        <ele>892.2</ele>
        <time>2010-10-30T11:35:36Z</time>
      </trkpt>
      <trkpt lat="45.07842" lon="5.63101">
        <ele>892.4</ele>
        <time>2010-10-30T11:35:37Z</time>
      </trkpt>
      <trkpt lat="45.07843" lon="5.63099">
        <ele>892.6</ele>
        <time>2010-10-30T11:35:38Z</time>
      </trkpt>
      <trkpt lat="45.07844" lon="5.63095">
        <ele>893</ele>
        <time>2010-10-30T11:35:40Z</time>
      </trkpt>
      <trkpt lat="45.07845" lon="5.63093">
        <ele>893.4</ele>
        <time>2010-10-30T11:35:42Z</time>
      </trkpt>
      <trkpt lat="45.07844" lon="5.6309">
        <ele>893.8</ele>
        <time>2010-10-30T11:35:44Z</time>
      </trkpt>
      <trkpt lat="45.07843" lon="5.63088">
        <ele>894.4</ele>
        <time>2010-10-30T11:35:46Z</time>
      </trkpt>
      <trkpt lat="45.07843" lon="5.63086">
        <ele>894.8</ele>
        <time>2010-10-30T11:35:48Z</time>
      </trkpt>
      <trkpt lat="45.07843" lon="5.63085">
        <ele>895</ele>
        <time>2010-10-30T11:35:49Z</time>
      </trkpt>
      <trkpt lat="45.07843" lon="5.63083">
        <ele>895</ele>
        <time>2010-10-30T11:35:50Z</time>
      </trkpt>
      <trkpt lat="45.07842" lon="5.63079">
        <ele>895.4</ele>
        <time>2010-10-30T11:35:52Z</time>
      </trkpt>
      <trkpt lat="45.07842" lon="5.63077">
        <ele>896</ele>
        <time>2010-10-30T11:35:54Z</time>
      </trkpt>
      <trkpt lat="45.07841" lon="5.63075">
        <ele>896.2</ele>
        <time>2010-10-30T11:35:56Z</time>
      </trkpt>
      <trkpt lat="45.07839" lon="5.63072">
        <ele>897</ele>
        <time>2010-10-30T11:35:58Z</time>
      </trkpt>
      <trkpt lat="45.07834" lon="5.63063">
        <ele>898.2</ele>
        <time>2010-10-30T11:36:03Z</time>
      </trkpt>
      <trkpt lat="45.07829" lon="5.63049">
        <ele>899.8</ele>
        <time>2010-10-30T11:36:09Z</time>
      </trkpt>
      <trkpt lat="45.07824" lon="5.63039">
        <ele>901.2</ele>
        <time>2010-10-30T11:36:14Z</time>
      </trkpt>
      <trkpt lat="45.07823" lon="5.63037">
        <ele>901.4</ele>
        <time>2010-10-30T11:36:15Z</time>
      </trkpt>
      <trkpt lat="45.07818" lon="5.63028">
        <ele>902.6</ele>
        <time>2010-10-30T11:36:20Z</time>
      </trkpt>
      <trkpt lat="45.07816" lon="5.6302">
        <ele>903.2</ele>
        <time>2010-10-30T11:36:23Z</time>
      </trkpt>
      <trkpt lat="45.07816" lon="5.63016">
        <ele>903.6</ele>
        <time>2010-10-30T11:36:25Z</time>
      </trkpt>
      <trkpt lat="45.07812" lon="5.63004">
        <ele>904.6</ele>
        <time>2010-10-30T11:36:30Z</time>
      </trkpt>
      <trkpt lat="45.07806" lon="5.62995">
        <ele>905.6</ele>
        <time>2010-10-30T11:36:35Z</time>
      </trkpt>
      <trkpt lat="45.07806" lon="5.62992">
        <ele>905.6</ele>
        <time>2010-10-30T11:36:36Z</time>
      </trkpt>
      <trkpt lat="45.07801" lon="5.62981">
        <ele>906.8</ele>
        <time>2010-10-30T11:36:42Z</time>
      </trkpt>
      <trkpt lat="45.07796" lon="5.62972">
        <ele>907.6</ele>
        <time>2010-10-30T11:36:46Z</time>
      </trkpt>
      <trkpt lat="45.07795" lon="5.62968">
        <ele>908</ele>
        <time>2010-10-30T11:36:48Z</time>
      </trkpt>
      <trkpt lat="45.07786" lon="5.62955">
        <ele>909.4</ele>
        <time>2010-10-30T11:36:54Z</time>
      </trkpt>
      <trkpt lat="45.07785" lon="5.62954">
        <ele>909.6</ele>
        <time>2010-10-30T11:36:55Z</time>
      </trkpt>
      <trkpt lat="45.07784" lon="5.62952">
        <ele>909.8</ele>
        <time>2010-10-30T11:36:56Z</time>
      </trkpt>
      <trkpt lat="45.07783" lon="5.62948">
        <ele>910.4</ele>
        <time>2010-10-30T11:36:58Z</time>
      </trkpt>
      <trkpt lat="45.0778" lon="5.62939">
        <ele>911.2</ele>
        <time>2010-10-30T11:37:02Z</time>
      </trkpt>
      <trkpt lat="45.0778" lon="5.62937">
        <ele>911.4</ele>
        <time>2010-10-30T11:37:03Z</time>
      </trkpt>
      <trkpt lat="45.07781" lon="5.62932">
        <ele>912.4</ele>
        <time>2010-10-30T11:37:07Z</time>
      </trkpt>
      <trkpt lat="45.07781" lon="5.62926">
        <ele>913.4</ele>
        <time>2010-10-30T11:37:11Z</time>
      </trkpt>
      <trkpt lat="45.07778" lon="5.62921">
        <ele>914.4</ele>
        <time>2010-10-30T11:37:15Z</time>
      </trkpt>
      <trkpt lat="45.07777" lon="5.62917">
        <ele>915</ele>
        <time>2010-10-30T11:37:17Z</time>
      </trkpt>
      <trkpt lat="45.07775" lon="5.62912">
        <ele>915.8</ele>
        <time>2010-10-30T11:37:20Z</time>
      </trkpt>
      <trkpt lat="45.07772" lon="5.62908">
        <ele>916.4</ele>
        <time>2010-10-30T11:37:23Z</time>
      </trkpt>
      <trkpt lat="45.07773" lon="5.62907">
        <ele>916.4</ele>
        <time>2010-10-30T11:37:24Z</time>
      </trkpt>
      <trkpt lat="45.07773" lon="5.62904">
        <ele>916.4</ele>
        <time>2010-10-30T11:37:25Z</time>
      </trkpt>
      <trkpt lat="45.07773" lon="5.62902">
        <ele>916.6</ele>
        <time>2010-10-30T11:37:26Z</time>
      </trkpt>
      <trkpt lat="45.0777" lon="5.62892">
        <ele>917.6</ele>
        <time>2010-10-30T11:37:30Z</time>
      </trkpt>
      <trkpt lat="45.07764" lon="5.62881">
        <ele>918.2</ele>
        <time>2010-10-30T11:37:34Z</time>
      </trkpt>
      <trkpt lat="45.07763" lon="5.62878">
        <ele>918.4</ele>
        <time>2010-10-30T11:37:35Z</time>
      </trkpt>
      <trkpt lat="45.07758" lon="5.62868">
        <ele>919.2</ele>
        <time>2010-10-30T11:37:39Z</time>
      </trkpt>
      <trkpt lat="45.07753" lon="5.62857">
        <ele>919.4</ele>
        <time>2010-10-30T11:37:43Z</time>
      </trkpt>
      <trkpt lat="45.0775" lon="5.62851">
        <ele>919.6</ele>
        <time>2010-10-30T11:37:45Z</time>
      </trkpt>
      <trkpt lat="45.0775" lon="5.62845">
        <ele>919.4</ele>
        <time>2010-10-30T11:37:47Z</time>
      </trkpt>
      <trkpt lat="45.07747" lon="5.62839">
        <ele>919.4</ele>
        <time>2010-10-30T11:37:49Z</time>
      </trkpt>
      <trkpt lat="45.07744" lon="5.62833">
        <ele>919.4</ele>
        <time>2010-10-30T11:37:51Z</time>
      </trkpt>
      <trkpt lat="45.07742" lon="5.62827">
        <ele>919.4</ele>
        <time>2010-10-30T11:37:53Z</time>
      </trkpt>
      <trkpt lat="45.07739" lon="5.62819">
        <ele>919.2</ele>
        <time>2010-10-30T11:37:56Z</time>
      </trkpt>
      <trkpt lat="45.07737" lon="5.62816">
        <ele>919.2</ele>
        <time>2010-10-30T11:37:57Z</time>
      </trkpt>
      <trkpt lat="45.07735" lon="5.6281">
        <ele>919</ele>
        <time>2010-10-30T11:37:59Z</time>
      </trkpt>
      <trkpt lat="45.07732" lon="5.62802">
        <ele>919</ele>
        <time>2010-10-30T11:38:02Z</time>
      </trkpt>
      <trkpt lat="45.07731" lon="5.62797">
        <ele>918.8</ele>
        <time>2010-10-30T11:38:05Z</time>
      </trkpt>
      <trkpt lat="45.0773" lon="5.62796">
        <ele>918.8</ele>
        <time>2010-10-30T11:38:06Z</time>
      </trkpt>
      <trkpt lat="45.07727" lon="5.6279">
        <ele>918.8</ele>
        <time>2010-10-30T11:38:10Z</time>
      </trkpt>
      <trkpt lat="45.07725" lon="5.62786">
        <ele>918.8</ele>
        <time>2010-10-30T11:38:12Z</time>
      </trkpt>
      <trkpt lat="45.07723" lon="5.62782">
        <ele>919.2</ele>
        <time>2010-10-30T11:38:15Z</time>
      </trkpt>
      <trkpt lat="45.07723" lon="5.6278">
        <ele>919.2</ele>
        <time>2010-10-30T11:38:16Z</time>
      </trkpt>
      <trkpt lat="45.07722" lon="5.62773">
        <ele>919.6</ele>
        <time>2010-10-30T11:38:21Z</time>
      </trkpt>
      <trkpt lat="45.07722" lon="5.62771">
        <ele>919.8</ele>
        <time>2010-10-30T11:38:22Z</time>
      </trkpt>
      <trkpt lat="45.07721" lon="5.62766">
        <ele>920.4</ele>
        <time>2010-10-30T11:38:26Z</time>
      </trkpt>
      <trkpt lat="45.07721" lon="5.62763">
        <ele>920.6</ele>
        <time>2010-10-30T11:38:28Z</time>
      </trkpt>
      <trkpt lat="45.0772" lon="5.62761">
        <ele>921</ele>
        <time>2010-10-30T11:38:29Z</time>
      </trkpt>
      <trkpt lat="45.0772" lon="5.62755">
        <ele>921.6</ele>
        <time>2010-10-30T11:38:33Z</time>
      </trkpt>
      <trkpt lat="45.0772" lon="5.62752">
        <ele>921.8</ele>
        <time>2010-10-30T11:38:35Z</time>
      </trkpt>
      <trkpt lat="45.07719" lon="5.62745">
        <ele>922.8</ele>
        <time>2010-10-30T11:38:40Z</time>
      </trkpt>
      <trkpt lat="45.07719" lon="5.62744">
        <ele>923</ele>
        <time>2010-10-30T11:38:41Z</time>
      </trkpt>
      <trkpt lat="45.0772" lon="5.62739">
        <ele>924</ele>
        <time>2010-10-30T11:38:45Z</time>
      </trkpt>
      <trkpt lat="45.0772" lon="5.62735">
        <ele>925</ele>
        <time>2010-10-30T11:38:49Z</time>
      </trkpt>
      <trkpt lat="45.07718" lon="5.62727">
        <ele>926</ele>
        <time>2010-10-30T11:38:54Z</time>
      </trkpt>
      <trkpt lat="45.07717" lon="5.62723">
        <ele>926.8</ele>
        <time>2010-10-30T11:38:57Z</time>
      </trkpt>
      <trkpt lat="45.07716" lon="5.62722">
        <ele>927.2</ele>
        <time>2010-10-30T11:38:58Z</time>
      </trkpt>
      <trkpt lat="45.07716" lon="5.62717">
        <ele>928.4</ele>
        <time>2010-10-30T11:39:03Z</time>
      </trkpt>
      <trkpt lat="45.07715" lon="5.62714">
        <ele>929.6</ele>
        <time>2010-10-30T11:39:06Z</time>
      </trkpt>
      <trkpt lat="45.07715" lon="5.62712">
        <ele>929.8</ele>
        <time>2010-10-30T11:39:07Z</time>
      </trkpt>
      <trkpt lat="45.07716" lon="5.62711">
        <ele>930</ele>
        <time>2010-10-30T11:39:08Z</time>
      </trkpt>
      <trkpt lat="45.07716" lon="5.62707">
        <ele>931</ele>
        <time>2010-10-30T11:39:11Z</time>
      </trkpt>
      <trkpt lat="45.07717" lon="5.62704">
        <ele>932</ele>
        <time>2010-10-30T11:39:15Z</time>
      </trkpt>
      <trkpt lat="45.07715" lon="5.627">
        <ele>933.2</ele>
        <time>2010-10-30T11:39:19Z</time>
      </trkpt>
      <trkpt lat="45.07715" lon="5.62696">
        <ele>934.4</ele>
        <time>2010-10-30T11:39:23Z</time>
      </trkpt>
      <trkpt lat="45.07716" lon="5.62694">
        <ele>934.6</ele>
        <time>2010-10-30T11:39:24Z</time>
      </trkpt>
      <trkpt lat="45.07716" lon="5.62689">
        <ele>935.2</ele>
        <time>2010-10-30T11:39:27Z</time>
      </trkpt>
      <trkpt lat="45.07716" lon="5.62688">
        <ele>935.4</ele>
        <time>2010-10-30T11:39:28Z</time>
      </trkpt>
      <trkpt lat="45.07716" lon="5.62686">
        <ele>935.8</ele>
        <time>2010-10-30T11:39:29Z</time>
      </trkpt>
      <trkpt lat="45.07716" lon="5.62684">
        <ele>936.6</ele>
        <time>2010-10-30T11:39:31Z</time>
      </trkpt>
      <trkpt lat="45.07715" lon="5.6268">
        <ele>938.2</ele>
        <time>2010-10-30T11:39:35Z</time>
      </trkpt>
      <trkpt lat="45.07715" lon="5.62679">
        <ele>938.6</ele>
        <time>2010-10-30T11:39:36Z</time>
      </trkpt>
      <trkpt lat="45.07714" lon="5.62678">
        <ele>939</ele>
        <time>2010-10-30T11:39:37Z</time>
      </trkpt>
      <trkpt lat="45.07715" lon="5.62671">
        <ele>939.8</ele>
        <time>2010-10-30T11:39:40Z</time>
      </trkpt>
      <trkpt lat="45.07714" lon="5.62662">
        <ele>941.2</ele>
        <time>2010-10-30T11:39:45Z</time>
      </trkpt>
      <trkpt lat="45.07714" lon="5.62659">
        <ele>941.8</ele>
        <time>2010-10-30T11:39:48Z</time>
      </trkpt>
      <trkpt lat="45.07715" lon="5.62657">
        <ele>942</ele>
        <time>2010-10-30T11:39:49Z</time>
      </trkpt>
      <trkpt lat="45.07716" lon="5.62653">
        <ele>942.4</ele>
        <time>2010-10-30T11:39:51Z</time>
      </trkpt>
      <trkpt lat="45.07716" lon="5.6265">
        <ele>942.8</ele>
        <time>2010-10-30T11:39:53Z</time>
      </trkpt>
      <trkpt lat="45.07716" lon="5.62649">
        <ele>942.8</ele>
        <time>2010-10-30T11:39:54Z</time>
      </trkpt>
      <trkpt lat="45.07714" lon="5.62642">
        <ele>943.6</ele>
        <time>2010-10-30T11:39:57Z</time>
      </trkpt>
      <trkpt lat="45.07715" lon="5.62633">
        <ele>944.2</ele>
        <time>2010-10-30T11:40:00Z</time>
      </trkpt>
      <trkpt lat="45.07715" lon="5.62631">
        <ele>944.2</ele>
        <time>2010-10-30T11:40:01Z</time>
      </trkpt>
      <trkpt lat="45.07715" lon="5.6263">
        <ele>944.4</ele>
        <time>2010-10-30T11:40:02Z</time>
      </trkpt>
      <trkpt lat="45.07716" lon="5.62628">
        <ele>944.6</ele>
        <time>2010-10-30T11:40:03Z</time>
      </trkpt>
      <trkpt lat="45.07718" lon="5.62623">
        <ele>945</ele>
        <time>2010-10-30T11:40:06Z</time>
      </trkpt>
      <trkpt lat="45.07722" lon="5.62616">
        <ele>945</ele>
        <time>2010-10-30T11:40:11Z</time>
      </trkpt>
      <trkpt lat="45.07723" lon="5.62611">
        <ele>945.2</ele>
        <time>2010-10-30T11:40:15Z</time>
      </trkpt>
      <trkpt lat="45.07723" lon="5.62611">
        <ele>945.2</ele>
        <time>2010-10-30T11:40:16Z</time>
      </trkpt>
      <trkpt lat="45.07722" lon="5.62605">
        <ele>945.6</ele>
        <time>2010-10-30T11:40:20Z</time>
      </trkpt>
      <trkpt lat="45.07723" lon="5.626">
        <ele>945.8</ele>
        <time>2010-10-30T11:40:24Z</time>
      </trkpt>
      <trkpt lat="45.07722" lon="5.62596">
        <ele>946.2</ele>
        <time>2010-10-30T11:40:26Z</time>
      </trkpt>
      <trkpt lat="45.07722" lon="5.62593">
        <ele>946.4</ele>
        <time>2010-10-30T11:40:28Z</time>
      </trkpt>
      <trkpt lat="45.07722" lon="5.62589">
        <ele>946.8</ele>
        <time>2010-10-30T11:40:31Z</time>
      </trkpt>
      <trkpt lat="45.07722" lon="5.62589">
        <ele>947</ele>
        <time>2010-10-30T11:40:32Z</time>
      </trkpt>
      <trkpt lat="45.07721" lon="5.62586">
        <ele>948</ele>
        <time>2010-10-30T11:40:36Z</time>
      </trkpt>
      <trkpt lat="45.07721" lon="5.62585">
        <ele>948.2</ele>
        <time>2010-10-30T11:40:37Z</time>
      </trkpt>
      <trkpt lat="45.07721" lon="5.62585">
        <ele>948.6</ele>
        <time>2010-10-30T11:40:38Z</time>
      </trkpt>
      <trkpt lat="45.07721" lon="5.6258">
        <ele>949.2</ele>
        <time>2010-10-30T11:40:41Z</time>
      </trkpt>
      <trkpt lat="45.0772" lon="5.62579">
        <ele>949.4</ele>
        <time>2010-10-30T11:40:42Z</time>
      </trkpt>
      <trkpt lat="45.0772" lon="5.62577">
        <ele>950</ele>
        <time>2010-10-30T11:40:44Z</time>
      </trkpt>
      <trkpt lat="45.07719" lon="5.62575">
        <ele>950.6</ele>
        <time>2010-10-30T11:40:46Z</time>
      </trkpt>
      <trkpt lat="45.07719" lon="5.62573">
        <ele>951</ele>
        <time>2010-10-30T11:40:47Z</time>
      </trkpt>
      <trkpt lat="45.07718" lon="5.6257">
        <ele>951.8</ele>
        <time>2010-10-30T11:40:50Z</time>
      </trkpt>
      <trkpt lat="45.07718" lon="5.62567">
        <ele>952.4</ele>
        <time>2010-10-30T11:40:52Z</time>
      </trkpt>
      <trkpt lat="45.07717" lon="5.62563">
        <ele>954</ele>
        <time>2010-10-30T11:40:56Z</time>
      </trkpt>
      <trkpt lat="45.07717" lon="5.62561">
        <ele>954.4</ele>
        <time>2010-10-30T11:40:57Z</time>
      </trkpt>
      <trkpt lat="45.07717" lon="5.62559">
        <ele>954.6</ele>
        <time>2010-10-30T11:40:58Z</time>
      </trkpt>
      <trkpt lat="45.07716" lon="5.62556">
        <ele>955.4</ele>
        <time>2010-10-30T11:41:00Z</time>
      </trkpt>
      <trkpt lat="45.07716" lon="5.6255">
        <ele>957</ele>
        <time>2010-10-30T11:41:04Z</time>
      </trkpt>
      <trkpt lat="45.07714" lon="5.62546">
        <ele>958.2</ele>
        <time>2010-10-30T11:41:07Z</time>
      </trkpt>
      <trkpt lat="45.07714" lon="5.62542">
        <ele>959.6</ele>
        <time>2010-10-30T11:41:11Z</time>
      </trkpt>
      <trkpt lat="45.07715" lon="5.62538">
        <ele>960.6</ele>
        <time>2010-10-30T11:41:15Z</time>
      </trkpt>
      <trkpt lat="45.07715" lon="5.62533">
        <ele>961.2</ele>
        <time>2010-10-30T11:41:18Z</time>
      </trkpt>
      <trkpt lat="45.07715" lon="5.62531">
        <ele>961.6</ele>
        <time>2010-10-30T11:41:19Z</time>
      </trkpt>
      <trkpt lat="45.07715" lon="5.62529">
        <ele>962</ele>
        <time>2010-10-30T11:41:21Z</time>
      </trkpt>
      <trkpt lat="45.07715" lon="5.62528">
        <ele>962.2</ele>
        <time>2010-10-30T11:41:22Z</time>
      </trkpt>
      <trkpt lat="45.07715" lon="5.62526">
        <ele>962.4</ele>
        <time>2010-10-30T11:41:23Z</time>
      </trkpt>
      <trkpt lat="45.07714" lon="5.62523">
        <ele>963</ele>
        <time>2010-10-30T11:41:25Z</time>
      </trkpt>
      <trkpt lat="45.07713" lon="5.62522">
        <ele>963.2</ele>
        <time>2010-10-30T11:41:26Z</time>
      </trkpt>
      <trkpt lat="45.07712" lon="5.62517">
        <ele>963.8</ele>
        <time>2010-10-30T11:41:29Z</time>
      </trkpt>
      <trkpt lat="45.07712" lon="5.6251">
        <ele>964.8</ele>
        <time>2010-10-30T11:41:33Z</time>
      </trkpt>
      <trkpt lat="45.07713" lon="5.62509">
        <ele>965</ele>
        <time>2010-10-30T11:41:34Z</time>
      </trkpt>
      <trkpt lat="45.07713" lon="5.62508">
        <ele>965.4</ele>
        <time>2010-10-30T11:41:35Z</time>
      </trkpt>
      <trkpt lat="45.07713" lon="5.62505">
        <ele>965.8</ele>
        <time>2010-10-30T11:41:37Z</time>
      </trkpt>
      <trkpt lat="45.07714" lon="5.62503">
        <ele>966</ele>
        <time>2010-10-30T11:41:38Z</time>
      </trkpt>
      <trkpt lat="45.07716" lon="5.62498">
        <ele>966.8</ele>
        <time>2010-10-30T11:41:42Z</time>
      </trkpt>
      <trkpt lat="45.07718" lon="5.62496">
        <ele>967.2</ele>
        <time>2010-10-30T11:41:44Z</time>
      </trkpt>
      <trkpt lat="45.07717" lon="5.62493">
        <ele>968</ele>
        <time>2010-10-30T11:41:47Z</time>
      </trkpt>
      <trkpt lat="45.07718" lon="5.62489">
        <ele>969.6</ele>
        <time>2010-10-30T11:41:52Z</time>
      </trkpt>
      <trkpt lat="45.07717" lon="5.62487">
        <ele>971.8</ele>
        <time>2010-10-30T11:41:57Z</time>
      </trkpt>
      <trkpt lat="45.07719" lon="5.62486">
        <ele>975.2</ele>
        <time>2010-10-30T11:42:06Z</time>
      </trkpt>
      <trkpt lat="45.07716" lon="5.62482">
        <ele>990.8</ele>
        <time>2010-10-30T11:43:06Z</time>
      </trkpt>
      <trkpt lat="45.07717" lon="5.6247">
        <ele>991.4</ele>
        <time>2010-10-30T11:43:14Z</time>
      </trkpt>
      <trkpt lat="45.07717" lon="5.62458">
        <ele>991.4</ele>
        <time>2010-10-30T11:43:18Z</time>
      </trkpt>
      <trkpt lat="45.07717" lon="5.62456">
        <ele>991.4</ele>
        <time>2010-10-30T11:43:19Z</time>
      </trkpt>
      <trkpt lat="45.07717" lon="5.62453">
        <ele>991.4</ele>
        <time>2010-10-30T11:43:21Z</time>
      </trkpt>
      <trkpt lat="45.07715" lon="5.62447">
        <ele>991.4</ele>
        <time>2010-10-30T11:43:24Z</time>
      </trkpt>
      <trkpt lat="45.07715" lon="5.62446">
        <ele>991.4</ele>
        <time>2010-10-30T11:43:25Z</time>
      </trkpt>
      <trkpt lat="45.07715" lon="5.62445">
        <ele>991.4</ele>
        <time>2010-10-30T11:43:26Z</time>
      </trkpt>
      <trkpt lat="45.07716" lon="5.62447">
        <ele>991.4</ele>
        <time>2010-10-30T11:43:29Z</time>
      </trkpt>
      <trkpt lat="45.07715" lon="5.62439">
        <ele>991.8</ele>
        <time>2010-10-30T11:43:35Z</time>
      </trkpt>
      <trkpt lat="45.07715" lon="5.62435">
        <ele>992.6</ele>
        <time>2010-10-30T11:43:43Z</time>
      </trkpt>
      <trkpt lat="45.07716" lon="5.62432">
        <ele>995</ele>
        <time>2010-10-30T11:43:52Z</time>
      </trkpt>
      <trkpt lat="45.07716" lon="5.6243">
        <ele>996.6</ele>
        <time>2010-10-30T11:43:57Z</time>
      </trkpt>
      <trkpt lat="45.07715" lon="5.6243">
        <ele>997</ele>
        <time>2010-10-30T11:43:58Z</time>
      </trkpt>
      <trkpt lat="45.07719" lon="5.62429">
        <ele>998.4</ele>
        <time>2010-10-30T11:44:04Z</time>
      </trkpt>
      <trkpt lat="45.0772" lon="5.62429">
        <ele>998.6</ele>
        <time>2010-10-30T11:44:05Z</time>
      </trkpt>
      <trkpt lat="45.07724" lon="5.62431">
        <ele>999</ele>
        <time>2010-10-30T11:44:08Z</time>
      </trkpt>
      <trkpt lat="45.07726" lon="5.62432">
        <ele>999.2</ele>
        <time>2010-10-30T11:44:10Z</time>
      </trkpt>
      <trkpt lat="45.07726" lon="5.62434">
        <ele>1000</ele>
        <time>2010-10-30T11:44:14Z</time>
      </trkpt>
      <trkpt lat="45.07728" lon="5.62437">
        <ele>1000.4</ele>
        <time>2010-10-30T11:44:16Z</time>
      </trkpt>
      <trkpt lat="45.07729" lon="5.62439">
        <ele>1001</ele>
        <time>2010-10-30T11:44:18Z</time>
      </trkpt>
      <trkpt lat="45.07731" lon="5.62444">
        <ele>1002.2</ele>
        <time>2010-10-30T11:44:22Z</time>
      </trkpt>
      <trkpt lat="45.07734" lon="5.62445">
        <ele>1003.8</ele>
        <time>2010-10-30T11:44:27Z</time>
      </trkpt>
      <trkpt lat="45.07737" lon="5.62449">
        <ele>1005</ele>
        <time>2010-10-30T11:44:30Z</time>
      </trkpt>
      <trkpt lat="45.07744" lon="5.62454">
        <ele>1009</ele>
        <time>2010-10-30T11:44:39Z</time>
      </trkpt>
      <trkpt lat="45.07747" lon="5.62455">
        <ele>1011.6</ele>
        <time>2010-10-30T11:44:45Z</time>
      </trkpt>
      <trkpt lat="45.07747" lon="5.62455">
        <ele>1012.2</ele>
        <time>2010-10-30T11:44:46Z</time>
      </trkpt>
      <trkpt lat="45.07758" lon="5.6246">
        <ele>1020.2</ele>
        <time>2010-10-30T11:45:04Z</time>
      </trkpt>
      <trkpt lat="45.07759" lon="5.6246">
        <ele>1020.6</ele>
        <time>2010-10-30T11:45:05Z</time>
      </trkpt>
      <trkpt lat="45.07763" lon="5.62463">
        <ele>1022</ele>
        <time>2010-10-30T11:45:10Z</time>
      </trkpt>
      <trkpt lat="45.07774" lon="5.62472">
        <ele>1040.4</ele>
        <time>2010-10-30T11:45:40Z</time>
      </trkpt>
      <trkpt lat="45.07776" lon="5.62475">
        <ele>1041.2</ele>
        <time>2010-10-30T11:45:42Z</time>
      </trkpt>
      <trkpt lat="45.07784" lon="5.62478">
        <ele>1043</ele>
        <time>2010-10-30T11:45:48Z</time>
      </trkpt>
      <trkpt lat="45.07785" lon="5.62479">
        <ele>1045.2</ele>
        <time>2010-10-30T11:45:53Z</time>
      </trkpt>
      <trkpt lat="45.07788" lon="5.62479">
        <ele>1047.8</ele>
        <time>2010-10-30T11:45:59Z</time>
      </trkpt>
      <trkpt lat="45.07793" lon="5.62481">
        <ele>1051.6</ele>
        <time>2010-10-30T11:46:09Z</time>
      </trkpt>
      <trkpt lat="45.07796" lon="5.62483">
        <ele>1052.8</ele>
        <time>2010-10-30T11:46:14Z</time>
      </trkpt>
      <trkpt lat="45.07799" lon="5.62483">
        <ele>1053.4</ele>
        <time>2010-10-30T11:46:19Z</time>
      </trkpt>
      <trkpt lat="45.07805" lon="5.62485">
        <ele>1057.2</ele>
        <time>2010-10-30T11:46:30Z</time>
      </trkpt>
      <trkpt lat="45.0781" lon="5.62491">
        <ele>1058.2</ele>
        <time>2010-10-30T11:46:33Z</time>
      </trkpt>
      <trkpt lat="45.07811" lon="5.62492">
        <ele>1058.4</ele>
        <time>2010-10-30T11:46:34Z</time>
      </trkpt>
      <trkpt lat="45.07811" lon="5.62496">
        <ele>1064.4</ele>
        <time>2010-10-30T11:46:47Z</time>
      </trkpt>
      <trkpt lat="45.07814" lon="5.62495">
        <ele>1065.8</ele>
        <time>2010-10-30T11:46:51Z</time>
      </trkpt>
      <trkpt lat="45.07818" lon="5.62497">
        <ele>1066.6</ele>
        <time>2010-10-30T11:46:55Z</time>
      </trkpt>
      <trkpt lat="45.07817" lon="5.62497">
        <ele>1067.2</ele>
        <time>2010-10-30T11:46:56Z</time>
      </trkpt>
      <trkpt lat="45.07821" lon="5.62496">
        <ele>1068</ele>
        <time>2010-10-30T11:47:01Z</time>
      </trkpt>
      <trkpt lat="45.07825" lon="5.62495">
        <ele>1068.8</ele>
        <time>2010-10-30T11:47:04Z</time>
      </trkpt>
      <trkpt lat="45.07824" lon="5.62499">
        <ele>1070.4</ele>
        <time>2010-10-30T11:47:09Z</time>
      </trkpt>
      <trkpt lat="45.07824" lon="5.625">
        <ele>1070.8</ele>
        <time>2010-10-30T11:47:10Z</time>
      </trkpt>
      <trkpt lat="45.07825" lon="5.62508">
        <ele>1077.6</ele>
        <time>2010-10-30T11:47:23Z</time>
      </trkpt>
      <trkpt lat="45.07831" lon="5.62518">
        <ele>1092.6</ele>
        <time>2010-10-30T11:47:44Z</time>
      </trkpt>
      <trkpt lat="45.07828" lon="5.62528">
        <ele>1099.6</ele>
        <time>2010-10-30T11:47:53Z</time>
      </trkpt>
      <trkpt lat="45.0783" lon="5.62532">
        <ele>1101.4</ele>
        <time>2010-10-30T11:47:56Z</time>
      </trkpt>
      <trkpt lat="45.07832" lon="5.62537">
        <ele>1105</ele>
        <time>2010-10-30T11:48:02Z</time>
      </trkpt>
      <trkpt lat="45.07833" lon="5.62539">
        <ele>1106.4</ele>
        <time>2010-10-30T11:48:05Z</time>
      </trkpt>
      <trkpt lat="45.07834" lon="5.62537">
        <ele>1110.4</ele>
        <time>2010-10-30T11:48:11Z</time>
      </trkpt>
      <trkpt lat="45.07836" lon="5.62541">
        <ele>1111.4</ele>
        <time>2010-10-30T11:48:13Z</time>
      </trkpt>
      <trkpt lat="45.07836" lon="5.62544">
        <ele>1113</ele>
        <time>2010-10-30T11:48:16Z</time>
      </trkpt>
      <trkpt lat="45.07837" lon="5.62543">
        <ele>1113.8</ele>
        <time>2010-10-30T11:48:17Z</time>
      </trkpt>
      <trkpt lat="45.07837" lon="5.62547">
        <ele>1115.4</ele>
        <time>2010-10-30T11:48:21Z</time>
      </trkpt>
      <trkpt lat="45.07838" lon="5.62547">
        <ele>1116.6</ele>
        <time>2010-10-30T11:48:23Z</time>
      </trkpt>
      <trkpt lat="45.07839" lon="5.62547">
        <ele>1117.2</ele>
        <time>2010-10-30T11:48:24Z</time>
      </trkpt>
      <trkpt lat="45.07844" lon="5.62554">
        <ele>1119.2</ele>
        <time>2010-10-30T11:48:32Z</time>
      </trkpt>
      <trkpt lat="45.07844" lon="5.62556">
        <ele>1120.6</ele>
        <time>2010-10-30T11:48:36Z</time>
      </trkpt>
      <trkpt lat="45.07842" lon="5.6256">
        <ele>1122.4</ele>
        <time>2010-10-30T11:48:41Z</time>
      </trkpt>
      <trkpt lat="45.07842" lon="5.62568">
        <ele>1125</ele>
        <time>2010-10-30T11:48:49Z</time>
      </trkpt>
      <trkpt lat="45.07844" lon="5.62571">
        <ele>1126</ele>
        <time>2010-10-30T11:48:54Z</time>
      </trkpt>
      <trkpt lat="45.07846" lon="5.62576">
        <ele>1126.2</ele>
        <time>2010-10-30T11:48:58Z</time>
      </trkpt>
      <trkpt lat="45.07849" lon="5.6258">
        <ele>1125.8</ele>
        <time>2010-10-30T11:49:02Z</time>
      </trkpt>
      <trkpt lat="45.07851" lon="5.6258">
        <ele>1125.6</ele>
        <time>2010-10-30T11:49:05Z</time>
      </trkpt>
      <trkpt lat="45.07857" lon="5.62578">
        <ele>1125.2</ele>
        <time>2010-10-30T11:49:09Z</time>
      </trkpt>
      <trkpt lat="45.07862" lon="5.62582">
        <ele>1124.6</ele>
        <time>2010-10-30T11:49:13Z</time>
      </trkpt>
      <trkpt lat="45.07867" lon="5.62582">
        <ele>1123.8</ele>
        <time>2010-10-30T11:49:16Z</time>
      </trkpt>
      <trkpt lat="45.07871" lon="5.62583">
        <ele>1123.4</ele>
        <time>2010-10-30T11:49:18Z</time>
      </trkpt>
      <trkpt lat="45.07872" lon="5.62584">
        <ele>1123.2</ele>
        <time>2010-10-30T11:49:19Z</time>
      </trkpt>
      <trkpt lat="45.07876" lon="5.62586">
        <ele>1122.4</ele>
        <time>2010-10-30T11:49:23Z</time>
      </trkpt>
      <trkpt lat="45.07877" lon="5.6259">
        <ele>1121.4</ele>
        <time>2010-10-30T11:49:28Z</time>
      </trkpt>
      <trkpt lat="45.07876" lon="5.62594">
        <ele>1120.8</ele>
        <time>2010-10-30T11:49:33Z</time>
      </trkpt>
      <trkpt lat="45.07874" lon="5.62597">
        <ele>1120.4</ele>
        <time>2010-10-30T11:49:36Z</time>
      </trkpt>
      <trkpt lat="45.0787" lon="5.62599">
        <ele>1120.2</ele>
        <time>2010-10-30T11:49:39Z</time>
      </trkpt>
      <trkpt lat="45.07869" lon="5.62601">
        <ele>1120</ele>
        <time>2010-10-30T11:49:41Z</time>
      </trkpt>
      <trkpt lat="45.07869" lon="5.62604">
        <ele>1119.8</ele>
        <time>2010-10-30T11:49:43Z</time>
      </trkpt>
      <trkpt lat="45.07868" lon="5.62605">
        <ele>1119.6</ele>
        <time>2010-10-30T11:49:44Z</time>
      </trkpt>
      <trkpt lat="45.07868" lon="5.62607">
        <ele>1119.6</ele>
        <time>2010-10-30T11:49:45Z</time>
      </trkpt>
      <trkpt lat="45.07872" lon="5.62614">
        <ele>1118.8</ele>
        <time>2010-10-30T11:49:49Z</time>
      </trkpt>
      <trkpt lat="45.07873" lon="5.62626">
        <ele>1117.8</ele>
        <time>2010-10-30T11:49:54Z</time>
      </trkpt>
      <trkpt lat="45.07875" lon="5.62629">
        <ele>1117.2</ele>
        <time>2010-10-30T11:49:56Z</time>
      </trkpt>
      <trkpt lat="45.07874" lon="5.62629">
        <ele>1117</ele>
        <time>2010-10-30T11:49:57Z</time>
      </trkpt>
      <trkpt lat="45.07872" lon="5.62628">
        <ele>1116.4</ele>
        <time>2010-10-30T11:49:59Z</time>
      </trkpt>
      <trkpt lat="45.07872" lon="5.6263">
        <ele>1116</ele>
        <time>2010-10-30T11:50:01Z</time>
      </trkpt>
      <trkpt lat="45.07872" lon="5.62634">
        <ele>1115</ele>
        <time>2010-10-30T11:50:04Z</time>
      </trkpt>
      <trkpt lat="45.07872" lon="5.62634">
        <ele>1114.8</ele>
        <time>2010-10-30T11:50:06Z</time>
      </trkpt>
      <trkpt lat="45.07872" lon="5.62635">
        <ele>1114</ele>
        <time>2010-10-30T11:50:09Z</time>
      </trkpt>
      <trkpt lat="45.07876" lon="5.62636">
        <ele>1113.4</ele>
        <time>2010-10-30T11:50:13Z</time>
      </trkpt>
      <trkpt lat="45.07878" lon="5.62638">
        <ele>1113</ele>
        <time>2010-10-30T11:50:16Z</time>
      </trkpt>
      <trkpt lat="45.07878" lon="5.6264">
        <ele>1112.8</ele>
        <time>2010-10-30T11:50:17Z</time>
      </trkpt>
      <trkpt lat="45.07878" lon="5.62642">
        <ele>1112.4</ele>
        <time>2010-10-30T11:50:19Z</time>
      </trkpt>
      <trkpt lat="45.07877" lon="5.62645">
        <ele>1112</ele>
        <time>2010-10-30T11:50:23Z</time>
      </trkpt>
      <trkpt lat="45.07878" lon="5.62646">
        <ele>1111.8</ele>
        <time>2010-10-30T11:50:24Z</time>
      </trkpt>
      <trkpt lat="45.07879" lon="5.62648">
        <ele>1111.6</ele>
        <time>2010-10-30T11:50:25Z</time>
      </trkpt>
      <trkpt lat="45.0788" lon="5.62653">
        <ele>1111.4</ele>
        <time>2010-10-30T11:50:28Z</time>
      </trkpt>
      <trkpt lat="45.0788" lon="5.62653">
        <ele>1111.4</ele>
        <time>2010-10-30T11:50:29Z</time>
      </trkpt>
      <trkpt lat="45.07877" lon="5.62654">
        <ele>1111.2</ele>
        <time>2010-10-30T11:50:31Z</time>
      </trkpt>
      <trkpt lat="45.07876" lon="5.62656">
        <ele>1110.8</ele>
        <time>2010-10-30T11:50:34Z</time>
      </trkpt>
      <trkpt lat="45.07877" lon="5.62658">
        <ele>1110.6</ele>
        <time>2010-10-30T11:50:36Z</time>
      </trkpt>
      <trkpt lat="45.07878" lon="5.62659">
        <ele>1110.2</ele>
        <time>2010-10-30T11:50:38Z</time>
      </trkpt>
      <trkpt lat="45.07878" lon="5.62661">
        <ele>1110</ele>
        <time>2010-10-30T11:50:42Z</time>
      </trkpt>
      <trkpt lat="45.07878" lon="5.62661">
        <ele>1109.6</ele>
        <time>2010-10-30T11:50:46Z</time>
      </trkpt>
      <trkpt lat="45.07878" lon="5.62662">
        <ele>1109.6</ele>
        <time>2010-10-30T11:50:47Z</time>
      </trkpt>
      <trkpt lat="45.07878" lon="5.62665">
        <ele>1109.4</ele>
        <time>2010-10-30T11:50:51Z</time>
      </trkpt>
      <trkpt lat="45.07875" lon="5.62668">
        <ele>1109.4</ele>
        <time>2010-10-30T11:50:55Z</time>
      </trkpt>
      <trkpt lat="45.07873" lon="5.62668">
        <ele>1109.4</ele>
        <time>2010-10-30T11:50:59Z</time>
      </trkpt>
      <trkpt lat="45.07874" lon="5.6267">
        <ele>1109.2</ele>
        <time>2010-10-30T11:51:01Z</time>
      </trkpt>
      <trkpt lat="45.07874" lon="5.62675">
        <ele>1109.2</ele>
        <time>2010-10-30T11:51:06Z</time>
      </trkpt>
      <trkpt lat="45.07874" lon="5.62676">
        <ele>1109.2</ele>
        <time>2010-10-30T11:51:07Z</time>
      </trkpt>
      <trkpt lat="45.07872" lon="5.6268">
        <ele>1109.6</ele>
        <time>2010-10-30T11:51:10Z</time>
      </trkpt>
      <trkpt lat="45.07872" lon="5.62682">
        <ele>1109.6</ele>
        <time>2010-10-30T11:51:12Z</time>
      </trkpt>
      <trkpt lat="45.07873" lon="5.62683">
        <ele>1109.6</ele>
        <time>2010-10-30T11:51:14Z</time>
      </trkpt>
      <trkpt lat="45.07874" lon="5.62684">
        <ele>1109.6</ele>
        <time>2010-10-30T11:51:16Z</time>
      </trkpt>
      <trkpt lat="45.07874" lon="5.62685">
        <ele>1109.6</ele>
        <time>2010-10-30T11:51:17Z</time>
      </trkpt>
      <trkpt lat="45.07875" lon="5.62688">
        <ele>1109.4</ele>
        <time>2010-10-30T11:51:21Z</time>
      </trkpt>
      <trkpt lat="45.07874" lon="5.62692">
        <ele>1109.6</ele>
        <time>2010-10-30T11:51:25Z</time>
      </trkpt>
      <trkpt lat="45.07871" lon="5.62692">
        <ele>1110.2</ele>
        <time>2010-10-30T11:51:30Z</time>
      </trkpt>
      <trkpt lat="45.07867" lon="5.62693">
        <ele>1110.8</ele>
        <time>2010-10-30T11:51:34Z</time>
      </trkpt>
      <trkpt lat="45.07861" lon="5.62694">
        <ele>1111.2</ele>
        <time>2010-10-30T11:51:39Z</time>
      </trkpt>
      <trkpt lat="45.07861" lon="5.62695">
        <ele>1111.4</ele>
        <time>2010-10-30T11:51:40Z</time>
      </trkpt>
      <trkpt lat="45.0786" lon="5.62695">
        <ele>1111.6</ele>
        <time>2010-10-30T11:51:42Z</time>
      </trkpt>
      <trkpt lat="45.0786" lon="5.62698">
        <ele>1112</ele>
        <time>2010-10-30T11:51:45Z</time>
      </trkpt>
      <trkpt lat="45.07862" lon="5.62701">
        <ele>1112.6</ele>
        <time>2010-10-30T11:51:50Z</time>
      </trkpt>
      <trkpt lat="45.07866" lon="5.62703">
        <ele>1113</ele>
        <time>2010-10-30T11:51:54Z</time>
      </trkpt>
      <trkpt lat="45.07867" lon="5.62706">
        <ele>1113.4</ele>
        <time>2010-10-30T11:51:57Z</time>
      </trkpt>
      <trkpt lat="45.07869" lon="5.62707">
        <ele>1113.6</ele>
        <time>2010-10-30T11:51:59Z</time>
      </trkpt>
      <trkpt lat="45.07872" lon="5.62708">
        <ele>1113.6</ele>
        <time>2010-10-30T11:52:01Z</time>
      </trkpt>
      <trkpt lat="45.07873" lon="5.62709">
        <ele>1113.6</ele>
        <time>2010-10-30T11:52:02Z</time>
      </trkpt>
      <trkpt lat="45.07876" lon="5.62709">
        <ele>1113.4</ele>
        <time>2010-10-30T11:52:04Z</time>
      </trkpt>
      <trkpt lat="45.07882" lon="5.62707">
        <ele>1113.6</ele>
        <time>2010-10-30T11:52:09Z</time>
      </trkpt>
      <trkpt lat="45.07887" lon="5.62704">
        <ele>1113.6</ele>
        <time>2010-10-30T11:52:13Z</time>
      </trkpt>
      <trkpt lat="45.07889" lon="5.62702">
        <ele>1113.8</ele>
        <time>2010-10-30T11:52:17Z</time>
      </trkpt>
      <trkpt lat="45.0789" lon="5.62701">
        <ele>1113.6</ele>
        <time>2010-10-30T11:52:18Z</time>
      </trkpt>
      <trkpt lat="45.07891" lon="5.627">
        <ele>1113.6</ele>
        <time>2010-10-30T11:52:20Z</time>
      </trkpt>
      <trkpt lat="45.07895" lon="5.62695">
        <ele>1113.6</ele>
        <time>2010-10-30T11:52:22Z</time>
      </trkpt>
      <trkpt lat="45.07896" lon="5.62694">
        <ele>1113.8</ele>
        <time>2010-10-30T11:52:24Z</time>
      </trkpt>
      <trkpt lat="45.07901" lon="5.62685">
        <ele>1114.4</ele>
        <time>2010-10-30T11:52:31Z</time>
      </trkpt>
      <trkpt lat="45.07902" lon="5.62683">
        <ele>1114.4</ele>
        <time>2010-10-30T11:52:33Z</time>
      </trkpt>
      <trkpt lat="45.07904" lon="5.62684">
        <ele>1114.8</ele>
        <time>2010-10-30T11:52:36Z</time>
      </trkpt>
      <trkpt lat="45.07904" lon="5.62684">
        <ele>1115.4</ele>
        <time>2010-10-30T11:52:37Z</time>
      </trkpt>
      <trkpt lat="45.07908" lon="5.62683">
        <ele>1117.4</ele>
        <time>2010-10-30T11:52:43Z</time>
      </trkpt>
      <trkpt lat="45.07909" lon="5.62682">
        <ele>1117.8</ele>
        <time>2010-10-30T11:52:45Z</time>
      </trkpt>
      <trkpt lat="45.07912" lon="5.62681">
        <ele>1118.4</ele>
        <time>2010-10-30T11:52:47Z</time>
      </trkpt>
      <trkpt lat="45.07912" lon="5.62678">
        <ele>1120.8</ele>
        <time>2010-10-30T11:52:52Z</time>
      </trkpt>
      <trkpt lat="45.07915" lon="5.62675">
        <ele>1122.8</ele>
        <time>2010-10-30T11:52:57Z</time>
      </trkpt>
      <trkpt lat="45.07917" lon="5.62676">
        <ele>1124.8</ele>
        <time>2010-10-30T11:53:02Z</time>
      </trkpt>
      <trkpt lat="45.07919" lon="5.62676">
        <ele>1125</ele>
        <time>2010-10-30T11:53:03Z</time>
      </trkpt>
      <trkpt lat="45.07919" lon="5.62676">
        <ele>1125.4</ele>
        <time>2010-10-30T11:53:04Z</time>
      </trkpt>
      <trkpt lat="45.07921" lon="5.62676">
        <ele>1127.2</ele>
        <time>2010-10-30T11:53:08Z</time>
      </trkpt>
      <trkpt lat="45.07923" lon="5.62678">
        <ele>1130</ele>
        <time>2010-10-30T11:53:16Z</time>
      </trkpt>
      <trkpt lat="45.07926" lon="5.62678">
        <ele>1131</ele>
        <time>2010-10-30T11:53:20Z</time>
      </trkpt>
      <trkpt lat="45.07929" lon="5.62677">
        <ele>1132</ele>
        <time>2010-10-30T11:53:24Z</time>
      </trkpt>
      <trkpt lat="45.0793" lon="5.62676">
        <ele>1132.4</ele>
        <time>2010-10-30T11:53:25Z</time>
      </trkpt>
      <trkpt lat="45.0793" lon="5.62675">
        <ele>1132.6</ele>
        <time>2010-10-30T11:53:26Z</time>
      </trkpt>
      <trkpt lat="45.07933" lon="5.62672">
        <ele>1133.2</ele>
        <time>2010-10-30T11:53:30Z</time>
      </trkpt>
      <trkpt lat="45.07934" lon="5.62671">
        <ele>1133.8</ele>
        <time>2010-10-30T11:53:32Z</time>
      </trkpt>
      <trkpt lat="45.07935" lon="5.6267">
        <ele>1134.2</ele>
        <time>2010-10-30T11:53:34Z</time>
      </trkpt>
      <trkpt lat="45.07936" lon="5.62669">
        <ele>1134.6</ele>
        <time>2010-10-30T11:53:35Z</time>
      </trkpt>
      <trkpt lat="45.07939" lon="5.62666">
        <ele>1136</ele>
        <time>2010-10-30T11:53:40Z</time>
      </trkpt>
      <trkpt lat="45.07945" lon="5.62665">
        <ele>1136.6</ele>
        <time>2010-10-30T11:53:46Z</time>
      </trkpt>
      <trkpt lat="45.07948" lon="5.62664">
        <ele>1138</ele>
        <time>2010-10-30T11:53:52Z</time>
      </trkpt>
      <trkpt lat="45.07951" lon="5.62664">
        <ele>1139.8</ele>
        <time>2010-10-30T11:53:58Z</time>
      </trkpt>
      <trkpt lat="45.07953" lon="5.62665">
        <ele>1140.4</ele>
        <time>2010-10-30T11:54:00Z</time>
      </trkpt>
      <trkpt lat="45.07955" lon="5.62665">
        <ele>1141.2</ele>
        <time>2010-10-30T11:54:03Z</time>
      </trkpt>
      <trkpt lat="45.07957" lon="5.62663">
        <ele>1142.8</ele>
        <time>2010-10-30T11:54:07Z</time>
      </trkpt>
      <trkpt lat="45.07959" lon="5.62661">
        <ele>1144</ele>
        <time>2010-10-30T11:54:11Z</time>
      </trkpt>
      <trkpt lat="45.07961" lon="5.62661">
        <ele>1144.2</ele>
        <time>2010-10-30T11:54:12Z</time>
      </trkpt>
      <trkpt lat="45.07964" lon="5.62663">
        <ele>1145.4</ele>
        <time>2010-10-30T11:54:18Z</time>
      </trkpt>
      <trkpt lat="45.07966" lon="5.62661">
        <ele>1146.8</ele>
        <time>2010-10-30T11:54:23Z</time>
      </trkpt>
      <trkpt lat="45.07968" lon="5.62661">
        <ele>1146.8</ele>
        <time>2010-10-30T11:54:24Z</time>
      </trkpt>
      <trkpt lat="45.07969" lon="5.6266">
        <ele>1147.2</ele>
        <time>2010-10-30T11:54:26Z</time>
      </trkpt>
      <trkpt lat="45.07968" lon="5.6266">
        <ele>1147.8</ele>
        <time>2010-10-30T11:54:28Z</time>
      </trkpt>
      <trkpt lat="45.07968" lon="5.62659">
        <ele>1148.2</ele>
        <time>2010-10-30T11:54:29Z</time>
      </trkpt>
      <trkpt lat="45.07968" lon="5.62656">
        <ele>1148.8</ele>
        <time>2010-10-30T11:54:32Z</time>
      </trkpt>
      <trkpt lat="45.0797" lon="5.62656">
        <ele>1150</ele>
        <time>2010-10-30T11:54:35Z</time>
      </trkpt>
      <trkpt lat="45.0797" lon="5.62657">
        <ele>1150.2</ele>
        <time>2010-10-30T11:54:36Z</time>
      </trkpt>
      <trkpt lat="45.07973" lon="5.62654">
        <ele>1154</ele>
        <time>2010-10-30T11:54:45Z</time>
      </trkpt>
      <trkpt lat="45.07977" lon="5.62651">
        <ele>1163</ele>
        <time>2010-10-30T11:55:04Z</time>
      </trkpt>
      <trkpt lat="45.07981" lon="5.62652">
        <ele>1164</ele>
        <time>2010-10-30T11:55:08Z</time>
      </trkpt>
      <trkpt lat="45.07982" lon="5.62652">
        <ele>1164</ele>
        <time>2010-10-30T11:55:09Z</time>
      </trkpt>
      <trkpt lat="45.07987" lon="5.62652">
        <ele>1164.4</ele>
        <time>2010-10-30T11:55:12Z</time>
      </trkpt>
      <trkpt lat="45.07992" lon="5.62654">
        <ele>1164.4</ele>
        <time>2010-10-30T11:55:16Z</time>
      </trkpt>
      <trkpt lat="45.07993" lon="5.62655">
        <ele>1164.4</ele>
        <time>2010-10-30T11:55:18Z</time>
      </trkpt>
      <trkpt lat="45.07996" lon="5.62655">
        <ele>1164.6</ele>
        <time>2010-10-30T11:55:21Z</time>
      </trkpt>
      <trkpt lat="45.07997" lon="5.62654">
        <ele>1164.6</ele>
        <time>2010-10-30T11:55:23Z</time>
      </trkpt>
      <trkpt lat="45.08001" lon="5.62654">
        <ele>1165.6</ele>
        <time>2010-10-30T11:55:28Z</time>
      </trkpt>
      <trkpt lat="45.08004" lon="5.62654">
        <ele>1165.8</ele>
        <time>2010-10-30T11:55:31Z</time>
      </trkpt>
      <trkpt lat="45.08005" lon="5.62654">
        <ele>1166.4</ele>
        <time>2010-10-30T11:55:33Z</time>
      </trkpt>
      <trkpt lat="45.08009" lon="5.62654">
        <ele>1166.8</ele>
        <time>2010-10-30T11:55:37Z</time>
      </trkpt>
      <trkpt lat="45.08014" lon="5.62656">
        <ele>1166.6</ele>
        <time>2010-10-30T11:55:41Z</time>
      </trkpt>
      <trkpt lat="45.08017" lon="5.62658">
        <ele>1166.6</ele>
        <time>2010-10-30T11:55:43Z</time>
      </trkpt>
      <trkpt lat="45.08018" lon="5.62658">
        <ele>1166.6</ele>
        <time>2010-10-30T11:55:44Z</time>
      </trkpt>
      <trkpt lat="45.0802" lon="5.62659">
        <ele>1166.4</ele>
        <time>2010-10-30T11:55:46Z</time>
      </trkpt>
      <trkpt lat="45.08023" lon="5.6266">
        <ele>1166.2</ele>
        <time>2010-10-30T11:55:48Z</time>
      </trkpt>
      <trkpt lat="45.08024" lon="5.62661">
        <ele>1166.4</ele>
        <time>2010-10-30T11:55:54Z</time>
      </trkpt>
      <trkpt lat="45.08031" lon="5.62661">
        <ele>1166.2</ele>
        <time>2010-10-30T11:55:59Z</time>
      </trkpt>
      <trkpt lat="45.08031" lon="5.6266">
        <ele>1166.4</ele>
        <time>2010-10-30T11:56:00Z</time>
      </trkpt>
      <trkpt lat="45.08033" lon="5.62663">
        <ele>1167.6</ele>
        <time>2010-10-30T11:56:04Z</time>
      </trkpt>
      <trkpt lat="45.08032" lon="5.62667">
        <ele>1170</ele>
        <time>2010-10-30T11:56:09Z</time>
      </trkpt>
      <trkpt lat="45.08035" lon="5.62668">
        <ele>1170.6</ele>
        <time>2010-10-30T11:56:11Z</time>
      </trkpt>
      <trkpt lat="45.08037" lon="5.62668">
        <ele>1172.6</ele>
        <time>2010-10-30T11:56:15Z</time>
      </trkpt>
      <trkpt lat="45.0804" lon="5.62668">
        <ele>1174</ele>
        <time>2010-10-30T11:56:18Z</time>
      </trkpt>
      <trkpt lat="45.08041" lon="5.62669">
        <ele>1174.6</ele>
        <time>2010-10-30T11:56:20Z</time>
      </trkpt>
      <trkpt lat="45.08041" lon="5.62672">
        <ele>1177.8</ele>
        <time>2010-10-30T11:56:24Z</time>
      </trkpt>
      <trkpt lat="45.08042" lon="5.62677">
        <ele>1183.8</ele>
        <time>2010-10-30T11:56:33Z</time>
      </trkpt>
      <trkpt lat="45.08043" lon="5.62674">
        <ele>1193.8</ele>
        <time>2010-10-30T11:56:49Z</time>
      </trkpt>
      <trkpt lat="45.08041" lon="5.62672">
        <ele>1203.2</ele>
        <time>2010-10-30T11:57:02Z</time>
      </trkpt>
      <trkpt lat="45.08044" lon="5.62666">
        <ele>1209.4</ele>
        <time>2010-10-30T11:57:12Z</time>
      </trkpt>
      <trkpt lat="45.08043" lon="5.62661">
        <ele>1211.6</ele>
        <time>2010-10-30T11:57:15Z</time>
      </trkpt>
      <trkpt lat="45.08044" lon="5.6266">
        <ele>1212</ele>
        <time>2010-10-30T11:57:16Z</time>
      </trkpt>
      <trkpt lat="45.08047" lon="5.62658">
        <ele>1213.4</ele>
        <time>2010-10-30T11:57:19Z</time>
      </trkpt>
      <trkpt lat="45.08051" lon="5.62656">
        <ele>1216</ele>
        <time>2010-10-30T11:57:24Z</time>
      </trkpt>
      <trkpt lat="45.0805" lon="5.62654">
        <ele>1217.4</ele>
        <time>2010-10-30T11:57:26Z</time>
      </trkpt>
      <trkpt lat="45.08052" lon="5.62654">
        <ele>1218.8</ele>
        <time>2010-10-30T11:57:30Z</time>
      </trkpt>
      <trkpt lat="45.08053" lon="5.62653">
        <ele>1219</ele>
        <time>2010-10-30T11:57:32Z</time>
      </trkpt>
      <trkpt lat="45.08055" lon="5.62652">
        <ele>1219.4</ele>
        <time>2010-10-30T11:57:34Z</time>
      </trkpt>
      <trkpt lat="45.08058" lon="5.62651">
        <ele>1219.8</ele>
        <time>2010-10-30T11:57:37Z</time>
      </trkpt>
      <trkpt lat="45.08059" lon="5.6265">
        <ele>1219.6</ele>
        <time>2010-10-30T11:57:38Z</time>
      </trkpt>
      <trkpt lat="45.08065" lon="5.62647">
        <ele>1219.2</ele>
        <time>2010-10-30T11:57:43Z</time>
      </trkpt>
      <trkpt lat="45.0807" lon="5.62645">
        <ele>1219</ele>
        <time>2010-10-30T11:57:47Z</time>
      </trkpt>
      <trkpt lat="45.08071" lon="5.62648">
        <ele>1218.6</ele>
        <time>2010-10-30T11:57:50Z</time>
      </trkpt>
      <trkpt lat="45.08071" lon="5.62648">
        <ele>1218.6</ele>
        <time>2010-10-30T11:57:51Z</time>
      </trkpt>
      <trkpt lat="45.0807" lon="5.62649">
        <ele>1218.6</ele>
        <time>2010-10-30T11:57:52Z</time>
      </trkpt>
      <trkpt lat="45.08071" lon="5.62648">
        <ele>1218.2</ele>
        <time>2010-10-30T11:57:56Z</time>
      </trkpt>
      <trkpt lat="45.08073" lon="5.62648">
        <ele>1218.2</ele>
        <time>2010-10-30T11:57:59Z</time>
      </trkpt>
      <trkpt lat="45.08074" lon="5.62654">
        <ele>1218</ele>
        <time>2010-10-30T11:58:05Z</time>
      </trkpt>
      <trkpt lat="45.08074" lon="5.62658">
        <ele>1218.4</ele>
        <time>2010-10-30T11:58:08Z</time>
      </trkpt>
      <trkpt lat="45.08074" lon="5.62659">
        <ele>1218.8</ele>
        <time>2010-10-30T11:58:09Z</time>
      </trkpt>
      <trkpt lat="45.08076" lon="5.62662">
        <ele>1219.6</ele>
        <time>2010-10-30T11:58:13Z</time>
      </trkpt>
      <trkpt lat="45.08078" lon="5.62662">
        <ele>1219.6</ele>
        <time>2010-10-30T11:58:15Z</time>
      </trkpt>
      <trkpt lat="45.08078" lon="5.62663">
        <ele>1219.6</ele>
        <time>2010-10-30T11:58:18Z</time>
      </trkpt>
      <trkpt lat="45.08079" lon="5.62664">
        <ele>1219.4</ele>
        <time>2010-10-30T11:58:22Z</time>
      </trkpt>
      <trkpt lat="45.08079" lon="5.62665">
        <ele>1219.4</ele>
        <time>2010-10-30T11:58:23Z</time>
      </trkpt>
      <trkpt lat="45.08079" lon="5.62667">
        <ele>1219.2</ele>
        <time>2010-10-30T11:58:26Z</time>
      </trkpt>
      <trkpt lat="45.08081" lon="5.62668">
        <ele>1219</ele>
        <time>2010-10-30T11:58:27Z</time>
      </trkpt>
      <trkpt lat="45.08084" lon="5.62673">
        <ele>1218.8</ele>
        <time>2010-10-30T11:58:31Z</time>
      </trkpt>
      <trkpt lat="45.08085" lon="5.62673">
        <ele>1218.8</ele>
        <time>2010-10-30T11:58:33Z</time>
      </trkpt>
      <trkpt lat="45.08085" lon="5.62674">
        <ele>1218.8</ele>
        <time>2010-10-30T11:58:34Z</time>
      </trkpt>
      <trkpt lat="45.0809" lon="5.62678">
        <ele>1218.2</ele>
        <time>2010-10-30T11:58:37Z</time>
      </trkpt>
      <trkpt lat="45.08091" lon="5.62679">
        <ele>1218.2</ele>
        <time>2010-10-30T11:58:38Z</time>
      </trkpt>
      <trkpt lat="45.08091" lon="5.6268">
        <ele>1218</ele>
        <time>2010-10-30T11:58:39Z</time>
      </trkpt>
      <trkpt lat="45.08092" lon="5.62681">
        <ele>1217.8</ele>
        <time>2010-10-30T11:58:42Z</time>
      </trkpt>
      <trkpt lat="45.08092" lon="5.62683">
        <ele>1217.6</ele>
        <time>2010-10-30T11:58:44Z</time>
      </trkpt>
      <trkpt lat="45.08092" lon="5.62684">
        <ele>1217.4</ele>
        <time>2010-10-30T11:58:46Z</time>
      </trkpt>
      <trkpt lat="45.0809" lon="5.62689">
        <ele>1217.4</ele>
        <time>2010-10-30T11:58:50Z</time>
      </trkpt>
      <trkpt lat="45.08088" lon="5.6269">
        <ele>1217.4</ele>
        <time>2010-10-30T11:58:52Z</time>
      </trkpt>
      <trkpt lat="45.08086" lon="5.62692">
        <ele>1217.2</ele>
        <time>2010-10-30T11:58:55Z</time>
      </trkpt>
      <trkpt lat="45.08086" lon="5.62693">
        <ele>1217.4</ele>
        <time>2010-10-30T11:58:56Z</time>
      </trkpt>
      <trkpt lat="45.08089" lon="5.62695">
        <ele>1217.2</ele>
        <time>2010-10-30T11:58:58Z</time>
      </trkpt>
      <trkpt lat="45.0809" lon="5.62697">
        <ele>1217.2</ele>
        <time>2010-10-30T11:59:00Z</time>
      </trkpt>
      <trkpt lat="45.08091" lon="5.62698">
        <ele>1217.2</ele>
        <time>2010-10-30T11:59:01Z</time>
      </trkpt>
      <trkpt lat="45.08091" lon="5.62696">
        <ele>1217.8</ele>
        <time>2010-10-30T11:59:04Z</time>
      </trkpt>
      <trkpt lat="45.08092" lon="5.62696">
        <ele>1218.4</ele>
        <time>2010-10-30T11:59:06Z</time>
      </trkpt>
      <trkpt lat="45.08095" lon="5.62696">
        <ele>1218.6</ele>
        <time>2010-10-30T11:59:08Z</time>
      </trkpt>
      <trkpt lat="45.08098" lon="5.62695">
        <ele>1220</ele>
        <time>2010-10-30T11:59:13Z</time>
      </trkpt>
      <trkpt lat="45.081" lon="5.62694">
        <ele>1220.2</ele>
        <time>2010-10-30T11:59:15Z</time>
      </trkpt>
      <trkpt lat="45.081" lon="5.62687">
        <ele>1221.4</ele>
        <time>2010-10-30T11:59:19Z</time>
      </trkpt>
      <trkpt lat="45.08103" lon="5.6268">
        <ele>1222.2</ele>
        <time>2010-10-30T11:59:23Z</time>
      </trkpt>
      <trkpt lat="45.08104" lon="5.62677">
        <ele>1222.4</ele>
        <time>2010-10-30T11:59:24Z</time>
      </trkpt>
      <trkpt lat="45.08104" lon="5.62675">
        <ele>1222.6</ele>
        <time>2010-10-30T11:59:25Z</time>
      </trkpt>
      <trkpt lat="45.08107" lon="5.62671">
        <ele>1222.6</ele>
        <time>2010-10-30T11:59:28Z</time>
      </trkpt>
      <trkpt lat="45.08108" lon="5.6267">
        <ele>1222.6</ele>
        <time>2010-10-30T11:59:29Z</time>
      </trkpt>
      <trkpt lat="45.08111" lon="5.62662">
        <ele>1222.8</ele>
        <time>2010-10-30T11:59:34Z</time>
      </trkpt>
      <trkpt lat="45.08112" lon="5.62659">
        <ele>1222.8</ele>
        <time>2010-10-30T11:59:36Z</time>
      </trkpt>
      <trkpt lat="45.08111" lon="5.62654">
        <ele>1223.2</ele>
        <time>2010-10-30T11:59:39Z</time>
      </trkpt>
      <trkpt lat="45.08114" lon="5.62651">
        <ele>1223.2</ele>
        <time>2010-10-30T11:59:41Z</time>
      </trkpt>
      <trkpt lat="45.08115" lon="5.6265">
        <ele>1223.4</ele>
        <time>2010-10-30T11:59:43Z</time>
      </trkpt>
      <trkpt lat="45.08113" lon="5.62646">
        <ele>1224</ele>
        <time>2010-10-30T11:59:45Z</time>
      </trkpt>
      <trkpt lat="45.08113" lon="5.62638">
        <ele>1224.2</ele>
        <time>2010-10-30T11:59:50Z</time>
      </trkpt>
      <trkpt lat="45.08113" lon="5.62637">
        <ele>1224.4</ele>
        <time>2010-10-30T11:59:51Z</time>
      </trkpt>
      <trkpt lat="45.08112" lon="5.62636">
        <ele>1224.4</ele>
        <time>2010-10-30T11:59:52Z</time>
      </trkpt>
      <trkpt lat="45.08109" lon="5.62629">
        <ele>1224.6</ele>
        <time>2010-10-30T11:59:56Z</time>
      </trkpt>
      <trkpt lat="45.08109" lon="5.62623">
        <ele>1224.6</ele>
        <time>2010-10-30T11:59:59Z</time>
      </trkpt>
      <trkpt lat="45.08108" lon="5.62617">
        <ele>1224.6</ele>
        <time>2010-10-30T12:00:01Z</time>
      </trkpt>
      <trkpt lat="45.08107" lon="5.62612">
        <ele>1224.4</ele>
        <time>2010-10-30T12:00:03Z</time>
      </trkpt>
      <trkpt lat="45.08105" lon="5.62611">
        <ele>1224.4</ele>
        <time>2010-10-30T12:00:04Z</time>
      </trkpt>
      <trkpt lat="45.08103" lon="5.62606">
        <ele>1224.4</ele>
        <time>2010-10-30T12:00:06Z</time>
      </trkpt>
      <trkpt lat="45.08101" lon="5.62591">
        <ele>1224.2</ele>
        <time>2010-10-30T12:00:10Z</time>
      </trkpt>
      <trkpt lat="45.08102" lon="5.62587">
        <ele>1224.2</ele>
        <time>2010-10-30T12:00:11Z</time>
      </trkpt>
      <trkpt lat="45.08103" lon="5.62578">
        <ele>1224.2</ele>
        <time>2010-10-30T12:00:14Z</time>
      </trkpt>
      <trkpt lat="45.08103" lon="5.62573">
        <ele>1224.2</ele>
        <time>2010-10-30T12:00:16Z</time>
      </trkpt>
      <trkpt lat="45.08103" lon="5.62566">
        <ele>1224.6</ele>
        <time>2010-10-30T12:00:19Z</time>
      </trkpt>
      <trkpt lat="45.08103" lon="5.6256">
        <ele>1224.6</ele>
        <time>2010-10-30T12:00:22Z</time>
      </trkpt>
      <trkpt lat="45.08104" lon="5.62555">
        <ele>1224.6</ele>
        <time>2010-10-30T12:00:24Z</time>
      </trkpt>
      <trkpt lat="45.08108" lon="5.62542">
        <ele>1224.8</ele>
        <time>2010-10-30T12:00:29Z</time>
      </trkpt>
      <trkpt lat="45.08109" lon="5.62538">
        <ele>1224.8</ele>
        <time>2010-10-30T12:00:31Z</time>
      </trkpt>
      <trkpt lat="45.0811" lon="5.62537">
        <ele>1225</ele>
        <time>2010-10-30T12:00:32Z</time>
      </trkpt>
      <trkpt lat="45.08111" lon="5.62535">
        <ele>1225</ele>
        <time>2010-10-30T12:00:33Z</time>
      </trkpt>
      <trkpt lat="45.08117" lon="5.62526">
        <ele>1225.8</ele>
        <time>2010-10-30T12:00:38Z</time>
      </trkpt>
      <trkpt lat="45.0812" lon="5.62521">
        <ele>1226.2</ele>
        <time>2010-10-30T12:00:41Z</time>
      </trkpt>
      <trkpt lat="45.08122" lon="5.62518">
        <ele>1226.6</ele>
        <time>2010-10-30T12:00:43Z</time>
      </trkpt>
      <trkpt lat="45.08123" lon="5.62516">
        <ele>1227</ele>
        <time>2010-10-30T12:00:44Z</time>
      </trkpt>
      <trkpt lat="45.08124" lon="5.62514">
        <ele>1227.8</ele>
        <time>2010-10-30T12:00:46Z</time>
      </trkpt>
      <trkpt lat="45.08125" lon="5.62511">
        <ele>1229</ele>
        <time>2010-10-30T12:00:49Z</time>
      </trkpt>
      <trkpt lat="45.08126" lon="5.6251">
        <ele>1229.2</ele>
        <time>2010-10-30T12:00:50Z</time>
      </trkpt>
      <trkpt lat="45.08129" lon="5.62507">
        <ele>1230.4</ele>
        <time>2010-10-30T12:00:54Z</time>
      </trkpt>
      <trkpt lat="45.08133" lon="5.62503">
        <ele>1231.8</ele>
        <time>2010-10-30T12:00:59Z</time>
      </trkpt>
      <trkpt lat="45.08134" lon="5.62501">
        <ele>1233</ele>
        <time>2010-10-30T12:01:02Z</time>
      </trkpt>
      <trkpt lat="45.08135" lon="5.625">
        <ele>1234.4</ele>
        <time>2010-10-30T12:01:05Z</time>
      </trkpt>
      <trkpt lat="45.08135" lon="5.625">
        <ele>1234.8</ele>
        <time>2010-10-30T12:01:06Z</time>
      </trkpt>
      <trkpt lat="45.08138" lon="5.62496">
        <ele>1236.2</ele>
        <time>2010-10-30T12:01:10Z</time>
      </trkpt>
      <trkpt lat="45.08142" lon="5.62494">
        <ele>1237.4</ele>
        <time>2010-10-30T12:01:14Z</time>
      </trkpt>
      <trkpt lat="45.08146" lon="5.62492">
        <ele>1238.4</ele>
        <time>2010-10-30T12:01:18Z</time>
      </trkpt>
      <trkpt lat="45.08146" lon="5.62488">
        <ele>1239.4</ele>
        <time>2010-10-30T12:01:21Z</time>
      </trkpt>
      <trkpt lat="45.08146" lon="5.62488">
        <ele>1239.8</ele>
        <time>2010-10-30T12:01:22Z</time>
      </trkpt>
      <trkpt lat="45.08148" lon="5.62487">
        <ele>1240.4</ele>
        <time>2010-10-30T12:01:24Z</time>
      </trkpt>
      <trkpt lat="45.0815" lon="5.62486">
        <ele>1240.6</ele>
        <time>2010-10-30T12:01:26Z</time>
      </trkpt>
      <trkpt lat="45.08153" lon="5.62482">
        <ele>1240.6</ele>
        <time>2010-10-30T12:01:29Z</time>
      </trkpt>
      <trkpt lat="45.08155" lon="5.6248">
        <ele>1241</ele>
        <time>2010-10-30T12:01:32Z</time>
      </trkpt>
      <trkpt lat="45.08156" lon="5.62479">
        <ele>1241.2</ele>
        <time>2010-10-30T12:01:33Z</time>
      </trkpt>
      <trkpt lat="45.08157" lon="5.62477">
        <ele>1242</ele>
        <time>2010-10-30T12:01:37Z</time>
      </trkpt>
      <trkpt lat="45.08157" lon="5.62475">
        <ele>1242.2</ele>
        <time>2010-10-30T12:01:39Z</time>
      </trkpt>
      <trkpt lat="45.08159" lon="5.62473">
        <ele>1242.8</ele>
        <time>2010-10-30T12:01:43Z</time>
      </trkpt>
      <trkpt lat="45.08159" lon="5.62465">
        <ele>1245</ele>
        <time>2010-10-30T12:01:50Z</time>
      </trkpt>
      <trkpt lat="45.0816" lon="5.62461">
        <ele>1246.6</ele>
        <time>2010-10-30T12:01:54Z</time>
      </trkpt>
      <trkpt lat="45.08161" lon="5.62459">
        <ele>1247.2</ele>
        <time>2010-10-30T12:01:56Z</time>
      </trkpt>
      <trkpt lat="45.08159" lon="5.62457">
        <ele>1249.4</ele>
        <time>2010-10-30T12:01:59Z</time>
      </trkpt>
      <trkpt lat="45.08158" lon="5.62454">
        <ele>1252</ele>
        <time>2010-10-30T12:02:03Z</time>
      </trkpt>
      <trkpt lat="45.08156" lon="5.62454">
        <ele>1253.8</ele>
        <time>2010-10-30T12:02:05Z</time>
      </trkpt>
      <trkpt lat="45.08159" lon="5.6245">
        <ele>1257.4</ele>
        <time>2010-10-30T12:02:11Z</time>
      </trkpt>
      <trkpt lat="45.0817" lon="5.62448">
        <ele>1259.2</ele>
        <time>2010-10-30T12:02:19Z</time>
      </trkpt>
      <trkpt lat="45.08174" lon="5.62445">
        <ele>1260.2</ele>
        <time>2010-10-30T12:02:24Z</time>
      </trkpt>
      <trkpt lat="45.08173" lon="5.62443">
        <ele>1260.6</ele>
        <time>2010-10-30T12:02:25Z</time>
      </trkpt>
      <trkpt lat="45.08173" lon="5.62439">
        <ele>1262</ele>
        <time>2010-10-30T12:02:31Z</time>
      </trkpt>
      <trkpt lat="45.08174" lon="5.62437">
        <ele>1263</ele>
        <time>2010-10-30T12:02:35Z</time>
      </trkpt>
      <trkpt lat="45.08177" lon="5.62433">
        <ele>1263.2</ele>
        <time>2010-10-30T12:02:38Z</time>
      </trkpt>
      <trkpt lat="45.08177" lon="5.62433">
        <ele>1263.4</ele>
        <time>2010-10-30T12:02:39Z</time>
      </trkpt>
      <trkpt lat="45.08179" lon="5.6243">
        <ele>1264.2</ele>
        <time>2010-10-30T12:02:44Z</time>
      </trkpt>
      <trkpt lat="45.08179" lon="5.62429">
        <ele>1264.4</ele>
        <time>2010-10-30T12:02:45Z</time>
      </trkpt>
      <trkpt lat="45.08179" lon="5.62429">
        <ele>1265</ele>
        <time>2010-10-30T12:02:46Z</time>
      </trkpt>
      <trkpt lat="45.08179" lon="5.62427">
        <ele>1265.8</ele>
        <time>2010-10-30T12:02:49Z</time>
      </trkpt>
      <trkpt lat="45.08181" lon="5.62426">
        <ele>1266.2</ele>
        <time>2010-10-30T12:02:52Z</time>
      </trkpt>
      <trkpt lat="45.08183" lon="5.62424">
        <ele>1266.6</ele>
        <time>2010-10-30T12:02:56Z</time>
      </trkpt>
      <trkpt lat="45.08184" lon="5.62421">
        <ele>1268.2</ele>
        <time>2010-10-30T12:03:01Z</time>
      </trkpt>
      <trkpt lat="45.08184" lon="5.62421">
        <ele>1268.8</ele>
        <time>2010-10-30T12:03:03Z</time>
      </trkpt>
      <trkpt lat="45.08188" lon="5.62417">
        <ele>1269.8</ele>
        <time>2010-10-30T12:03:09Z</time>
      </trkpt>
      <trkpt lat="45.08187" lon="5.62418">
        <ele>1271.4</ele>
        <time>2010-10-30T12:03:15Z</time>
      </trkpt>
      <trkpt lat="45.08187" lon="5.62417">
        <ele>1271.6</ele>
        <time>2010-10-30T12:03:16Z</time>
      </trkpt>
      <trkpt lat="45.08189" lon="5.62414">
        <ele>1272.2</ele>
        <time>2010-10-30T12:03:19Z</time>
      </trkpt>
      <trkpt lat="45.08192" lon="5.6241">
        <ele>1272.8</ele>
        <time>2010-10-30T12:03:24Z</time>
      </trkpt>
      <trkpt lat="45.08192" lon="5.62403">
        <ele>1273.8</ele>
        <time>2010-10-30T12:03:29Z</time>
      </trkpt>
      <trkpt lat="45.08192" lon="5.624">
        <ele>1273.8</ele>
        <time>2010-10-30T12:03:31Z</time>
      </trkpt>
      <trkpt lat="45.0819" lon="5.62398">
        <ele>1274.4</ele>
        <time>2010-10-30T12:03:34Z</time>
      </trkpt>
      <trkpt lat="45.0819" lon="5.62396">
        <ele>1274.6</ele>
        <time>2010-10-30T12:03:36Z</time>
      </trkpt>
      <trkpt lat="45.08193" lon="5.62388">
        <ele>1274.6</ele>
        <time>2010-10-30T12:03:42Z</time>
      </trkpt>
      <trkpt lat="45.08195" lon="5.62383">
        <ele>1274.8</ele>
        <time>2010-10-30T12:03:46Z</time>
      </trkpt>
      <trkpt lat="45.08197" lon="5.62379">
        <ele>1275</ele>
        <time>2010-10-30T12:03:52Z</time>
      </trkpt>
      <trkpt lat="45.08197" lon="5.62376">
        <ele>1276</ele>
        <time>2010-10-30T12:03:57Z</time>
      </trkpt>
      <trkpt lat="45.08197" lon="5.62372">
        <ele>1276.8</ele>
        <time>2010-10-30T12:04:02Z</time>
      </trkpt>
      <trkpt lat="45.082" lon="5.62367">
        <ele>1277.6</ele>
        <time>2010-10-30T12:04:08Z</time>
      </trkpt>
      <trkpt lat="45.08202" lon="5.62365">
        <ele>1278.2</ele>
        <time>2010-10-30T12:04:14Z</time>
      </trkpt>
      <trkpt lat="45.08203" lon="5.62364">
        <ele>1278.2</ele>
        <time>2010-10-30T12:04:15Z</time>
      </trkpt>
      <trkpt lat="45.08204" lon="5.62363">
        <ele>1278.6</ele>
        <time>2010-10-30T12:04:17Z</time>
      </trkpt>
      <trkpt lat="45.08205" lon="5.62362">
        <ele>1278.6</ele>
        <time>2010-10-30T12:04:18Z</time>
      </trkpt>
      <trkpt lat="45.08205" lon="5.62362">
        <ele>1278.8</ele>
        <time>2010-10-30T12:04:19Z</time>
      </trkpt>
      <trkpt lat="45.08204" lon="5.62358">
        <ele>1279.8</ele>
        <time>2010-10-30T12:04:22Z</time>
      </trkpt>
      <trkpt lat="45.08204" lon="5.62356">
        <ele>1280.4</ele>
        <time>2010-10-30T12:04:25Z</time>
      </trkpt>
      <trkpt lat="45.08204" lon="5.62355">
        <ele>1280.8</ele>
        <time>2010-10-30T12:04:26Z</time>
      </trkpt>
      <trkpt lat="45.08205" lon="5.62353">
        <ele>1281</ele>
        <time>2010-10-30T12:04:27Z</time>
      </trkpt>
      <trkpt lat="45.08205" lon="5.62349">
        <ele>1282.2</ele>
        <time>2010-10-30T12:04:31Z</time>
      </trkpt>
      <trkpt lat="45.08206" lon="5.62348">
        <ele>1282.6</ele>
        <time>2010-10-30T12:04:33Z</time>
      </trkpt>
      <trkpt lat="45.08207" lon="5.62347">
        <ele>1282.8</ele>
        <time>2010-10-30T12:04:34Z</time>
      </trkpt>
      <trkpt lat="45.08208" lon="5.62345">
        <ele>1283.2</ele>
        <time>2010-10-30T12:04:36Z</time>
      </trkpt>
      <trkpt lat="45.08209" lon="5.62345">
        <ele>1283.2</ele>
        <time>2010-10-30T12:04:37Z</time>
      </trkpt>
      <trkpt lat="45.08213" lon="5.62348">
        <ele>1283.2</ele>
        <time>2010-10-30T12:04:40Z</time>
      </trkpt>
      <trkpt lat="45.08214" lon="5.62349">
        <ele>1283.4</ele>
        <time>2010-10-30T12:04:41Z</time>
      </trkpt>
      <trkpt lat="45.08215" lon="5.62351">
        <ele>1283.8</ele>
        <time>2010-10-30T12:04:44Z</time>
      </trkpt>
      <trkpt lat="45.08216" lon="5.62352">
        <ele>1283.8</ele>
        <time>2010-10-30T12:04:46Z</time>
      </trkpt>
      <trkpt lat="45.08216" lon="5.62351">
        <ele>1284.2</ele>
        <time>2010-10-30T12:04:48Z</time>
      </trkpt>
      <trkpt lat="45.08218" lon="5.62351">
        <ele>1284.4</ele>
        <time>2010-10-30T12:04:51Z</time>
      </trkpt>
      <trkpt lat="45.08219" lon="5.62352">
        <ele>1284.4</ele>
        <time>2010-10-30T12:04:52Z</time>
      </trkpt>
      <trkpt lat="45.0822" lon="5.62355">
        <ele>1285</ele>
        <time>2010-10-30T12:04:55Z</time>
      </trkpt>
      <trkpt lat="45.08221" lon="5.62357">
        <ele>1285.4</ele>
        <time>2010-10-30T12:04:58Z</time>
      </trkpt>
      <trkpt lat="45.08223" lon="5.6236">
        <ele>1286.4</ele>
        <time>2010-10-30T12:05:03Z</time>
      </trkpt>
      <trkpt lat="45.08226" lon="5.62363">
        <ele>1288</ele>
        <time>2010-10-30T12:05:10Z</time>
      </trkpt>
      <trkpt lat="45.08228" lon="5.62364">
        <ele>1289.2</ele>
        <time>2010-10-30T12:05:15Z</time>
      </trkpt>
      <trkpt lat="45.0823" lon="5.62366">
        <ele>1290.2</ele>
        <time>2010-10-30T12:05:19Z</time>
      </trkpt>
      <trkpt lat="45.0823" lon="5.62367">
        <ele>1290.6</ele>
        <time>2010-10-30T12:05:20Z</time>
      </trkpt>
      <trkpt lat="45.08233" lon="5.62366">
        <ele>1291.4</ele>
        <time>2010-10-30T12:05:24Z</time>
      </trkpt>
      <trkpt lat="45.08234" lon="5.6236">
        <ele>1292</ele>
        <time>2010-10-30T12:05:30Z</time>
      </trkpt>
      <trkpt lat="45.08234" lon="5.62357">
        <ele>1292.4</ele>
        <time>2010-10-30T12:05:32Z</time>
      </trkpt>
      <trkpt lat="45.08235" lon="5.62351">
        <ele>1292.6</ele>
        <time>2010-10-30T12:05:35Z</time>
      </trkpt>
      <trkpt lat="45.08237" lon="5.62348">
        <ele>1292.6</ele>
        <time>2010-10-30T12:05:37Z</time>
      </trkpt>
      <trkpt lat="45.08236" lon="5.62341">
        <ele>1293.6</ele>
        <time>2010-10-30T12:05:40Z</time>
      </trkpt>
      <trkpt lat="45.08243" lon="5.62335">
        <ele>1294.4</ele>
        <time>2010-10-30T12:05:46Z</time>
      </trkpt>
      <trkpt lat="45.08249" lon="5.62329">
        <ele>1295.2</ele>
        <time>2010-10-30T12:05:52Z</time>
      </trkpt>
      <trkpt lat="45.0825" lon="5.62329">
        <ele>1295.2</ele>
        <time>2010-10-30T12:05:53Z</time>
      </trkpt>
      <trkpt lat="45.08255" lon="5.62323">
        <ele>1295.2</ele>
        <time>2010-10-30T12:05:58Z</time>
      </trkpt>
      <trkpt lat="45.08256" lon="5.62322">
        <ele>1295.2</ele>
        <time>2010-10-30T12:05:59Z</time>
      </trkpt>
      <trkpt lat="45.08262" lon="5.62313">
        <ele>1295</ele>
        <time>2010-10-30T12:06:05Z</time>
      </trkpt>
      <trkpt lat="45.08263" lon="5.6231">
        <ele>1295</ele>
        <time>2010-10-30T12:06:07Z</time>
      </trkpt>
      <trkpt lat="45.08264" lon="5.62308">
        <ele>1295</ele>
        <time>2010-10-30T12:06:09Z</time>
      </trkpt>
      <trkpt lat="45.08264" lon="5.62307">
        <ele>1295</ele>
        <time>2010-10-30T12:06:11Z</time>
      </trkpt>
      <trkpt lat="45.08263" lon="5.62305">
        <ele>1295.6</ele>
        <time>2010-10-30T12:06:16Z</time>
      </trkpt>
      <trkpt lat="45.08263" lon="5.62302">
        <ele>1296.4</ele>
        <time>2010-10-30T12:06:20Z</time>
      </trkpt>
      <trkpt lat="45.08261" lon="5.62297">
        <ele>1298.2</ele>
        <time>2010-10-30T12:06:25Z</time>
      </trkpt>
      <trkpt lat="45.08262" lon="5.62293">
        <ele>1299.8</ele>
        <time>2010-10-30T12:06:30Z</time>
      </trkpt>
      <trkpt lat="45.08263" lon="5.62291">
        <ele>1300.4</ele>
        <time>2010-10-30T12:06:32Z</time>
      </trkpt>
      <trkpt lat="45.08266" lon="5.62287">
        <ele>1301.6</ele>
        <time>2010-10-30T12:06:36Z</time>
      </trkpt>
      <trkpt lat="45.08266" lon="5.62285">
        <ele>1302.2</ele>
        <time>2010-10-30T12:06:38Z</time>
      </trkpt>
      <trkpt lat="45.08266" lon="5.62283">
        <ele>1302.8</ele>
        <time>2010-10-30T12:06:40Z</time>
      </trkpt>
      <trkpt lat="45.08262" lon="5.6228">
        <ele>1304</ele>
        <time>2010-10-30T12:06:41Z</time>
      </trkpt>
      <trkpt lat="45.08253" lon="5.62273">
        <ele>1307.4</ele>
        <time>2010-10-30T12:06:44Z</time>
      </trkpt>
      <trkpt lat="45.08252" lon="5.62271">
        <ele>1308.2</ele>
        <time>2010-10-30T12:06:45Z</time>
      </trkpt>
      <trkpt lat="45.08253" lon="5.62266">
        <ele>1311.4</ele>
        <time>2010-10-30T12:06:50Z</time>
      </trkpt>
      <trkpt lat="45.08254" lon="5.62264">
        <ele>1312</ele>
        <time>2010-10-30T12:06:51Z</time>
      </trkpt>
      <trkpt lat="45.08254" lon="5.6226">
        <ele>1314.4</ele>
        <time>2010-10-30T12:06:55Z</time>
      </trkpt>
      <trkpt lat="45.08254" lon="5.62254">
        <ele>1316.4</ele>
        <time>2010-10-30T12:07:00Z</time>
      </trkpt>
      <trkpt lat="45.08254" lon="5.62254">
        <ele>1316.8</ele>
        <time>2010-10-30T12:07:01Z</time>
      </trkpt>
      <trkpt lat="45.08253" lon="5.62246">
        <ele>1318.4</ele>
        <time>2010-10-30T12:07:07Z</time>
      </trkpt>
      <trkpt lat="45.08252" lon="5.6224">
        <ele>1319.4</ele>
        <time>2010-10-30T12:07:13Z</time>
      </trkpt>
      <trkpt lat="45.08252" lon="5.62239">
        <ele>1319.8</ele>
        <time>2010-10-30T12:07:14Z</time>
      </trkpt>
      <trkpt lat="45.08252" lon="5.62234">
        <ele>1320.4</ele>
        <time>2010-10-30T12:07:18Z</time>
      </trkpt>
      <trkpt lat="45.08251" lon="5.62227">
        <ele>1321.4</ele>
        <time>2010-10-30T12:07:23Z</time>
      </trkpt>
      <trkpt lat="45.08247" lon="5.62218">
        <ele>1323.8</ele>
        <time>2010-10-30T12:07:31Z</time>
      </trkpt>
      <trkpt lat="45.08245" lon="5.62215">
        <ele>1325.4</ele>
        <time>2010-10-30T12:07:38Z</time>
      </trkpt>
      <trkpt lat="45.08245" lon="5.62211">
        <ele>1325.8</ele>
        <time>2010-10-30T12:07:43Z</time>
      </trkpt>
      <trkpt lat="45.08243" lon="5.62206">
        <ele>1326.4</ele>
        <time>2010-10-30T12:07:51Z</time>
      </trkpt>
      <trkpt lat="45.0824" lon="5.62194">
        <ele>1328</ele>
        <time>2010-10-30T12:07:58Z</time>
      </trkpt>
      <trkpt lat="45.08241" lon="5.62188">
        <ele>1329</ele>
        <time>2010-10-30T12:08:02Z</time>
      </trkpt>
      <trkpt lat="45.0824" lon="5.62182">
        <ele>1330.4</ele>
        <time>2010-10-30T12:08:06Z</time>
      </trkpt>
      <trkpt lat="45.08248" lon="5.62177">
        <ele>1334.8</ele>
        <time>2010-10-30T12:08:21Z</time>
      </trkpt>
      <trkpt lat="45.08253" lon="5.62177">
        <ele>1335.2</ele>
        <time>2010-10-30T12:08:25Z</time>
      </trkpt>
      <trkpt lat="45.08253" lon="5.62172">
        <ele>1345.6</ele>
        <time>2010-10-30T12:08:46Z</time>
      </trkpt>
      <trkpt lat="45.08254" lon="5.6217">
        <ele>1347.4</ele>
        <time>2010-10-30T12:08:50Z</time>
      </trkpt>
      <trkpt lat="45.08258" lon="5.62165">
        <ele>1349.6</ele>
        <time>2010-10-30T12:08:59Z</time>
      </trkpt>
      <trkpt lat="45.08262" lon="5.62161">
        <ele>1350.4</ele>
        <time>2010-10-30T12:09:04Z</time>
      </trkpt>
      <trkpt lat="45.08264" lon="5.62157">
        <ele>1351.4</ele>
        <time>2010-10-30T12:09:10Z</time>
      </trkpt>
      <trkpt lat="45.0826" lon="5.62149">
        <ele>1353.6</ele>
        <time>2010-10-30T12:09:20Z</time>
      </trkpt>
      <trkpt lat="45.08259" lon="5.62142">
        <ele>1354.4</ele>
        <time>2010-10-30T12:09:27Z</time>
      </trkpt>
      <trkpt lat="45.08257" lon="5.6214">
        <ele>1354.8</ele>
        <time>2010-10-30T12:09:30Z</time>
      </trkpt>
      <trkpt lat="45.08255" lon="5.62138">
        <ele>1355.2</ele>
        <time>2010-10-30T12:09:33Z</time>
      </trkpt>
      <trkpt lat="45.08254" lon="5.62137">
        <ele>1355.4</ele>
        <time>2010-10-30T12:09:34Z</time>
      </trkpt>
      <trkpt lat="45.08253" lon="5.62135">
        <ele>1356.4</ele>
        <time>2010-10-30T12:09:37Z</time>
      </trkpt>
      <trkpt lat="45.08252" lon="5.62135">
        <ele>1356.6</ele>
        <time>2010-10-30T12:09:38Z</time>
      </trkpt>
      <trkpt lat="45.0825" lon="5.62134">
        <ele>1357.2</ele>
        <time>2010-10-30T12:09:40Z</time>
      </trkpt>
      <trkpt lat="45.08246" lon="5.62133">
        <ele>1357.8</ele>
        <time>2010-10-30T12:09:44Z</time>
      </trkpt>
      <trkpt lat="45.08245" lon="5.6213">
        <ele>1358.2</ele>
        <time>2010-10-30T12:09:47Z</time>
      </trkpt>
      <trkpt lat="45.08243" lon="5.62129">
        <ele>1358.4</ele>
        <time>2010-10-30T12:09:49Z</time>
      </trkpt>
      <trkpt lat="45.08237" lon="5.62122">
        <ele>1360</ele>
        <time>2010-10-30T12:09:58Z</time>
      </trkpt>
      <trkpt lat="45.08235" lon="5.6212">
        <ele>1360.6</ele>
        <time>2010-10-30T12:10:02Z</time>
      </trkpt>
      <trkpt lat="45.0823" lon="5.62118">
        <ele>1361.6</ele>
        <time>2010-10-30T12:10:08Z</time>
      </trkpt>
      <trkpt lat="45.0823" lon="5.62117">
        <ele>1361.8</ele>
        <time>2010-10-30T12:10:09Z</time>
      </trkpt>
      <trkpt lat="45.0823" lon="5.62115">
        <ele>1362</ele>
        <time>2010-10-30T12:10:10Z</time>
      </trkpt>
      <trkpt lat="45.08228" lon="5.62114">
        <ele>1362.4</ele>
        <time>2010-10-30T12:10:12Z</time>
      </trkpt>
      <trkpt lat="45.08228" lon="5.62112">
        <ele>1362.6</ele>
        <time>2010-10-30T12:10:13Z</time>
      </trkpt>
      <trkpt lat="45.08228" lon="5.62109">
        <ele>1362.8</ele>
        <time>2010-10-30T12:10:15Z</time>
      </trkpt>
      <trkpt lat="45.08228" lon="5.62104">
        <ele>1363</ele>
        <time>2010-10-30T12:10:18Z</time>
      </trkpt>
      <trkpt lat="45.08225" lon="5.62093">
        <ele>1364</ele>
        <time>2010-10-30T12:10:26Z</time>
      </trkpt>
      <trkpt lat="45.08224" lon="5.62091">
        <ele>1364.2</ele>
        <time>2010-10-30T12:10:27Z</time>
      </trkpt>
      <trkpt lat="45.08225" lon="5.62088">
        <ele>1364.6</ele>
        <time>2010-10-30T12:10:29Z</time>
      </trkpt>
      <trkpt lat="45.08225" lon="5.62087">
        <ele>1364.8</ele>
        <time>2010-10-30T12:10:30Z</time>
      </trkpt>
      <trkpt lat="45.08225" lon="5.62082">
        <ele>1365</ele>
        <time>2010-10-30T12:10:33Z</time>
      </trkpt>
      <trkpt lat="45.08221" lon="5.62078">
        <ele>1366.8</ele>
        <time>2010-10-30T12:10:38Z</time>
      </trkpt>
      <trkpt lat="45.08219" lon="5.62077">
        <ele>1367.8</ele>
        <time>2010-10-30T12:10:40Z</time>
      </trkpt>
      <trkpt lat="45.08217" lon="5.62077">
        <ele>1368.4</ele>
        <time>2010-10-30T12:10:42Z</time>
      </trkpt>
      <trkpt lat="45.08214" lon="5.62076">
        <ele>1369.2</ele>
        <time>2010-10-30T12:10:44Z</time>
      </trkpt>
      <trkpt lat="45.08209" lon="5.62074">
        <ele>1370.6</ele>
        <time>2010-10-30T12:10:49Z</time>
      </trkpt>
      <trkpt lat="45.08206" lon="5.6207">
        <ele>1371.2</ele>
        <time>2010-10-30T12:10:53Z</time>
      </trkpt>
      <trkpt lat="45.08207" lon="5.62069">
        <ele>1371.6</ele>
        <time>2010-10-30T12:10:55Z</time>
      </trkpt>
      <trkpt lat="45.08202" lon="5.62066">
        <ele>1372.4</ele>
        <time>2010-10-30T12:11:00Z</time>
      </trkpt>
      <trkpt lat="45.08198" lon="5.62063">
        <ele>1373.6</ele>
        <time>2010-10-30T12:11:04Z</time>
      </trkpt>
      <trkpt lat="45.08195" lon="5.6206">
        <ele>1374.4</ele>
        <time>2010-10-30T12:11:07Z</time>
      </trkpt>
      <trkpt lat="45.08192" lon="5.62056">
        <ele>1375.4</ele>
        <time>2010-10-30T12:11:10Z</time>
      </trkpt>
      <trkpt lat="45.08191" lon="5.62054">
        <ele>1375.6</ele>
        <time>2010-10-30T12:11:11Z</time>
      </trkpt>
      <trkpt lat="45.08189" lon="5.62051">
        <ele>1376.2</ele>
        <time>2010-10-30T12:11:13Z</time>
      </trkpt>
      <trkpt lat="45.0819" lon="5.62047">
        <ele>1376.6</ele>
        <time>2010-10-30T12:11:15Z</time>
      </trkpt>
      <trkpt lat="45.08191" lon="5.62047">
        <ele>1377.2</ele>
        <time>2010-10-30T12:11:17Z</time>
      </trkpt>
      <trkpt lat="45.08191" lon="5.62047">
        <ele>1377.6</ele>
        <time>2010-10-30T12:11:18Z</time>
      </trkpt>
      <trkpt lat="45.08191" lon="5.62048">
        <ele>1377.8</ele>
        <time>2010-10-30T12:11:19Z</time>
      </trkpt>
      <trkpt lat="45.08193" lon="5.62047">
        <ele>1380.4</ele>
        <time>2010-10-30T12:11:26Z</time>
      </trkpt>
      <trkpt lat="45.08193" lon="5.62045">
        <ele>1380.8</ele>
        <time>2010-10-30T12:11:27Z</time>
      </trkpt>
      <trkpt lat="45.08194" lon="5.62044">
        <ele>1382.2</ele>
        <time>2010-10-30T12:11:30Z</time>
      </trkpt>
      <trkpt lat="45.08196" lon="5.62039">
        <ele>1383</ele>
        <time>2010-10-30T12:11:34Z</time>
      </trkpt>
      <trkpt lat="45.08196" lon="5.62036">
        <ele>1384.2</ele>
        <time>2010-10-30T12:11:38Z</time>
      </trkpt>
      <trkpt lat="45.08196" lon="5.62032">
        <ele>1385.2</ele>
        <time>2010-10-30T12:11:42Z</time>
      </trkpt>
      <trkpt lat="45.08197" lon="5.62029">
        <ele>1386.2</ele>
        <time>2010-10-30T12:11:46Z</time>
      </trkpt>
      <trkpt lat="45.08196" lon="5.62023">
        <ele>1387.8</ele>
        <time>2010-10-30T12:11:51Z</time>
      </trkpt>
      <trkpt lat="45.08198" lon="5.62022">
        <ele>1388.6</ele>
        <time>2010-10-30T12:11:54Z</time>
      </trkpt>
      <trkpt lat="45.08197" lon="5.62021">
        <ele>1389</ele>
        <time>2010-10-30T12:11:55Z</time>
      </trkpt>
      <trkpt lat="45.08197" lon="5.62019">
        <ele>1389.4</ele>
        <time>2010-10-30T12:11:56Z</time>
      </trkpt>
      <trkpt lat="45.082" lon="5.62017">
        <ele>1390</ele>
        <time>2010-10-30T12:11:59Z</time>
      </trkpt>
      <trkpt lat="45.08201" lon="5.62017">
        <ele>1392.8</ele>
        <time>2010-10-30T12:12:05Z</time>
      </trkpt>
      <trkpt lat="45.08203" lon="5.62013">
        <ele>1394</ele>
        <time>2010-10-30T12:12:09Z</time>
      </trkpt>
      <trkpt lat="45.08205" lon="5.6201">
        <ele>1395.2</ele>
        <time>2010-10-30T12:12:14Z</time>
      </trkpt>
      <trkpt lat="45.08207" lon="5.62009">
        <ele>1395.8</ele>
        <time>2010-10-30T12:12:17Z</time>
      </trkpt>
      <trkpt lat="45.08207" lon="5.62008">
        <ele>1396.8</ele>
        <time>2010-10-30T12:12:19Z</time>
      </trkpt>
      <trkpt lat="45.08206" lon="5.62007">
        <ele>1398.8</ele>
        <time>2010-10-30T12:12:23Z</time>
      </trkpt>
      <trkpt lat="45.08205" lon="5.62004">
        <ele>1399.8</ele>
        <time>2010-10-30T12:12:25Z</time>
      </trkpt>
      <trkpt lat="45.08206" lon="5.62003">
        <ele>1401</ele>
        <time>2010-10-30T12:12:28Z</time>
      </trkpt>
      <trkpt lat="45.08207" lon="5.62001">
        <ele>1401.6</ele>
        <time>2010-10-30T12:12:30Z</time>
      </trkpt>
      <trkpt lat="45.08208" lon="5.61998">
        <ele>1402.6</ele>
        <time>2010-10-30T12:12:33Z</time>
      </trkpt>
      <trkpt lat="45.08209" lon="5.61996">
        <ele>1403</ele>
        <time>2010-10-30T12:12:34Z</time>
      </trkpt>
      <trkpt lat="45.08211" lon="5.61999">
        <ele>1404</ele>
        <time>2010-10-30T12:12:37Z</time>
      </trkpt>
      <trkpt lat="45.08214" lon="5.61999">
        <ele>1405</ele>
        <time>2010-10-30T12:12:42Z</time>
      </trkpt>
      <trkpt lat="45.08215" lon="5.61998">
        <ele>1405</ele>
        <time>2010-10-30T12:12:43Z</time>
      </trkpt>
      <trkpt lat="45.08216" lon="5.61998">
        <ele>1405.2</ele>
        <time>2010-10-30T12:12:44Z</time>
      </trkpt>
      <trkpt lat="45.08217" lon="5.61994">
        <ele>1405.6</ele>
        <time>2010-10-30T12:12:47Z</time>
      </trkpt>
      <trkpt lat="45.08218" lon="5.61992">
        <ele>1406.4</ele>
        <time>2010-10-30T12:12:51Z</time>
      </trkpt>
      <trkpt lat="45.08219" lon="5.61992">
        <ele>1406.4</ele>
        <time>2010-10-30T12:12:52Z</time>
      </trkpt>
      <trkpt lat="45.08221" lon="5.61991">
        <ele>1406.6</ele>
        <time>2010-10-30T12:12:55Z</time>
      </trkpt>
      <trkpt lat="45.08221" lon="5.6199">
        <ele>1406.8</ele>
        <time>2010-10-30T12:12:56Z</time>
      </trkpt>
      <trkpt lat="45.08222" lon="5.61987">
        <ele>1406.8</ele>
        <time>2010-10-30T12:13:00Z</time>
      </trkpt>
      <trkpt lat="45.08223" lon="5.61986">
        <ele>1406.6</ele>
        <time>2010-10-30T12:13:01Z</time>
      </trkpt>
      <trkpt lat="45.08223" lon="5.61982">
        <ele>1406.8</ele>
        <time>2010-10-30T12:13:04Z</time>
      </trkpt>
      <trkpt lat="45.08228" lon="5.61983">
        <ele>1407.2</ele>
        <time>2010-10-30T12:13:10Z</time>
      </trkpt>
      <trkpt lat="45.0823" lon="5.61981">
        <ele>1407.4</ele>
        <time>2010-10-30T12:13:13Z</time>
      </trkpt>
      <trkpt lat="45.08231" lon="5.61981">
        <ele>1407.4</ele>
        <time>2010-10-30T12:13:14Z</time>
      </trkpt>
      <trkpt lat="45.08234" lon="5.61981">
        <ele>1408</ele>
        <time>2010-10-30T12:13:18Z</time>
      </trkpt>
      <trkpt lat="45.08234" lon="5.61981">
        <ele>1408.6</ele>
        <time>2010-10-30T12:13:21Z</time>
      </trkpt>
      <trkpt lat="45.08235" lon="5.6198">
        <ele>1408.8</ele>
        <time>2010-10-30T12:13:22Z</time>
      </trkpt>
      <trkpt lat="45.08235" lon="5.61978">
        <ele>1408.8</ele>
        <time>2010-10-30T12:13:24Z</time>
      </trkpt>
      <trkpt lat="45.08236" lon="5.61976">
        <ele>1409.2</ele>
        <time>2010-10-30T12:13:26Z</time>
      </trkpt>
      <trkpt lat="45.08237" lon="5.61975">
        <ele>1411.2</ele>
        <time>2010-10-30T12:13:32Z</time>
      </trkpt>
      <trkpt lat="45.08237" lon="5.61974">
        <ele>1411.4</ele>
        <time>2010-10-30T12:13:33Z</time>
      </trkpt>
      <trkpt lat="45.08237" lon="5.61973">
        <ele>1412.8</ele>
        <time>2010-10-30T12:13:37Z</time>
      </trkpt>
      <trkpt lat="45.08238" lon="5.61968">
        <ele>1414.6</ele>
        <time>2010-10-30T12:13:42Z</time>
      </trkpt>
      <trkpt lat="45.08239" lon="5.61967">
        <ele>1414.8</ele>
        <time>2010-10-30T12:13:43Z</time>
      </trkpt>
      <trkpt lat="45.08242" lon="5.61962">
        <ele>1416</ele>
        <time>2010-10-30T12:13:48Z</time>
      </trkpt>
      <trkpt lat="45.08259" lon="5.61954">
        <ele>1419.4</ele>
        <time>2010-10-30T12:14:10Z</time>
      </trkpt>
      <trkpt lat="45.08258" lon="5.61953">
        <ele>1420.6</ele>
        <time>2010-10-30T12:14:14Z</time>
      </trkpt>
      <trkpt lat="45.08257" lon="5.61953">
        <ele>1422.6</ele>
        <time>2010-10-30T12:14:22Z</time>
      </trkpt>
      <trkpt lat="45.08253" lon="5.61952">
        <ele>1424.4</ele>
        <time>2010-10-30T12:14:27Z</time>
      </trkpt>
      <trkpt lat="45.08252" lon="5.61951">
        <ele>1425.2</ele>
        <time>2010-10-30T12:14:29Z</time>
      </trkpt>
      <trkpt lat="45.08251" lon="5.61947">
        <ele>1426.2</ele>
        <time>2010-10-30T12:14:31Z</time>
      </trkpt>
      <trkpt lat="45.08251" lon="5.61945">
        <ele>1428</ele>
        <time>2010-10-30T12:14:35Z</time>
      </trkpt>
      <trkpt lat="45.08251" lon="5.61941">
        <ele>1430</ele>
        <time>2010-10-30T12:14:40Z</time>
      </trkpt>
      <trkpt lat="45.0825" lon="5.61938">
        <ele>1432.8</ele>
        <time>2010-10-30T12:14:46Z</time>
      </trkpt>
      <trkpt lat="45.08249" lon="5.61936">
        <ele>1434.4</ele>
        <time>2010-10-30T12:14:49Z</time>
      </trkpt>
      <trkpt lat="45.0825" lon="5.61936">
        <ele>1434.8</ele>
        <time>2010-10-30T12:14:50Z</time>
      </trkpt>
      <trkpt lat="45.0825" lon="5.61935">
        <ele>1435.4</ele>
        <time>2010-10-30T12:14:51Z</time>
      </trkpt>
      <trkpt lat="45.08252" lon="5.6193">
        <ele>1437.8</ele>
        <time>2010-10-30T12:14:56Z</time>
      </trkpt>
      <trkpt lat="45.08253" lon="5.61927">
        <ele>1440.2</ele>
        <time>2010-10-30T12:15:01Z</time>
      </trkpt>
      <trkpt lat="45.08254" lon="5.61927">
        <ele>1440.6</ele>
        <time>2010-10-30T12:15:02Z</time>
      </trkpt>
      <trkpt lat="45.08256" lon="5.61926">
        <ele>1441.6</ele>
        <time>2010-10-30T12:15:05Z</time>
      </trkpt>
      <trkpt lat="45.08257" lon="5.61925">
        <ele>1441.8</ele>
        <time>2010-10-30T12:15:06Z</time>
      </trkpt>
      <trkpt lat="45.08258" lon="5.61924">
        <ele>1442.4</ele>
        <time>2010-10-30T12:15:08Z</time>
      </trkpt>
      <trkpt lat="45.0826" lon="5.61922">
        <ele>1443</ele>
        <time>2010-10-30T12:15:11Z</time>
      </trkpt>
      <trkpt lat="45.08261" lon="5.61921">
        <ele>1443</ele>
        <time>2010-10-30T12:15:12Z</time>
      </trkpt>
      <trkpt lat="45.08261" lon="5.61919">
        <ele>1443.2</ele>
        <time>2010-10-30T12:15:13Z</time>
      </trkpt>
      <trkpt lat="45.08263" lon="5.61918">
        <ele>1443.4</ele>
        <time>2010-10-30T12:15:15Z</time>
      </trkpt>
      <trkpt lat="45.08267" lon="5.61916">
        <ele>1443.6</ele>
        <time>2010-10-30T12:15:19Z</time>
      </trkpt>
      <trkpt lat="45.0827" lon="5.61914">
        <ele>1443.6</ele>
        <time>2010-10-30T12:15:23Z</time>
      </trkpt>
      <trkpt lat="45.08272" lon="5.6191">
        <ele>1443.6</ele>
        <time>2010-10-30T12:15:27Z</time>
      </trkpt>
      <trkpt lat="45.08273" lon="5.61907">
        <ele>1443.8</ele>
        <time>2010-10-30T12:15:31Z</time>
      </trkpt>
      <trkpt lat="45.08274" lon="5.61906">
        <ele>1443.6</ele>
        <time>2010-10-30T12:15:32Z</time>
      </trkpt>
      <trkpt lat="45.08275" lon="5.61903">
        <ele>1443.8</ele>
        <time>2010-10-30T12:15:35Z</time>
      </trkpt>
      <trkpt lat="45.08275" lon="5.61901">
        <ele>1444.2</ele>
        <time>2010-10-30T12:15:39Z</time>
      </trkpt>
      <trkpt lat="45.08278" lon="5.619">
        <ele>1444.6</ele>
        <time>2010-10-30T12:15:43Z</time>
      </trkpt>
      <trkpt lat="45.08279" lon="5.61897">
        <ele>1445.4</ele>
        <time>2010-10-30T12:15:47Z</time>
      </trkpt>
      <trkpt lat="45.08281" lon="5.61898">
        <ele>1446</ele>
        <time>2010-10-30T12:15:50Z</time>
      </trkpt>
      <trkpt lat="45.08286" lon="5.61895">
        <ele>1446.4</ele>
        <time>2010-10-30T12:15:54Z</time>
      </trkpt>
      <trkpt lat="45.08289" lon="5.61893">
        <ele>1446.8</ele>
        <time>2010-10-30T12:15:59Z</time>
      </trkpt>
      <trkpt lat="45.08291" lon="5.61895">
        <ele>1447.6</ele>
        <time>2010-10-30T12:16:04Z</time>
      </trkpt>
      <trkpt lat="45.08292" lon="5.61891">
        <ele>1449</ele>
        <time>2010-10-30T12:16:14Z</time>
      </trkpt>
      <trkpt lat="45.08292" lon="5.6189">
        <ele>1449.2</ele>
        <time>2010-10-30T12:16:16Z</time>
      </trkpt>
      <trkpt lat="45.08289" lon="5.61886">
        <ele>1449.4</ele>
        <time>2010-10-30T12:16:22Z</time>
      </trkpt>
      <trkpt lat="45.08285" lon="5.61884">
        <ele>1449.8</ele>
        <time>2010-10-30T12:16:27Z</time>
      </trkpt>
      <trkpt lat="45.08282" lon="5.61883">
        <ele>1450.6</ele>
        <time>2010-10-30T12:16:30Z</time>
      </trkpt>
      <trkpt lat="45.0828" lon="5.61881">
        <ele>1451</ele>
        <time>2010-10-30T12:16:33Z</time>
      </trkpt>
      <trkpt lat="45.08279" lon="5.61878">
        <ele>1451.4</ele>
        <time>2010-10-30T12:16:38Z</time>
      </trkpt>
      <trkpt lat="45.08279" lon="5.61876">
        <ele>1451.6</ele>
        <time>2010-10-30T12:16:39Z</time>
      </trkpt>
      <trkpt lat="45.08278" lon="5.61874">
        <ele>1452.6</ele>
        <time>2010-10-30T12:16:44Z</time>
      </trkpt>
      <trkpt lat="45.08277" lon="5.61874">
        <ele>1453</ele>
        <time>2010-10-30T12:16:45Z</time>
      </trkpt>
      <trkpt lat="45.08276" lon="5.61872">
        <ele>1453.2</ele>
        <time>2010-10-30T12:16:47Z</time>
      </trkpt>
      <trkpt lat="45.08275" lon="5.61871">
        <ele>1453.6</ele>
        <time>2010-10-30T12:16:49Z</time>
      </trkpt>
      <trkpt lat="45.08274" lon="5.61868">
        <ele>1454.4</ele>
        <time>2010-10-30T12:16:54Z</time>
      </trkpt>
      <trkpt lat="45.08272" lon="5.61866">
        <ele>1455.4</ele>
        <time>2010-10-30T12:16:59Z</time>
      </trkpt>
      <trkpt lat="45.08271" lon="5.61866">
        <ele>1456</ele>
        <time>2010-10-30T12:17:00Z</time>
      </trkpt>
      <trkpt lat="45.08269" lon="5.61864">
        <ele>1456.6</ele>
        <time>2010-10-30T12:17:02Z</time>
      </trkpt>
      <trkpt lat="45.08267" lon="5.61862">
        <ele>1457.4</ele>
        <time>2010-10-30T12:17:05Z</time>
      </trkpt>
      <trkpt lat="45.08266" lon="5.6186">
        <ele>1457.8</ele>
        <time>2010-10-30T12:17:07Z</time>
      </trkpt>
      <trkpt lat="45.08264" lon="5.61857">
        <ele>1459</ele>
        <time>2010-10-30T12:17:12Z</time>
      </trkpt>
      <trkpt lat="45.08262" lon="5.61856">
        <ele>1459.6</ele>
        <time>2010-10-30T12:17:14Z</time>
      </trkpt>
      <trkpt lat="45.08261" lon="5.61856">
        <ele>1460.2</ele>
        <time>2010-10-30T12:17:17Z</time>
      </trkpt>
      <trkpt lat="45.08258" lon="5.61855">
        <ele>1461.8</ele>
        <time>2010-10-30T12:17:23Z</time>
      </trkpt>
      <trkpt lat="45.08254" lon="5.61856">
        <ele>1462.8</ele>
        <time>2010-10-30T12:17:26Z</time>
      </trkpt>
      <trkpt lat="45.08251" lon="5.61856">
        <ele>1464</ele>
        <time>2010-10-30T12:17:29Z</time>
      </trkpt>
      <trkpt lat="45.08251" lon="5.61855">
        <ele>1464.2</ele>
        <time>2010-10-30T12:17:30Z</time>
      </trkpt>
      <trkpt lat="45.08248" lon="5.61854">
        <ele>1465.4</ele>
        <time>2010-10-30T12:17:33Z</time>
      </trkpt>
      <trkpt lat="45.08247" lon="5.61853">
        <ele>1466.2</ele>
        <time>2010-10-30T12:17:35Z</time>
      </trkpt>
      <trkpt lat="45.08242" lon="5.6185">
        <ele>1468.2</ele>
        <time>2010-10-30T12:17:41Z</time>
      </trkpt>
      <trkpt lat="45.08242" lon="5.61848">
        <ele>1468.8</ele>
        <time>2010-10-30T12:17:43Z</time>
      </trkpt>
      <trkpt lat="45.08242" lon="5.61845">
        <ele>1469.4</ele>
        <time>2010-10-30T12:17:45Z</time>
      </trkpt>
      <trkpt lat="45.08242" lon="5.61844">
        <ele>1469.8</ele>
        <time>2010-10-30T12:17:46Z</time>
      </trkpt>
      <trkpt lat="45.08242" lon="5.61843">
        <ele>1470</ele>
        <time>2010-10-30T12:17:47Z</time>
      </trkpt>
      <trkpt lat="45.08243" lon="5.61841">
        <ele>1470</ele>
        <time>2010-10-30T12:17:48Z</time>
      </trkpt>
      <trkpt lat="45.08243" lon="5.6184">
        <ele>1470.2</ele>
        <time>2010-10-30T12:17:49Z</time>
      </trkpt>
      <trkpt lat="45.08244" lon="5.61838">
        <ele>1470.4</ele>
        <time>2010-10-30T12:17:50Z</time>
      </trkpt>
      <trkpt lat="45.08245" lon="5.61837">
        <ele>1470.4</ele>
        <time>2010-10-30T12:17:51Z</time>
      </trkpt>
      <trkpt lat="45.08248" lon="5.61833">
        <ele>1470.8</ele>
        <time>2010-10-30T12:17:55Z</time>
      </trkpt>
      <trkpt lat="45.08248" lon="5.61834">
        <ele>1471</ele>
        <time>2010-10-30T12:17:56Z</time>
      </trkpt>
      <trkpt lat="45.0825" lon="5.61832">
        <ele>1471.2</ele>
        <time>2010-10-30T12:17:59Z</time>
      </trkpt>
      <trkpt lat="45.08251" lon="5.61831">
        <ele>1471.2</ele>
        <time>2010-10-30T12:18:00Z</time>
      </trkpt>
      <trkpt lat="45.08251" lon="5.61829">
        <ele>1471.4</ele>
        <time>2010-10-30T12:18:02Z</time>
      </trkpt>
      <trkpt lat="45.08251" lon="5.61828">
        <ele>1471.4</ele>
        <time>2010-10-30T12:18:04Z</time>
      </trkpt>
      <trkpt lat="45.08251" lon="5.61824">
        <ele>1471.6</ele>
        <time>2010-10-30T12:18:08Z</time>
      </trkpt>
      <trkpt lat="45.08252" lon="5.61823">
        <ele>1471.6</ele>
        <time>2010-10-30T12:18:10Z</time>
      </trkpt>
      <trkpt lat="45.08252" lon="5.61822">
        <ele>1471.8</ele>
        <time>2010-10-30T12:18:11Z</time>
      </trkpt>
      <trkpt lat="45.08254" lon="5.61821">
        <ele>1471.8</ele>
        <time>2010-10-30T12:18:13Z</time>
      </trkpt>
      <trkpt lat="45.08255" lon="5.6182">
        <ele>1471.8</ele>
        <time>2010-10-30T12:18:15Z</time>
      </trkpt>
      <trkpt lat="45.08255" lon="5.61819">
        <ele>1472.4</ele>
        <time>2010-10-30T12:18:18Z</time>
      </trkpt>
      <trkpt lat="45.08253" lon="5.61815">
        <ele>1474.2</ele>
        <time>2010-10-30T12:18:27Z</time>
      </trkpt>
      <trkpt lat="45.08253" lon="5.61812">
        <ele>1474.8</ele>
        <time>2010-10-30T12:18:31Z</time>
      </trkpt>
      <trkpt lat="45.08254" lon="5.61807">
        <ele>1475.6</ele>
        <time>2010-10-30T12:18:35Z</time>
      </trkpt>
      <trkpt lat="45.08253" lon="5.61803">
        <ele>1477.6</ele>
        <time>2010-10-30T12:18:43Z</time>
      </trkpt>
      <trkpt lat="45.08251" lon="5.61801">
        <ele>1478.2</ele>
        <time>2010-10-30T12:18:44Z</time>
      </trkpt>
      <trkpt lat="45.08249" lon="5.61799">
        <ele>1479</ele>
        <time>2010-10-30T12:18:46Z</time>
      </trkpt>
      <trkpt lat="45.08248" lon="5.61798">
        <ele>1479.8</ele>
        <time>2010-10-30T12:18:49Z</time>
      </trkpt>
      <trkpt lat="45.08248" lon="5.61794">
        <ele>1481.2</ele>
        <time>2010-10-30T12:18:53Z</time>
      </trkpt>
      <trkpt lat="45.0825" lon="5.61791">
        <ele>1482.4</ele>
        <time>2010-10-30T12:18:57Z</time>
      </trkpt>
      <trkpt lat="45.08251" lon="5.6179">
        <ele>1482.6</ele>
        <time>2010-10-30T12:18:58Z</time>
      </trkpt>
      <trkpt lat="45.08252" lon="5.61789">
        <ele>1482.8</ele>
        <time>2010-10-30T12:19:00Z</time>
      </trkpt>
      <trkpt lat="45.08254" lon="5.61788">
        <ele>1483.8</ele>
        <time>2010-10-30T12:19:03Z</time>
      </trkpt>
      <trkpt lat="45.08253" lon="5.61789">
        <ele>1486.6</ele>
        <time>2010-10-30T12:19:11Z</time>
      </trkpt>
      <trkpt lat="45.08249" lon="5.61787">
        <ele>1489.2</ele>
        <time>2010-10-30T12:19:18Z</time>
      </trkpt>
      <trkpt lat="45.08247" lon="5.61781">
        <ele>1490.8</ele>
        <time>2010-10-30T12:19:23Z</time>
      </trkpt>
      <trkpt lat="45.08244" lon="5.61773">
        <ele>1495</ele>
        <time>2010-10-30T12:19:38Z</time>
      </trkpt>
      <trkpt lat="45.08243" lon="5.61771">
        <ele>1495.8</ele>
        <time>2010-10-30T12:19:43Z</time>
      </trkpt>
      <trkpt lat="45.08241" lon="5.6177">
        <ele>1498</ele>
        <time>2010-10-30T12:19:51Z</time>
      </trkpt>
      <trkpt lat="45.08241" lon="5.61766">
        <ele>1499.8</ele>
        <time>2010-10-30T12:20:00Z</time>
      </trkpt>
      <trkpt lat="45.08243" lon="5.61763">
        <ele>1500.4</ele>
        <time>2010-10-30T12:20:04Z</time>
      </trkpt>
      <trkpt lat="45.08239" lon="5.61762">
        <ele>1501.6</ele>
        <time>2010-10-30T12:20:12Z</time>
      </trkpt>
      <trkpt lat="45.08238" lon="5.61762">
        <ele>1501.8</ele>
        <time>2010-10-30T12:20:13Z</time>
      </trkpt>
      <trkpt lat="45.08236" lon="5.61762">
        <ele>1502.6</ele>
        <time>2010-10-30T12:20:17Z</time>
      </trkpt>
      <trkpt lat="45.08232" lon="5.61761">
        <ele>1504.2</ele>
        <time>2010-10-30T12:20:23Z</time>
      </trkpt>
      <trkpt lat="45.0823" lon="5.61756">
        <ele>1504.6</ele>
        <time>2010-10-30T12:20:28Z</time>
      </trkpt>
      <trkpt lat="45.08227" lon="5.61757">
        <ele>1505.2</ele>
        <time>2010-10-30T12:20:32Z</time>
      </trkpt>
      <trkpt lat="45.08227" lon="5.61755">
        <ele>1505</ele>
        <time>2010-10-30T12:20:33Z</time>
      </trkpt>
      <trkpt lat="45.08227" lon="5.61758">
        <ele>1506</ele>
        <time>2010-10-30T12:20:41Z</time>
      </trkpt>
      <trkpt lat="45.08227" lon="5.61756">
        <ele>1505.8</ele>
        <time>2010-10-30T12:20:43Z</time>
      </trkpt>
      <trkpt lat="45.08229" lon="5.61754">
        <ele>1506</ele>
        <time>2010-10-30T12:20:49Z</time>
      </trkpt>
      <trkpt lat="45.08228" lon="5.61752">
        <ele>1507</ele>
        <time>2010-10-30T12:20:55Z</time>
      </trkpt>
      <trkpt lat="45.08226" lon="5.61746">
        <ele>1508.4</ele>
        <time>2010-10-30T12:21:01Z</time>
      </trkpt>
      <trkpt lat="45.08224" lon="5.61743">
        <ele>1509.8</ele>
        <time>2010-10-30T12:21:08Z</time>
      </trkpt>
      <trkpt lat="45.08222" lon="5.61743">
        <ele>1510.4</ele>
        <time>2010-10-30T12:21:14Z</time>
      </trkpt>
      <trkpt lat="45.0822" lon="5.61743">
        <ele>1512.8</ele>
        <time>2010-10-30T12:21:26Z</time>
      </trkpt>
      <trkpt lat="45.08218" lon="5.61741">
        <ele>1513.6</ele>
        <time>2010-10-30T12:21:31Z</time>
      </trkpt>
      <trkpt lat="45.08217" lon="5.61742">
        <ele>1514.6</ele>
        <time>2010-10-30T12:21:36Z</time>
      </trkpt>
      <trkpt lat="45.08215" lon="5.6174">
        <ele>1517.2</ele>
        <time>2010-10-30T12:21:45Z</time>
      </trkpt>
      <trkpt lat="45.08215" lon="5.61739">
        <ele>1517.4</ele>
        <time>2010-10-30T12:21:46Z</time>
      </trkpt>
      <trkpt lat="45.08214" lon="5.61738">
        <ele>1517.8</ele>
        <time>2010-10-30T12:21:49Z</time>
      </trkpt>
      <trkpt lat="45.08211" lon="5.61739">
        <ele>1518.6</ele>
        <time>2010-10-30T12:21:52Z</time>
      </trkpt>
      <trkpt lat="45.08207" lon="5.61727">
        <ele>1520.2</ele>
        <time>2010-10-30T12:22:01Z</time>
      </trkpt>
      <trkpt lat="45.08209" lon="5.61726">
        <ele>1520.8</ele>
        <time>2010-10-30T12:22:03Z</time>
      </trkpt>
      <trkpt lat="45.0821" lon="5.61725">
        <ele>1522.4</ele>
        <time>2010-10-30T12:22:08Z</time>
      </trkpt>
      <trkpt lat="45.08211" lon="5.61724">
        <ele>1522.4</ele>
        <time>2010-10-30T12:22:09Z</time>
      </trkpt>
      <trkpt lat="45.08214" lon="5.61723">
        <ele>1522.6</ele>
        <time>2010-10-30T12:22:12Z</time>
      </trkpt>
      <trkpt lat="45.08217" lon="5.61719">
        <ele>1522.8</ele>
        <time>2010-10-30T12:22:16Z</time>
      </trkpt>
      <trkpt lat="45.08219" lon="5.61717">
        <ele>1523.4</ele>
        <time>2010-10-30T12:22:20Z</time>
      </trkpt>
      <trkpt lat="45.08219" lon="5.61714">
        <ele>1523.8</ele>
        <time>2010-10-30T12:22:22Z</time>
      </trkpt>
      <trkpt lat="45.08218" lon="5.61712">
        <ele>1524.8</ele>
        <time>2010-10-30T12:22:25Z</time>
      </trkpt>
      <trkpt lat="45.08219" lon="5.61708">
        <ele>1525.4</ele>
        <time>2010-10-30T12:22:28Z</time>
      </trkpt>
      <trkpt lat="45.08219" lon="5.61707">
        <ele>1525.6</ele>
        <time>2010-10-30T12:22:29Z</time>
      </trkpt>
      <trkpt lat="45.08218" lon="5.61706">
        <ele>1525.8</ele>
        <time>2010-10-30T12:22:30Z</time>
      </trkpt>
      <trkpt lat="45.0822" lon="5.61703">
        <ele>1526.6</ele>
        <time>2010-10-30T12:22:34Z</time>
      </trkpt>
      <trkpt lat="45.08226" lon="5.61694">
        <ele>1526</ele>
        <time>2010-10-30T12:22:39Z</time>
      </trkpt>
      <trkpt lat="45.08227" lon="5.61693">
        <ele>1526</ele>
        <time>2010-10-30T12:22:40Z</time>
      </trkpt>
      <trkpt lat="45.08229" lon="5.61691">
        <ele>1525.8</ele>
        <time>2010-10-30T12:22:44Z</time>
      </trkpt>
      <trkpt lat="45.08231" lon="5.61688">
        <ele>1525.6</ele>
        <time>2010-10-30T12:22:48Z</time>
      </trkpt>
      <trkpt lat="45.08231" lon="5.61687">
        <ele>1525.6</ele>
        <time>2010-10-30T12:22:49Z</time>
      </trkpt>
      <trkpt lat="45.08232" lon="5.61685">
        <ele>1525.8</ele>
        <time>2010-10-30T12:22:53Z</time>
      </trkpt>
      <trkpt lat="45.08232" lon="5.61679">
        <ele>1525.6</ele>
        <time>2010-10-30T12:22:57Z</time>
      </trkpt>
      <trkpt lat="45.08231" lon="5.61677">
        <ele>1526</ele>
        <time>2010-10-30T12:22:59Z</time>
      </trkpt>
      <trkpt lat="45.08231" lon="5.61675">
        <ele>1526.4</ele>
        <time>2010-10-30T12:23:01Z</time>
      </trkpt>
      <trkpt lat="45.08232" lon="5.61674">
        <ele>1526.8</ele>
        <time>2010-10-30T12:23:03Z</time>
      </trkpt>
      <trkpt lat="45.08232" lon="5.61674">
        <ele>1527</ele>
        <time>2010-10-30T12:23:04Z</time>
      </trkpt>
      <trkpt lat="45.08232" lon="5.61674">
        <ele>1527.4</ele>
        <time>2010-10-30T12:23:05Z</time>
      </trkpt>
      <trkpt lat="45.08234" lon="5.61671">
        <ele>1529</ele>
        <time>2010-10-30T12:23:11Z</time>
      </trkpt>
      <trkpt lat="45.08237" lon="5.61668">
        <ele>1530.4</ele>
        <time>2010-10-30T12:23:17Z</time>
      </trkpt>
      <trkpt lat="45.08238" lon="5.61667">
        <ele>1530.6</ele>
        <time>2010-10-30T12:23:18Z</time>
      </trkpt>
      <trkpt lat="45.08243" lon="5.61665">
        <ele>1532.6</ele>
        <time>2010-10-30T12:23:25Z</time>
      </trkpt>
      <trkpt lat="45.08244" lon="5.61664">
        <ele>1532.8</ele>
        <time>2010-10-30T12:23:26Z</time>
      </trkpt>
      <trkpt lat="45.08245" lon="5.61663">
        <ele>1533.6</ele>
        <time>2010-10-30T12:23:28Z</time>
      </trkpt>
      <trkpt lat="45.08245" lon="5.61662">
        <ele>1534</ele>
        <time>2010-10-30T12:23:29Z</time>
      </trkpt>
      <trkpt lat="45.08245" lon="5.61659">
        <ele>1535</ele>
        <time>2010-10-30T12:23:32Z</time>
      </trkpt>
      <trkpt lat="45.08245" lon="5.61658">
        <ele>1535.4</ele>
        <time>2010-10-30T12:23:33Z</time>
      </trkpt>
      <trkpt lat="45.08245" lon="5.61657">
        <ele>1535.4</ele>
        <time>2010-10-30T12:23:34Z</time>
      </trkpt>
      <trkpt lat="45.08246" lon="5.61654">
        <ele>1536</ele>
        <time>2010-10-30T12:23:36Z</time>
      </trkpt>
      <trkpt lat="45.08246" lon="5.61653">
        <ele>1536.2</ele>
        <time>2010-10-30T12:23:37Z</time>
      </trkpt>
      <trkpt lat="45.08247" lon="5.61652">
        <ele>1536.6</ele>
        <time>2010-10-30T12:23:39Z</time>
      </trkpt>
      <trkpt lat="45.08247" lon="5.6165">
        <ele>1537</ele>
        <time>2010-10-30T12:23:41Z</time>
      </trkpt>
      <trkpt lat="45.08247" lon="5.61649">
        <ele>1537.2</ele>
        <time>2010-10-30T12:23:42Z</time>
      </trkpt>
      <trkpt lat="45.08249" lon="5.61648">
        <ele>1537.8</ele>
        <time>2010-10-30T12:23:44Z</time>
      </trkpt>
      <trkpt lat="45.0825" lon="5.61646">
        <ele>1538.8</ele>
        <time>2010-10-30T12:23:48Z</time>
      </trkpt>
      <trkpt lat="45.0825" lon="5.61644">
        <ele>1540</ele>
        <time>2010-10-30T12:23:53Z</time>
      </trkpt>
      <trkpt lat="45.08248" lon="5.6164">
        <ele>1541.6</ele>
        <time>2010-10-30T12:24:00Z</time>
      </trkpt>
      <trkpt lat="45.08253" lon="5.61638">
        <ele>1542.2</ele>
        <time>2010-10-30T12:24:05Z</time>
      </trkpt>
      <trkpt lat="45.08255" lon="5.61637">
        <ele>1543</ele>
        <time>2010-10-30T12:24:09Z</time>
      </trkpt>
      <trkpt lat="45.08256" lon="5.61635">
        <ele>1543.6</ele>
        <time>2010-10-30T12:24:12Z</time>
      </trkpt>
      <trkpt lat="45.08259" lon="5.61632">
        <ele>1545</ele>
        <time>2010-10-30T12:24:20Z</time>
      </trkpt>
      <trkpt lat="45.08258" lon="5.61631">
        <ele>1545.6</ele>
        <time>2010-10-30T12:24:23Z</time>
      </trkpt>
      <trkpt lat="45.08257" lon="5.61629">
        <ele>1546.4</ele>
        <time>2010-10-30T12:24:27Z</time>
      </trkpt>
      <trkpt lat="45.08256" lon="5.61629">
        <ele>1547.4</ele>
        <time>2010-10-30T12:24:32Z</time>
      </trkpt>
      <trkpt lat="45.08253" lon="5.61628">
        <ele>1549</ele>
        <time>2010-10-30T12:24:38Z</time>
      </trkpt>
      <trkpt lat="45.08253" lon="5.61624">
        <ele>1550</ele>
        <time>2010-10-30T12:24:43Z</time>
      </trkpt>
      <trkpt lat="45.08252" lon="5.61623">
        <ele>1553</ele>
        <time>2010-10-30T12:24:55Z</time>
      </trkpt>
      <trkpt lat="45.08252" lon="5.61625">
        <ele>1555.2</ele>
        <time>2010-10-30T12:25:22Z</time>
      </trkpt>
      <trkpt lat="45.08249" lon="5.61623">
        <ele>1555.4</ele>
        <time>2010-10-30T12:25:25Z</time>
      </trkpt>
      <trkpt lat="45.08245" lon="5.61622">
        <ele>1555.8</ele>
        <time>2010-10-30T12:25:31Z</time>
      </trkpt>
      <trkpt lat="45.08242" lon="5.61621">
        <ele>1556.2</ele>
        <time>2010-10-30T12:25:35Z</time>
      </trkpt>
      <trkpt lat="45.0824" lon="5.61621">
        <ele>1556.4</ele>
        <time>2010-10-30T12:25:37Z</time>
      </trkpt>
      <trkpt lat="45.08236" lon="5.6162">
        <ele>1557</ele>
        <time>2010-10-30T12:25:42Z</time>
      </trkpt>
      <trkpt lat="45.08235" lon="5.61621">
        <ele>1557.2</ele>
        <time>2010-10-30T12:25:43Z</time>
      </trkpt>
      <trkpt lat="45.08234" lon="5.61622">
        <ele>1557.2</ele>
        <time>2010-10-30T12:25:44Z</time>
      </trkpt>
      <trkpt lat="45.08231" lon="5.61623">
        <ele>1557.4</ele>
        <time>2010-10-30T12:25:47Z</time>
      </trkpt>
      <trkpt lat="45.08231" lon="5.61623">
        <ele>1557.6</ele>
        <time>2010-10-30T12:25:48Z</time>
      </trkpt>
      <trkpt lat="45.08225" lon="5.61625">
        <ele>1558</ele>
        <time>2010-10-30T12:25:53Z</time>
      </trkpt>
      <trkpt lat="45.08224" lon="5.61624">
        <ele>1558.2</ele>
        <time>2010-10-30T12:25:54Z</time>
      </trkpt>
      <trkpt lat="45.08222" lon="5.61624">
        <ele>1558.6</ele>
        <time>2010-10-30T12:25:57Z</time>
      </trkpt>
      <trkpt lat="45.08218" lon="5.61621">
        <ele>1559.2</ele>
        <time>2010-10-30T12:26:01Z</time>
      </trkpt>
      <trkpt lat="45.08217" lon="5.61621">
        <ele>1559.4</ele>
        <time>2010-10-30T12:26:02Z</time>
      </trkpt>
      <trkpt lat="45.08215" lon="5.61621">
        <ele>1559.8</ele>
        <time>2010-10-30T12:26:04Z</time>
      </trkpt>
      <trkpt lat="45.08211" lon="5.61622">
        <ele>1560</ele>
        <time>2010-10-30T12:26:07Z</time>
      </trkpt>
      <trkpt lat="45.08199" lon="5.61625">
        <ele>1560.6</ele>
        <time>2010-10-30T12:26:16Z</time>
      </trkpt>
      <trkpt lat="45.08193" lon="5.61625">
        <ele>1561.2</ele>
        <time>2010-10-30T12:26:22Z</time>
      </trkpt>
      <trkpt lat="45.08192" lon="5.61625">
        <ele>1561.2</ele>
        <time>2010-10-30T12:26:23Z</time>
      </trkpt>
      <trkpt lat="45.08188" lon="5.61624">
        <ele>1561.8</ele>
        <time>2010-10-30T12:26:27Z</time>
      </trkpt>
      <trkpt lat="45.08182" lon="5.61622">
        <ele>1562.6</ele>
        <time>2010-10-30T12:26:32Z</time>
      </trkpt>
      <trkpt lat="45.0818" lon="5.61623">
        <ele>1562.8</ele>
        <time>2010-10-30T12:26:33Z</time>
      </trkpt>
      <trkpt lat="45.08172" lon="5.61621">
        <ele>1564.2</ele>
        <time>2010-10-30T12:26:40Z</time>
      </trkpt>
      <trkpt lat="45.0817" lon="5.6162">
        <ele>1564.4</ele>
        <time>2010-10-30T12:26:42Z</time>
      </trkpt>
      <trkpt lat="45.08169" lon="5.6162">
        <ele>1564.6</ele>
        <time>2010-10-30T12:26:43Z</time>
      </trkpt>
      <trkpt lat="45.08167" lon="5.61619">
        <ele>1565</ele>
        <time>2010-10-30T12:26:45Z</time>
      </trkpt>
      <trkpt lat="45.08165" lon="5.61618">
        <ele>1565.6</ele>
        <time>2010-10-30T12:26:48Z</time>
      </trkpt>
      <trkpt lat="45.08164" lon="5.61617">
        <ele>1566</ele>
        <time>2010-10-30T12:26:50Z</time>
      </trkpt>
      <trkpt lat="45.08163" lon="5.61616">
        <ele>1566.4</ele>
        <time>2010-10-30T12:26:52Z</time>
      </trkpt>
      <trkpt lat="45.08161" lon="5.61615">
        <ele>1566.8</ele>
        <time>2010-10-30T12:26:54Z</time>
      </trkpt>
      <trkpt lat="45.08157" lon="5.61615">
        <ele>1568</ele>
        <time>2010-10-30T12:26:59Z</time>
      </trkpt>
      <trkpt lat="45.08153" lon="5.61613">
        <ele>1569.2</ele>
        <time>2010-10-30T12:27:04Z</time>
      </trkpt>
      <trkpt lat="45.08148" lon="5.6161">
        <ele>1570.2</ele>
        <time>2010-10-30T12:27:08Z</time>
      </trkpt>
      <trkpt lat="45.08148" lon="5.61608">
        <ele>1570.6</ele>
        <time>2010-10-30T12:27:09Z</time>
      </trkpt>
      <trkpt lat="45.08148" lon="5.61607">
        <ele>1571.8</ele>
        <time>2010-10-30T12:27:12Z</time>
      </trkpt>
      <trkpt lat="45.08149" lon="5.61606">
        <ele>1572</ele>
        <time>2010-10-30T12:27:13Z</time>
      </trkpt>
      <trkpt lat="45.08152" lon="5.61604">
        <ele>1573</ele>
        <time>2010-10-30T12:27:17Z</time>
      </trkpt>
      <trkpt lat="45.08152" lon="5.61601">
        <ele>1574.2</ele>
        <time>2010-10-30T12:27:21Z</time>
      </trkpt>
      <trkpt lat="45.08152" lon="5.61598">
        <ele>1574.8</ele>
        <time>2010-10-30T12:27:24Z</time>
      </trkpt>
      <trkpt lat="45.0815" lon="5.61595">
        <ele>1576.2</ele>
        <time>2010-10-30T12:27:29Z</time>
      </trkpt>
      <trkpt lat="45.0815" lon="5.61593">
        <ele>1577.6</ele>
        <time>2010-10-30T12:27:35Z</time>
      </trkpt>
      <trkpt lat="45.08147" lon="5.61593">
        <ele>1578.6</ele>
        <time>2010-10-30T12:27:40Z</time>
      </trkpt>
      <trkpt lat="45.08145" lon="5.61593">
        <ele>1579.2</ele>
        <time>2010-10-30T12:27:42Z</time>
      </trkpt>
      <trkpt lat="45.08145" lon="5.6159">
        <ele>1579.8</ele>
        <time>2010-10-30T12:27:45Z</time>
      </trkpt>
      <trkpt lat="45.08146" lon="5.61588">
        <ele>1580.6</ele>
        <time>2010-10-30T12:27:49Z</time>
      </trkpt>
      <trkpt lat="45.08145" lon="5.61584">
        <ele>1581.8</ele>
        <time>2010-10-30T12:27:54Z</time>
      </trkpt>
      <trkpt lat="45.08142" lon="5.61582">
        <ele>1583.2</ele>
        <time>2010-10-30T12:27:59Z</time>
      </trkpt>
      <trkpt lat="45.0814" lon="5.6158">
        <ele>1584</ele>
        <time>2010-10-30T12:28:03Z</time>
      </trkpt>
      <trkpt lat="45.08137" lon="5.61578">
        <ele>1585.4</ele>
        <time>2010-10-30T12:28:08Z</time>
      </trkpt>
      <trkpt lat="45.08135" lon="5.61578">
        <ele>1586.2</ele>
        <time>2010-10-30T12:28:11Z</time>
      </trkpt>
      <trkpt lat="45.08134" lon="5.61577">
        <ele>1587</ele>
        <time>2010-10-30T12:28:14Z</time>
      </trkpt>
      <trkpt lat="45.08132" lon="5.61575">
        <ele>1588.2</ele>
        <time>2010-10-30T12:28:18Z</time>
      </trkpt>
      <trkpt lat="45.08132" lon="5.61573">
        <ele>1589.4</ele>
        <time>2010-10-30T12:28:22Z</time>
      </trkpt>
      <trkpt lat="45.08131" lon="5.6157">
        <ele>1590.8</ele>
        <time>2010-10-30T12:28:27Z</time>
      </trkpt>
      <trkpt lat="45.08132" lon="5.61569">
        <ele>1591</ele>
        <time>2010-10-30T12:28:28Z</time>
      </trkpt>
      <trkpt lat="45.08133" lon="5.61568">
        <ele>1592.2</ele>
        <time>2010-10-30T12:28:31Z</time>
      </trkpt>
      <trkpt lat="45.08134" lon="5.61565">
        <ele>1593.8</ele>
        <time>2010-10-30T12:28:36Z</time>
      </trkpt>
      <trkpt lat="45.08135" lon="5.61563">
        <ele>1595.2</ele>
        <time>2010-10-30T12:28:40Z</time>
      </trkpt>
      <trkpt lat="45.08136" lon="5.6156">
        <ele>1597</ele>
        <time>2010-10-30T12:28:45Z</time>
      </trkpt>
      <trkpt lat="45.08136" lon="5.6156">
        <ele>1597.4</ele>
        <time>2010-10-30T12:28:46Z</time>
      </trkpt>
      <trkpt lat="45.08135" lon="5.61558">
        <ele>1598.4</ele>
        <time>2010-10-30T12:28:49Z</time>
      </trkpt>
      <trkpt lat="45.08134" lon="5.61555">
        <ele>1600.2</ele>
        <time>2010-10-30T12:28:55Z</time>
      </trkpt>
      <trkpt lat="45.08133" lon="5.61552">
        <ele>1602</ele>
        <time>2010-10-30T12:29:00Z</time>
      </trkpt>
      <trkpt lat="45.08129" lon="5.61555">
        <ele>1604.4</ele>
        <time>2010-10-30T12:29:03Z</time>
      </trkpt>
      <trkpt lat="45.08129" lon="5.61554">
        <ele>1605.2</ele>
        <time>2010-10-30T12:29:05Z</time>
      </trkpt>
      <trkpt lat="45.08127" lon="5.61551">
        <ele>1607.8</ele>
        <time>2010-10-30T12:29:10Z</time>
      </trkpt>
      <trkpt lat="45.08126" lon="5.61548">
        <ele>1610.2</ele>
        <time>2010-10-30T12:29:15Z</time>
      </trkpt>
      <trkpt lat="45.08126" lon="5.61545">
        <ele>1612.8</ele>
        <time>2010-10-30T12:29:21Z</time>
      </trkpt>
      <trkpt lat="45.08126" lon="5.61542">
        <ele>1614.8</ele>
        <time>2010-10-30T12:29:27Z</time>
      </trkpt>
      <trkpt lat="45.08125" lon="5.61539">
        <ele>1615.8</ele>
        <time>2010-10-30T12:29:32Z</time>
      </trkpt>
      <trkpt lat="45.08124" lon="5.61536">
        <ele>1616.4</ele>
        <time>2010-10-30T12:29:36Z</time>
      </trkpt>
      <trkpt lat="45.08122" lon="5.61533">
        <ele>1617</ele>
        <time>2010-10-30T12:29:41Z</time>
      </trkpt>
      <trkpt lat="45.08123" lon="5.6153">
        <ele>1617.6</ele>
        <time>2010-10-30T12:29:45Z</time>
      </trkpt>
      <trkpt lat="45.08124" lon="5.61527">
        <ele>1618</ele>
        <time>2010-10-30T12:29:50Z</time>
      </trkpt>
      <trkpt lat="45.08126" lon="5.61525">
        <ele>1618.4</ele>
        <time>2010-10-30T12:29:54Z</time>
      </trkpt>
      <trkpt lat="45.08128" lon="5.61522">
        <ele>1619</ele>
        <time>2010-10-30T12:29:58Z</time>
      </trkpt>
      <trkpt lat="45.08126" lon="5.61519">
        <ele>1619.8</ele>
        <time>2010-10-30T12:30:04Z</time>
      </trkpt>
      <trkpt lat="45.08123" lon="5.61518">
        <ele>1620.2</ele>
        <time>2010-10-30T12:30:08Z</time>
      </trkpt>
      <trkpt lat="45.08121" lon="5.61516">
        <ele>1620.8</ele>
        <time>2010-10-30T12:30:12Z</time>
      </trkpt>
      <trkpt lat="45.08121" lon="5.61512">
        <ele>1621.4</ele>
        <time>2010-10-30T12:30:17Z</time>
      </trkpt>
      <trkpt lat="45.08123" lon="5.6151">
        <ele>1622</ele>
        <time>2010-10-30T12:30:21Z</time>
      </trkpt>
      <trkpt lat="45.08125" lon="5.61508">
        <ele>1622.6</ele>
        <time>2010-10-30T12:30:25Z</time>
      </trkpt>
      <trkpt lat="45.08125" lon="5.61507">
        <ele>1622.8</ele>
        <time>2010-10-30T12:30:26Z</time>
      </trkpt>
      <trkpt lat="45.08126" lon="5.61505">
        <ele>1623.2</ele>
        <time>2010-10-30T12:30:29Z</time>
      </trkpt>
      <trkpt lat="45.08125" lon="5.61501">
        <ele>1624.2</ele>
        <time>2010-10-30T12:30:34Z</time>
      </trkpt>
      <trkpt lat="45.08128" lon="5.61499">
        <ele>1625</ele>
        <time>2010-10-30T12:30:39Z</time>
      </trkpt>
      <trkpt lat="45.08129" lon="5.61496">
        <ele>1625.8</ele>
        <time>2010-10-30T12:30:43Z</time>
      </trkpt>
      <trkpt lat="45.08131" lon="5.61493">
        <ele>1626.8</ele>
        <time>2010-10-30T12:30:47Z</time>
      </trkpt>
      <trkpt lat="45.0813" lon="5.61491">
        <ele>1627.6</ele>
        <time>2010-10-30T12:30:52Z</time>
      </trkpt>
      <trkpt lat="45.08127" lon="5.6149">
        <ele>1628.4</ele>
        <time>2010-10-30T12:30:56Z</time>
      </trkpt>
      <trkpt lat="45.08127" lon="5.61489">
        <ele>1628.6</ele>
        <time>2010-10-30T12:30:57Z</time>
      </trkpt>
      <trkpt lat="45.08125" lon="5.61487">
        <ele>1630</ele>
        <time>2010-10-30T12:31:03Z</time>
      </trkpt>
      <trkpt lat="45.08122" lon="5.61484">
        <ele>1631.2</ele>
        <time>2010-10-30T12:31:09Z</time>
      </trkpt>
      <trkpt lat="45.08119" lon="5.61483">
        <ele>1632</ele>
        <time>2010-10-30T12:31:13Z</time>
      </trkpt>
      <trkpt lat="45.08118" lon="5.61479">
        <ele>1633</ele>
        <time>2010-10-30T12:31:18Z</time>
      </trkpt>
      <trkpt lat="45.08121" lon="5.61477">
        <ele>1633.6</ele>
        <time>2010-10-30T12:31:22Z</time>
      </trkpt>
      <trkpt lat="45.08122" lon="5.61476">
        <ele>1634</ele>
        <time>2010-10-30T12:31:24Z</time>
      </trkpt>
      <trkpt lat="45.08123" lon="5.61475">
        <ele>1634.4</ele>
        <time>2010-10-30T12:31:26Z</time>
      </trkpt>
      <trkpt lat="45.08124" lon="5.61472">
        <ele>1635.2</ele>
        <time>2010-10-30T12:31:30Z</time>
      </trkpt>
      <trkpt lat="45.08125" lon="5.61469">
        <ele>1636</ele>
        <time>2010-10-30T12:31:34Z</time>
      </trkpt>
      <trkpt lat="45.08126" lon="5.61466">
        <ele>1637.2</ele>
        <time>2010-10-30T12:31:39Z</time>
      </trkpt>
      <trkpt lat="45.08127" lon="5.61463">
        <ele>1638.4</ele>
        <time>2010-10-30T12:31:44Z</time>
      </trkpt>
      <trkpt lat="45.08126" lon="5.6146">
        <ele>1639.6</ele>
        <time>2010-10-30T12:31:49Z</time>
      </trkpt>
      <trkpt lat="45.08125" lon="5.61456">
        <ele>1641</ele>
        <time>2010-10-30T12:31:54Z</time>
      </trkpt>
      <trkpt lat="45.08125" lon="5.61455">
        <ele>1641.4</ele>
        <time>2010-10-30T12:31:56Z</time>
      </trkpt>
      <trkpt lat="45.08128" lon="5.61453">
        <ele>1642.2</ele>
        <time>2010-10-30T12:31:59Z</time>
      </trkpt>
      <trkpt lat="45.08129" lon="5.61451">
        <ele>1643.2</ele>
        <time>2010-10-30T12:32:03Z</time>
      </trkpt>
      <trkpt lat="45.08128" lon="5.61447">
        <ele>1644.2</ele>
        <time>2010-10-30T12:32:07Z</time>
      </trkpt>
      <trkpt lat="45.08127" lon="5.61443">
        <ele>1646.2</ele>
        <time>2010-10-30T12:32:14Z</time>
      </trkpt>
      <trkpt lat="45.08123" lon="5.6144">
        <ele>1647.8</ele>
        <time>2010-10-30T12:32:20Z</time>
      </trkpt>
      <trkpt lat="45.08122" lon="5.61438">
        <ele>1648.4</ele>
        <time>2010-10-30T12:32:23Z</time>
      </trkpt>
      <trkpt lat="45.08119" lon="5.61436">
        <ele>1649.2</ele>
        <time>2010-10-30T12:32:26Z</time>
      </trkpt>
      <trkpt lat="45.08115" lon="5.61434">
        <ele>1650.8</ele>
        <time>2010-10-30T12:32:32Z</time>
      </trkpt>
      <trkpt lat="45.08111" lon="5.61432">
        <ele>1652.2</ele>
        <time>2010-10-30T12:32:38Z</time>
      </trkpt>
      <trkpt lat="45.08106" lon="5.6143">
        <ele>1653.6</ele>
        <time>2010-10-30T12:32:44Z</time>
      </trkpt>
      <trkpt lat="45.08104" lon="5.6143">
        <ele>1654.4</ele>
        <time>2010-10-30T12:32:47Z</time>
      </trkpt>
      <trkpt lat="45.08102" lon="5.61428">
        <ele>1655.2</ele>
        <time>2010-10-30T12:32:50Z</time>
      </trkpt>
      <trkpt lat="45.08102" lon="5.61427">
        <ele>1655.4</ele>
        <time>2010-10-30T12:32:51Z</time>
      </trkpt>
      <trkpt lat="45.081" lon="5.61424">
        <ele>1656.4</ele>
        <time>2010-10-30T12:32:55Z</time>
      </trkpt>
      <trkpt lat="45.08096" lon="5.61421">
        <ele>1658</ele>
        <time>2010-10-30T12:33:01Z</time>
      </trkpt>
      <trkpt lat="45.08094" lon="5.61419">
        <ele>1659</ele>
        <time>2010-10-30T12:33:05Z</time>
      </trkpt>
      <trkpt lat="45.08092" lon="5.61416">
        <ele>1660.4</ele>
        <time>2010-10-30T12:33:10Z</time>
      </trkpt>
      <trkpt lat="45.08091" lon="5.61415">
        <ele>1660.6</ele>
        <time>2010-10-30T12:33:11Z</time>
      </trkpt>
      <trkpt lat="45.08089" lon="5.61413">
        <ele>1661.8</ele>
        <time>2010-10-30T12:33:15Z</time>
      </trkpt>
      <trkpt lat="45.08087" lon="5.61409">
        <ele>1663</ele>
        <time>2010-10-30T12:33:20Z</time>
      </trkpt>
      <trkpt lat="45.0809" lon="5.61407">
        <ele>1664.4</ele>
        <time>2010-10-30T12:33:25Z</time>
      </trkpt>
      <trkpt lat="45.08093" lon="5.61405">
        <ele>1665.4</ele>
        <time>2010-10-30T12:33:29Z</time>
      </trkpt>
      <trkpt lat="45.08095" lon="5.61403">
        <ele>1666.4</ele>
        <time>2010-10-30T12:33:33Z</time>
      </trkpt>
      <trkpt lat="45.08096" lon="5.61401">
        <ele>1667.4</ele>
        <time>2010-10-30T12:33:37Z</time>
      </trkpt>
      <trkpt lat="45.08097" lon="5.614">
        <ele>1667.8</ele>
        <time>2010-10-30T12:33:38Z</time>
      </trkpt>
      <trkpt lat="45.08098" lon="5.61397">
        <ele>1668.4</ele>
        <time>2010-10-30T12:33:41Z</time>
      </trkpt>
      <trkpt lat="45.08094" lon="5.61396">
        <ele>1670</ele>
        <time>2010-10-30T12:33:47Z</time>
      </trkpt>
      <trkpt lat="45.08091" lon="5.61394">
        <ele>1671.2</ele>
        <time>2010-10-30T12:33:52Z</time>
      </trkpt>
      <trkpt lat="45.08088" lon="5.61392">
        <ele>1672.2</ele>
        <time>2010-10-30T12:33:57Z</time>
      </trkpt>
      <trkpt lat="45.08084" lon="5.6139">
        <ele>1673.6</ele>
        <time>2010-10-30T12:34:02Z</time>
      </trkpt>
      <trkpt lat="45.08083" lon="5.61389">
        <ele>1673.8</ele>
        <time>2010-10-30T12:34:03Z</time>
      </trkpt>
      <trkpt lat="45.08081" lon="5.61384">
        <ele>1675</ele>
        <time>2010-10-30T12:34:08Z</time>
      </trkpt>
      <trkpt lat="45.08082" lon="5.61382">
        <ele>1675.4</ele>
        <time>2010-10-30T12:34:10Z</time>
      </trkpt>
      <trkpt lat="45.08083" lon="5.6138">
        <ele>1676.2</ele>
        <time>2010-10-30T12:34:13Z</time>
      </trkpt>
      <trkpt lat="45.08085" lon="5.61379">
        <ele>1676.8</ele>
        <time>2010-10-30T12:34:15Z</time>
      </trkpt>
      <trkpt lat="45.08085" lon="5.61378">
        <ele>1677.2</ele>
        <time>2010-10-30T12:34:17Z</time>
      </trkpt>
      <trkpt lat="45.08088" lon="5.61376">
        <ele>1678.6</ele>
        <time>2010-10-30T12:34:22Z</time>
      </trkpt>
      <trkpt lat="45.0809" lon="5.61375">
        <ele>1679.6</ele>
        <time>2010-10-30T12:34:26Z</time>
      </trkpt>
      <trkpt lat="45.08091" lon="5.61374">
        <ele>1680</ele>
        <time>2010-10-30T12:34:27Z</time>
      </trkpt>
      <trkpt lat="45.08093" lon="5.61374">
        <ele>1681</ele>
        <time>2010-10-30T12:34:31Z</time>
      </trkpt>
      <trkpt lat="45.08097" lon="5.61372">
        <ele>1682.2</ele>
        <time>2010-10-30T12:34:36Z</time>
      </trkpt>
      <trkpt lat="45.081" lon="5.61371">
        <ele>1683.2</ele>
        <time>2010-10-30T12:34:40Z</time>
      </trkpt>
      <trkpt lat="45.08101" lon="5.61371">
        <ele>1683.4</ele>
        <time>2010-10-30T12:34:41Z</time>
      </trkpt>
      <trkpt lat="45.08105" lon="5.61369">
        <ele>1684.2</ele>
        <time>2010-10-30T12:34:45Z</time>
      </trkpt>
      <trkpt lat="45.08105" lon="5.61369">
        <ele>1684.4</ele>
        <time>2010-10-30T12:34:46Z</time>
      </trkpt>
      <trkpt lat="45.08108" lon="5.61368">
        <ele>1685</ele>
        <time>2010-10-30T12:34:50Z</time>
      </trkpt>
      <trkpt lat="45.08113" lon="5.61365">
        <ele>1686</ele>
        <time>2010-10-30T12:34:57Z</time>
      </trkpt>
      <trkpt lat="45.08122" lon="5.61362">
        <ele>1687</ele>
        <time>2010-10-30T12:35:04Z</time>
      </trkpt>
      <trkpt lat="45.08126" lon="5.6136">
        <ele>1687.6</ele>
        <time>2010-10-30T12:35:08Z</time>
      </trkpt>
      <trkpt lat="45.08132" lon="5.61358">
        <ele>1688.2</ele>
        <time>2010-10-30T12:35:13Z</time>
      </trkpt>
      <trkpt lat="45.08134" lon="5.61356">
        <ele>1688.4</ele>
        <time>2010-10-30T12:35:16Z</time>
      </trkpt>
      <trkpt lat="45.08135" lon="5.61353">
        <ele>1689</ele>
        <time>2010-10-30T12:35:19Z</time>
      </trkpt>
      <trkpt lat="45.08138" lon="5.6135">
        <ele>1689.8</ele>
        <time>2010-10-30T12:35:23Z</time>
      </trkpt>
      <trkpt lat="45.0814" lon="5.61349">
        <ele>1690.2</ele>
        <time>2010-10-30T12:35:25Z</time>
      </trkpt>
      <trkpt lat="45.0814" lon="5.6135">
        <ele>1690.4</ele>
        <time>2010-10-30T12:35:26Z</time>
      </trkpt>
      <trkpt lat="45.08141" lon="5.6135">
        <ele>1690.6</ele>
        <time>2010-10-30T12:35:27Z</time>
      </trkpt>
      <trkpt lat="45.08146" lon="5.61348">
        <ele>1691.4</ele>
        <time>2010-10-30T12:35:31Z</time>
      </trkpt>
      <trkpt lat="45.08149" lon="5.61347">
        <ele>1692.2</ele>
        <time>2010-10-30T12:35:34Z</time>
      </trkpt>
      <trkpt lat="45.08151" lon="5.61345">
        <ele>1692.8</ele>
        <time>2010-10-30T12:35:37Z</time>
      </trkpt>
      <trkpt lat="45.08151" lon="5.61344">
        <ele>1693</ele>
        <time>2010-10-30T12:35:38Z</time>
      </trkpt>
      <trkpt lat="45.08154" lon="5.61343">
        <ele>1693.8</ele>
        <time>2010-10-30T12:35:41Z</time>
      </trkpt>
      <trkpt lat="45.08156" lon="5.61342">
        <ele>1694.6</ele>
        <time>2010-10-30T12:35:44Z</time>
      </trkpt>
      <trkpt lat="45.08158" lon="5.61342">
        <ele>1695</ele>
        <time>2010-10-30T12:35:46Z</time>
      </trkpt>
      <trkpt lat="45.08161" lon="5.61341">
        <ele>1696</ele>
        <time>2010-10-30T12:35:50Z</time>
      </trkpt>
      <trkpt lat="45.08163" lon="5.61341">
        <ele>1696.6</ele>
        <time>2010-10-30T12:35:52Z</time>
      </trkpt>
      <trkpt lat="45.08164" lon="5.61342">
        <ele>1697.2</ele>
        <time>2010-10-30T12:35:54Z</time>
      </trkpt>
      <trkpt lat="45.08168" lon="5.61343">
        <ele>1698.4</ele>
        <time>2010-10-30T12:35:59Z</time>
      </trkpt>
      <trkpt lat="45.08169" lon="5.61343">
        <ele>1698.8</ele>
        <time>2010-10-30T12:36:00Z</time>
      </trkpt>
      <trkpt lat="45.08172" lon="5.61343">
        <ele>1699.8</ele>
        <time>2010-10-30T12:36:04Z</time>
      </trkpt>
      <trkpt lat="45.08174" lon="5.61343">
        <ele>1700.4</ele>
        <time>2010-10-30T12:36:06Z</time>
      </trkpt>
      <trkpt lat="45.08177" lon="5.61344">
        <ele>1701.4</ele>
        <time>2010-10-30T12:36:09Z</time>
      </trkpt>
      <trkpt lat="45.08178" lon="5.61344">
        <ele>1701.6</ele>
        <time>2010-10-30T12:36:10Z</time>
      </trkpt>
      <trkpt lat="45.0818" lon="5.61344">
        <ele>1702.4</ele>
        <time>2010-10-30T12:36:13Z</time>
      </trkpt>
      <trkpt lat="45.08182" lon="5.61345">
        <ele>1703</ele>
        <time>2010-10-30T12:36:15Z</time>
      </trkpt>
      <trkpt lat="45.08184" lon="5.61346">
        <ele>1704.2</ele>
        <time>2010-10-30T12:36:19Z</time>
      </trkpt>
      <trkpt lat="45.08185" lon="5.61346">
        <ele>1704.4</ele>
        <time>2010-10-30T12:36:20Z</time>
      </trkpt>
      <trkpt lat="45.08187" lon="5.61347">
        <ele>1705.4</ele>
        <time>2010-10-30T12:36:23Z</time>
      </trkpt>
      <trkpt lat="45.08191" lon="5.61345">
        <ele>1707</ele>
        <time>2010-10-30T12:36:29Z</time>
      </trkpt>
      <trkpt lat="45.08195" lon="5.61345">
        <ele>1708.8</ele>
        <time>2010-10-30T12:36:35Z</time>
      </trkpt>
      <trkpt lat="45.08197" lon="5.61345">
        <ele>1710</ele>
        <time>2010-10-30T12:36:39Z</time>
      </trkpt>
      <trkpt lat="45.08202" lon="5.61345">
        <ele>1711.2</ele>
        <time>2010-10-30T12:36:44Z</time>
      </trkpt>
      <trkpt lat="45.08204" lon="5.61346">
        <ele>1712.6</ele>
        <time>2010-10-30T12:36:49Z</time>
      </trkpt>
      <trkpt lat="45.08208" lon="5.61349">
        <ele>1713.8</ele>
        <time>2010-10-30T12:36:54Z</time>
      </trkpt>
      <trkpt lat="45.08208" lon="5.61349">
        <ele>1714</ele>
        <time>2010-10-30T12:36:55Z</time>
      </trkpt>
      <trkpt lat="45.0821" lon="5.6135">
        <ele>1714.6</ele>
        <time>2010-10-30T12:36:58Z</time>
      </trkpt>
      <trkpt lat="45.08213" lon="5.61353">
        <ele>1715.2</ele>
        <time>2010-10-30T12:37:01Z</time>
      </trkpt>
      <trkpt lat="45.08215" lon="5.61354">
        <ele>1715.6</ele>
        <time>2010-10-30T12:37:03Z</time>
      </trkpt>
      <trkpt lat="45.0822" lon="5.61357">
        <ele>1716.8</ele>
        <time>2010-10-30T12:37:08Z</time>
      </trkpt>
      <trkpt lat="45.08224" lon="5.61358">
        <ele>1717.4</ele>
        <time>2010-10-30T12:37:11Z</time>
      </trkpt>
      <trkpt lat="45.08225" lon="5.61358">
        <ele>1717.6</ele>
        <time>2010-10-30T12:37:12Z</time>
      </trkpt>
      <trkpt lat="45.08226" lon="5.61358">
        <ele>1717.8</ele>
        <time>2010-10-30T12:37:13Z</time>
      </trkpt>
      <trkpt lat="45.0823" lon="5.61357">
        <ele>1718.6</ele>
        <time>2010-10-30T12:37:17Z</time>
      </trkpt>
      <trkpt lat="45.08231" lon="5.61358">
        <ele>1718.8</ele>
        <time>2010-10-30T12:37:18Z</time>
      </trkpt>
      <trkpt lat="45.08238" lon="5.6136">
        <ele>1720</ele>
        <time>2010-10-30T12:37:24Z</time>
      </trkpt>
      <trkpt lat="45.08242" lon="5.6136">
        <ele>1720.6</ele>
        <time>2010-10-30T12:37:27Z</time>
      </trkpt>
      <trkpt lat="45.08244" lon="5.6136">
        <ele>1721</ele>
        <time>2010-10-30T12:37:29Z</time>
      </trkpt>
      <trkpt lat="45.0825" lon="5.61358">
        <ele>1721.8</ele>
        <time>2010-10-30T12:37:34Z</time>
      </trkpt>
      <trkpt lat="45.08251" lon="5.61358">
        <ele>1722</ele>
        <time>2010-10-30T12:37:35Z</time>
      </trkpt>
      <trkpt lat="45.08255" lon="5.61359">
        <ele>1723</ele>
        <time>2010-10-30T12:37:40Z</time>
      </trkpt>
      <trkpt lat="45.08258" lon="5.61355">
        <ele>1724.2</ele>
        <time>2010-10-30T12:37:45Z</time>
      </trkpt>
      <trkpt lat="45.08264" lon="5.61355">
        <ele>1725.4</ele>
        <time>2010-10-30T12:37:51Z</time>
      </trkpt>
      <trkpt lat="45.08269" lon="5.61351">
        <ele>1726.2</ele>
        <time>2010-10-30T12:37:56Z</time>
      </trkpt>
      <trkpt lat="45.08274" lon="5.61353">
        <ele>1727.2</ele>
        <time>2010-10-30T12:38:00Z</time>
      </trkpt>
      <trkpt lat="45.08275" lon="5.61354">
        <ele>1727.4</ele>
        <time>2010-10-30T12:38:01Z</time>
      </trkpt>
      <trkpt lat="45.08276" lon="5.61356">
        <ele>1727.6</ele>
        <time>2010-10-30T12:38:02Z</time>
      </trkpt>
      <trkpt lat="45.0828" lon="5.61362">
        <ele>1728.8</ele>
        <time>2010-10-30T12:38:07Z</time>
      </trkpt>
      <trkpt lat="45.08284" lon="5.6136">
        <ele>1729.6</ele>
        <time>2010-10-30T12:38:11Z</time>
      </trkpt>
      <trkpt lat="45.08288" lon="5.61359">
        <ele>1730.6</ele>
        <time>2010-10-30T12:38:15Z</time>
      </trkpt>
      <trkpt lat="45.0829" lon="5.61358">
        <ele>1730.8</ele>
        <time>2010-10-30T12:38:16Z</time>
      </trkpt>
      <trkpt lat="45.08296" lon="5.61355">
        <ele>1731.8</ele>
        <time>2010-10-30T12:38:21Z</time>
      </trkpt>
      <trkpt lat="45.083" lon="5.61352">
        <ele>1732.8</ele>
        <time>2010-10-30T12:38:25Z</time>
      </trkpt>
      <trkpt lat="45.08304" lon="5.6135">
        <ele>1733.8</ele>
        <time>2010-10-30T12:38:29Z</time>
      </trkpt>
      <trkpt lat="45.08306" lon="5.6135">
        <ele>1734</ele>
        <time>2010-10-30T12:38:30Z</time>
      </trkpt>
      <trkpt lat="45.08309" lon="5.61349">
        <ele>1735</ele>
        <time>2010-10-30T12:38:34Z</time>
      </trkpt>
      <trkpt lat="45.08313" lon="5.61344">
        <ele>1736.4</ele>
        <time>2010-10-30T12:38:39Z</time>
      </trkpt>
      <trkpt lat="45.08317" lon="5.61339">
        <ele>1738.2</ele>
        <time>2010-10-30T12:38:45Z</time>
      </trkpt>
      <trkpt lat="45.08317" lon="5.61338">
        <ele>1738.4</ele>
        <time>2010-10-30T12:38:46Z</time>
      </trkpt>
      <trkpt lat="45.0832" lon="5.61335">
        <ele>1739.4</ele>
        <time>2010-10-30T12:38:50Z</time>
      </trkpt>
      <trkpt lat="45.0832" lon="5.61335">
        <ele>1739.8</ele>
        <time>2010-10-30T12:38:51Z</time>
      </trkpt>
      <trkpt lat="45.08321" lon="5.61334">
        <ele>1740</ele>
        <time>2010-10-30T12:38:52Z</time>
      </trkpt>
      <trkpt lat="45.08323" lon="5.61332">
        <ele>1741</ele>
        <time>2010-10-30T12:38:57Z</time>
      </trkpt>
      <trkpt lat="45.08323" lon="5.61332">
        <ele>1742.6</ele>
        <time>2010-10-30T12:39:08Z</time>
      </trkpt>
      <trkpt lat="45.08328" lon="5.6133">
        <ele>1743.6</ele>
        <time>2010-10-30T12:40:07Z</time>
      </trkpt>
      <trkpt lat="45.08327" lon="5.6133">
        <ele>1743.6</ele>
        <time>2010-10-30T12:40:11Z</time>
      </trkpt>
      <trkpt lat="45.08327" lon="5.61331">
        <ele>1743.6</ele>
        <time>2010-10-30T12:40:20Z</time>
      </trkpt>
      <trkpt lat="45.08325" lon="5.61332">
        <ele>1742.8</ele>
        <time>2010-10-30T12:41:03Z</time>
      </trkpt>
      <trkpt lat="45.08324" lon="5.61332">
        <ele>1742.4</ele>
        <time>2010-10-30T12:41:17Z</time>
      </trkpt>
      <trkpt lat="45.08325" lon="5.61332">
        <ele>1742.8</ele>
        <time>2010-10-30T12:42:49Z</time>
      </trkpt>
      <trkpt lat="45.08325" lon="5.61332">
        <ele>1742.4</ele>
        <time>2010-10-30T12:43:18Z</time>
      </trkpt>
      <trkpt lat="45.08326" lon="5.61331">
        <ele>1742.4</ele>
        <time>2010-10-30T12:43:25Z</time>
      </trkpt>
      <trkpt lat="45.08326" lon="5.61332">
        <ele>1742.4</ele>
        <time>2010-10-30T12:43:30Z</time>
      </trkpt>
      <trkpt lat="45.08324" lon="5.61332">
        <ele>1742.2</ele>
        <time>2010-10-30T12:43:44Z</time>
      </trkpt>
      <trkpt lat="45.08323" lon="5.61332">
        <ele>1742.2</ele>
        <time>2010-10-30T12:43:46Z</time>
      </trkpt>
      <trkpt lat="45.08321" lon="5.61332">
        <ele>1742.2</ele>
        <time>2010-10-30T12:43:50Z</time>
      </trkpt>
      <trkpt lat="45.08317" lon="5.61333">
        <ele>1742.2</ele>
        <time>2010-10-30T12:43:56Z</time>
      </trkpt>
      <trkpt lat="45.08315" lon="5.61335">
        <ele>1742.2</ele>
        <time>2010-10-30T12:43:59Z</time>
      </trkpt>
      <trkpt lat="45.08314" lon="5.61339">
        <ele>1742.2</ele>
        <time>2010-10-30T12:44:02Z</time>
      </trkpt>
      <trkpt lat="45.08313" lon="5.61345">
        <ele>1742.2</ele>
        <time>2010-10-30T12:44:07Z</time>
      </trkpt>
      <trkpt lat="45.08312" lon="5.61347">
        <ele>1742.2</ele>
        <time>2010-10-30T12:44:09Z</time>
      </trkpt>
      <trkpt lat="45.08311" lon="5.61348">
        <ele>1742.2</ele>
        <time>2010-10-30T12:44:10Z</time>
      </trkpt>
      <trkpt lat="45.0831" lon="5.61353">
        <ele>1742.2</ele>
        <time>2010-10-30T12:44:16Z</time>
      </trkpt>
      <trkpt lat="45.08314" lon="5.6136">
        <ele>1742.2</ele>
        <time>2010-10-30T12:44:22Z</time>
      </trkpt>
      <trkpt lat="45.08316" lon="5.61366">
        <ele>1742.2</ele>
        <time>2010-10-30T12:44:27Z</time>
      </trkpt>
      <trkpt lat="45.08315" lon="5.61364">
        <ele>1742.2</ele>
        <time>2010-10-30T12:44:29Z</time>
      </trkpt>
      <trkpt lat="45.08314" lon="5.61363">
        <ele>1742.2</ele>
        <time>2010-10-30T12:44:30Z</time>
      </trkpt>
      <trkpt lat="45.08312" lon="5.61362">
        <ele>1742</ele>
        <time>2010-10-30T12:44:31Z</time>
      </trkpt>
      <trkpt lat="45.08299" lon="5.61355">
        <ele>1742</ele>
        <time>2010-10-30T12:44:38Z</time>
      </trkpt>
      <trkpt lat="45.08297" lon="5.61357">
        <ele>1742</ele>
        <time>2010-10-30T12:44:39Z</time>
      </trkpt>
      <trkpt lat="45.08291" lon="5.6136">
        <ele>1742</ele>
        <time>2010-10-30T12:44:42Z</time>
      </trkpt>
      <trkpt lat="45.08288" lon="5.61361">
        <ele>1741.8</ele>
        <time>2010-10-30T12:44:43Z</time>
      </trkpt>
      <trkpt lat="45.08282" lon="5.61363">
        <ele>1741.8</ele>
        <time>2010-10-30T12:44:46Z</time>
      </trkpt>
      <trkpt lat="45.0828" lon="5.61364">
        <ele>1741.6</ele>
        <time>2010-10-30T12:44:47Z</time>
      </trkpt>
      <trkpt lat="45.08279" lon="5.61363">
        <ele>1741.6</ele>
        <time>2010-10-30T12:44:48Z</time>
      </trkpt>
      <trkpt lat="45.08276" lon="5.61359">
        <ele>1741.6</ele>
        <time>2010-10-30T12:44:50Z</time>
      </trkpt>
      <trkpt lat="45.08274" lon="5.61357">
        <ele>1741.4</ele>
        <time>2010-10-30T12:44:52Z</time>
      </trkpt>
      <trkpt lat="45.0827" lon="5.61352">
        <ele>1741.2</ele>
        <time>2010-10-30T12:44:55Z</time>
      </trkpt>
      <trkpt lat="45.08268" lon="5.61352">
        <ele>1741.2</ele>
        <time>2010-10-30T12:44:56Z</time>
      </trkpt>
      <trkpt lat="45.08264" lon="5.61354">
        <ele>1741</ele>
        <time>2010-10-30T12:44:58Z</time>
      </trkpt>
      <trkpt lat="45.0826" lon="5.61355">
        <ele>1740.6</ele>
        <time>2010-10-30T12:45:00Z</time>
      </trkpt>
      <trkpt lat="45.08253" lon="5.61356">
        <ele>1740.2</ele>
        <time>2010-10-30T12:45:04Z</time>
      </trkpt>
      <trkpt lat="45.08249" lon="5.61359">
        <ele>1739.8</ele>
        <time>2010-10-30T12:45:07Z</time>
      </trkpt>
      <trkpt lat="45.08247" lon="5.61358">
        <ele>1739.6</ele>
        <time>2010-10-30T12:45:08Z</time>
      </trkpt>
      <trkpt lat="45.0824" lon="5.6136">
        <ele>1739.2</ele>
        <time>2010-10-30T12:45:11Z</time>
      </trkpt>
      <trkpt lat="45.08235" lon="5.6136">
        <ele>1739</ele>
        <time>2010-10-30T12:45:13Z</time>
      </trkpt>
      <trkpt lat="45.08228" lon="5.61359">
        <ele>1738.6</ele>
        <time>2010-10-30T12:45:16Z</time>
      </trkpt>
      <trkpt lat="45.08226" lon="5.61358">
        <ele>1738.4</ele>
        <time>2010-10-30T12:45:17Z</time>
      </trkpt>
      <trkpt lat="45.08219" lon="5.61359">
        <ele>1738</ele>
        <time>2010-10-30T12:45:20Z</time>
      </trkpt>
      <trkpt lat="45.0821" lon="5.61353">
        <ele>1737.2</ele>
        <time>2010-10-30T12:45:24Z</time>
      </trkpt>
      <trkpt lat="45.08208" lon="5.61351">
        <ele>1737.2</ele>
        <time>2010-10-30T12:45:25Z</time>
      </trkpt>
      <trkpt lat="45.08207" lon="5.6135">
        <ele>1737</ele>
        <time>2010-10-30T12:45:26Z</time>
      </trkpt>
      <trkpt lat="45.08203" lon="5.61348">
        <ele>1736.6</ele>
        <time>2010-10-30T12:45:28Z</time>
      </trkpt>
      <trkpt lat="45.08202" lon="5.61347">
        <ele>1736.4</ele>
        <time>2010-10-30T12:45:29Z</time>
      </trkpt>
      <trkpt lat="45.08198" lon="5.61345">
        <ele>1735.4</ele>
        <time>2010-10-30T12:45:34Z</time>
      </trkpt>
      <trkpt lat="45.08193" lon="5.61346">
        <ele>1734.6</ele>
        <time>2010-10-30T12:45:39Z</time>
      </trkpt>
      <trkpt lat="45.08192" lon="5.61346">
        <ele>1734.4</ele>
        <time>2010-10-30T12:45:40Z</time>
      </trkpt>
      <trkpt lat="45.08186" lon="5.61346">
        <ele>1733.4</ele>
        <time>2010-10-30T12:45:44Z</time>
      </trkpt>
      <trkpt lat="45.08177" lon="5.61345">
        <ele>1732.4</ele>
        <time>2010-10-30T12:45:49Z</time>
      </trkpt>
      <trkpt lat="45.08175" lon="5.61342">
        <ele>1731.4</ele>
        <time>2010-10-30T12:45:54Z</time>
      </trkpt>
      <trkpt lat="45.0817" lon="5.61343">
        <ele>1730.2</ele>
        <time>2010-10-30T12:45:59Z</time>
      </trkpt>
      <trkpt lat="45.08163" lon="5.61342">
        <ele>1729</ele>
        <time>2010-10-30T12:46:04Z</time>
      </trkpt>
      <trkpt lat="45.08163" lon="5.61342">
        <ele>1728.8</ele>
        <time>2010-10-30T12:46:05Z</time>
      </trkpt>
      <trkpt lat="45.08162" lon="5.61342">
        <ele>1726.2</ele>
        <time>2010-10-30T12:46:17Z</time>
      </trkpt>
      <trkpt lat="45.08162" lon="5.61341">
        <ele>1725</ele>
        <time>2010-10-30T12:46:22Z</time>
      </trkpt>
      <trkpt lat="45.08162" lon="5.61342">
        <ele>1723.6</ele>
        <time>2010-10-30T12:46:29Z</time>
      </trkpt>
      <trkpt lat="45.08163" lon="5.61342">
        <ele>1723.4</ele>
        <time>2010-10-30T12:46:30Z</time>
      </trkpt>
      <trkpt lat="45.08162" lon="5.61341">
        <ele>1722.8</ele>
        <time>2010-10-30T12:46:34Z</time>
      </trkpt>
      <trkpt lat="45.0816" lon="5.6134">
        <ele>1719.2</ele>
        <time>2010-10-30T12:46:55Z</time>
      </trkpt>
      <trkpt lat="45.08158" lon="5.6134">
        <ele>1718</ele>
        <time>2010-10-30T12:47:02Z</time>
      </trkpt>
      <trkpt lat="45.08154" lon="5.61341">
        <ele>1717.6</ele>
        <time>2010-10-30T12:47:05Z</time>
      </trkpt>
      <trkpt lat="45.08151" lon="5.61343">
        <ele>1717</ele>
        <time>2010-10-30T12:47:08Z</time>
      </trkpt>
      <trkpt lat="45.08146" lon="5.61347">
        <ele>1716</ele>
        <time>2010-10-30T12:47:13Z</time>
      </trkpt>
      <trkpt lat="45.08145" lon="5.61348">
        <ele>1715.8</ele>
        <time>2010-10-30T12:47:14Z</time>
      </trkpt>
      <trkpt lat="45.08138" lon="5.6135">
        <ele>1714.6</ele>
        <time>2010-10-30T12:47:20Z</time>
      </trkpt>
      <trkpt lat="45.08132" lon="5.61353">
        <ele>1713.4</ele>
        <time>2010-10-30T12:47:26Z</time>
      </trkpt>
      <trkpt lat="45.0813" lon="5.61356">
        <ele>1713</ele>
        <time>2010-10-30T12:47:28Z</time>
      </trkpt>
      <trkpt lat="45.08124" lon="5.6136">
        <ele>1712.4</ele>
        <time>2010-10-30T12:47:31Z</time>
      </trkpt>
      <trkpt lat="45.08114" lon="5.61364">
        <ele>1711.4</ele>
        <time>2010-10-30T12:47:35Z</time>
      </trkpt>
      <trkpt lat="45.08111" lon="5.61365">
        <ele>1711.2</ele>
        <time>2010-10-30T12:47:36Z</time>
      </trkpt>
      <trkpt lat="45.08105" lon="5.61367">
        <ele>1710.6</ele>
        <time>2010-10-30T12:47:39Z</time>
      </trkpt>
      <trkpt lat="45.08103" lon="5.61369">
        <ele>1710.2</ele>
        <time>2010-10-30T12:47:41Z</time>
      </trkpt>
      <trkpt lat="45.08097" lon="5.61373">
        <ele>1709.4</ele>
        <time>2010-10-30T12:47:45Z</time>
      </trkpt>
      <trkpt lat="45.0809" lon="5.61372">
        <ele>1708.6</ele>
        <time>2010-10-30T12:47:49Z</time>
      </trkpt>
      <trkpt lat="45.08084" lon="5.61375">
        <ele>1707.6</ele>
        <time>2010-10-30T12:47:53Z</time>
      </trkpt>
      <trkpt lat="45.08081" lon="5.6138">
        <ele>1706.8</ele>
        <time>2010-10-30T12:47:56Z</time>
      </trkpt>
      <trkpt lat="45.0808" lon="5.61384">
        <ele>1706.4</ele>
        <time>2010-10-30T12:47:58Z</time>
      </trkpt>
      <trkpt lat="45.08085" lon="5.61387">
        <ele>1705.4</ele>
        <time>2010-10-30T12:48:01Z</time>
      </trkpt>
      <trkpt lat="45.08087" lon="5.61388">
        <ele>1705</ele>
        <time>2010-10-30T12:48:02Z</time>
      </trkpt>
      <trkpt lat="45.08095" lon="5.61392">
        <ele>1703.8</ele>
        <time>2010-10-30T12:48:06Z</time>
      </trkpt>
      <trkpt lat="45.08098" lon="5.61394">
        <ele>1703.2</ele>
        <time>2010-10-30T12:48:08Z</time>
      </trkpt>
      <trkpt lat="45.08098" lon="5.61396">
        <ele>1702.8</ele>
        <time>2010-10-30T12:48:09Z</time>
      </trkpt>
      <trkpt lat="45.08096" lon="5.61398">
        <ele>1702.2</ele>
        <time>2010-10-30T12:48:11Z</time>
      </trkpt>
      <trkpt lat="45.0809" lon="5.61405">
        <ele>1700.8</ele>
        <time>2010-10-30T12:48:15Z</time>
      </trkpt>
      <trkpt lat="45.08088" lon="5.61408">
        <ele>1700.2</ele>
        <time>2010-10-30T12:48:17Z</time>
      </trkpt>
      <trkpt lat="45.0809" lon="5.61412">
        <ele>1699.6</ele>
        <time>2010-10-30T12:48:19Z</time>
      </trkpt>
      <trkpt lat="45.08096" lon="5.6142">
        <ele>1697.8</ele>
        <time>2010-10-30T12:48:24Z</time>
      </trkpt>
      <trkpt lat="45.08097" lon="5.61421">
        <ele>1697.4</ele>
        <time>2010-10-30T12:48:25Z</time>
      </trkpt>
      <trkpt lat="45.08101" lon="5.61426">
        <ele>1696</ele>
        <time>2010-10-30T12:48:29Z</time>
      </trkpt>
      <trkpt lat="45.08102" lon="5.61427">
        <ele>1695.8</ele>
        <time>2010-10-30T12:48:30Z</time>
      </trkpt>
      <trkpt lat="45.08107" lon="5.61428">
        <ele>1694.6</ele>
        <time>2010-10-30T12:48:33Z</time>
      </trkpt>
      <trkpt lat="45.08113" lon="5.61431">
        <ele>1693.2</ele>
        <time>2010-10-30T12:48:37Z</time>
      </trkpt>
      <trkpt lat="45.08117" lon="5.61432">
        <ele>1692.4</ele>
        <time>2010-10-30T12:48:39Z</time>
      </trkpt>
      <trkpt lat="45.08119" lon="5.61433">
        <ele>1692</ele>
        <time>2010-10-30T12:48:40Z</time>
      </trkpt>
      <trkpt lat="45.08125" lon="5.61439">
        <ele>1690.6</ele>
        <time>2010-10-30T12:48:44Z</time>
      </trkpt>
      <trkpt lat="45.08125" lon="5.61441">
        <ele>1690.2</ele>
        <time>2010-10-30T12:48:45Z</time>
      </trkpt>
      <trkpt lat="45.08127" lon="5.61445">
        <ele>1689</ele>
        <time>2010-10-30T12:48:48Z</time>
      </trkpt>
      <trkpt lat="45.08128" lon="5.61451">
        <ele>1687.4</ele>
        <time>2010-10-30T12:48:52Z</time>
      </trkpt>
      <trkpt lat="45.08128" lon="5.61451">
        <ele>1687</ele>
        <time>2010-10-30T12:48:53Z</time>
      </trkpt>
      <trkpt lat="45.0813" lon="5.61452">
        <ele>1686.6</ele>
        <time>2010-10-30T12:48:54Z</time>
      </trkpt>
      <trkpt lat="45.08131" lon="5.61455">
        <ele>1685.8</ele>
        <time>2010-10-30T12:48:56Z</time>
      </trkpt>
      <trkpt lat="45.08132" lon="5.61464">
        <ele>1684</ele>
        <time>2010-10-30T12:49:01Z</time>
      </trkpt>
      <trkpt lat="45.08133" lon="5.61471">
        <ele>1682.2</ele>
        <time>2010-10-30T12:49:05Z</time>
      </trkpt>
      <trkpt lat="45.08131" lon="5.61473">
        <ele>1681.4</ele>
        <time>2010-10-30T12:49:07Z</time>
      </trkpt>
      <trkpt lat="45.0813" lon="5.61475">
        <ele>1681</ele>
        <time>2010-10-30T12:49:08Z</time>
      </trkpt>
      <trkpt lat="45.0813" lon="5.61477">
        <ele>1680.2</ele>
        <time>2010-10-30T12:49:10Z</time>
      </trkpt>
      <trkpt lat="45.0813" lon="5.61479">
        <ele>1679.2</ele>
        <time>2010-10-30T12:49:12Z</time>
      </trkpt>
      <trkpt lat="45.08131" lon="5.61481">
        <ele>1678.8</ele>
        <time>2010-10-30T12:49:13Z</time>
      </trkpt>
      <trkpt lat="45.08132" lon="5.61484">
        <ele>1678</ele>
        <time>2010-10-30T12:49:15Z</time>
      </trkpt>
      <trkpt lat="45.0813" lon="5.61491">
        <ele>1676.4</ele>
        <time>2010-10-30T12:49:19Z</time>
      </trkpt>
      <trkpt lat="45.08128" lon="5.61495">
        <ele>1675</ele>
        <time>2010-10-30T12:49:22Z</time>
      </trkpt>
      <trkpt lat="45.08128" lon="5.61497">
        <ele>1674.6</ele>
        <time>2010-10-30T12:49:23Z</time>
      </trkpt>
      <trkpt lat="45.08128" lon="5.61499">
        <ele>1673.6</ele>
        <time>2010-10-30T12:49:25Z</time>
      </trkpt>
      <trkpt lat="45.08128" lon="5.61504">
        <ele>1672.2</ele>
        <time>2010-10-30T12:49:28Z</time>
      </trkpt>
      <trkpt lat="45.08127" lon="5.61505">
        <ele>1671.8</ele>
        <time>2010-10-30T12:49:29Z</time>
      </trkpt>
      <trkpt lat="45.08122" lon="5.6151">
        <ele>1669.4</ele>
        <time>2010-10-30T12:49:34Z</time>
      </trkpt>
      <trkpt lat="45.08121" lon="5.61511">
        <ele>1668.6</ele>
        <time>2010-10-30T12:49:36Z</time>
      </trkpt>
      <trkpt lat="45.08123" lon="5.61513">
        <ele>1667.6</ele>
        <time>2010-10-30T12:49:38Z</time>
      </trkpt>
      <trkpt lat="45.08124" lon="5.61514">
        <ele>1667.2</ele>
        <time>2010-10-30T12:49:39Z</time>
      </trkpt>
      <trkpt lat="45.08126" lon="5.61515">
        <ele>1666.8</ele>
        <time>2010-10-30T12:49:40Z</time>
      </trkpt>
      <trkpt lat="45.08128" lon="5.61518">
        <ele>1665.2</ele>
        <time>2010-10-30T12:49:43Z</time>
      </trkpt>
      <trkpt lat="45.08123" lon="5.61523">
        <ele>1663.4</ele>
        <time>2010-10-30T12:49:47Z</time>
      </trkpt>
      <trkpt lat="45.0812" lon="5.61529">
        <ele>1662</ele>
        <time>2010-10-30T12:49:50Z</time>
      </trkpt>
      <trkpt lat="45.08117" lon="5.61534">
        <ele>1660.4</ele>
        <time>2010-10-30T12:49:53Z</time>
      </trkpt>
      <trkpt lat="45.08114" lon="5.61539">
        <ele>1659</ele>
        <time>2010-10-30T12:49:56Z</time>
      </trkpt>
      <trkpt lat="45.08113" lon="5.6154">
        <ele>1658.6</ele>
        <time>2010-10-30T12:49:57Z</time>
      </trkpt>
      <trkpt lat="45.08114" lon="5.61548">
        <ele>1656.6</ele>
        <time>2010-10-30T12:50:01Z</time>
      </trkpt>
      <trkpt lat="45.08114" lon="5.61549">
        <ele>1656</ele>
        <time>2010-10-30T12:50:02Z</time>
      </trkpt>
      <trkpt lat="45.08115" lon="5.61549">
        <ele>1655.4</ele>
        <time>2010-10-30T12:50:03Z</time>
      </trkpt>
      <trkpt lat="45.08116" lon="5.61549">
        <ele>1655</ele>
        <time>2010-10-30T12:50:04Z</time>
      </trkpt>
      <trkpt lat="45.08117" lon="5.61549">
        <ele>1654.6</ele>
        <time>2010-10-30T12:50:05Z</time>
      </trkpt>
      <trkpt lat="45.08119" lon="5.6155">
        <ele>1653.6</ele>
        <time>2010-10-30T12:50:07Z</time>
      </trkpt>
      <trkpt lat="45.08122" lon="5.61555">
        <ele>1652</ele>
        <time>2010-10-30T12:50:10Z</time>
      </trkpt>
      <trkpt lat="45.0813" lon="5.61555">
        <ele>1649.2</ele>
        <time>2010-10-30T12:50:16Z</time>
      </trkpt>
      <trkpt lat="45.08131" lon="5.61554">
        <ele>1648.8</ele>
        <time>2010-10-30T12:50:17Z</time>
      </trkpt>
      <trkpt lat="45.08134" lon="5.61557">
        <ele>1647.2</ele>
        <time>2010-10-30T12:50:20Z</time>
      </trkpt>
      <trkpt lat="45.08132" lon="5.61565">
        <ele>1645.4</ele>
        <time>2010-10-30T12:50:24Z</time>
      </trkpt>
      <trkpt lat="45.08129" lon="5.61568">
        <ele>1644</ele>
        <time>2010-10-30T12:50:27Z</time>
      </trkpt>
      <trkpt lat="45.08129" lon="5.61569">
        <ele>1643</ele>
        <time>2010-10-30T12:50:29Z</time>
      </trkpt>
      <trkpt lat="45.08132" lon="5.61572">
        <ele>1641.2</ele>
        <time>2010-10-30T12:50:33Z</time>
      </trkpt>
      <trkpt lat="45.08134" lon="5.61574">
        <ele>1640.2</ele>
        <time>2010-10-30T12:50:35Z</time>
      </trkpt>
      <trkpt lat="45.08139" lon="5.6158">
        <ele>1638</ele>
        <time>2010-10-30T12:50:40Z</time>
      </trkpt>
      <trkpt lat="45.08143" lon="5.61584">
        <ele>1636.2</ele>
        <time>2010-10-30T12:50:44Z</time>
      </trkpt>
      <trkpt lat="45.08143" lon="5.61587">
        <ele>1635.2</ele>
        <time>2010-10-30T12:50:46Z</time>
      </trkpt>
      <trkpt lat="45.08143" lon="5.61589">
        <ele>1634.8</ele>
        <time>2010-10-30T12:50:47Z</time>
      </trkpt>
      <trkpt lat="45.08144" lon="5.61593">
        <ele>1633.8</ele>
        <time>2010-10-30T12:50:49Z</time>
      </trkpt>
      <trkpt lat="45.08146" lon="5.61592">
        <ele>1633</ele>
        <time>2010-10-30T12:50:51Z</time>
      </trkpt>
      <trkpt lat="45.0815" lon="5.61594">
        <ele>1630.8</ele>
        <time>2010-10-30T12:50:56Z</time>
      </trkpt>
      <trkpt lat="45.08152" lon="5.61601">
        <ele>1628.4</ele>
        <time>2010-10-30T12:51:01Z</time>
      </trkpt>
      <trkpt lat="45.08151" lon="5.61603">
        <ele>1627.6</ele>
        <time>2010-10-30T12:51:03Z</time>
      </trkpt>
      <trkpt lat="45.0815" lon="5.61606">
        <ele>1626.6</ele>
        <time>2010-10-30T12:51:05Z</time>
      </trkpt>
      <trkpt lat="45.08147" lon="5.6161">
        <ele>1624.4</ele>
        <time>2010-10-30T12:51:10Z</time>
      </trkpt>
      <trkpt lat="45.08153" lon="5.61614">
        <ele>1622</ele>
        <time>2010-10-30T12:51:15Z</time>
      </trkpt>
      <trkpt lat="45.08154" lon="5.61614">
        <ele>1621.6</ele>
        <time>2010-10-30T12:51:16Z</time>
      </trkpt>
      <trkpt lat="45.08158" lon="5.61616">
        <ele>1620.6</ele>
        <time>2010-10-30T12:51:18Z</time>
      </trkpt>
      <trkpt lat="45.08163" lon="5.61617">
        <ele>1619.4</ele>
        <time>2010-10-30T12:51:21Z</time>
      </trkpt>
      <trkpt lat="45.08168" lon="5.61618">
        <ele>1618</ele>
        <time>2010-10-30T12:51:24Z</time>
      </trkpt>
      <trkpt lat="45.08172" lon="5.61619">
        <ele>1617.2</ele>
        <time>2010-10-30T12:51:26Z</time>
      </trkpt>
      <trkpt lat="45.08176" lon="5.61622">
        <ele>1616.2</ele>
        <time>2010-10-30T12:51:28Z</time>
      </trkpt>
      <trkpt lat="45.08178" lon="5.61622">
        <ele>1615.8</ele>
        <time>2010-10-30T12:51:29Z</time>
      </trkpt>
      <trkpt lat="45.08182" lon="5.61622">
        <ele>1615</ele>
        <time>2010-10-30T12:51:31Z</time>
      </trkpt>
      <trkpt lat="45.08186" lon="5.61623">
        <ele>1614.2</ele>
        <time>2010-10-30T12:51:34Z</time>
      </trkpt>
      <trkpt lat="45.08192" lon="5.61625">
        <ele>1612.8</ele>
        <time>2010-10-30T12:51:36Z</time>
      </trkpt>
      <trkpt lat="45.08194" lon="5.61626">
        <ele>1612</ele>
        <time>2010-10-30T12:51:38Z</time>
      </trkpt>
      <trkpt lat="45.08195" lon="5.61626">
        <ele>1611.6</ele>
        <time>2010-10-30T12:51:39Z</time>
      </trkpt>
      <trkpt lat="45.08198" lon="5.61624">
        <ele>1610.8</ele>
        <time>2010-10-30T12:51:41Z</time>
      </trkpt>
      <trkpt lat="45.08202" lon="5.61622">
        <ele>1610</ele>
        <time>2010-10-30T12:51:43Z</time>
      </trkpt>
      <trkpt lat="45.08208" lon="5.61622">
        <ele>1608.6</ele>
        <time>2010-10-30T12:51:46Z</time>
      </trkpt>
      <trkpt lat="45.08212" lon="5.61621">
        <ele>1607.8</ele>
        <time>2010-10-30T12:51:48Z</time>
      </trkpt>
      <trkpt lat="45.08214" lon="5.6162">
        <ele>1607</ele>
        <time>2010-10-30T12:51:50Z</time>
      </trkpt>
      <trkpt lat="45.08222" lon="5.61624">
        <ele>1604.6</ele>
        <time>2010-10-30T12:51:56Z</time>
      </trkpt>
      <trkpt lat="45.0823" lon="5.61624">
        <ele>1602.6</ele>
        <time>2010-10-30T12:52:01Z</time>
      </trkpt>
      <trkpt lat="45.08232" lon="5.61624">
        <ele>1602.2</ele>
        <time>2010-10-30T12:52:02Z</time>
      </trkpt>
      <trkpt lat="45.08239" lon="5.61617">
        <ele>1600</ele>
        <time>2010-10-30T12:52:08Z</time>
      </trkpt>
      <trkpt lat="45.08242" lon="5.61615">
        <ele>1598.8</ele>
        <time>2010-10-30T12:52:11Z</time>
      </trkpt>
      <trkpt lat="45.08244" lon="5.61614">
        <ele>1598</ele>
        <time>2010-10-30T12:52:13Z</time>
      </trkpt>
      <trkpt lat="45.08242" lon="5.61617">
        <ele>1597.2</ele>
        <time>2010-10-30T12:52:15Z</time>
      </trkpt>
      <trkpt lat="45.08242" lon="5.61621">
        <ele>1596</ele>
        <time>2010-10-30T12:52:18Z</time>
      </trkpt>
      <trkpt lat="45.08248" lon="5.61619">
        <ele>1594.2</ele>
        <time>2010-10-30T12:52:23Z</time>
      </trkpt>
      <trkpt lat="45.08249" lon="5.61622">
        <ele>1594</ele>
        <time>2010-10-30T12:52:24Z</time>
      </trkpt>
      <trkpt lat="45.0825" lon="5.61628">
        <ele>1593.4</ele>
        <time>2010-10-30T12:52:26Z</time>
      </trkpt>
      <trkpt lat="45.08252" lon="5.61631">
        <ele>1593</ele>
        <time>2010-10-30T12:52:27Z</time>
      </trkpt>
      <trkpt lat="45.08254" lon="5.61633">
        <ele>1592</ele>
        <time>2010-10-30T12:52:30Z</time>
      </trkpt>
      <trkpt lat="45.08253" lon="5.61637">
        <ele>1591</ele>
        <time>2010-10-30T12:52:33Z</time>
      </trkpt>
      <trkpt lat="45.08247" lon="5.61644">
        <ele>1589.4</ele>
        <time>2010-10-30T12:52:38Z</time>
      </trkpt>
      <trkpt lat="45.08245" lon="5.61645">
        <ele>1589</ele>
        <time>2010-10-30T12:52:39Z</time>
      </trkpt>
      <trkpt lat="45.08243" lon="5.61648">
        <ele>1588.4</ele>
        <time>2010-10-30T12:52:41Z</time>
      </trkpt>
      <trkpt lat="45.08246" lon="5.61647">
        <ele>1587.6</ele>
        <time>2010-10-30T12:52:43Z</time>
      </trkpt>
      <trkpt lat="45.08247" lon="5.61648">
        <ele>1587.2</ele>
        <time>2010-10-30T12:52:44Z</time>
      </trkpt>
      <trkpt lat="45.08247" lon="5.61655">
        <ele>1586.2</ele>
        <time>2010-10-30T12:52:47Z</time>
      </trkpt>
      <trkpt lat="45.08245" lon="5.61657">
        <ele>1585.4</ele>
        <time>2010-10-30T12:52:49Z</time>
      </trkpt>
      <trkpt lat="45.08242" lon="5.61662">
        <ele>1583.8</ele>
        <time>2010-10-30T12:52:53Z</time>
      </trkpt>
      <trkpt lat="45.08242" lon="5.61664">
        <ele>1583.4</ele>
        <time>2010-10-30T12:52:54Z</time>
      </trkpt>
      <trkpt lat="45.08238" lon="5.61672">
        <ele>1581.4</ele>
        <time>2010-10-30T12:52:59Z</time>
      </trkpt>
      <trkpt lat="45.08238" lon="5.61676">
        <ele>1579.2</ele>
        <time>2010-10-30T12:53:04Z</time>
      </trkpt>
      <trkpt lat="45.0824" lon="5.6168">
        <ele>1578</ele>
        <time>2010-10-30T12:53:07Z</time>
      </trkpt>
      <trkpt lat="45.08239" lon="5.61681">
        <ele>1577.6</ele>
        <time>2010-10-30T12:53:08Z</time>
      </trkpt>
      <trkpt lat="45.08234" lon="5.61688">
        <ele>1575.4</ele>
        <time>2010-10-30T12:53:13Z</time>
      </trkpt>
      <trkpt lat="45.08233" lon="5.61691">
        <ele>1574.6</ele>
        <time>2010-10-30T12:53:15Z</time>
      </trkpt>
      <trkpt lat="45.0823" lon="5.61695">
        <ele>1573.2</ele>
        <time>2010-10-30T12:53:18Z</time>
      </trkpt>
      <trkpt lat="45.08229" lon="5.617">
        <ele>1572.4</ele>
        <time>2010-10-30T12:53:20Z</time>
      </trkpt>
      <trkpt lat="45.08223" lon="5.61707">
        <ele>1570.4</ele>
        <time>2010-10-30T12:53:24Z</time>
      </trkpt>
      <trkpt lat="45.08222" lon="5.61708">
        <ele>1570</ele>
        <time>2010-10-30T12:53:25Z</time>
      </trkpt>
      <trkpt lat="45.08218" lon="5.61715">
        <ele>1568.6</ele>
        <time>2010-10-30T12:53:28Z</time>
      </trkpt>
      <trkpt lat="45.08214" lon="5.61716">
        <ele>1567.6</ele>
        <time>2010-10-30T12:53:30Z</time>
      </trkpt>
      <trkpt lat="45.08211" lon="5.61718">
        <ele>1566.8</ele>
        <time>2010-10-30T12:53:32Z</time>
      </trkpt>
      <trkpt lat="45.08207" lon="5.61724">
        <ele>1565.4</ele>
        <time>2010-10-30T12:53:35Z</time>
      </trkpt>
      <trkpt lat="45.08206" lon="5.61728">
        <ele>1564.4</ele>
        <time>2010-10-30T12:53:37Z</time>
      </trkpt>
      <trkpt lat="45.08203" lon="5.61735">
        <ele>1562.2</ele>
        <time>2010-10-30T12:53:42Z</time>
      </trkpt>
      <trkpt lat="45.08203" lon="5.61736">
        <ele>1561.8</ele>
        <time>2010-10-30T12:53:43Z</time>
      </trkpt>
      <trkpt lat="45.08202" lon="5.61736">
        <ele>1561.2</ele>
        <time>2010-10-30T12:53:44Z</time>
      </trkpt>
      <trkpt lat="45.08197" lon="5.6174">
        <ele>1559.4</ele>
        <time>2010-10-30T12:53:48Z</time>
      </trkpt>
      <trkpt lat="45.0819" lon="5.6175">
        <ele>1556.8</ele>
        <time>2010-10-30T12:53:54Z</time>
      </trkpt>
      <trkpt lat="45.08189" lon="5.61751">
        <ele>1555.8</ele>
        <time>2010-10-30T12:53:56Z</time>
      </trkpt>
      <trkpt lat="45.08188" lon="5.61752">
        <ele>1555.4</ele>
        <time>2010-10-30T12:53:57Z</time>
      </trkpt>
      <trkpt lat="45.08187" lon="5.61753">
        <ele>1554.6</ele>
        <time>2010-10-30T12:53:59Z</time>
      </trkpt>
      <trkpt lat="45.08186" lon="5.61754">
        <ele>1554.2</ele>
        <time>2010-10-30T12:54:00Z</time>
      </trkpt>
      <trkpt lat="45.08187" lon="5.61754">
        <ele>1551.8</ele>
        <time>2010-10-30T12:54:06Z</time>
      </trkpt>
      <trkpt lat="45.08182" lon="5.61756">
        <ele>1549</ele>
        <time>2010-10-30T12:54:15Z</time>
      </trkpt>
      <trkpt lat="45.08178" lon="5.61751">
        <ele>1544.8</ele>
        <time>2010-10-30T12:54:29Z</time>
      </trkpt>
      <trkpt lat="45.08176" lon="5.61752">
        <ele>1544.2</ele>
        <time>2010-10-30T12:54:32Z</time>
      </trkpt>
      <trkpt lat="45.08175" lon="5.61752">
        <ele>1544</ele>
        <time>2010-10-30T12:54:33Z</time>
      </trkpt>
      <trkpt lat="45.08175" lon="5.61772">
        <ele>1539.2</ele>
        <time>2010-10-30T12:55:44Z</time>
      </trkpt>
      <trkpt lat="45.08182" lon="5.61772">
        <ele>1539</ele>
        <time>2010-10-30T12:55:47Z</time>
      </trkpt>
      <trkpt lat="45.08184" lon="5.61771">
        <ele>1539</ele>
        <time>2010-10-30T12:55:49Z</time>
      </trkpt>
      <trkpt lat="45.08192" lon="5.61768">
        <ele>1538.4</ele>
        <time>2010-10-30T12:55:53Z</time>
      </trkpt>
      <trkpt lat="45.08197" lon="5.61767">
        <ele>1538</ele>
        <time>2010-10-30T12:55:56Z</time>
      </trkpt>
      <trkpt lat="45.08199" lon="5.61769">
        <ele>1537.6</ele>
        <time>2010-10-30T12:55:58Z</time>
      </trkpt>
      <trkpt lat="45.08196" lon="5.61771">
        <ele>1537</ele>
        <time>2010-10-30T12:56:02Z</time>
      </trkpt>
      <trkpt lat="45.08193" lon="5.61772">
        <ele>1536</ele>
        <time>2010-10-30T12:56:06Z</time>
      </trkpt>
      <trkpt lat="45.08187" lon="5.61775">
        <ele>1534.8</ele>
        <time>2010-10-30T12:56:11Z</time>
      </trkpt>
      <trkpt lat="45.08185" lon="5.61777">
        <ele>1534.2</ele>
        <time>2010-10-30T12:56:13Z</time>
      </trkpt>
      <trkpt lat="45.08182" lon="5.61779">
        <ele>1533.4</ele>
        <time>2010-10-30T12:56:16Z</time>
      </trkpt>
      <trkpt lat="45.0818" lon="5.61782">
        <ele>1532.8</ele>
        <time>2010-10-30T12:56:18Z</time>
      </trkpt>
      <trkpt lat="45.08182" lon="5.61785">
        <ele>1532.4</ele>
        <time>2010-10-30T12:56:20Z</time>
      </trkpt>
      <trkpt lat="45.08187" lon="5.61786">
        <ele>1531.2</ele>
        <time>2010-10-30T12:56:23Z</time>
      </trkpt>
      <trkpt lat="45.08188" lon="5.61787">
        <ele>1530.8</ele>
        <time>2010-10-30T12:56:24Z</time>
      </trkpt>
      <trkpt lat="45.0819" lon="5.61787">
        <ele>1530.4</ele>
        <time>2010-10-30T12:56:25Z</time>
      </trkpt>
      <trkpt lat="45.08196" lon="5.61788">
        <ele>1529.4</ele>
        <time>2010-10-30T12:56:28Z</time>
      </trkpt>
      <trkpt lat="45.08198" lon="5.61788">
        <ele>1529.2</ele>
        <time>2010-10-30T12:56:29Z</time>
      </trkpt>
      <trkpt lat="45.08204" lon="5.61789">
        <ele>1527.8</ele>
        <time>2010-10-30T12:56:33Z</time>
      </trkpt>
      <trkpt lat="45.08207" lon="5.61787">
        <ele>1521.8</ele>
        <time>2010-10-30T12:56:49Z</time>
      </trkpt>
      <trkpt lat="45.08208" lon="5.61786">
        <ele>1521.4</ele>
        <time>2010-10-30T12:56:50Z</time>
      </trkpt>
      <trkpt lat="45.08212" lon="5.61784">
        <ele>1520.2</ele>
        <time>2010-10-30T12:56:53Z</time>
      </trkpt>
      <trkpt lat="45.08216" lon="5.61783">
        <ele>1519.4</ele>
        <time>2010-10-30T12:56:55Z</time>
      </trkpt>
      <trkpt lat="45.08219" lon="5.61784">
        <ele>1518.6</ele>
        <time>2010-10-30T12:56:57Z</time>
      </trkpt>
      <trkpt lat="45.08226" lon="5.61786">
        <ele>1517.2</ele>
        <time>2010-10-30T12:57:01Z</time>
      </trkpt>
      <trkpt lat="45.08228" lon="5.61787">
        <ele>1516.8</ele>
        <time>2010-10-30T12:57:02Z</time>
      </trkpt>
      <trkpt lat="45.08229" lon="5.61786">
        <ele>1516.4</ele>
        <time>2010-10-30T12:57:03Z</time>
      </trkpt>
      <trkpt lat="45.08233" lon="5.61785">
        <ele>1515.4</ele>
        <time>2010-10-30T12:57:06Z</time>
      </trkpt>
      <trkpt lat="45.08235" lon="5.61786">
        <ele>1515</ele>
        <time>2010-10-30T12:57:07Z</time>
      </trkpt>
      <trkpt lat="45.08241" lon="5.61791">
        <ele>1514</ele>
        <time>2010-10-30T12:57:10Z</time>
      </trkpt>
      <trkpt lat="45.08243" lon="5.61792">
        <ele>1513.6</ele>
        <time>2010-10-30T12:57:11Z</time>
      </trkpt>
      <trkpt lat="45.08251" lon="5.61796">
        <ele>1512.6</ele>
        <time>2010-10-30T12:57:14Z</time>
      </trkpt>
      <trkpt lat="45.08253" lon="5.61799">
        <ele>1512.4</ele>
        <time>2010-10-30T12:57:15Z</time>
      </trkpt>
      <trkpt lat="45.08257" lon="5.61804">
        <ele>1511.8</ele>
        <time>2010-10-30T12:57:17Z</time>
      </trkpt>
      <trkpt lat="45.08257" lon="5.61806">
        <ele>1511.4</ele>
        <time>2010-10-30T12:57:18Z</time>
      </trkpt>
      <trkpt lat="45.08257" lon="5.61808">
        <ele>1511</ele>
        <time>2010-10-30T12:57:19Z</time>
      </trkpt>
      <trkpt lat="45.08255" lon="5.61809">
        <ele>1509.2</ele>
        <time>2010-10-30T12:57:24Z</time>
      </trkpt>
      <trkpt lat="45.08255" lon="5.61814">
        <ele>1507.6</ele>
        <time>2010-10-30T12:57:29Z</time>
      </trkpt>
      <trkpt lat="45.08255" lon="5.61816">
        <ele>1507.2</ele>
        <time>2010-10-30T12:57:30Z</time>
      </trkpt>
      <trkpt lat="45.08249" lon="5.61822">
        <ele>1505.6</ele>
        <time>2010-10-30T12:57:35Z</time>
      </trkpt>
      <trkpt lat="45.08249" lon="5.61824">
        <ele>1505.2</ele>
        <time>2010-10-30T12:57:36Z</time>
      </trkpt>
      <trkpt lat="45.08247" lon="5.6183">
        <ele>1503.6</ele>
        <time>2010-10-30T12:57:41Z</time>
      </trkpt>
      <trkpt lat="45.0824" lon="5.61837">
        <ele>1502.2</ele>
        <time>2010-10-30T12:57:45Z</time>
      </trkpt>
      <trkpt lat="45.08239" lon="5.61838">
        <ele>1502</ele>
        <time>2010-10-30T12:57:46Z</time>
      </trkpt>
      <trkpt lat="45.08242" lon="5.61841">
        <ele>1501</ele>
        <time>2010-10-30T12:57:49Z</time>
      </trkpt>
      <trkpt lat="45.08248" lon="5.61847">
        <ele>1499.8</ele>
        <time>2010-10-30T12:57:53Z</time>
      </trkpt>
      <trkpt lat="45.08252" lon="5.6185">
        <ele>1499.2</ele>
        <time>2010-10-30T12:57:55Z</time>
      </trkpt>
      <trkpt lat="45.08262" lon="5.61854">
        <ele>1497.4</ele>
        <time>2010-10-30T12:58:00Z</time>
      </trkpt>
      <trkpt lat="45.08268" lon="5.61859">
        <ele>1496</ele>
        <time>2010-10-30T12:58:04Z</time>
      </trkpt>
      <trkpt lat="45.08271" lon="5.61859">
        <ele>1495.2</ele>
        <time>2010-10-30T12:58:06Z</time>
      </trkpt>
      <trkpt lat="45.08272" lon="5.6186">
        <ele>1494.8</ele>
        <time>2010-10-30T12:58:07Z</time>
      </trkpt>
      <trkpt lat="45.08278" lon="5.6187">
        <ele>1493</ele>
        <time>2010-10-30T12:58:12Z</time>
      </trkpt>
      <trkpt lat="45.0828" lon="5.61876">
        <ele>1492.2</ele>
        <time>2010-10-30T12:58:14Z</time>
      </trkpt>
      <trkpt lat="45.08285" lon="5.6188">
        <ele>1491</ele>
        <time>2010-10-30T12:58:17Z</time>
      </trkpt>
      <trkpt lat="45.08291" lon="5.61888">
        <ele>1489.4</ele>
        <time>2010-10-30T12:58:21Z</time>
      </trkpt>
      <trkpt lat="45.08293" lon="5.61894">
        <ele>1487.8</ele>
        <time>2010-10-30T12:58:25Z</time>
      </trkpt>
      <trkpt lat="45.08288" lon="5.61895">
        <ele>1486.6</ele>
        <time>2010-10-30T12:58:28Z</time>
      </trkpt>
      <trkpt lat="45.08288" lon="5.61895">
        <ele>1486</ele>
        <time>2010-10-30T12:58:29Z</time>
      </trkpt>
      <trkpt lat="45.08283" lon="5.61897">
        <ele>1485.4</ele>
        <time>2010-10-30T12:58:31Z</time>
      </trkpt>
      <trkpt lat="45.0828" lon="5.61899">
        <ele>1484.6</ele>
        <time>2010-10-30T12:58:33Z</time>
      </trkpt>
      <trkpt lat="45.08276" lon="5.61903">
        <ele>1483.4</ele>
        <time>2010-10-30T12:58:36Z</time>
      </trkpt>
      <trkpt lat="45.08272" lon="5.61908">
        <ele>1482.2</ele>
        <time>2010-10-30T12:58:39Z</time>
      </trkpt>
      <trkpt lat="45.08271" lon="5.61911">
        <ele>1481.4</ele>
        <time>2010-10-30T12:58:41Z</time>
      </trkpt>
      <trkpt lat="45.08266" lon="5.61914">
        <ele>1479.2</ele>
        <time>2010-10-30T12:58:46Z</time>
      </trkpt>
      <trkpt lat="45.08262" lon="5.61916">
        <ele>1477.4</ele>
        <time>2010-10-30T12:58:50Z</time>
      </trkpt>
      <trkpt lat="45.08259" lon="5.61918">
        <ele>1476.6</ele>
        <time>2010-10-30T12:58:52Z</time>
      </trkpt>
      <trkpt lat="45.08258" lon="5.61919">
        <ele>1476.2</ele>
        <time>2010-10-30T12:58:53Z</time>
      </trkpt>
      <trkpt lat="45.08256" lon="5.61921">
        <ele>1475.4</ele>
        <time>2010-10-30T12:58:55Z</time>
      </trkpt>
      <trkpt lat="45.08256" lon="5.61921">
        <ele>1475</ele>
        <time>2010-10-30T12:58:56Z</time>
      </trkpt>
      <trkpt lat="45.08255" lon="5.61925">
        <ele>1473.6</ele>
        <time>2010-10-30T12:58:59Z</time>
      </trkpt>
      <trkpt lat="45.08253" lon="5.61929">
        <ele>1472.2</ele>
        <time>2010-10-30T12:59:02Z</time>
      </trkpt>
      <trkpt lat="45.0825" lon="5.61938">
        <ele>1470.4</ele>
        <time>2010-10-30T12:59:06Z</time>
      </trkpt>
      <trkpt lat="45.08251" lon="5.61944">
        <ele>1469.6</ele>
        <time>2010-10-30T12:59:08Z</time>
      </trkpt>
      <trkpt lat="45.08252" lon="5.61945">
        <ele>1469</ele>
        <time>2010-10-30T12:59:09Z</time>
      </trkpt>
      <trkpt lat="45.08253" lon="5.61947">
        <ele>1468.6</ele>
        <time>2010-10-30T12:59:10Z</time>
      </trkpt>
      <trkpt lat="45.08255" lon="5.61949">
        <ele>1468.2</ele>
        <time>2010-10-30T12:59:11Z</time>
      </trkpt>
      <trkpt lat="45.08257" lon="5.61954">
        <ele>1467.4</ele>
        <time>2010-10-30T12:59:13Z</time>
      </trkpt>
      <trkpt lat="45.08256" lon="5.61955">
        <ele>1467</ele>
        <time>2010-10-30T12:59:14Z</time>
      </trkpt>
      <trkpt lat="45.08249" lon="5.61959">
        <ele>1465.2</ele>
        <time>2010-10-30T12:59:18Z</time>
      </trkpt>
      <trkpt lat="45.08249" lon="5.61959">
        <ele>1464.6</ele>
        <time>2010-10-30T12:59:19Z</time>
      </trkpt>
      <trkpt lat="45.08247" lon="5.61961">
        <ele>1463.8</ele>
        <time>2010-10-30T12:59:21Z</time>
      </trkpt>
      <trkpt lat="45.08243" lon="5.61964">
        <ele>1462.8</ele>
        <time>2010-10-30T12:59:23Z</time>
      </trkpt>
      <trkpt lat="45.08242" lon="5.61964">
        <ele>1462.4</ele>
        <time>2010-10-30T12:59:24Z</time>
      </trkpt>
      <trkpt lat="45.08239" lon="5.61965">
        <ele>1460.4</ele>
        <time>2010-10-30T12:59:28Z</time>
      </trkpt>
      <trkpt lat="45.08235" lon="5.6197">
        <ele>1458.4</ele>
        <time>2010-10-30T12:59:32Z</time>
      </trkpt>
      <trkpt lat="45.08234" lon="5.61972">
        <ele>1457.4</ele>
        <time>2010-10-30T12:59:34Z</time>
      </trkpt>
      <trkpt lat="45.08232" lon="5.61975">
        <ele>1457</ele>
        <time>2010-10-30T12:59:35Z</time>
      </trkpt>
      <trkpt lat="45.08232" lon="5.61976">
        <ele>1456.4</ele>
        <time>2010-10-30T12:59:36Z</time>
      </trkpt>
      <trkpt lat="45.08231" lon="5.61981">
        <ele>1455</ele>
        <time>2010-10-30T12:59:39Z</time>
      </trkpt>
      <trkpt lat="45.08229" lon="5.61983">
        <ele>1454.6</ele>
        <time>2010-10-30T12:59:40Z</time>
      </trkpt>
      <trkpt lat="45.08226" lon="5.61987">
        <ele>1452.6</ele>
        <time>2010-10-30T12:59:44Z</time>
      </trkpt>
      <trkpt lat="45.08226" lon="5.61988">
        <ele>1452.2</ele>
        <time>2010-10-30T12:59:45Z</time>
      </trkpt>
      <trkpt lat="45.08226" lon="5.61988">
        <ele>1451.6</ele>
        <time>2010-10-30T12:59:46Z</time>
      </trkpt>
      <trkpt lat="45.08221" lon="5.61991">
        <ele>1449.6</ele>
        <time>2010-10-30T12:59:50Z</time>
      </trkpt>
      <trkpt lat="45.08217" lon="5.61991">
        <ele>1448.6</ele>
        <time>2010-10-30T12:59:52Z</time>
      </trkpt>
      <trkpt lat="45.08211" lon="5.61994">
        <ele>1446.2</ele>
        <time>2010-10-30T12:59:57Z</time>
      </trkpt>
      <trkpt lat="45.0821" lon="5.61996">
        <ele>1445.8</ele>
        <time>2010-10-30T12:59:58Z</time>
      </trkpt>
      <trkpt lat="45.0821" lon="5.62003">
        <ele>1444.4</ele>
        <time>2010-10-30T13:00:01Z</time>
      </trkpt>
      <trkpt lat="45.0821" lon="5.62005">
        <ele>1443.6</ele>
        <time>2010-10-30T13:00:03Z</time>
      </trkpt>
      <trkpt lat="45.08209" lon="5.62008">
        <ele>1443</ele>
        <time>2010-10-30T13:00:04Z</time>
      </trkpt>
      <trkpt lat="45.08209" lon="5.6201">
        <ele>1442.6</ele>
        <time>2010-10-30T13:00:05Z</time>
      </trkpt>
      <trkpt lat="45.08209" lon="5.62012">
        <ele>1442.2</ele>
        <time>2010-10-30T13:00:06Z</time>
      </trkpt>
      <trkpt lat="45.08205" lon="5.62016">
        <ele>1439.8</ele>
        <time>2010-10-30T13:00:11Z</time>
      </trkpt>
      <trkpt lat="45.082" lon="5.62022">
        <ele>1437.4</ele>
        <time>2010-10-30T13:00:16Z</time>
      </trkpt>
      <trkpt lat="45.08201" lon="5.62023">
        <ele>1437</ele>
        <time>2010-10-30T13:00:17Z</time>
      </trkpt>
      <trkpt lat="45.08204" lon="5.62026">
        <ele>1436</ele>
        <time>2010-10-30T13:00:19Z</time>
      </trkpt>
      <trkpt lat="45.08205" lon="5.62029">
        <ele>1435.6</ele>
        <time>2010-10-30T13:00:20Z</time>
      </trkpt>
      <trkpt lat="45.08205" lon="5.62029">
        <ele>1435</ele>
        <time>2010-10-30T13:00:21Z</time>
      </trkpt>
      <trkpt lat="45.08205" lon="5.62032">
        <ele>1434.6</ele>
        <time>2010-10-30T13:00:22Z</time>
      </trkpt>
      <trkpt lat="45.08202" lon="5.62033">
        <ele>1433.6</ele>
        <time>2010-10-30T13:00:24Z</time>
      </trkpt>
      <trkpt lat="45.08199" lon="5.62034">
        <ele>1432</ele>
        <time>2010-10-30T13:00:27Z</time>
      </trkpt>
      <trkpt lat="45.082" lon="5.62036">
        <ele>1431.4</ele>
        <time>2010-10-30T13:00:28Z</time>
      </trkpt>
      <trkpt lat="45.08201" lon="5.62042">
        <ele>1429</ele>
        <time>2010-10-30T13:00:33Z</time>
      </trkpt>
      <trkpt lat="45.08199" lon="5.62042">
        <ele>1428.6</ele>
        <time>2010-10-30T13:00:34Z</time>
      </trkpt>
      <trkpt lat="45.08191" lon="5.62044">
        <ele>1426</ele>
        <time>2010-10-30T13:00:39Z</time>
      </trkpt>
      <trkpt lat="45.08191" lon="5.62046">
        <ele>1425.6</ele>
        <time>2010-10-30T13:00:40Z</time>
      </trkpt>
      <trkpt lat="45.08194" lon="5.62053">
        <ele>1424.2</ele>
        <time>2010-10-30T13:00:43Z</time>
      </trkpt>
      <trkpt lat="45.08196" lon="5.62053">
        <ele>1423.6</ele>
        <time>2010-10-30T13:00:44Z</time>
      </trkpt>
      <trkpt lat="45.08198" lon="5.62055">
        <ele>1423.2</ele>
        <time>2010-10-30T13:00:45Z</time>
      </trkpt>
      <trkpt lat="45.082" lon="5.62056">
        <ele>1422.6</ele>
        <time>2010-10-30T13:00:46Z</time>
      </trkpt>
      <trkpt lat="45.08208" lon="5.62061">
        <ele>1420.8</ele>
        <time>2010-10-30T13:00:50Z</time>
      </trkpt>
      <trkpt lat="45.08216" lon="5.62066">
        <ele>1419.2</ele>
        <time>2010-10-30T13:00:54Z</time>
      </trkpt>
      <trkpt lat="45.08218" lon="5.62066">
        <ele>1418.8</ele>
        <time>2010-10-30T13:00:55Z</time>
      </trkpt>
      <trkpt lat="45.08222" lon="5.62075">
        <ele>1417.2</ele>
        <time>2010-10-30T13:00:59Z</time>
      </trkpt>
      <trkpt lat="45.08222" lon="5.62083">
        <ele>1415.4</ele>
        <time>2010-10-30T13:01:03Z</time>
      </trkpt>
      <trkpt lat="45.08222" lon="5.62089">
        <ele>1414.8</ele>
        <time>2010-10-30T13:01:04Z</time>
      </trkpt>
      <trkpt lat="45.08224" lon="5.621">
        <ele>1412.8</ele>
        <time>2010-10-30T13:01:09Z</time>
      </trkpt>
      <trkpt lat="45.08228" lon="5.62113">
        <ele>1411</ele>
        <time>2010-10-30T13:01:14Z</time>
      </trkpt>
      <trkpt lat="45.08229" lon="5.62115">
        <ele>1410.6</ele>
        <time>2010-10-30T13:01:15Z</time>
      </trkpt>
      <trkpt lat="45.08235" lon="5.62118">
        <ele>1408.8</ele>
        <time>2010-10-30T13:01:19Z</time>
      </trkpt>
      <trkpt lat="45.08238" lon="5.62121">
        <ele>1408.2</ele>
        <time>2010-10-30T13:01:21Z</time>
      </trkpt>
      <trkpt lat="45.08241" lon="5.62122">
        <ele>1407.8</ele>
        <time>2010-10-30T13:01:22Z</time>
      </trkpt>
      <trkpt lat="45.08246" lon="5.62123">
        <ele>1406.4</ele>
        <time>2010-10-30T13:01:25Z</time>
      </trkpt>
      <trkpt lat="45.08247" lon="5.62123">
        <ele>1406</ele>
        <time>2010-10-30T13:01:26Z</time>
      </trkpt>
      <trkpt lat="45.0825" lon="5.62126">
        <ele>1405.2</ele>
        <time>2010-10-30T13:01:28Z</time>
      </trkpt>
      <trkpt lat="45.08251" lon="5.62132">
        <ele>1403.8</ele>
        <time>2010-10-30T13:01:31Z</time>
      </trkpt>
      <trkpt lat="45.08254" lon="5.62135">
        <ele>1403</ele>
        <time>2010-10-30T13:01:33Z</time>
      </trkpt>
      <trkpt lat="45.08255" lon="5.62137">
        <ele>1402.6</ele>
        <time>2010-10-30T13:01:34Z</time>
      </trkpt>
      <trkpt lat="45.08257" lon="5.62139">
        <ele>1402</ele>
        <time>2010-10-30T13:01:35Z</time>
      </trkpt>
      <trkpt lat="45.08258" lon="5.6214">
        <ele>1401.6</ele>
        <time>2010-10-30T13:01:36Z</time>
      </trkpt>
      <trkpt lat="45.08263" lon="5.62145">
        <ele>1400.4</ele>
        <time>2010-10-30T13:01:39Z</time>
      </trkpt>
      <trkpt lat="45.08267" lon="5.62152">
        <ele>1398.8</ele>
        <time>2010-10-30T13:01:43Z</time>
      </trkpt>
      <trkpt lat="45.08269" lon="5.62155">
        <ele>1398</ele>
        <time>2010-10-30T13:01:45Z</time>
      </trkpt>
      <trkpt lat="45.08267" lon="5.6216">
        <ele>1396.6</ele>
        <time>2010-10-30T13:01:48Z</time>
      </trkpt>
      <trkpt lat="45.08265" lon="5.62163">
        <ele>1395.6</ele>
        <time>2010-10-30T13:01:50Z</time>
      </trkpt>
      <trkpt lat="45.08265" lon="5.62164">
        <ele>1395</ele>
        <time>2010-10-30T13:01:51Z</time>
      </trkpt>
      <trkpt lat="45.08263" lon="5.62169">
        <ele>1393.6</ele>
        <time>2010-10-30T13:01:54Z</time>
      </trkpt>
      <trkpt lat="45.08263" lon="5.62171">
        <ele>1393.2</ele>
        <time>2010-10-30T13:01:55Z</time>
      </trkpt>
      <trkpt lat="45.08255" lon="5.62179">
        <ele>1390.8</ele>
        <time>2010-10-30T13:02:00Z</time>
      </trkpt>
      <trkpt lat="45.08254" lon="5.62179">
        <ele>1390.2</ele>
        <time>2010-10-30T13:02:01Z</time>
      </trkpt>
      <trkpt lat="45.08248" lon="5.62182">
        <ele>1388.4</ele>
        <time>2010-10-30T13:02:05Z</time>
      </trkpt>
      <trkpt lat="45.08244" lon="5.62188">
        <ele>1385.8</ele>
        <time>2010-10-30T13:02:10Z</time>
      </trkpt>
      <trkpt lat="45.08244" lon="5.62194">
        <ele>1384.4</ele>
        <time>2010-10-30T13:02:13Z</time>
      </trkpt>
      <trkpt lat="45.08244" lon="5.62196">
        <ele>1383.8</ele>
        <time>2010-10-30T13:02:14Z</time>
      </trkpt>
      <trkpt lat="45.08244" lon="5.62201">
        <ele>1382.4</ele>
        <time>2010-10-30T13:02:17Z</time>
      </trkpt>
      <trkpt lat="45.08245" lon="5.62206">
        <ele>1381</ele>
        <time>2010-10-30T13:02:20Z</time>
      </trkpt>
      <trkpt lat="45.08246" lon="5.62207">
        <ele>1380.4</ele>
        <time>2010-10-30T13:02:21Z</time>
      </trkpt>
      <trkpt lat="45.0825" lon="5.62216">
        <ele>1378</ele>
        <time>2010-10-30T13:02:26Z</time>
      </trkpt>
      <trkpt lat="45.0825" lon="5.62224">
        <ele>1377</ele>
        <time>2010-10-30T13:02:28Z</time>
      </trkpt>
      <trkpt lat="45.08252" lon="5.62237">
        <ele>1375.4</ele>
        <time>2010-10-30T13:02:32Z</time>
      </trkpt>
      <trkpt lat="45.08255" lon="5.6225">
        <ele>1373.2</ele>
        <time>2010-10-30T13:02:37Z</time>
      </trkpt>
      <trkpt lat="45.08259" lon="5.6226">
        <ele>1371.4</ele>
        <time>2010-10-30T13:02:41Z</time>
      </trkpt>
      <trkpt lat="45.08259" lon="5.62263">
        <ele>1371</ele>
        <time>2010-10-30T13:02:42Z</time>
      </trkpt>
      <trkpt lat="45.0826" lon="5.62276">
        <ele>1368.2</ele>
        <time>2010-10-30T13:02:48Z</time>
      </trkpt>
      <trkpt lat="45.0826" lon="5.62279">
        <ele>1367.8</ele>
        <time>2010-10-30T13:02:49Z</time>
      </trkpt>
      <trkpt lat="45.08259" lon="5.62288">
        <ele>1365.8</ele>
        <time>2010-10-30T13:02:53Z</time>
      </trkpt>
      <trkpt lat="45.08259" lon="5.62293">
        <ele>1363.8</ele>
        <time>2010-10-30T13:02:57Z</time>
      </trkpt>
      <trkpt lat="45.08259" lon="5.62298">
        <ele>1363.4</ele>
        <time>2010-10-30T13:02:58Z</time>
      </trkpt>
      <trkpt lat="45.08258" lon="5.62301">
        <ele>1362.4</ele>
        <time>2010-10-30T13:03:00Z</time>
      </trkpt>
      <trkpt lat="45.08256" lon="5.62306">
        <ele>1360.8</ele>
        <time>2010-10-30T13:03:03Z</time>
      </trkpt>
      <trkpt lat="45.08253" lon="5.62312">
        <ele>1359.6</ele>
        <time>2010-10-30T13:03:05Z</time>
      </trkpt>
      <trkpt lat="45.08248" lon="5.62324">
        <ele>1357.4</ele>
        <time>2010-10-30T13:03:09Z</time>
      </trkpt>
      <trkpt lat="45.08239" lon="5.62338">
        <ele>1354</ele>
        <time>2010-10-30T13:03:15Z</time>
      </trkpt>
      <trkpt lat="45.08236" lon="5.62343">
        <ele>1352.8</ele>
        <time>2010-10-30T13:03:17Z</time>
      </trkpt>
      <trkpt lat="45.08234" lon="5.62352">
        <ele>1350.4</ele>
        <time>2010-10-30T13:03:21Z</time>
      </trkpt>
      <trkpt lat="45.08233" lon="5.62355">
        <ele>1347.6</ele>
        <time>2010-10-30T13:03:26Z</time>
      </trkpt>
      <trkpt lat="45.08235" lon="5.62361">
        <ele>1345.8</ele>
        <time>2010-10-30T13:03:29Z</time>
      </trkpt>
      <trkpt lat="45.08235" lon="5.62365">
        <ele>1344.8</ele>
        <time>2010-10-30T13:03:31Z</time>
      </trkpt>
      <trkpt lat="45.08234" lon="5.62367">
        <ele>1343.8</ele>
        <time>2010-10-30T13:03:33Z</time>
      </trkpt>
      <trkpt lat="45.08233" lon="5.62367">
        <ele>1343.2</ele>
        <time>2010-10-30T13:03:34Z</time>
      </trkpt>
      <trkpt lat="45.08231" lon="5.62365">
        <ele>1342</ele>
        <time>2010-10-30T13:03:36Z</time>
      </trkpt>
      <trkpt lat="45.0823" lon="5.62364">
        <ele>1340.6</ele>
        <time>2010-10-30T13:03:39Z</time>
      </trkpt>
      <trkpt lat="45.08226" lon="5.62363">
        <ele>1338</ele>
        <time>2010-10-30T13:03:44Z</time>
      </trkpt>
      <trkpt lat="45.08224" lon="5.62362">
        <ele>1337</ele>
        <time>2010-10-30T13:03:46Z</time>
      </trkpt>
      <trkpt lat="45.0822" lon="5.62356">
        <ele>1335</ele>
        <time>2010-10-30T13:03:50Z</time>
      </trkpt>
      <trkpt lat="45.08219" lon="5.62356">
        <ele>1334.6</ele>
        <time>2010-10-30T13:03:51Z</time>
      </trkpt>
      <trkpt lat="45.08215" lon="5.62356">
        <ele>1332.6</ele>
        <time>2010-10-30T13:03:55Z</time>
      </trkpt>
      <trkpt lat="45.08215" lon="5.62354">
        <ele>1332.2</ele>
        <time>2010-10-30T13:03:56Z</time>
      </trkpt>
      <trkpt lat="45.08213" lon="5.62349">
        <ele>1330.6</ele>
        <time>2010-10-30T13:03:59Z</time>
      </trkpt>
      <trkpt lat="45.08212" lon="5.6235">
        <ele>1330.2</ele>
        <time>2010-10-30T13:04:00Z</time>
      </trkpt>
      <trkpt lat="45.08211" lon="5.62353">
        <ele>1328.8</ele>
        <time>2010-10-30T13:04:03Z</time>
      </trkpt>
      <trkpt lat="45.0821" lon="5.62355">
        <ele>1328.2</ele>
        <time>2010-10-30T13:04:04Z</time>
      </trkpt>
      <trkpt lat="45.08209" lon="5.62359">
        <ele>1326</ele>
        <time>2010-10-30T13:04:09Z</time>
      </trkpt>
      <trkpt lat="45.08209" lon="5.6236">
        <ele>1325.6</ele>
        <time>2010-10-30T13:04:10Z</time>
      </trkpt>
      <trkpt lat="45.08209" lon="5.62364">
        <ele>1324.8</ele>
        <time>2010-10-30T13:04:12Z</time>
      </trkpt>
      <trkpt lat="45.08206" lon="5.62367">
        <ele>1323.4</ele>
        <time>2010-10-30T13:04:15Z</time>
      </trkpt>
      <trkpt lat="45.08205" lon="5.62368">
        <ele>1323</ele>
        <time>2010-10-30T13:04:16Z</time>
      </trkpt>
      <trkpt lat="45.08203" lon="5.62376">
        <ele>1320.8</ele>
        <time>2010-10-30T13:04:21Z</time>
      </trkpt>
      <trkpt lat="45.08198" lon="5.62383">
        <ele>1318.6</ele>
        <time>2010-10-30T13:04:26Z</time>
      </trkpt>
      <trkpt lat="45.08197" lon="5.62385">
        <ele>1318.2</ele>
        <time>2010-10-30T13:04:27Z</time>
      </trkpt>
      <trkpt lat="45.08198" lon="5.62394">
        <ele>1317</ele>
        <time>2010-10-30T13:04:30Z</time>
      </trkpt>
      <trkpt lat="45.08199" lon="5.62411">
        <ele>1315.6</ele>
        <time>2010-10-30T13:04:34Z</time>
      </trkpt>
      <trkpt lat="45.08199" lon="5.62414">
        <ele>1315.2</ele>
        <time>2010-10-30T13:04:35Z</time>
      </trkpt>
      <trkpt lat="45.08195" lon="5.62426">
        <ele>1313.2</ele>
        <time>2010-10-30T13:04:40Z</time>
      </trkpt>
      <trkpt lat="45.08195" lon="5.62427">
        <ele>1312.8</ele>
        <time>2010-10-30T13:04:41Z</time>
      </trkpt>
      <trkpt lat="45.08191" lon="5.62432">
        <ele>1311.4</ele>
        <time>2010-10-30T13:04:45Z</time>
      </trkpt>
      <trkpt lat="45.0819" lon="5.62434">
        <ele>1310.6</ele>
        <time>2010-10-30T13:04:47Z</time>
      </trkpt>
      <trkpt lat="45.08187" lon="5.62439">
        <ele>1309</ele>
        <time>2010-10-30T13:04:51Z</time>
      </trkpt>
      <trkpt lat="45.08182" lon="5.62447">
        <ele>1306.8</ele>
        <time>2010-10-30T13:04:56Z</time>
      </trkpt>
      <trkpt lat="45.08178" lon="5.62453">
        <ele>1305.8</ele>
        <time>2010-10-30T13:04:59Z</time>
      </trkpt>
      <trkpt lat="45.08175" lon="5.62458">
        <ele>1304.6</ele>
        <time>2010-10-30T13:05:02Z</time>
      </trkpt>
      <trkpt lat="45.08166" lon="5.62467">
        <ele>1302.4</ele>
        <time>2010-10-30T13:05:08Z</time>
      </trkpt>
      <trkpt lat="45.08166" lon="5.62467">
        <ele>1302</ele>
        <time>2010-10-30T13:05:09Z</time>
      </trkpt>
      <trkpt lat="45.08161" lon="5.62469">
        <ele>1301.2</ele>
        <time>2010-10-30T13:05:11Z</time>
      </trkpt>
      <trkpt lat="45.08161" lon="5.6247">
        <ele>1300.8</ele>
        <time>2010-10-30T13:05:12Z</time>
      </trkpt>
      <trkpt lat="45.08159" lon="5.62473">
        <ele>1300</ele>
        <time>2010-10-30T13:05:14Z</time>
      </trkpt>
      <trkpt lat="45.08155" lon="5.62481">
        <ele>1298.4</ele>
        <time>2010-10-30T13:05:18Z</time>
      </trkpt>
      <trkpt lat="45.08154" lon="5.62484">
        <ele>1297.6</ele>
        <time>2010-10-30T13:05:20Z</time>
      </trkpt>
      <trkpt lat="45.08152" lon="5.62488">
        <ele>1296</ele>
        <time>2010-10-30T13:05:23Z</time>
      </trkpt>
      <trkpt lat="45.08151" lon="5.62489">
        <ele>1295</ele>
        <time>2010-10-30T13:05:25Z</time>
      </trkpt>
      <trkpt lat="45.08149" lon="5.62491">
        <ele>1293.8</ele>
        <time>2010-10-30T13:05:27Z</time>
      </trkpt>
      <trkpt lat="45.08147" lon="5.62496">
        <ele>1292</ele>
        <time>2010-10-30T13:05:30Z</time>
      </trkpt>
      <trkpt lat="45.08146" lon="5.62497">
        <ele>1291.4</ele>
        <time>2010-10-30T13:05:31Z</time>
      </trkpt>
      <trkpt lat="45.08142" lon="5.62503">
        <ele>1289.8</ele>
        <time>2010-10-30T13:05:34Z</time>
      </trkpt>
      <trkpt lat="45.08138" lon="5.62508">
        <ele>1288</ele>
        <time>2010-10-30T13:05:37Z</time>
      </trkpt>
      <trkpt lat="45.08133" lon="5.62513">
        <ele>1286.8</ele>
        <time>2010-10-30T13:05:39Z</time>
      </trkpt>
      <trkpt lat="45.08123" lon="5.62521">
        <ele>1284.4</ele>
        <time>2010-10-30T13:05:43Z</time>
      </trkpt>
      <trkpt lat="45.0812" lon="5.62524">
        <ele>1283.8</ele>
        <time>2010-10-30T13:05:44Z</time>
      </trkpt>
      <trkpt lat="45.08114" lon="5.62532">
        <ele>1282</ele>
        <time>2010-10-30T13:05:47Z</time>
      </trkpt>
      <trkpt lat="45.08113" lon="5.62534">
        <ele>1281.4</ele>
        <time>2010-10-30T13:05:48Z</time>
      </trkpt>
      <trkpt lat="45.08107" lon="5.62541">
        <ele>1279.6</ele>
        <time>2010-10-30T13:05:51Z</time>
      </trkpt>
      <trkpt lat="45.08106" lon="5.62542">
        <ele>1279</ele>
        <time>2010-10-30T13:05:52Z</time>
      </trkpt>
      <trkpt lat="45.08101" lon="5.62543">
        <ele>1277.2</ele>
        <time>2010-10-30T13:05:55Z</time>
      </trkpt>
      <trkpt lat="45.08095" lon="5.62544">
        <ele>1275.6</ele>
        <time>2010-10-30T13:05:58Z</time>
      </trkpt>
      <trkpt lat="45.08092" lon="5.62544">
        <ele>1274.4</ele>
        <time>2010-10-30T13:06:00Z</time>
      </trkpt>
      <trkpt lat="45.08087" lon="5.62544">
        <ele>1272.8</ele>
        <time>2010-10-30T13:06:03Z</time>
      </trkpt>
      <trkpt lat="45.08085" lon="5.62541">
        <ele>1271.2</ele>
        <time>2010-10-30T13:06:06Z</time>
      </trkpt>
      <trkpt lat="45.08084" lon="5.62539">
        <ele>1270</ele>
        <time>2010-10-30T13:06:08Z</time>
      </trkpt>
      <trkpt lat="45.08084" lon="5.62539">
        <ele>1269.6</ele>
        <time>2010-10-30T13:06:09Z</time>
      </trkpt>
      <trkpt lat="45.08083" lon="5.62539">
        <ele>1268.6</ele>
        <time>2010-10-30T13:06:11Z</time>
      </trkpt>
      <trkpt lat="45.08082" lon="5.62541">
        <ele>1264.4</ele>
        <time>2010-10-30T13:06:20Z</time>
      </trkpt>
      <trkpt lat="45.08084" lon="5.6254">
        <ele>1252.8</ele>
        <time>2010-10-30T13:06:50Z</time>
      </trkpt>
      <trkpt lat="45.08089" lon="5.62542">
        <ele>1245</ele>
        <time>2010-10-30T13:07:18Z</time>
      </trkpt>
      <trkpt lat="45.08094" lon="5.62544">
        <ele>1244.4</ele>
        <time>2010-10-30T13:07:21Z</time>
      </trkpt>
      <trkpt lat="45.08095" lon="5.62543">
        <ele>1244.2</ele>
        <time>2010-10-30T13:07:22Z</time>
      </trkpt>
      <trkpt lat="45.08096" lon="5.62543">
        <ele>1243.8</ele>
        <time>2010-10-30T13:07:23Z</time>
      </trkpt>
      <trkpt lat="45.081" lon="5.62542">
        <ele>1243.2</ele>
        <time>2010-10-30T13:07:26Z</time>
      </trkpt>
      <trkpt lat="45.081" lon="5.62542">
        <ele>1242.8</ele>
        <time>2010-10-30T13:07:27Z</time>
      </trkpt>
      <trkpt lat="45.08103" lon="5.62542">
        <ele>1242</ele>
        <time>2010-10-30T13:07:31Z</time>
      </trkpt>
      <trkpt lat="45.08104" lon="5.62541">
        <ele>1241.4</ele>
        <time>2010-10-30T13:07:33Z</time>
      </trkpt>
      <trkpt lat="45.08107" lon="5.62542">
        <ele>1240.4</ele>
        <time>2010-10-30T13:07:37Z</time>
      </trkpt>
      <trkpt lat="45.08109" lon="5.62545">
        <ele>1240.2</ele>
        <time>2010-10-30T13:07:38Z</time>
      </trkpt>
      <trkpt lat="45.0811" lon="5.62548">
        <ele>1240</ele>
        <time>2010-10-30T13:07:39Z</time>
      </trkpt>
      <trkpt lat="45.08109" lon="5.62552">
        <ele>1239.4</ele>
        <time>2010-10-30T13:07:41Z</time>
      </trkpt>
      <trkpt lat="45.08109" lon="5.62565">
        <ele>1239</ele>
        <time>2010-10-30T13:07:44Z</time>
      </trkpt>
      <trkpt lat="45.08107" lon="5.62576">
        <ele>1238.4</ele>
        <time>2010-10-30T13:07:47Z</time>
      </trkpt>
      <trkpt lat="45.08105" lon="5.62582">
        <ele>1238.2</ele>
        <time>2010-10-30T13:07:49Z</time>
      </trkpt>
      <trkpt lat="45.08102" lon="5.62598">
        <ele>1237.6</ele>
        <time>2010-10-30T13:07:53Z</time>
      </trkpt>
      <trkpt lat="45.08103" lon="5.62601">
        <ele>1237.4</ele>
        <time>2010-10-30T13:07:54Z</time>
      </trkpt>
      <trkpt lat="45.08106" lon="5.62609">
        <ele>1237.2</ele>
        <time>2010-10-30T13:07:57Z</time>
      </trkpt>
      <trkpt lat="45.08106" lon="5.62618">
        <ele>1236.6</ele>
        <time>2010-10-30T13:08:01Z</time>
      </trkpt>
      <trkpt lat="45.08108" lon="5.62627">
        <ele>1236.2</ele>
        <time>2010-10-30T13:08:04Z</time>
      </trkpt>
      <trkpt lat="45.08108" lon="5.62635">
        <ele>1235.8</ele>
        <time>2010-10-30T13:08:07Z</time>
      </trkpt>
      <trkpt lat="45.08108" lon="5.62636">
        <ele>1235.6</ele>
        <time>2010-10-30T13:08:08Z</time>
      </trkpt>
      <trkpt lat="45.08109" lon="5.62639">
        <ele>1235.2</ele>
        <time>2010-10-30T13:08:11Z</time>
      </trkpt>
      <trkpt lat="45.08114" lon="5.62638">
        <ele>1234</ele>
        <time>2010-10-30T13:08:21Z</time>
      </trkpt>
      <trkpt lat="45.08114" lon="5.62635">
        <ele>1231</ele>
        <time>2010-10-30T13:08:42Z</time>
      </trkpt>
      <trkpt lat="45.08116" lon="5.6264">
        <ele>1230.8</ele>
        <time>2010-10-30T13:08:44Z</time>
      </trkpt>
      <trkpt lat="45.08117" lon="5.62646">
        <ele>1230.6</ele>
        <time>2010-10-30T13:08:46Z</time>
      </trkpt>
      <trkpt lat="45.08119" lon="5.62653">
        <ele>1230.4</ele>
        <time>2010-10-30T13:08:48Z</time>
      </trkpt>
      <trkpt lat="45.08121" lon="5.62661">
        <ele>1230.2</ele>
        <time>2010-10-30T13:08:50Z</time>
      </trkpt>
      <trkpt lat="45.08119" lon="5.62663">
        <ele>1230</ele>
        <time>2010-10-30T13:08:51Z</time>
      </trkpt>
      <trkpt lat="45.08116" lon="5.62667">
        <ele>1229.6</ele>
        <time>2010-10-30T13:08:53Z</time>
      </trkpt>
      <trkpt lat="45.08113" lon="5.62681">
        <ele>1228.8</ele>
        <time>2010-10-30T13:08:57Z</time>
      </trkpt>
      <trkpt lat="45.08112" lon="5.62685">
        <ele>1228.6</ele>
        <time>2010-10-30T13:08:58Z</time>
      </trkpt>
      <trkpt lat="45.08106" lon="5.62704">
        <ele>1228.4</ele>
        <time>2010-10-30T13:09:03Z</time>
      </trkpt>
      <trkpt lat="45.08103" lon="5.62706">
        <ele>1228.4</ele>
        <time>2010-10-30T13:09:05Z</time>
      </trkpt>
      <trkpt lat="45.08095" lon="5.62707">
        <ele>1228.4</ele>
        <time>2010-10-30T13:09:08Z</time>
      </trkpt>
      <trkpt lat="45.08092" lon="5.62704">
        <ele>1228.4</ele>
        <time>2010-10-30T13:09:10Z</time>
      </trkpt>
      <trkpt lat="45.08092" lon="5.62698">
        <ele>1228</ele>
        <time>2010-10-30T13:09:12Z</time>
      </trkpt>
      <trkpt lat="45.08092" lon="5.62692">
        <ele>1227.6</ele>
        <time>2010-10-30T13:09:15Z</time>
      </trkpt>
      <trkpt lat="45.08092" lon="5.62691">
        <ele>1227.6</ele>
        <time>2010-10-30T13:09:16Z</time>
      </trkpt>
      <trkpt lat="45.08095" lon="5.62689">
        <ele>1227.4</ele>
        <time>2010-10-30T13:09:18Z</time>
      </trkpt>
      <trkpt lat="45.08095" lon="5.62687">
        <ele>1227.2</ele>
        <time>2010-10-30T13:09:19Z</time>
      </trkpt>
      <trkpt lat="45.08094" lon="5.6268">
        <ele>1226.4</ele>
        <time>2010-10-30T13:09:23Z</time>
      </trkpt>
      <trkpt lat="45.08091" lon="5.62668">
        <ele>1225.2</ele>
        <time>2010-10-30T13:09:28Z</time>
      </trkpt>
      <trkpt lat="45.08093" lon="5.62658">
        <ele>1223.4</ele>
        <time>2010-10-30T13:09:34Z</time>
      </trkpt>
      <trkpt lat="45.08092" lon="5.62656">
        <ele>1223.2</ele>
        <time>2010-10-30T13:09:35Z</time>
      </trkpt>
      <trkpt lat="45.08088" lon="5.62654">
        <ele>1222</ele>
        <time>2010-10-30T13:09:39Z</time>
      </trkpt>
      <trkpt lat="45.08087" lon="5.62656">
        <ele>1221.8</ele>
        <time>2010-10-30T13:09:40Z</time>
      </trkpt>
      <trkpt lat="45.08081" lon="5.62658">
        <ele>1219</ele>
        <time>2010-10-30T13:09:52Z</time>
      </trkpt>
      <trkpt lat="45.08079" lon="5.62655">
        <ele>1218.2</ele>
        <time>2010-10-30T13:09:55Z</time>
      </trkpt>
      <trkpt lat="45.08076" lon="5.6266">
        <ele>1217.2</ele>
        <time>2010-10-30T13:09:59Z</time>
      </trkpt>
      <trkpt lat="45.08076" lon="5.62661">
        <ele>1217</ele>
        <time>2010-10-30T13:10:00Z</time>
      </trkpt>
      <trkpt lat="45.08076" lon="5.62662">
        <ele>1216.8</ele>
        <time>2010-10-30T13:10:01Z</time>
      </trkpt>
      <trkpt lat="45.08075" lon="5.62666">
        <ele>1215.6</ele>
        <time>2010-10-30T13:10:05Z</time>
      </trkpt>
      <trkpt lat="45.08075" lon="5.62666">
        <ele>1215.4</ele>
        <time>2010-10-30T13:10:06Z</time>
      </trkpt>
      <trkpt lat="45.08073" lon="5.62669">
        <ele>1214.8</ele>
        <time>2010-10-30T13:10:08Z</time>
      </trkpt>
      <trkpt lat="45.0807" lon="5.62671">
        <ele>1214.2</ele>
        <time>2010-10-30T13:10:10Z</time>
      </trkpt>
      <trkpt lat="45.08068" lon="5.62674">
        <ele>1213.2</ele>
        <time>2010-10-30T13:10:13Z</time>
      </trkpt>
      <trkpt lat="45.08067" lon="5.62675">
        <ele>1212.8</ele>
        <time>2010-10-30T13:10:14Z</time>
      </trkpt>
      <trkpt lat="45.08067" lon="5.62676">
        <ele>1212.6</ele>
        <time>2010-10-30T13:10:15Z</time>
      </trkpt>
      <trkpt lat="45.08066" lon="5.62682">
        <ele>1211.6</ele>
        <time>2010-10-30T13:10:19Z</time>
      </trkpt>
      <trkpt lat="45.08064" lon="5.62682">
        <ele>1211.2</ele>
        <time>2010-10-30T13:10:20Z</time>
      </trkpt>
      <trkpt lat="45.08059" lon="5.6268">
        <ele>1210.6</ele>
        <time>2010-10-30T13:10:22Z</time>
      </trkpt>
      <trkpt lat="45.08058" lon="5.6268">
        <ele>1210.2</ele>
        <time>2010-10-30T13:10:23Z</time>
      </trkpt>
      <trkpt lat="45.08057" lon="5.62681">
        <ele>1210</ele>
        <time>2010-10-30T13:10:24Z</time>
      </trkpt>
      <trkpt lat="45.08053" lon="5.6268">
        <ele>1209.2</ele>
        <time>2010-10-30T13:10:27Z</time>
      </trkpt>
      <trkpt lat="45.08048" lon="5.62679">
        <ele>1208.2</ele>
        <time>2010-10-30T13:10:30Z</time>
      </trkpt>
      <trkpt lat="45.08045" lon="5.62677">
        <ele>1207.6</ele>
        <time>2010-10-30T13:10:32Z</time>
      </trkpt>
      <trkpt lat="45.08041" lon="5.62672">
        <ele>1207</ele>
        <time>2010-10-30T13:10:34Z</time>
      </trkpt>
      <trkpt lat="45.08038" lon="5.62671">
        <ele>1206.6</ele>
        <time>2010-10-30T13:10:35Z</time>
      </trkpt>
      <trkpt lat="45.08029" lon="5.62666">
        <ele>1204.8</ele>
        <time>2010-10-30T13:10:40Z</time>
      </trkpt>
      <trkpt lat="45.08025" lon="5.62663">
        <ele>1203.6</ele>
        <time>2010-10-30T13:10:44Z</time>
      </trkpt>
      <trkpt lat="45.08024" lon="5.62662">
        <ele>1203.2</ele>
        <time>2010-10-30T13:10:45Z</time>
      </trkpt>
      <trkpt lat="45.08022" lon="5.62661">
        <ele>1202.4</ele>
        <time>2010-10-30T13:10:47Z</time>
      </trkpt>
      <trkpt lat="45.08021" lon="5.6266">
        <ele>1202</ele>
        <time>2010-10-30T13:10:48Z</time>
      </trkpt>
      <trkpt lat="45.08016" lon="5.62657">
        <ele>1201</ele>
        <time>2010-10-30T13:10:51Z</time>
      </trkpt>
      <trkpt lat="45.08014" lon="5.62656">
        <ele>1200.8</ele>
        <time>2010-10-30T13:10:52Z</time>
      </trkpt>
      <trkpt lat="45.08009" lon="5.62654">
        <ele>1199.4</ele>
        <time>2010-10-30T13:10:56Z</time>
      </trkpt>
      <trkpt lat="45.08007" lon="5.62654">
        <ele>1199</ele>
        <time>2010-10-30T13:10:57Z</time>
      </trkpt>
      <trkpt lat="45.08005" lon="5.62653">
        <ele>1198.6</ele>
        <time>2010-10-30T13:10:58Z</time>
      </trkpt>
      <trkpt lat="45.08001" lon="5.62653">
        <ele>1197.8</ele>
        <time>2010-10-30T13:11:00Z</time>
      </trkpt>
      <trkpt lat="45.07996" lon="5.62654">
        <ele>1197</ele>
        <time>2010-10-30T13:11:02Z</time>
      </trkpt>
      <trkpt lat="45.0799" lon="5.62652">
        <ele>1196</ele>
        <time>2010-10-30T13:11:04Z</time>
      </trkpt>
      <trkpt lat="45.07986" lon="5.62653">
        <ele>1195.2</ele>
        <time>2010-10-30T13:11:06Z</time>
      </trkpt>
      <trkpt lat="45.07984" lon="5.62654">
        <ele>1194.8</ele>
        <time>2010-10-30T13:11:07Z</time>
      </trkpt>
      <trkpt lat="45.0798" lon="5.62655">
        <ele>1193.8</ele>
        <time>2010-10-30T13:11:09Z</time>
      </trkpt>
      <trkpt lat="45.07977" lon="5.62656">
        <ele>1193.2</ele>
        <time>2010-10-30T13:11:11Z</time>
      </trkpt>
      <trkpt lat="45.07975" lon="5.62655">
        <ele>1192.2</ele>
        <time>2010-10-30T13:11:13Z</time>
      </trkpt>
      <trkpt lat="45.07972" lon="5.62661">
        <ele>1190.6</ele>
        <time>2010-10-30T13:11:17Z</time>
      </trkpt>
      <trkpt lat="45.07971" lon="5.62661">
        <ele>1190.2</ele>
        <time>2010-10-30T13:11:18Z</time>
      </trkpt>
      <trkpt lat="45.07969" lon="5.62661">
        <ele>1189.2</ele>
        <time>2010-10-30T13:11:20Z</time>
      </trkpt>
      <trkpt lat="45.07967" lon="5.62661">
        <ele>1188.6</ele>
        <time>2010-10-30T13:11:21Z</time>
      </trkpt>
      <trkpt lat="45.07963" lon="5.62661">
        <ele>1187.8</ele>
        <time>2010-10-30T13:11:23Z</time>
      </trkpt>
      <trkpt lat="45.07957" lon="5.62664">
        <ele>1186.2</ele>
        <time>2010-10-30T13:11:27Z</time>
      </trkpt>
      <trkpt lat="45.07954" lon="5.62663">
        <ele>1185.2</ele>
        <time>2010-10-30T13:11:29Z</time>
      </trkpt>
      <trkpt lat="45.07949" lon="5.62663">
        <ele>1184</ele>
        <time>2010-10-30T13:11:32Z</time>
      </trkpt>
      <trkpt lat="45.07947" lon="5.62664">
        <ele>1183.2</ele>
        <time>2010-10-30T13:11:34Z</time>
      </trkpt>
      <trkpt lat="45.07943" lon="5.62665">
        <ele>1181.8</ele>
        <time>2010-10-30T13:11:37Z</time>
      </trkpt>
      <trkpt lat="45.07942" lon="5.62666">
        <ele>1181.4</ele>
        <time>2010-10-30T13:11:38Z</time>
      </trkpt>
      <trkpt lat="45.07936" lon="5.6267">
        <ele>1179.2</ele>
        <time>2010-10-30T13:11:43Z</time>
      </trkpt>
      <trkpt lat="45.07932" lon="5.62674">
        <ele>1177.8</ele>
        <time>2010-10-30T13:11:46Z</time>
      </trkpt>
      <trkpt lat="45.07929" lon="5.62676">
        <ele>1177</ele>
        <time>2010-10-30T13:11:48Z</time>
      </trkpt>
      <trkpt lat="45.07925" lon="5.6268">
        <ele>1175.8</ele>
        <time>2010-10-30T13:11:51Z</time>
      </trkpt>
      <trkpt lat="45.07924" lon="5.6268">
        <ele>1175.4</ele>
        <time>2010-10-30T13:11:52Z</time>
      </trkpt>
      <trkpt lat="45.07923" lon="5.62681">
        <ele>1175</ele>
        <time>2010-10-30T13:11:53Z</time>
      </trkpt>
      <trkpt lat="45.07919" lon="5.62682">
        <ele>1173.4</ele>
        <time>2010-10-30T13:11:57Z</time>
      </trkpt>
      <trkpt lat="45.07919" lon="5.62683">
        <ele>1172.6</ele>
        <time>2010-10-30T13:11:59Z</time>
      </trkpt>
      <trkpt lat="45.07917" lon="5.62684">
        <ele>1171.4</ele>
        <time>2010-10-30T13:12:02Z</time>
      </trkpt>
      <trkpt lat="45.07915" lon="5.62686">
        <ele>1170.6</ele>
        <time>2010-10-30T13:12:04Z</time>
      </trkpt>
      <trkpt lat="45.07913" lon="5.62684">
        <ele>1169.6</ele>
        <time>2010-10-30T13:12:06Z</time>
      </trkpt>
      <trkpt lat="45.07912" lon="5.62684">
        <ele>1169.2</ele>
        <time>2010-10-30T13:12:07Z</time>
      </trkpt>
      <trkpt lat="45.07911" lon="5.62684">
        <ele>1168.8</ele>
        <time>2010-10-30T13:12:08Z</time>
      </trkpt>
      <trkpt lat="45.07907" lon="5.62685">
        <ele>1167.8</ele>
        <time>2010-10-30T13:12:10Z</time>
      </trkpt>
      <trkpt lat="45.07903" lon="5.62693">
        <ele>1165.8</ele>
        <time>2010-10-30T13:12:15Z</time>
      </trkpt>
      <trkpt lat="45.07901" lon="5.62698">
        <ele>1165</ele>
        <time>2010-10-30T13:12:17Z</time>
      </trkpt>
      <trkpt lat="45.079" lon="5.62701">
        <ele>1164.6</ele>
        <time>2010-10-30T13:12:18Z</time>
      </trkpt>
      <trkpt lat="45.07899" lon="5.62702">
        <ele>1164.2</ele>
        <time>2010-10-30T13:12:19Z</time>
      </trkpt>
      <trkpt lat="45.07894" lon="5.62709">
        <ele>1162.6</ele>
        <time>2010-10-30T13:12:23Z</time>
      </trkpt>
      <trkpt lat="45.07888" lon="5.6271">
        <ele>1161.6</ele>
        <time>2010-10-30T13:12:26Z</time>
      </trkpt>
      <trkpt lat="45.07886" lon="5.62711">
        <ele>1161.2</ele>
        <time>2010-10-30T13:12:27Z</time>
      </trkpt>
      <trkpt lat="45.07883" lon="5.62711">
        <ele>1161</ele>
        <time>2010-10-30T13:12:28Z</time>
      </trkpt>
      <trkpt lat="45.07874" lon="5.62713">
        <ele>1159.6</ele>
        <time>2010-10-30T13:12:31Z</time>
      </trkpt>
      <trkpt lat="45.07867" lon="5.62709">
        <ele>1158</ele>
        <time>2010-10-30T13:12:34Z</time>
      </trkpt>
      <trkpt lat="45.07863" lon="5.62705">
        <ele>1156.8</ele>
        <time>2010-10-30T13:12:37Z</time>
      </trkpt>
      <trkpt lat="45.07859" lon="5.62701">
        <ele>1155.8</ele>
        <time>2010-10-30T13:12:39Z</time>
      </trkpt>
      <trkpt lat="45.07857" lon="5.62694">
        <ele>1154.8</ele>
        <time>2010-10-30T13:12:41Z</time>
      </trkpt>
      <trkpt lat="45.07855" lon="5.62689">
        <ele>1154.4</ele>
        <time>2010-10-30T13:12:42Z</time>
      </trkpt>
      <trkpt lat="45.07856" lon="5.62685">
        <ele>1152.8</ele>
        <time>2010-10-30T13:12:45Z</time>
      </trkpt>
      <trkpt lat="45.07862" lon="5.62685">
        <ele>1150.8</ele>
        <time>2010-10-30T13:12:49Z</time>
      </trkpt>
      <trkpt lat="45.07866" lon="5.62686">
        <ele>1149.8</ele>
        <time>2010-10-30T13:12:51Z</time>
      </trkpt>
      <trkpt lat="45.07869" lon="5.62685">
        <ele>1148.2</ele>
        <time>2010-10-30T13:12:54Z</time>
      </trkpt>
      <trkpt lat="45.07869" lon="5.62682">
        <ele>1147</ele>
        <time>2010-10-30T13:12:56Z</time>
      </trkpt>
      <trkpt lat="45.07869" lon="5.62668">
        <ele>1144.4</ele>
        <time>2010-10-30T13:13:01Z</time>
      </trkpt>
      <trkpt lat="45.07872" lon="5.62669">
        <ele>1143.4</ele>
        <time>2010-10-30T13:13:03Z</time>
      </trkpt>
      <trkpt lat="45.07874" lon="5.62671">
        <ele>1142</ele>
        <time>2010-10-30T13:13:06Z</time>
      </trkpt>
      <trkpt lat="45.07875" lon="5.6267">
        <ele>1141.4</ele>
        <time>2010-10-30T13:13:07Z</time>
      </trkpt>
      <trkpt lat="45.07878" lon="5.62664">
        <ele>1138.8</ele>
        <time>2010-10-30T13:13:13Z</time>
      </trkpt>
      <trkpt lat="45.0787" lon="5.62658">
        <ele>1136.2</ele>
        <time>2010-10-30T13:13:19Z</time>
      </trkpt>
      <trkpt lat="45.07869" lon="5.62649">
        <ele>1134</ele>
        <time>2010-10-30T13:13:24Z</time>
      </trkpt>
      <trkpt lat="45.0787" lon="5.62646">
        <ele>1133</ele>
        <time>2010-10-30T13:13:26Z</time>
      </trkpt>
      <trkpt lat="45.0787" lon="5.62642">
        <ele>1131.4</ele>
        <time>2010-10-30T13:13:29Z</time>
      </trkpt>
      <trkpt lat="45.0787" lon="5.6264">
        <ele>1130.8</ele>
        <time>2010-10-30T13:13:30Z</time>
      </trkpt>
      <trkpt lat="45.07871" lon="5.62638">
        <ele>1129.2</ele>
        <time>2010-10-30T13:13:33Z</time>
      </trkpt>
      <trkpt lat="45.07869" lon="5.62638">
        <ele>1128.8</ele>
        <time>2010-10-30T13:13:34Z</time>
      </trkpt>
      <trkpt lat="45.07866" lon="5.62637">
        <ele>1127.4</ele>
        <time>2010-10-30T13:13:37Z</time>
      </trkpt>
      <trkpt lat="45.07866" lon="5.62634">
        <ele>1126.2</ele>
        <time>2010-10-30T13:13:40Z</time>
      </trkpt>
      <trkpt lat="45.07867" lon="5.62628">
        <ele>1125.4</ele>
        <time>2010-10-30T13:13:42Z</time>
      </trkpt>
      <trkpt lat="45.07868" lon="5.62623">
        <ele>1124.6</ele>
        <time>2010-10-30T13:13:44Z</time>
      </trkpt>
      <trkpt lat="45.0787" lon="5.62621">
        <ele>1124</ele>
        <time>2010-10-30T13:13:46Z</time>
      </trkpt>
      <trkpt lat="45.07872" lon="5.6262">
        <ele>1123.6</ele>
        <time>2010-10-30T13:13:47Z</time>
      </trkpt>
      <trkpt lat="45.07872" lon="5.62611">
        <ele>1122.4</ele>
        <time>2010-10-30T13:13:50Z</time>
      </trkpt>
      <trkpt lat="45.07873" lon="5.62605">
        <ele>1121.4</ele>
        <time>2010-10-30T13:13:52Z</time>
      </trkpt>
      <trkpt lat="45.07881" lon="5.62603">
        <ele>1119.4</ele>
        <time>2010-10-30T13:13:57Z</time>
      </trkpt>
      <trkpt lat="45.07882" lon="5.62602">
        <ele>1118.2</ele>
        <time>2010-10-30T13:14:00Z</time>
      </trkpt>
      <trkpt lat="45.0788" lon="5.62601">
        <ele>1117.8</ele>
        <time>2010-10-30T13:14:01Z</time>
      </trkpt>
      <trkpt lat="45.07877" lon="5.626">
        <ele>1116.8</ele>
        <time>2010-10-30T13:14:04Z</time>
      </trkpt>
      <trkpt lat="45.07873" lon="5.626">
        <ele>1115.8</ele>
        <time>2010-10-30T13:14:07Z</time>
      </trkpt>
      <trkpt lat="45.07867" lon="5.62599">
        <ele>1113.2</ele>
        <time>2010-10-30T13:14:13Z</time>
      </trkpt>
      <trkpt lat="45.07865" lon="5.62597">
        <ele>1112.6</ele>
        <time>2010-10-30T13:14:14Z</time>
      </trkpt>
      <trkpt lat="45.07864" lon="5.62598">
        <ele>1111.4</ele>
        <time>2010-10-30T13:14:17Z</time>
      </trkpt>
      <trkpt lat="45.07861" lon="5.62598">
        <ele>1110.8</ele>
        <time>2010-10-30T13:14:19Z</time>
      </trkpt>
      <trkpt lat="45.0786" lon="5.62597">
        <ele>1110.2</ele>
        <time>2010-10-30T13:14:21Z</time>
      </trkpt>
      <trkpt lat="45.07858" lon="5.62591">
        <ele>1108.4</ele>
        <time>2010-10-30T13:14:27Z</time>
      </trkpt>
      <trkpt lat="45.07858" lon="5.62587">
        <ele>1107.6</ele>
        <time>2010-10-30T13:14:29Z</time>
      </trkpt>
      <trkpt lat="45.07858" lon="5.62583">
        <ele>1106.6</ele>
        <time>2010-10-30T13:14:32Z</time>
      </trkpt>
      <trkpt lat="45.07857" lon="5.62579">
        <ele>1105.8</ele>
        <time>2010-10-30T13:14:34Z</time>
      </trkpt>
      <trkpt lat="45.07858" lon="5.62575">
        <ele>1104</ele>
        <time>2010-10-30T13:14:39Z</time>
      </trkpt>
      <trkpt lat="45.07856" lon="5.62574">
        <ele>1101.8</ele>
        <time>2010-10-30T13:14:45Z</time>
      </trkpt>
      <trkpt lat="45.07855" lon="5.62571">
        <ele>1101</ele>
        <time>2010-10-30T13:14:47Z</time>
      </trkpt>
      <trkpt lat="45.07855" lon="5.6257">
        <ele>1100.8</ele>
        <time>2010-10-30T13:14:48Z</time>
      </trkpt>
      <trkpt lat="45.07854" lon="5.62568">
        <ele>1100</ele>
        <time>2010-10-30T13:14:50Z</time>
      </trkpt>
      <trkpt lat="45.07852" lon="5.62564">
        <ele>1098.8</ele>
        <time>2010-10-30T13:14:53Z</time>
      </trkpt>
      <trkpt lat="45.07847" lon="5.62555">
        <ele>1096.6</ele>
        <time>2010-10-30T13:14:58Z</time>
      </trkpt>
      <trkpt lat="45.07847" lon="5.6255">
        <ele>1095.6</ele>
        <time>2010-10-30T13:15:00Z</time>
      </trkpt>
      <trkpt lat="45.07847" lon="5.62548">
        <ele>1095</ele>
        <time>2010-10-30T13:15:01Z</time>
      </trkpt>
      <trkpt lat="45.07848" lon="5.62544">
        <ele>1094</ele>
        <time>2010-10-30T13:15:03Z</time>
      </trkpt>
      <trkpt lat="45.07847" lon="5.62538">
        <ele>1091</ele>
        <time>2010-10-30T13:15:10Z</time>
      </trkpt>
      <trkpt lat="45.07847" lon="5.62536">
        <ele>1090.2</ele>
        <time>2010-10-30T13:15:12Z</time>
      </trkpt>
      <trkpt lat="45.07845" lon="5.62533">
        <ele>1089.6</ele>
        <time>2010-10-30T13:15:14Z</time>
      </trkpt>
      <trkpt lat="45.07842" lon="5.62528">
        <ele>1087.6</ele>
        <time>2010-10-30T13:15:19Z</time>
      </trkpt>
      <trkpt lat="45.07841" lon="5.62527">
        <ele>1087.2</ele>
        <time>2010-10-30T13:15:20Z</time>
      </trkpt>
      <trkpt lat="45.07839" lon="5.62525">
        <ele>1086.8</ele>
        <time>2010-10-30T13:15:21Z</time>
      </trkpt>
      <trkpt lat="45.07838" lon="5.62523">
        <ele>1086</ele>
        <time>2010-10-30T13:15:23Z</time>
      </trkpt>
      <trkpt lat="45.07829" lon="5.62519">
        <ele>1080.2</ele>
        <time>2010-10-30T13:15:40Z</time>
      </trkpt>
      <trkpt lat="45.07825" lon="5.62512">
        <ele>1077.8</ele>
        <time>2010-10-30T13:15:46Z</time>
      </trkpt>
      <trkpt lat="45.07822" lon="5.62512">
        <ele>1077.4</ele>
        <time>2010-10-30T13:15:47Z</time>
      </trkpt>
      <trkpt lat="45.07821" lon="5.62513">
        <ele>1077</ele>
        <time>2010-10-30T13:15:48Z</time>
      </trkpt>
      <trkpt lat="45.07819" lon="5.62511">
        <ele>1076.4</ele>
        <time>2010-10-30T13:15:50Z</time>
      </trkpt>
      <trkpt lat="45.07816" lon="5.62508">
        <ele>1075.6</ele>
        <time>2010-10-30T13:15:52Z</time>
      </trkpt>
      <trkpt lat="45.07813" lon="5.62504">
        <ele>1074.6</ele>
        <time>2010-10-30T13:15:55Z</time>
      </trkpt>
      <trkpt lat="45.07812" lon="5.62504">
        <ele>1073.8</ele>
        <time>2010-10-30T13:15:57Z</time>
      </trkpt>
      <trkpt lat="45.07811" lon="5.62501">
        <ele>1073</ele>
        <time>2010-10-30T13:15:59Z</time>
      </trkpt>
      <trkpt lat="45.0781" lon="5.62501">
        <ele>1072.6</ele>
        <time>2010-10-30T13:16:00Z</time>
      </trkpt>
      <trkpt lat="45.07807" lon="5.62501">
        <ele>1071.4</ele>
        <time>2010-10-30T13:16:04Z</time>
      </trkpt>
      <trkpt lat="45.07805" lon="5.625">
        <ele>1071</ele>
        <time>2010-10-30T13:16:05Z</time>
      </trkpt>
      <trkpt lat="45.07801" lon="5.625">
        <ele>1069.6</ele>
        <time>2010-10-30T13:16:09Z</time>
      </trkpt>
      <trkpt lat="45.078" lon="5.62499">
        <ele>1069.2</ele>
        <time>2010-10-30T13:16:10Z</time>
      </trkpt>
      <trkpt lat="45.07793" lon="5.62495">
        <ele>1066.8</ele>
        <time>2010-10-30T13:16:16Z</time>
      </trkpt>
      <trkpt lat="45.07787" lon="5.62495">
        <ele>1065.8</ele>
        <time>2010-10-30T13:16:19Z</time>
      </trkpt>
      <trkpt lat="45.07782" lon="5.62492">
        <ele>1064.6</ele>
        <time>2010-10-30T13:16:22Z</time>
      </trkpt>
      <trkpt lat="45.07775" lon="5.62485">
        <ele>1062.6</ele>
        <time>2010-10-30T13:16:27Z</time>
      </trkpt>
      <trkpt lat="45.07772" lon="5.6248">
        <ele>1061.6</ele>
        <time>2010-10-30T13:16:29Z</time>
      </trkpt>
      <trkpt lat="45.07768" lon="5.62477">
        <ele>1060.4</ele>
        <time>2010-10-30T13:16:32Z</time>
      </trkpt>
      <trkpt lat="45.07762" lon="5.62471">
        <ele>1058</ele>
        <time>2010-10-30T13:16:38Z</time>
      </trkpt>
      <trkpt lat="45.07758" lon="5.62471">
        <ele>1055.8</ele>
        <time>2010-10-30T13:16:43Z</time>
      </trkpt>
      <trkpt lat="45.07756" lon="5.62469">
        <ele>1054.2</ele>
        <time>2010-10-30T13:16:47Z</time>
      </trkpt>
      <trkpt lat="45.07754" lon="5.62469">
        <ele>1053.4</ele>
        <time>2010-10-30T13:16:49Z</time>
      </trkpt>
      <trkpt lat="45.07751" lon="5.62466">
        <ele>1051.6</ele>
        <time>2010-10-30T13:16:53Z</time>
      </trkpt>
      <trkpt lat="45.07749" lon="5.62464">
        <ele>1051.2</ele>
        <time>2010-10-30T13:16:54Z</time>
      </trkpt>
      <trkpt lat="45.07744" lon="5.6246">
        <ele>1049.4</ele>
        <time>2010-10-30T13:16:58Z</time>
      </trkpt>
      <trkpt lat="45.07742" lon="5.62459">
        <ele>1048.4</ele>
        <time>2010-10-30T13:17:00Z</time>
      </trkpt>
      <trkpt lat="45.0774" lon="5.6246">
        <ele>1047.4</ele>
        <time>2010-10-30T13:17:03Z</time>
      </trkpt>
      <trkpt lat="45.0774" lon="5.62467">
        <ele>1046</ele>
        <time>2010-10-30T13:17:08Z</time>
      </trkpt>
      <trkpt lat="45.0774" lon="5.62468">
        <ele>1045.6</ele>
        <time>2010-10-30T13:17:10Z</time>
      </trkpt>
      <trkpt lat="45.0774" lon="5.62467">
        <ele>1044.6</ele>
        <time>2010-10-30T13:17:14Z</time>
      </trkpt>
      <trkpt lat="45.07743" lon="5.62458">
        <ele>1040.4</ele>
        <time>2010-10-30T13:17:29Z</time>
      </trkpt>
      <trkpt lat="45.07744" lon="5.62459">
        <ele>1038.6</ele>
        <time>2010-10-30T13:17:34Z</time>
      </trkpt>
      <trkpt lat="45.07741" lon="5.6246">
        <ele>1036</ele>
        <time>2010-10-30T13:17:44Z</time>
      </trkpt>
      <trkpt lat="45.07738" lon="5.62454">
        <ele>1034.8</ele>
        <time>2010-10-30T13:17:48Z</time>
      </trkpt>
      <trkpt lat="45.07736" lon="5.62448">
        <ele>1033.4</ele>
        <time>2010-10-30T13:17:52Z</time>
      </trkpt>
      <trkpt lat="45.07734" lon="5.62446">
        <ele>1032.6</ele>
        <time>2010-10-30T13:17:55Z</time>
      </trkpt>
      <trkpt lat="45.07734" lon="5.62446">
        <ele>1032.2</ele>
        <time>2010-10-30T13:17:56Z</time>
      </trkpt>
      <trkpt lat="45.07728" lon="5.62451">
        <ele>1029.6</ele>
        <time>2010-10-30T13:18:06Z</time>
      </trkpt>
      <trkpt lat="45.07727" lon="5.62453">
        <ele>1028.4</ele>
        <time>2010-10-30T13:18:11Z</time>
      </trkpt>
      <trkpt lat="45.07728" lon="5.62454">
        <ele>1026.8</ele>
        <time>2010-10-30T13:18:16Z</time>
      </trkpt>
      <trkpt lat="45.07727" lon="5.62457">
        <ele>1025.2</ele>
        <time>2010-10-30T13:18:22Z</time>
      </trkpt>
      <trkpt lat="45.07725" lon="5.62456">
        <ele>1024.2</ele>
        <time>2010-10-30T13:18:25Z</time>
      </trkpt>
      <trkpt lat="45.07724" lon="5.62456">
        <ele>1024</ele>
        <time>2010-10-30T13:18:26Z</time>
      </trkpt>
      <trkpt lat="45.07719" lon="5.62453">
        <ele>1021.6</ele>
        <time>2010-10-30T13:18:34Z</time>
      </trkpt>
      <trkpt lat="45.07719" lon="5.62453">
        <ele>1021.2</ele>
        <time>2010-10-30T13:18:35Z</time>
      </trkpt>
      <trkpt lat="45.07718" lon="5.62458">
        <ele>1020.2</ele>
        <time>2010-10-30T13:18:39Z</time>
      </trkpt>
      <trkpt lat="45.07716" lon="5.62459">
        <ele>1019</ele>
        <time>2010-10-30T13:18:43Z</time>
      </trkpt>
      <trkpt lat="45.07712" lon="5.62461">
        <ele>1016.8</ele>
        <time>2010-10-30T13:18:54Z</time>
      </trkpt>
      <trkpt lat="45.07711" lon="5.62462">
        <ele>1016.2</ele>
        <time>2010-10-30T13:18:57Z</time>
      </trkpt>
      <trkpt lat="45.07709" lon="5.62469">
        <ele>1015.6</ele>
        <time>2010-10-30T13:19:00Z</time>
      </trkpt>
      <trkpt lat="45.0771" lon="5.62472">
        <ele>1015.6</ele>
        <time>2010-10-30T13:19:01Z</time>
      </trkpt>
      <trkpt lat="45.07712" lon="5.6249">
        <ele>1014.8</ele>
        <time>2010-10-30T13:19:08Z</time>
      </trkpt>
      <trkpt lat="45.07713" lon="5.62493">
        <ele>1014.6</ele>
        <time>2010-10-30T13:19:10Z</time>
      </trkpt>
      <trkpt lat="45.07713" lon="5.62495">
        <ele>1014.2</ele>
        <time>2010-10-30T13:19:12Z</time>
      </trkpt>
      <trkpt lat="45.07714" lon="5.62496">
        <ele>1013.4</ele>
        <time>2010-10-30T13:19:16Z</time>
      </trkpt>
      <trkpt lat="45.07713" lon="5.62497">
        <ele>1013.4</ele>
        <time>2010-10-30T13:19:17Z</time>
      </trkpt>
      <trkpt lat="45.07713" lon="5.62498">
        <ele>1012.6</ele>
        <time>2010-10-30T13:19:20Z</time>
      </trkpt>
      <trkpt lat="45.07712" lon="5.62503">
        <ele>1011.4</ele>
        <time>2010-10-30T13:19:24Z</time>
      </trkpt>
      <trkpt lat="45.07713" lon="5.62516">
        <ele>1009.4</ele>
        <time>2010-10-30T13:19:30Z</time>
      </trkpt>
      <trkpt lat="45.07715" lon="5.62521">
        <ele>1008.6</ele>
        <time>2010-10-30T13:19:32Z</time>
      </trkpt>
      <trkpt lat="45.07716" lon="5.62526">
        <ele>1008</ele>
        <time>2010-10-30T13:19:34Z</time>
      </trkpt>
      <trkpt lat="45.07717" lon="5.62537">
        <ele>1005.6</ele>
        <time>2010-10-30T13:19:40Z</time>
      </trkpt>
      <trkpt lat="45.07718" lon="5.62538">
        <ele>1005.2</ele>
        <time>2010-10-30T13:19:41Z</time>
      </trkpt>
      <trkpt lat="45.07718" lon="5.62544">
        <ele>1003.4</ele>
        <time>2010-10-30T13:19:45Z</time>
      </trkpt>
      <trkpt lat="45.07718" lon="5.62546">
        <ele>1003</ele>
        <time>2010-10-30T13:19:46Z</time>
      </trkpt>
      <trkpt lat="45.07719" lon="5.62547">
        <ele>1002.6</ele>
        <time>2010-10-30T13:19:47Z</time>
      </trkpt>
      <trkpt lat="45.0772" lon="5.62549">
        <ele>1000.6</ele>
        <time>2010-10-30T13:19:52Z</time>
      </trkpt>
      <trkpt lat="45.07721" lon="5.62563">
        <ele>989</ele>
        <time>2010-10-30T13:20:36Z</time>
      </trkpt>
      <trkpt lat="45.07721" lon="5.62567">
        <ele>988.4</ele>
        <time>2010-10-30T13:20:38Z</time>
      </trkpt>
      <trkpt lat="45.07721" lon="5.62571">
        <ele>987.8</ele>
        <time>2010-10-30T13:20:40Z</time>
      </trkpt>
      <trkpt lat="45.07721" lon="5.62573">
        <ele>987.6</ele>
        <time>2010-10-30T13:20:41Z</time>
      </trkpt>
      <trkpt lat="45.07721" lon="5.62575">
        <ele>987.4</ele>
        <time>2010-10-30T13:20:42Z</time>
      </trkpt>
      <trkpt lat="45.07723" lon="5.62583">
        <ele>986</ele>
        <time>2010-10-30T13:20:46Z</time>
      </trkpt>
      <trkpt lat="45.07723" lon="5.62586">
        <ele>985.4</ele>
        <time>2010-10-30T13:20:48Z</time>
      </trkpt>
      <trkpt lat="45.07724" lon="5.6259">
        <ele>984.6</ele>
        <time>2010-10-30T13:20:51Z</time>
      </trkpt>
      <trkpt lat="45.07723" lon="5.62594">
        <ele>983.8</ele>
        <time>2010-10-30T13:20:54Z</time>
      </trkpt>
      <trkpt lat="45.07723" lon="5.62595">
        <ele>983.4</ele>
        <time>2010-10-30T13:20:55Z</time>
      </trkpt>
      <trkpt lat="45.07723" lon="5.62596">
        <ele>983.2</ele>
        <time>2010-10-30T13:20:56Z</time>
      </trkpt>
      <trkpt lat="45.07722" lon="5.62604">
        <ele>982.2</ele>
        <time>2010-10-30T13:20:59Z</time>
      </trkpt>
      <trkpt lat="45.07719" lon="5.62623">
        <ele>981</ele>
        <time>2010-10-30T13:21:03Z</time>
      </trkpt>
      <trkpt lat="45.07719" lon="5.62628">
        <ele>980.6</ele>
        <time>2010-10-30T13:21:04Z</time>
      </trkpt>
      <trkpt lat="45.07718" lon="5.62643">
        <ele>979.4</ele>
        <time>2010-10-30T13:21:08Z</time>
      </trkpt>
      <trkpt lat="45.07717" lon="5.6265">
        <ele>978.6</ele>
        <time>2010-10-30T13:21:10Z</time>
      </trkpt>
      <trkpt lat="45.07717" lon="5.62657">
        <ele>978</ele>
        <time>2010-10-30T13:21:12Z</time>
      </trkpt>
      <trkpt lat="45.07717" lon="5.62661">
        <ele>977.6</ele>
        <time>2010-10-30T13:21:13Z</time>
      </trkpt>
      <trkpt lat="45.07718" lon="5.6267">
        <ele>976.4</ele>
        <time>2010-10-30T13:21:16Z</time>
      </trkpt>
      <trkpt lat="45.07718" lon="5.62676">
        <ele>975.8</ele>
        <time>2010-10-30T13:21:18Z</time>
      </trkpt>
      <trkpt lat="45.07718" lon="5.62685">
        <ele>974.6</ele>
        <time>2010-10-30T13:21:21Z</time>
      </trkpt>
      <trkpt lat="45.07718" lon="5.62691">
        <ele>974</ele>
        <time>2010-10-30T13:21:23Z</time>
      </trkpt>
      <trkpt lat="45.07718" lon="5.62701">
        <ele>972.6</ele>
        <time>2010-10-30T13:21:27Z</time>
      </trkpt>
      <trkpt lat="45.07718" lon="5.62703">
        <ele>972.2</ele>
        <time>2010-10-30T13:21:28Z</time>
      </trkpt>
      <trkpt lat="45.07717" lon="5.62704">
        <ele>971.8</ele>
        <time>2010-10-30T13:21:29Z</time>
      </trkpt>
      <trkpt lat="45.07718" lon="5.62712">
        <ele>970.2</ele>
        <time>2010-10-30T13:21:33Z</time>
      </trkpt>
      <trkpt lat="45.07718" lon="5.62721">
        <ele>969</ele>
        <time>2010-10-30T13:21:37Z</time>
      </trkpt>
      <trkpt lat="45.07719" lon="5.62726">
        <ele>968.4</ele>
        <time>2010-10-30T13:21:39Z</time>
      </trkpt>
      <trkpt lat="45.07719" lon="5.62728">
        <ele>968.2</ele>
        <time>2010-10-30T13:21:40Z</time>
      </trkpt>
      <trkpt lat="45.0772" lon="5.62733">
        <ele>967.2</ele>
        <time>2010-10-30T13:21:43Z</time>
      </trkpt>
      <trkpt lat="45.0772" lon="5.62737">
        <ele>966.4</ele>
        <time>2010-10-30T13:21:45Z</time>
      </trkpt>
      <trkpt lat="45.0772" lon="5.62747">
        <ele>964.6</ele>
        <time>2010-10-30T13:21:50Z</time>
      </trkpt>
      <trkpt lat="45.0772" lon="5.62756">
        <ele>963.4</ele>
        <time>2010-10-30T13:21:53Z</time>
      </trkpt>
      <trkpt lat="45.07721" lon="5.62765">
        <ele>962.4</ele>
        <time>2010-10-30T13:21:56Z</time>
      </trkpt>
      <trkpt lat="45.07723" lon="5.62781">
        <ele>960.2</ele>
        <time>2010-10-30T13:22:01Z</time>
      </trkpt>
      <trkpt lat="45.07724" lon="5.62784">
        <ele>959.8</ele>
        <time>2010-10-30T13:22:02Z</time>
      </trkpt>
      <trkpt lat="45.07728" lon="5.62794">
        <ele>958.8</ele>
        <time>2010-10-30T13:22:05Z</time>
      </trkpt>
      <trkpt lat="45.07731" lon="5.62799">
        <ele>958</ele>
        <time>2010-10-30T13:22:07Z</time>
      </trkpt>
      <trkpt lat="45.07733" lon="5.62805">
        <ele>957.2</ele>
        <time>2010-10-30T13:22:09Z</time>
      </trkpt>
      <trkpt lat="45.07734" lon="5.62809">
        <ele>956.8</ele>
        <time>2010-10-30T13:22:10Z</time>
      </trkpt>
      <trkpt lat="45.07737" lon="5.62814">
        <ele>955.8</ele>
        <time>2010-10-30T13:22:13Z</time>
      </trkpt>
      <trkpt lat="45.07741" lon="5.62823">
        <ele>954.2</ele>
        <time>2010-10-30T13:22:17Z</time>
      </trkpt>
      <trkpt lat="45.07746" lon="5.62832">
        <ele>953</ele>
        <time>2010-10-30T13:22:20Z</time>
      </trkpt>
      <trkpt lat="45.07748" lon="5.62836">
        <ele>952.4</ele>
        <time>2010-10-30T13:22:22Z</time>
      </trkpt>
      <trkpt lat="45.07749" lon="5.62837">
        <ele>952</ele>
        <time>2010-10-30T13:22:23Z</time>
      </trkpt>
      <trkpt lat="45.0775" lon="5.6284">
        <ele>951.8</ele>
        <time>2010-10-30T13:22:24Z</time>
      </trkpt>
      <trkpt lat="45.07751" lon="5.62848">
        <ele>950.8</ele>
        <time>2010-10-30T13:22:27Z</time>
      </trkpt>
      <trkpt lat="45.07753" lon="5.62851">
        <ele>950.4</ele>
        <time>2010-10-30T13:22:28Z</time>
      </trkpt>
      <trkpt lat="45.07755" lon="5.62855">
        <ele>949.8</ele>
        <time>2010-10-30T13:22:30Z</time>
      </trkpt>
      <trkpt lat="45.07757" lon="5.62857">
        <ele>949.6</ele>
        <time>2010-10-30T13:22:31Z</time>
      </trkpt>
      <trkpt lat="45.07758" lon="5.62859">
        <ele>949.2</ele>
        <time>2010-10-30T13:22:32Z</time>
      </trkpt>
      <trkpt lat="45.07759" lon="5.62862">
        <ele>948.4</ele>
        <time>2010-10-30T13:22:35Z</time>
      </trkpt>
      <trkpt lat="45.07761" lon="5.62867">
        <ele>946.8</ele>
        <time>2010-10-30T13:22:40Z</time>
      </trkpt>
      <trkpt lat="45.07762" lon="5.62875">
        <ele>946</ele>
        <time>2010-10-30T13:22:44Z</time>
      </trkpt>
      <trkpt lat="45.07763" lon="5.62879">
        <ele>945.6</ele>
        <time>2010-10-30T13:22:46Z</time>
      </trkpt>
      <trkpt lat="45.07763" lon="5.62882">
        <ele>944.8</ele>
        <time>2010-10-30T13:22:49Z</time>
      </trkpt>
      <trkpt lat="45.07764" lon="5.62883">
        <ele>944.4</ele>
        <time>2010-10-30T13:22:50Z</time>
      </trkpt>
      <trkpt lat="45.07769" lon="5.62896">
        <ele>943.6</ele>
        <time>2010-10-30T13:22:55Z</time>
      </trkpt>
      <trkpt lat="45.07771" lon="5.62904">
        <ele>943.2</ele>
        <time>2010-10-30T13:22:57Z</time>
      </trkpt>
      <trkpt lat="45.07775" lon="5.62915">
        <ele>942.6</ele>
        <time>2010-10-30T13:23:00Z</time>
      </trkpt>
      <trkpt lat="45.07779" lon="5.62927">
        <ele>942.2</ele>
        <time>2010-10-30T13:23:04Z</time>
      </trkpt>
      <trkpt lat="45.0778" lon="5.62935">
        <ele>941.8</ele>
        <time>2010-10-30T13:23:06Z</time>
      </trkpt>
      <trkpt lat="45.07783" lon="5.62951">
        <ele>940.8</ele>
        <time>2010-10-30T13:23:11Z</time>
      </trkpt>
      <trkpt lat="45.07784" lon="5.62953">
        <ele>940.6</ele>
        <time>2010-10-30T13:23:12Z</time>
      </trkpt>
      <trkpt lat="45.07789" lon="5.62963">
        <ele>940.2</ele>
        <time>2010-10-30T13:23:15Z</time>
      </trkpt>
      <trkpt lat="45.0779" lon="5.62965">
        <ele>940</ele>
        <time>2010-10-30T13:23:16Z</time>
      </trkpt>
      <trkpt lat="45.07795" lon="5.62974">
        <ele>939.6</ele>
        <time>2010-10-30T13:23:19Z</time>
      </trkpt>
      <trkpt lat="45.07798" lon="5.62984">
        <ele>939</ele>
        <time>2010-10-30T13:23:22Z</time>
      </trkpt>
      <trkpt lat="45.078" lon="5.6299">
        <ele>938.8</ele>
        <time>2010-10-30T13:23:24Z</time>
      </trkpt>
      <trkpt lat="45.07804" lon="5.62996">
        <ele>938.8</ele>
        <time>2010-10-30T13:23:26Z</time>
      </trkpt>
      <trkpt lat="45.07805" lon="5.62998">
        <ele>938.6</ele>
        <time>2010-10-30T13:23:27Z</time>
      </trkpt>
      <trkpt lat="45.07806" lon="5.63001">
        <ele>938.4</ele>
        <time>2010-10-30T13:23:28Z</time>
      </trkpt>
      <trkpt lat="45.07811" lon="5.63008">
        <ele>938.2</ele>
        <time>2010-10-30T13:23:31Z</time>
      </trkpt>
      <trkpt lat="45.07812" lon="5.6301">
        <ele>938</ele>
        <time>2010-10-30T13:23:32Z</time>
      </trkpt>
      <trkpt lat="45.07815" lon="5.63018">
        <ele>937.6</ele>
        <time>2010-10-30T13:23:35Z</time>
      </trkpt>
      <trkpt lat="45.07816" lon="5.6302">
        <ele>937.4</ele>
        <time>2010-10-30T13:23:36Z</time>
      </trkpt>
      <trkpt lat="45.0782" lon="5.63033">
        <ele>936.6</ele>
        <time>2010-10-30T13:23:41Z</time>
      </trkpt>
      <trkpt lat="45.07828" lon="5.63042">
        <ele>935.6</ele>
        <time>2010-10-30T13:23:46Z</time>
      </trkpt>
      <trkpt lat="45.07831" lon="5.63046">
        <ele>935.4</ele>
        <time>2010-10-30T13:23:48Z</time>
      </trkpt>
      <trkpt lat="45.07831" lon="5.63051">
        <ele>934.8</ele>
        <time>2010-10-30T13:23:50Z</time>
      </trkpt>
      <trkpt lat="45.07837" lon="5.63065">
        <ele>933.4</ele>
        <time>2010-10-30T13:23:55Z</time>
      </trkpt>
      <trkpt lat="45.07838" lon="5.63067">
        <ele>933.2</ele>
        <time>2010-10-30T13:23:56Z</time>
      </trkpt>
      <trkpt lat="45.0784" lon="5.63071">
        <ele>932.6</ele>
        <time>2010-10-30T13:23:58Z</time>
      </trkpt>
      <trkpt lat="45.07842" lon="5.63078">
        <ele>931.6</ele>
        <time>2010-10-30T13:24:01Z</time>
      </trkpt>
      <trkpt lat="45.07843" lon="5.63084">
        <ele>931</ele>
        <time>2010-10-30T13:24:03Z</time>
      </trkpt>
      <trkpt lat="45.07844" lon="5.6309">
        <ele>930.4</ele>
        <time>2010-10-30T13:24:05Z</time>
      </trkpt>
      <trkpt lat="45.07844" lon="5.63094">
        <ele>929.6</ele>
        <time>2010-10-30T13:24:07Z</time>
      </trkpt>
      <trkpt lat="45.07844" lon="5.63097">
        <ele>929.2</ele>
        <time>2010-10-30T13:24:08Z</time>
      </trkpt>
      <trkpt lat="45.07843" lon="5.63107">
        <ele>927.6</ele>
        <time>2010-10-30T13:24:13Z</time>
      </trkpt>
      <trkpt lat="45.07842" lon="5.63114">
        <ele>926.6</ele>
        <time>2010-10-30T13:24:16Z</time>
      </trkpt>
      <trkpt lat="45.07842" lon="5.63117">
        <ele>926.4</ele>
        <time>2010-10-30T13:24:17Z</time>
      </trkpt>
      <trkpt lat="45.07842" lon="5.63119">
        <ele>926</ele>
        <time>2010-10-30T13:24:18Z</time>
      </trkpt>
      <trkpt lat="45.07841" lon="5.63131">
        <ele>924</ele>
        <time>2010-10-30T13:24:23Z</time>
      </trkpt>
      <trkpt lat="45.07844" lon="5.63141">
        <ele>922.2</ele>
        <time>2010-10-30T13:24:28Z</time>
      </trkpt>
      <trkpt lat="45.07844" lon="5.63143">
        <ele>921.8</ele>
        <time>2010-10-30T13:24:29Z</time>
      </trkpt>
      <trkpt lat="45.07846" lon="5.63149">
        <ele>920.6</ele>
        <time>2010-10-30T13:24:32Z</time>
      </trkpt>
      <trkpt lat="45.07848" lon="5.6316">
        <ele>918.2</ele>
        <time>2010-10-30T13:24:38Z</time>
      </trkpt>
      <trkpt lat="45.07847" lon="5.63162">
        <ele>917.8</ele>
        <time>2010-10-30T13:24:39Z</time>
      </trkpt>
      <trkpt lat="45.07847" lon="5.63164">
        <ele>917.4</ele>
        <time>2010-10-30T13:24:40Z</time>
      </trkpt>
      <trkpt lat="45.07848" lon="5.63168">
        <ele>916.8</ele>
        <time>2010-10-30T13:24:42Z</time>
      </trkpt>
      <trkpt lat="45.07849" lon="5.63172">
        <ele>916</ele>
        <time>2010-10-30T13:24:44Z</time>
      </trkpt>
      <trkpt lat="45.07849" lon="5.63186">
        <ele>913.2</ele>
        <time>2010-10-30T13:24:51Z</time>
      </trkpt>
      <trkpt lat="45.07849" lon="5.63192">
        <ele>912</ele>
        <time>2010-10-30T13:24:54Z</time>
      </trkpt>
      <trkpt lat="45.07848" lon="5.63193">
        <ele>911.6</ele>
        <time>2010-10-30T13:24:55Z</time>
      </trkpt>
      <trkpt lat="45.07847" lon="5.63206">
        <ele>909.2</ele>
        <time>2010-10-30T13:25:01Z</time>
      </trkpt>
      <trkpt lat="45.07845" lon="5.63217">
        <ele>907.2</ele>
        <time>2010-10-30T13:25:06Z</time>
      </trkpt>
      <trkpt lat="45.07845" lon="5.6322">
        <ele>906.8</ele>
        <time>2010-10-30T13:25:07Z</time>
      </trkpt>
      <trkpt lat="45.07843" lon="5.63227">
        <ele>905.6</ele>
        <time>2010-10-30T13:25:10Z</time>
      </trkpt>
      <trkpt lat="45.07844" lon="5.63243">
        <ele>903</ele>
        <time>2010-10-30T13:25:16Z</time>
      </trkpt>
      <trkpt lat="45.07844" lon="5.63246">
        <ele>902.6</ele>
        <time>2010-10-30T13:25:17Z</time>
      </trkpt>
      <trkpt lat="45.07845" lon="5.63255">
        <ele>901</ele>
        <time>2010-10-30T13:25:21Z</time>
      </trkpt>
      <trkpt lat="45.07846" lon="5.6326">
        <ele>900</ele>
        <time>2010-10-30T13:25:23Z</time>
      </trkpt>
      <trkpt lat="45.07849" lon="5.63271">
        <ele>898.6</ele>
        <time>2010-10-30T13:25:27Z</time>
      </trkpt>
      <trkpt lat="45.0785" lon="5.63273">
        <ele>898.2</ele>
        <time>2010-10-30T13:25:28Z</time>
      </trkpt>
      <trkpt lat="45.07857" lon="5.63288">
        <ele>895.2</ele>
        <time>2010-10-30T13:25:35Z</time>
      </trkpt>
      <trkpt lat="45.0786" lon="5.63293">
        <ele>894.2</ele>
        <time>2010-10-30T13:25:37Z</time>
      </trkpt>
      <trkpt lat="45.07859" lon="5.63295">
        <ele>893.8</ele>
        <time>2010-10-30T13:25:38Z</time>
      </trkpt>
      <trkpt lat="45.07858" lon="5.63297">
        <ele>892.4</ele>
        <time>2010-10-30T13:25:41Z</time>
      </trkpt>
      <trkpt lat="45.07858" lon="5.63304">
        <ele>890.6</ele>
        <time>2010-10-30T13:25:45Z</time>
      </trkpt>
      <trkpt lat="45.0786" lon="5.63317">
        <ele>888</ele>
        <time>2010-10-30T13:25:52Z</time>
      </trkpt>
      <trkpt lat="45.07861" lon="5.63319">
        <ele>887.6</ele>
        <time>2010-10-30T13:25:53Z</time>
      </trkpt>
      <trkpt lat="45.07864" lon="5.63328">
        <ele>885.4</ele>
        <time>2010-10-30T13:25:59Z</time>
      </trkpt>
      <trkpt lat="45.07867" lon="5.63338">
        <ele>883.4</ele>
        <time>2010-10-30T13:26:05Z</time>
      </trkpt>
      <trkpt lat="45.07869" lon="5.63343">
        <ele>882.8</ele>
        <time>2010-10-30T13:26:07Z</time>
      </trkpt>
      <trkpt lat="45.07872" lon="5.63349">
        <ele>881.8</ele>
        <time>2010-10-30T13:26:10Z</time>
      </trkpt>
      <trkpt lat="45.07871" lon="5.63359">
        <ele>880</ele>
        <time>2010-10-30T13:26:16Z</time>
      </trkpt>
      <trkpt lat="45.0787" lon="5.63363">
        <ele>879.2</ele>
        <time>2010-10-30T13:26:18Z</time>
      </trkpt>
      <trkpt lat="45.0787" lon="5.63367">
        <ele>878.6</ele>
        <time>2010-10-30T13:26:20Z</time>
      </trkpt>
      <trkpt lat="45.0787" lon="5.63369">
        <ele>878.2</ele>
        <time>2010-10-30T13:26:21Z</time>
      </trkpt>
      <trkpt lat="45.07872" lon="5.63378">
        <ele>876.8</ele>
        <time>2010-10-30T13:26:25Z</time>
      </trkpt>
      <trkpt lat="45.07872" lon="5.63389">
        <ele>875</ele>
        <time>2010-10-30T13:26:30Z</time>
      </trkpt>
      <trkpt lat="45.07873" lon="5.63393">
        <ele>874.4</ele>
        <time>2010-10-30T13:26:32Z</time>
      </trkpt>
      <trkpt lat="45.07873" lon="5.63397">
        <ele>873.6</ele>
        <time>2010-10-30T13:26:34Z</time>
      </trkpt>
      <trkpt lat="45.07873" lon="5.634">
        <ele>873.2</ele>
        <time>2010-10-30T13:26:35Z</time>
      </trkpt>
      <trkpt lat="45.07875" lon="5.63404">
        <ele>872.2</ele>
        <time>2010-10-30T13:26:38Z</time>
      </trkpt>
      <trkpt lat="45.07877" lon="5.63411">
        <ele>871</ele>
        <time>2010-10-30T13:26:41Z</time>
      </trkpt>
      <trkpt lat="45.0788" lon="5.63418">
        <ele>870</ele>
        <time>2010-10-30T13:26:44Z</time>
      </trkpt>
      <trkpt lat="45.07882" lon="5.63423">
        <ele>869.4</ele>
        <time>2010-10-30T13:26:46Z</time>
      </trkpt>
      <trkpt lat="45.07884" lon="5.63438">
        <ele>867.6</ele>
        <time>2010-10-30T13:26:51Z</time>
      </trkpt>
      <trkpt lat="45.07884" lon="5.63442">
        <ele>866.8</ele>
        <time>2010-10-30T13:26:53Z</time>
      </trkpt>
      <trkpt lat="45.07885" lon="5.63451">
        <ele>865.6</ele>
        <time>2010-10-30T13:26:57Z</time>
      </trkpt>
      <trkpt lat="45.07882" lon="5.63464">
        <ele>863.8</ele>
        <time>2010-10-30T13:27:03Z</time>
      </trkpt>
      <trkpt lat="45.07882" lon="5.63467">
        <ele>863</ele>
        <time>2010-10-30T13:27:05Z</time>
      </trkpt>
      <trkpt lat="45.0788" lon="5.6347">
        <ele>862</ele>
        <time>2010-10-30T13:27:08Z</time>
      </trkpt>
      <trkpt lat="45.07879" lon="5.63471">
        <ele>861.4</ele>
        <time>2010-10-30T13:27:09Z</time>
      </trkpt>
      <trkpt lat="45.07877" lon="5.63467">
        <ele>860.2</ele>
        <time>2010-10-30T13:27:12Z</time>
      </trkpt>
      <trkpt lat="45.07873" lon="5.63454">
        <ele>857.8</ele>
        <time>2010-10-30T13:27:18Z</time>
      </trkpt>
      <trkpt lat="45.07872" lon="5.63449">
        <ele>857</ele>
        <time>2010-10-30T13:27:20Z</time>
      </trkpt>
      <trkpt lat="45.0787" lon="5.63443">
        <ele>856</ele>
        <time>2010-10-30T13:27:22Z</time>
      </trkpt>
      <trkpt lat="45.07862" lon="5.63437">
        <ele>854.4</ele>
        <time>2010-10-30T13:27:26Z</time>
      </trkpt>
      <trkpt lat="45.0786" lon="5.63436">
        <ele>854</ele>
        <time>2010-10-30T13:27:27Z</time>
      </trkpt>
      <trkpt lat="45.07856" lon="5.63435">
        <ele>853.4</ele>
        <time>2010-10-30T13:27:29Z</time>
      </trkpt>
      <trkpt lat="45.07848" lon="5.63432">
        <ele>851.8</ele>
        <time>2010-10-30T13:27:33Z</time>
      </trkpt>
      <trkpt lat="45.07842" lon="5.6343">
        <ele>850.6</ele>
        <time>2010-10-30T13:27:36Z</time>
      </trkpt>
      <trkpt lat="45.07836" lon="5.63428">
        <ele>849.6</ele>
        <time>2010-10-30T13:27:38Z</time>
      </trkpt>
      <trkpt lat="45.07833" lon="5.63426">
        <ele>848.8</ele>
        <time>2010-10-30T13:27:40Z</time>
      </trkpt>
      <trkpt lat="45.07827" lon="5.63426">
        <ele>847.4</ele>
        <time>2010-10-30T13:27:43Z</time>
      </trkpt>
      <trkpt lat="45.07824" lon="5.63427">
        <ele>846</ele>
        <time>2010-10-30T13:27:46Z</time>
      </trkpt>
      <trkpt lat="45.07823" lon="5.63426">
        <ele>845.4</ele>
        <time>2010-10-30T13:27:47Z</time>
      </trkpt>
      <trkpt lat="45.07824" lon="5.63416">
        <ele>843.2</ele>
        <time>2010-10-30T13:27:52Z</time>
      </trkpt>
      <trkpt lat="45.07828" lon="5.63407">
        <ele>841.4</ele>
        <time>2010-10-30T13:27:56Z</time>
      </trkpt>
      <trkpt lat="45.07828" lon="5.63404">
        <ele>840.8</ele>
        <time>2010-10-30T13:27:57Z</time>
      </trkpt>
      <trkpt lat="45.07828" lon="5.634">
        <ele>840</ele>
        <time>2010-10-30T13:27:59Z</time>
      </trkpt>
      <trkpt lat="45.07825" lon="5.63397">
        <ele>838.4</ele>
        <time>2010-10-30T13:28:02Z</time>
      </trkpt>
      <trkpt lat="45.07824" lon="5.63393">
        <ele>837.4</ele>
        <time>2010-10-30T13:28:04Z</time>
      </trkpt>
      <trkpt lat="45.07823" lon="5.63387">
        <ele>836</ele>
        <time>2010-10-30T13:28:07Z</time>
      </trkpt>
      <trkpt lat="45.07821" lon="5.63386">
        <ele>835</ele>
        <time>2010-10-30T13:28:09Z</time>
      </trkpt>
      <trkpt lat="45.07818" lon="5.63384">
        <ele>834</ele>
        <time>2010-10-30T13:28:11Z</time>
      </trkpt>
      <trkpt lat="45.07816" lon="5.63385">
        <ele>833</ele>
        <time>2010-10-30T13:28:13Z</time>
      </trkpt>
      <trkpt lat="45.07815" lon="5.63389">
        <ele>831.8</ele>
        <time>2010-10-30T13:28:15Z</time>
      </trkpt>
      <trkpt lat="45.07812" lon="5.63394">
        <ele>830</ele>
        <time>2010-10-30T13:28:19Z</time>
      </trkpt>
      <trkpt lat="45.07811" lon="5.63396">
        <ele>829.4</ele>
        <time>2010-10-30T13:28:20Z</time>
      </trkpt>
      <trkpt lat="45.07805" lon="5.63401">
        <ele>827.6</ele>
        <time>2010-10-30T13:28:24Z</time>
      </trkpt>
      <trkpt lat="45.07804" lon="5.63402">
        <ele>827</ele>
        <time>2010-10-30T13:28:25Z</time>
      </trkpt>
      <trkpt lat="45.07803" lon="5.63403">
        <ele>826.6</ele>
        <time>2010-10-30T13:28:26Z</time>
      </trkpt>
      <trkpt lat="45.07799" lon="5.63405">
        <ele>825.2</ele>
        <time>2010-10-30T13:28:29Z</time>
      </trkpt>
      <trkpt lat="45.07794" lon="5.63412">
        <ele>822.6</ele>
        <time>2010-10-30T13:28:34Z</time>
      </trkpt>
      <trkpt lat="45.07793" lon="5.63412">
        <ele>822.2</ele>
        <time>2010-10-30T13:28:35Z</time>
      </trkpt>
      <trkpt lat="45.0779" lon="5.63417">
        <ele>820.8</ele>
        <time>2010-10-30T13:28:38Z</time>
      </trkpt>
      <trkpt lat="45.0779" lon="5.63419">
        <ele>820.2</ele>
        <time>2010-10-30T13:28:39Z</time>
      </trkpt>
      <trkpt lat="45.07789" lon="5.63423">
        <ele>819.4</ele>
        <time>2010-10-30T13:28:41Z</time>
      </trkpt>
      <trkpt lat="45.07785" lon="5.63435">
        <ele>816.2</ele>
        <time>2010-10-30T13:28:48Z</time>
      </trkpt>
      <trkpt lat="45.07783" lon="5.63442">
        <ele>814</ele>
        <time>2010-10-30T13:28:53Z</time>
      </trkpt>
      <trkpt lat="45.07783" lon="5.63444">
        <ele>813.4</ele>
        <time>2010-10-30T13:28:54Z</time>
      </trkpt>
      <trkpt lat="45.07784" lon="5.63446">
        <ele>813</ele>
        <time>2010-10-30T13:28:55Z</time>
      </trkpt>
      <trkpt lat="45.07782" lon="5.63455">
        <ele>811.4</ele>
        <time>2010-10-30T13:28:59Z</time>
      </trkpt>
      <trkpt lat="45.07783" lon="5.63464">
        <ele>809.4</ele>
        <time>2010-10-30T13:29:04Z</time>
      </trkpt>
      <trkpt lat="45.07783" lon="5.63468">
        <ele>808.6</ele>
        <time>2010-10-30T13:29:06Z</time>
      </trkpt>
      <trkpt lat="45.07783" lon="5.63473">
        <ele>807.4</ele>
        <time>2010-10-30T13:29:09Z</time>
      </trkpt>
      <trkpt lat="45.07783" lon="5.63478">
        <ele>806.4</ele>
        <time>2010-10-30T13:29:12Z</time>
      </trkpt>
      <trkpt lat="45.07781" lon="5.6348">
        <ele>805.6</ele>
        <time>2010-10-30T13:29:14Z</time>
      </trkpt>
      <trkpt lat="45.07774" lon="5.63478">
        <ele>803.6</ele>
        <time>2010-10-30T13:29:19Z</time>
      </trkpt>
      <trkpt lat="45.07772" lon="5.63478">
        <ele>803.2</ele>
        <time>2010-10-30T13:29:20Z</time>
      </trkpt>
      <trkpt lat="45.07765" lon="5.63478">
        <ele>801.4</ele>
        <time>2010-10-30T13:29:24Z</time>
      </trkpt>
      <trkpt lat="45.07762" lon="5.6348">
        <ele>800.2</ele>
        <time>2010-10-30T13:29:27Z</time>
      </trkpt>
      <trkpt lat="45.07762" lon="5.6348">
        <ele>799.4</ele>
        <time>2010-10-30T13:29:29Z</time>
      </trkpt>
      <trkpt lat="45.07762" lon="5.63481">
        <ele>796.6</ele>
        <time>2010-10-30T13:29:36Z</time>
      </trkpt>
      <trkpt lat="45.07762" lon="5.63481">
        <ele>794.4</ele>
        <time>2010-10-30T13:29:42Z</time>
      </trkpt>
      <trkpt lat="45.07762" lon="5.63481">
        <ele>792</ele>
        <time>2010-10-30T13:29:49Z</time>
      </trkpt>
      <trkpt lat="45.07761" lon="5.63481">
        <ele>776.6</ele>
        <time>2010-10-30T13:30:54Z</time>
      </trkpt>
      <trkpt lat="45.07762" lon="5.63484">
        <ele>769.2</ele>
        <time>2010-10-30T13:31:57Z</time>
      </trkpt>
      <trkpt lat="45.07762" lon="5.63484">
        <ele>769</ele>
        <time>2010-10-30T13:32:00Z</time>
      </trkpt>
      <trkpt lat="45.07762" lon="5.63484">
        <ele>768.8</ele>
        <time>2010-10-30T13:32:05Z</time>
      </trkpt>
      <trkpt lat="45.07762" lon="5.63481">
        <ele>768</ele>
        <time>2010-10-30T13:32:14Z</time>
      </trkpt>
      <trkpt lat="45.07764" lon="5.63478">
        <ele>767.6</ele>
        <time>2010-10-30T13:32:17Z</time>
      </trkpt>
      <trkpt lat="45.07764" lon="5.63476">
        <ele>767.4</ele>
        <time>2010-10-30T13:32:18Z</time>
      </trkpt>
      <trkpt lat="45.07763" lon="5.63473">
        <ele>767</ele>
        <time>2010-10-30T13:32:21Z</time>
      </trkpt>
      <trkpt lat="45.07763" lon="5.63471">
        <ele>766.8</ele>
        <time>2010-10-30T13:32:22Z</time>
      </trkpt>
      <trkpt lat="45.07758" lon="5.63464">
        <ele>766</ele>
        <time>2010-10-30T13:32:27Z</time>
      </trkpt>
      <trkpt lat="45.07756" lon="5.63463">
        <ele>766</ele>
        <time>2010-10-30T13:32:28Z</time>
      </trkpt>
      <trkpt lat="45.07755" lon="5.63462">
        <ele>765.8</ele>
        <time>2010-10-30T13:32:29Z</time>
      </trkpt>
      <trkpt lat="45.07755" lon="5.63459">
        <ele>765.4</ele>
        <time>2010-10-30T13:32:31Z</time>
      </trkpt>
      <trkpt lat="45.07754" lon="5.63458">
        <ele>765.4</ele>
        <time>2010-10-30T13:32:32Z</time>
      </trkpt>
      <trkpt lat="45.07752" lon="5.63461">
        <ele>764.8</ele>
        <time>2010-10-30T13:32:35Z</time>
      </trkpt>
      <trkpt lat="45.07752" lon="5.63463">
        <ele>764.4</ele>
        <time>2010-10-30T13:32:37Z</time>
      </trkpt>
      <trkpt lat="45.07752" lon="5.63469">
        <ele>764</ele>
        <time>2010-10-30T13:32:40Z</time>
      </trkpt>
      <trkpt lat="45.07752" lon="5.63473">
        <ele>763.4</ele>
        <time>2010-10-30T13:32:43Z</time>
      </trkpt>
      <trkpt lat="45.07752" lon="5.63477">
        <ele>762.8</ele>
        <time>2010-10-30T13:32:46Z</time>
      </trkpt>
      <trkpt lat="45.07751" lon="5.63478">
        <ele>762.6</ele>
        <time>2010-10-30T13:32:47Z</time>
      </trkpt>
      <trkpt lat="45.07751" lon="5.63485">
        <ele>761.8</ele>
        <time>2010-10-30T13:32:51Z</time>
      </trkpt>
      <trkpt lat="45.07748" lon="5.63496">
        <ele>760.6</ele>
        <time>2010-10-30T13:32:57Z</time>
      </trkpt>
      <trkpt lat="45.07746" lon="5.63502">
        <ele>759.8</ele>
        <time>2010-10-30T13:33:00Z</time>
      </trkpt>
      <trkpt lat="45.07746" lon="5.63505">
        <ele>759.6</ele>
        <time>2010-10-30T13:33:01Z</time>
      </trkpt>
      <trkpt lat="45.07745" lon="5.63507">
        <ele>759.2</ele>
        <time>2010-10-30T13:33:02Z</time>
      </trkpt>
      <trkpt lat="45.07744" lon="5.63509">
        <ele>759</ele>
        <time>2010-10-30T13:33:03Z</time>
      </trkpt>
      <trkpt lat="45.07744" lon="5.63517">
        <ele>758.2</ele>
        <time>2010-10-30T13:33:06Z</time>
      </trkpt>
      <trkpt lat="45.07744" lon="5.6352">
        <ele>758</ele>
        <time>2010-10-30T13:33:07Z</time>
      </trkpt>
      <trkpt lat="45.07743" lon="5.63525">
        <ele>757.6</ele>
        <time>2010-10-30T13:33:09Z</time>
      </trkpt>
      <trkpt lat="45.07742" lon="5.63527">
        <ele>757.2</ele>
        <time>2010-10-30T13:33:10Z</time>
      </trkpt>
      <trkpt lat="45.07738" lon="5.63528">
        <ele>756.6</ele>
        <time>2010-10-30T13:33:12Z</time>
      </trkpt>
      <trkpt lat="45.07735" lon="5.63528">
        <ele>755.8</ele>
        <time>2010-10-30T13:33:15Z</time>
      </trkpt>
      <trkpt lat="45.07733" lon="5.63528">
        <ele>755.6</ele>
        <time>2010-10-30T13:33:16Z</time>
      </trkpt>
      <trkpt lat="45.07728" lon="5.63529">
        <ele>754.4</ele>
        <time>2010-10-30T13:33:20Z</time>
      </trkpt>
      <trkpt lat="45.07726" lon="5.63529">
        <ele>754.2</ele>
        <time>2010-10-30T13:33:21Z</time>
      </trkpt>
      <trkpt lat="45.07723" lon="5.63528">
        <ele>753.6</ele>
        <time>2010-10-30T13:33:23Z</time>
      </trkpt>
      <trkpt lat="45.07722" lon="5.63523">
        <ele>753</ele>
        <time>2010-10-30T13:33:25Z</time>
      </trkpt>
      <trkpt lat="45.07723" lon="5.63515">
        <ele>751.8</ele>
        <time>2010-10-30T13:33:29Z</time>
      </trkpt>
      <trkpt lat="45.07723" lon="5.63504">
        <ele>750</ele>
        <time>2010-10-30T13:33:34Z</time>
      </trkpt>
      <trkpt lat="45.07724" lon="5.63502">
        <ele>749.8</ele>
        <time>2010-10-30T13:33:35Z</time>
      </trkpt>
      <trkpt lat="45.07724" lon="5.63501">
        <ele>749.4</ele>
        <time>2010-10-30T13:33:36Z</time>
      </trkpt>
      <trkpt lat="45.07723" lon="5.63496">
        <ele>748.4</ele>
        <time>2010-10-30T13:33:39Z</time>
      </trkpt>
      <trkpt lat="45.07721" lon="5.63491">
        <ele>747.2</ele>
        <time>2010-10-30T13:33:43Z</time>
      </trkpt>
      <trkpt lat="45.0772" lon="5.6349">
        <ele>746.6</ele>
        <time>2010-10-30T13:33:45Z</time>
      </trkpt>
      <trkpt lat="45.0772" lon="5.6349">
        <ele>746.2</ele>
        <time>2010-10-30T13:33:46Z</time>
      </trkpt>
      <trkpt lat="45.07719" lon="5.63492">
        <ele>745.6</ele>
        <time>2010-10-30T13:33:48Z</time>
      </trkpt>
      <trkpt lat="45.07719" lon="5.63494">
        <ele>745.4</ele>
        <time>2010-10-30T13:33:49Z</time>
      </trkpt>
      <trkpt lat="45.07715" lon="5.63498">
        <ele>744.2</ele>
        <time>2010-10-30T13:33:53Z</time>
      </trkpt>
      <trkpt lat="45.07714" lon="5.63498">
        <ele>743.8</ele>
        <time>2010-10-30T13:33:54Z</time>
      </trkpt>
      <trkpt lat="45.07708" lon="5.63492">
        <ele>742.2</ele>
        <time>2010-10-30T13:33:59Z</time>
      </trkpt>
      <trkpt lat="45.07706" lon="5.63485">
        <ele>740.6</ele>
        <time>2010-10-30T13:34:04Z</time>
      </trkpt>
      <trkpt lat="45.07702" lon="5.63481">
        <ele>739.2</ele>
        <time>2010-10-30T13:34:08Z</time>
      </trkpt>
      <trkpt lat="45.077" lon="5.6348">
        <ele>738.6</ele>
        <time>2010-10-30T13:34:10Z</time>
      </trkpt>
      <trkpt lat="45.07697" lon="5.63473">
        <ele>737</ele>
        <time>2010-10-30T13:34:14Z</time>
      </trkpt>
      <trkpt lat="45.07696" lon="5.63472">
        <ele>736.6</ele>
        <time>2010-10-30T13:34:15Z</time>
      </trkpt>
      <trkpt lat="45.07691" lon="5.63464">
        <ele>734.2</ele>
        <time>2010-10-30T13:34:21Z</time>
      </trkpt>
      <trkpt lat="45.0769" lon="5.63463">
        <ele>733.8</ele>
        <time>2010-10-30T13:34:22Z</time>
      </trkpt>
      <trkpt lat="45.07686" lon="5.63458">
        <ele>732</ele>
        <time>2010-10-30T13:34:27Z</time>
      </trkpt>
      <trkpt lat="45.07682" lon="5.6345">
        <ele>729.8</ele>
        <time>2010-10-30T13:34:32Z</time>
      </trkpt>
      <trkpt lat="45.07678" lon="5.63446">
        <ele>728</ele>
        <time>2010-10-30T13:34:37Z</time>
      </trkpt>
      <trkpt lat="45.07678" lon="5.63444">
        <ele>727.6</ele>
        <time>2010-10-30T13:34:38Z</time>
      </trkpt>
      <trkpt lat="45.07676" lon="5.63436">
        <ele>725</ele>
        <time>2010-10-30T13:34:46Z</time>
      </trkpt>
      <trkpt lat="45.07675" lon="5.63435">
        <ele>724.8</ele>
        <time>2010-10-30T13:34:47Z</time>
      </trkpt>
      <trkpt lat="45.07674" lon="5.63434">
        <ele>723.8</ele>
        <time>2010-10-30T13:34:50Z</time>
      </trkpt>
      <trkpt lat="45.07671" lon="5.63438">
        <ele>722.2</ele>
        <time>2010-10-30T13:34:54Z</time>
      </trkpt>
      <trkpt lat="45.07669" lon="5.63438">
        <ele>721.6</ele>
        <time>2010-10-30T13:34:56Z</time>
      </trkpt>
      <trkpt lat="45.07667" lon="5.63437">
        <ele>720.8</ele>
        <time>2010-10-30T13:34:58Z</time>
      </trkpt>
      <trkpt lat="45.07666" lon="5.63434">
        <ele>720</ele>
        <time>2010-10-30T13:35:00Z</time>
      </trkpt>
      <trkpt lat="45.07663" lon="5.6343">
        <ele>718.8</ele>
        <time>2010-10-30T13:35:03Z</time>
      </trkpt>
      <trkpt lat="45.07663" lon="5.63428">
        <ele>718.4</ele>
        <time>2010-10-30T13:35:04Z</time>
      </trkpt>
      <trkpt lat="45.0766" lon="5.63422">
        <ele>717</ele>
        <time>2010-10-30T13:35:08Z</time>
      </trkpt>
      <trkpt lat="45.07658" lon="5.63423">
        <ele>716</ele>
        <time>2010-10-30T13:35:11Z</time>
      </trkpt>
      <trkpt lat="45.07657" lon="5.63424">
        <ele>715.6</ele>
        <time>2010-10-30T13:35:12Z</time>
      </trkpt>
      <trkpt lat="45.07656" lon="5.63429">
        <ele>714.2</ele>
        <time>2010-10-30T13:35:16Z</time>
      </trkpt>
      <trkpt lat="45.0765" lon="5.63428">
        <ele>712.6</ele>
        <time>2010-10-30T13:35:21Z</time>
      </trkpt>
      <trkpt lat="45.07648" lon="5.63425">
        <ele>711.8</ele>
        <time>2010-10-30T13:35:23Z</time>
      </trkpt>
      <trkpt lat="45.07644" lon="5.63421">
        <ele>710.6</ele>
        <time>2010-10-30T13:35:27Z</time>
      </trkpt>
      <trkpt lat="45.0764" lon="5.63418">
        <ele>709.2</ele>
        <time>2010-10-30T13:35:31Z</time>
      </trkpt>
      <trkpt lat="45.0764" lon="5.63416">
        <ele>709</ele>
        <time>2010-10-30T13:35:32Z</time>
      </trkpt>
      <trkpt lat="45.07636" lon="5.63409">
        <ele>707.2</ele>
        <time>2010-10-30T13:35:37Z</time>
      </trkpt>
      <trkpt lat="45.07634" lon="5.63401">
        <ele>705.2</ele>
        <time>2010-10-30T13:35:42Z</time>
      </trkpt>
      <trkpt lat="45.07631" lon="5.63395">
        <ele>703.4</ele>
        <time>2010-10-30T13:35:47Z</time>
      </trkpt>
      <trkpt lat="45.0763" lon="5.63394">
        <ele>703.2</ele>
        <time>2010-10-30T13:35:48Z</time>
      </trkpt>
      <trkpt lat="45.07628" lon="5.63393">
        <ele>702.4</ele>
        <time>2010-10-30T13:35:50Z</time>
      </trkpt>
      <trkpt lat="45.07625" lon="5.63393">
        <ele>701.2</ele>
        <time>2010-10-30T13:35:53Z</time>
      </trkpt>
      <trkpt lat="45.07624" lon="5.63394">
        <ele>700.4</ele>
        <time>2010-10-30T13:35:55Z</time>
      </trkpt>
      <trkpt lat="45.07623" lon="5.63397">
        <ele>699.2</ele>
        <time>2010-10-30T13:35:58Z</time>
      </trkpt>
      <trkpt lat="45.07616" lon="5.63404">
        <ele>697</ele>
        <time>2010-10-30T13:36:04Z</time>
      </trkpt>
      <trkpt lat="45.07613" lon="5.63405">
        <ele>696.2</ele>
        <time>2010-10-30T13:36:06Z</time>
      </trkpt>
      <trkpt lat="45.07608" lon="5.63402">
        <ele>695.2</ele>
        <time>2010-10-30T13:36:09Z</time>
      </trkpt>
      <trkpt lat="45.07607" lon="5.63401">
        <ele>694.8</ele>
        <time>2010-10-30T13:36:10Z</time>
      </trkpt>
      <trkpt lat="45.07603" lon="5.634">
        <ele>693.8</ele>
        <time>2010-10-30T13:36:13Z</time>
      </trkpt>
      <trkpt lat="45.07602" lon="5.634">
        <ele>693.4</ele>
        <time>2010-10-30T13:36:14Z</time>
      </trkpt>
      <trkpt lat="45.076" lon="5.63406">
        <ele>692.4</ele>
        <time>2010-10-30T13:36:17Z</time>
      </trkpt>
      <trkpt lat="45.07599" lon="5.63409">
        <ele>691.6</ele>
        <time>2010-10-30T13:36:19Z</time>
      </trkpt>
      <trkpt lat="45.07595" lon="5.6342">
        <ele>689.2</ele>
        <time>2010-10-30T13:36:25Z</time>
      </trkpt>
      <trkpt lat="45.07591" lon="5.63429">
        <ele>688</ele>
        <time>2010-10-30T13:36:29Z</time>
      </trkpt>
      <trkpt lat="45.0759" lon="5.63432">
        <ele>687.2</ele>
        <time>2010-10-30T13:36:31Z</time>
      </trkpt>
      <trkpt lat="45.07588" lon="5.63447">
        <ele>684.8</ele>
        <time>2010-10-30T13:36:38Z</time>
      </trkpt>
      <trkpt lat="45.07587" lon="5.63454">
        <ele>683.6</ele>
        <time>2010-10-30T13:36:41Z</time>
      </trkpt>
      <trkpt lat="45.07586" lon="5.6346">
        <ele>682.4</ele>
        <time>2010-10-30T13:36:44Z</time>
      </trkpt>
      <trkpt lat="45.07582" lon="5.63472">
        <ele>679.8</ele>
        <time>2010-10-30T13:36:51Z</time>
      </trkpt>
      <trkpt lat="45.0758" lon="5.63479">
        <ele>678.2</ele>
        <time>2010-10-30T13:36:55Z</time>
      </trkpt>
      <trkpt lat="45.07579" lon="5.63484">
        <ele>677</ele>
        <time>2010-10-30T13:36:58Z</time>
      </trkpt>
      <trkpt lat="45.07576" lon="5.63497">
        <ele>674.2</ele>
        <time>2010-10-30T13:37:05Z</time>
      </trkpt>
      <trkpt lat="45.07574" lon="5.63504">
        <ele>672.6</ele>
        <time>2010-10-30T13:37:09Z</time>
      </trkpt>
      <trkpt lat="45.07573" lon="5.63508">
        <ele>671.8</ele>
        <time>2010-10-30T13:37:11Z</time>
      </trkpt>
      <trkpt lat="45.07568" lon="5.63518">
        <ele>669.4</ele>
        <time>2010-10-30T13:37:17Z</time>
      </trkpt>
      <trkpt lat="45.07567" lon="5.63522">
        <ele>668.6</ele>
        <time>2010-10-30T13:37:19Z</time>
      </trkpt>
      <trkpt lat="45.07567" lon="5.63529">
        <ele>667.4</ele>
        <time>2010-10-30T13:37:22Z</time>
      </trkpt>
      <trkpt lat="45.07569" lon="5.63538">
        <ele>665.6</ele>
        <time>2010-10-30T13:37:27Z</time>
      </trkpt>
      <trkpt lat="45.0757" lon="5.63547">
        <ele>663.2</ele>
        <time>2010-10-30T13:37:33Z</time>
      </trkpt>
      <trkpt lat="45.07568" lon="5.63553">
        <ele>661.8</ele>
        <time>2010-10-30T13:37:36Z</time>
      </trkpt>
      <trkpt lat="45.07567" lon="5.63556">
        <ele>661</ele>
        <time>2010-10-30T13:37:38Z</time>
      </trkpt>
      <trkpt lat="45.07566" lon="5.63558">
        <ele>660.6</ele>
        <time>2010-10-30T13:37:39Z</time>
      </trkpt>
      <trkpt lat="45.07564" lon="5.63569">
        <ele>658</ele>
        <time>2010-10-30T13:37:45Z</time>
      </trkpt>
      <trkpt lat="45.07564" lon="5.63571">
        <ele>657.6</ele>
        <time>2010-10-30T13:37:46Z</time>
      </trkpt>
      <trkpt lat="45.07565" lon="5.63578">
        <ele>656.2</ele>
        <time>2010-10-30T13:37:49Z</time>
      </trkpt>
      <trkpt lat="45.07565" lon="5.63583">
        <ele>655</ele>
        <time>2010-10-30T13:37:52Z</time>
      </trkpt>
      <trkpt lat="45.07567" lon="5.63594">
        <ele>653</ele>
        <time>2010-10-30T13:37:57Z</time>
      </trkpt>
      <trkpt lat="45.07569" lon="5.63604">
        <ele>650.8</ele>
        <time>2010-10-30T13:38:02Z</time>
      </trkpt>
      <trkpt lat="45.07569" lon="5.63606">
        <ele>650.4</ele>
        <time>2010-10-30T13:38:03Z</time>
      </trkpt>
      <trkpt lat="45.07571" lon="5.63613">
        <ele>648.8</ele>
        <time>2010-10-30T13:38:07Z</time>
      </trkpt>
      <trkpt lat="45.0757" lon="5.63617">
        <ele>647.6</ele>
        <time>2010-10-30T13:38:10Z</time>
      </trkpt>
      <trkpt lat="45.0757" lon="5.63619">
        <ele>647.2</ele>
        <time>2010-10-30T13:38:11Z</time>
      </trkpt>
      <trkpt lat="45.07568" lon="5.63628">
        <ele>645.2</ele>
        <time>2010-10-30T13:38:16Z</time>
      </trkpt>
      <trkpt lat="45.07568" lon="5.6363">
        <ele>644.6</ele>
        <time>2010-10-30T13:38:17Z</time>
      </trkpt>
      <trkpt lat="45.07568" lon="5.63641">
        <ele>642</ele>
        <time>2010-10-30T13:38:23Z</time>
      </trkpt>
      <trkpt lat="45.07568" lon="5.63652">
        <ele>639.4</ele>
        <time>2010-10-30T13:38:29Z</time>
      </trkpt>
      <trkpt lat="45.07568" lon="5.63656">
        <ele>638.6</ele>
        <time>2010-10-30T13:38:31Z</time>
      </trkpt>
      <trkpt lat="45.07565" lon="5.63661">
        <ele>637</ele>
        <time>2010-10-30T13:38:35Z</time>
      </trkpt>
      <trkpt lat="45.07564" lon="5.63663">
        <ele>636</ele>
        <time>2010-10-30T13:38:37Z</time>
      </trkpt>
      <trkpt lat="45.07559" lon="5.6367">
        <ele>633.6</ele>
        <time>2010-10-30T13:38:43Z</time>
      </trkpt>
      <trkpt lat="45.07556" lon="5.63676">
        <ele>631.4</ele>
        <time>2010-10-30T13:38:48Z</time>
      </trkpt>
      <trkpt lat="45.07556" lon="5.63677">
        <ele>631</ele>
        <time>2010-10-30T13:38:49Z</time>
      </trkpt>
      <trkpt lat="45.07557" lon="5.63684">
        <ele>629.2</ele>
        <time>2010-10-30T13:38:53Z</time>
      </trkpt>
      <trkpt lat="45.07556" lon="5.63686">
        <ele>628.8</ele>
        <time>2010-10-30T13:38:54Z</time>
      </trkpt>
      <trkpt lat="45.07556" lon="5.63698">
        <ele>626.2</ele>
        <time>2010-10-30T13:39:00Z</time>
      </trkpt>
      <trkpt lat="45.07557" lon="5.63704">
        <ele>625.2</ele>
        <time>2010-10-30T13:39:02Z</time>
      </trkpt>
      <trkpt lat="45.07558" lon="5.63709">
        <ele>624.2</ele>
        <time>2010-10-30T13:39:04Z</time>
      </trkpt>
      <trkpt lat="45.07563" lon="5.63717">
        <ele>622.4</ele>
        <time>2010-10-30T13:39:08Z</time>
      </trkpt>
      <trkpt lat="45.07567" lon="5.6372">
        <ele>621.6</ele>
        <time>2010-10-30T13:39:10Z</time>
      </trkpt>
      <trkpt lat="45.07568" lon="5.63722">
        <ele>621.2</ele>
        <time>2010-10-30T13:39:11Z</time>
      </trkpt>
      <trkpt lat="45.0758" lon="5.63729">
        <ele>618.6</ele>
        <time>2010-10-30T13:39:17Z</time>
      </trkpt>
      <trkpt lat="45.07586" lon="5.63733">
        <ele>617.2</ele>
        <time>2010-10-30T13:39:20Z</time>
      </trkpt>
      <trkpt lat="45.0759" lon="5.63735">
        <ele>616.4</ele>
        <time>2010-10-30T13:39:22Z</time>
      </trkpt>
      <trkpt lat="45.07603" lon="5.6374">
        <ele>613.6</ele>
        <time>2010-10-30T13:39:29Z</time>
      </trkpt>
      <trkpt lat="45.07614" lon="5.6375">
        <ele>611.6</ele>
        <time>2010-10-30T13:39:35Z</time>
      </trkpt>
      <trkpt lat="45.0762" lon="5.63754">
        <ele>610.6</ele>
        <time>2010-10-30T13:39:38Z</time>
      </trkpt>
      <trkpt lat="45.07623" lon="5.63756">
        <ele>610</ele>
        <time>2010-10-30T13:39:40Z</time>
      </trkpt>
      <trkpt lat="45.07625" lon="5.63756">
        <ele>609.6</ele>
        <time>2010-10-30T13:39:41Z</time>
      </trkpt>
      <trkpt lat="45.07627" lon="5.63756">
        <ele>609.4</ele>
        <time>2010-10-30T13:39:43Z</time>
      </trkpt>
      <trkpt lat="45.07631" lon="5.63756">
        <ele>608.8</ele>
        <time>2010-10-30T13:39:44Z</time>
      </trkpt>
      <trkpt lat="45.07637" lon="5.63754">
        <ele>607.8</ele>
        <time>2010-10-30T13:39:47Z</time>
      </trkpt>
      <trkpt lat="45.07639" lon="5.63754">
        <ele>607.6</ele>
        <time>2010-10-30T13:39:48Z</time>
      </trkpt>
      <trkpt lat="45.07651" lon="5.63752">
        <ele>605.8</ele>
        <time>2010-10-30T13:39:54Z</time>
      </trkpt>
      <trkpt lat="45.07657" lon="5.63752">
        <ele>605</ele>
        <time>2010-10-30T13:39:57Z</time>
      </trkpt>
      <trkpt lat="45.07658" lon="5.63753">
        <ele>604.8</ele>
        <time>2010-10-30T13:39:58Z</time>
      </trkpt>
      <trkpt lat="45.0766" lon="5.63753">
        <ele>604.6</ele>
        <time>2010-10-30T13:39:59Z</time>
      </trkpt>
      <trkpt lat="45.07666" lon="5.63753">
        <ele>603.8</ele>
        <time>2010-10-30T13:40:02Z</time>
      </trkpt>
      <trkpt lat="45.07672" lon="5.63756">
        <ele>603</ele>
        <time>2010-10-30T13:40:05Z</time>
      </trkpt>
      <trkpt lat="45.07673" lon="5.63757">
        <ele>602.8</ele>
        <time>2010-10-30T13:40:06Z</time>
      </trkpt>
      <trkpt lat="45.07675" lon="5.63758">
        <ele>602.4</ele>
        <time>2010-10-30T13:40:07Z</time>
      </trkpt>
      <trkpt lat="45.07679" lon="5.6376">
        <ele>601.8</ele>
        <time>2010-10-30T13:40:09Z</time>
      </trkpt>
      <trkpt lat="45.07685" lon="5.63764">
        <ele>601.2</ele>
        <time>2010-10-30T13:40:12Z</time>
      </trkpt>
      <trkpt lat="45.07689" lon="5.63765">
        <ele>600.6</ele>
        <time>2010-10-30T13:40:14Z</time>
      </trkpt>
      <trkpt lat="45.07693" lon="5.63768">
        <ele>600.2</ele>
        <time>2010-10-30T13:40:16Z</time>
      </trkpt>
      <trkpt lat="45.07695" lon="5.63769">
        <ele>600</ele>
        <time>2010-10-30T13:40:17Z</time>
      </trkpt>
      <trkpt lat="45.07701" lon="5.63773">
        <ele>599.2</ele>
        <time>2010-10-30T13:40:20Z</time>
      </trkpt>
      <trkpt lat="45.07709" lon="5.63783">
        <ele>598.4</ele>
        <time>2010-10-30T13:40:24Z</time>
      </trkpt>
      <trkpt lat="45.0771" lon="5.63787">
        <ele>598.2</ele>
        <time>2010-10-30T13:40:25Z</time>
      </trkpt>
      <trkpt lat="45.07716" lon="5.63796">
        <ele>597.4</ele>
        <time>2010-10-30T13:40:29Z</time>
      </trkpt>
      <trkpt lat="45.07718" lon="5.63796">
        <ele>597.2</ele>
        <time>2010-10-30T13:40:30Z</time>
      </trkpt>
      <trkpt lat="45.07724" lon="5.63798">
        <ele>596.6</ele>
        <time>2010-10-30T13:40:33Z</time>
      </trkpt>
      <trkpt lat="45.07731" lon="5.638">
        <ele>596</ele>
        <time>2010-10-30T13:40:36Z</time>
      </trkpt>
      <trkpt lat="45.0774" lon="5.63812">
        <ele>594.8</ele>
        <time>2010-10-30T13:40:42Z</time>
      </trkpt>
      <trkpt lat="45.07741" lon="5.63815">
        <ele>594.6</ele>
        <time>2010-10-30T13:40:43Z</time>
      </trkpt>
      <trkpt lat="45.07745" lon="5.63825">
        <ele>594</ele>
        <time>2010-10-30T13:40:47Z</time>
      </trkpt>
      <trkpt lat="45.07747" lon="5.63831">
        <ele>593.8</ele>
        <time>2010-10-30T13:40:49Z</time>
      </trkpt>
      <trkpt lat="45.07749" lon="5.63836">
        <ele>593.6</ele>
        <time>2010-10-30T13:40:51Z</time>
      </trkpt>
      <trkpt lat="45.07751" lon="5.63846">
        <ele>593.2</ele>
        <time>2010-10-30T13:40:55Z</time>
      </trkpt>
      <trkpt lat="45.07748" lon="5.6386">
        <ele>592.8</ele>
        <time>2010-10-30T13:41:00Z</time>
      </trkpt>
      <trkpt lat="45.07746" lon="5.63868">
        <ele>592.4</ele>
        <time>2010-10-30T13:41:03Z</time>
      </trkpt>
      <trkpt lat="45.07749" lon="5.63876">
        <ele>592.2</ele>
        <time>2010-10-30T13:41:06Z</time>
      </trkpt>
      <trkpt lat="45.07755" lon="5.63877">
        <ele>591.6</ele>
        <time>2010-10-30T13:41:11Z</time>
      </trkpt>
      <trkpt lat="45.07756" lon="5.63878">
        <ele>591.4</ele>
        <time>2010-10-30T13:41:12Z</time>
      </trkpt>
      <trkpt lat="45.07761" lon="5.63882">
        <ele>590.8</ele>
        <time>2010-10-30T13:41:16Z</time>
      </trkpt>
      <trkpt lat="45.07769" lon="5.63889">
        <ele>589.8</ele>
        <time>2010-10-30T13:41:22Z</time>
      </trkpt>
      <trkpt lat="45.07772" lon="5.63892">
        <ele>589.4</ele>
        <time>2010-10-30T13:41:24Z</time>
      </trkpt>
      <trkpt lat="45.0778" lon="5.63898">
        <ele>588.6</ele>
        <time>2010-10-30T13:41:28Z</time>
      </trkpt>
      <trkpt lat="45.07788" lon="5.63908">
        <ele>587.8</ele>
        <time>2010-10-30T13:41:32Z</time>
      </trkpt>
      <trkpt lat="45.0779" lon="5.63913">
        <ele>587.4</ele>
        <time>2010-10-30T13:41:34Z</time>
      </trkpt>
      <trkpt lat="45.07792" lon="5.63925">
        <ele>586.4</ele>
        <time>2010-10-30T13:41:39Z</time>
      </trkpt>
      <trkpt lat="45.07794" lon="5.63928">
        <ele>586.2</ele>
        <time>2010-10-30T13:41:40Z</time>
      </trkpt>
      <trkpt lat="45.07795" lon="5.63933">
        <ele>585.8</ele>
        <time>2010-10-30T13:41:42Z</time>
      </trkpt>
      <trkpt lat="45.07797" lon="5.63944">
        <ele>585</ele>
        <time>2010-10-30T13:41:46Z</time>
      </trkpt>
      <trkpt lat="45.07798" lon="5.63958">
        <ele>583.6</ele>
        <time>2010-10-30T13:41:51Z</time>
      </trkpt>
      <trkpt lat="45.07797" lon="5.63961">
        <ele>583.4</ele>
        <time>2010-10-30T13:41:52Z</time>
      </trkpt>
      <trkpt lat="45.07795" lon="5.63976">
        <ele>582</ele>
        <time>2010-10-30T13:41:57Z</time>
      </trkpt>
      <trkpt lat="45.07792" lon="5.63983">
        <ele>581.2</ele>
        <time>2010-10-30T13:42:00Z</time>
      </trkpt>
      <trkpt lat="45.07787" lon="5.63992">
        <ele>580.2</ele>
        <time>2010-10-30T13:42:04Z</time>
      </trkpt>
      <trkpt lat="45.07783" lon="5.63996">
        <ele>579.6</ele>
        <time>2010-10-30T13:42:07Z</time>
      </trkpt>
      <trkpt lat="45.07782" lon="5.64001">
        <ele>579.2</ele>
        <time>2010-10-30T13:42:09Z</time>
      </trkpt>
      <trkpt lat="45.07783" lon="5.64005">
        <ele>578.6</ele>
        <time>2010-10-30T13:42:11Z</time>
      </trkpt>
      <trkpt lat="45.07785" lon="5.6401">
        <ele>577.8</ele>
        <time>2010-10-30T13:42:14Z</time>
      </trkpt>
      <trkpt lat="45.07789" lon="5.64024">
        <ele>576.6</ele>
        <time>2010-10-30T13:42:19Z</time>
      </trkpt>
      <trkpt lat="45.07789" lon="5.64028">
        <ele>576.2</ele>
        <time>2010-10-30T13:42:20Z</time>
      </trkpt>
      <trkpt lat="45.07788" lon="5.64035">
        <ele>575.8</ele>
        <time>2010-10-30T13:42:22Z</time>
      </trkpt>
      <trkpt lat="45.0779" lon="5.6404">
        <ele>575.2</ele>
        <time>2010-10-30T13:42:24Z</time>
      </trkpt>
      <trkpt lat="45.07791" lon="5.64046">
        <ele>574.8</ele>
        <time>2010-10-30T13:42:26Z</time>
      </trkpt>
      <trkpt lat="45.07791" lon="5.64051">
        <ele>574.2</ele>
        <time>2010-10-30T13:42:28Z</time>
      </trkpt>
      <trkpt lat="45.07792" lon="5.64054">
        <ele>574</ele>
        <time>2010-10-30T13:42:29Z</time>
      </trkpt>
      <trkpt lat="45.07793" lon="5.64064">
        <ele>573.2</ele>
        <time>2010-10-30T13:42:33Z</time>
      </trkpt>
      <trkpt lat="45.07793" lon="5.64067">
        <ele>573</ele>
        <time>2010-10-30T13:42:34Z</time>
      </trkpt>
      <trkpt lat="45.07796" lon="5.64072">
        <ele>572.4</ele>
        <time>2010-10-30T13:42:37Z</time>
      </trkpt>
      <trkpt lat="45.07796" lon="5.64079">
        <ele>571.8</ele>
        <time>2010-10-30T13:42:40Z</time>
      </trkpt>
      <trkpt lat="45.07796" lon="5.64082">
        <ele>571.6</ele>
        <time>2010-10-30T13:42:41Z</time>
      </trkpt>
      <trkpt lat="45.07795" lon="5.64086">
        <ele>571.4</ele>
        <time>2010-10-30T13:42:42Z</time>
      </trkpt>
      <trkpt lat="45.07794" lon="5.64098">
        <ele>570.6</ele>
        <time>2010-10-30T13:42:46Z</time>
      </trkpt>
      <trkpt lat="45.07793" lon="5.641">
        <ele>570.6</ele>
        <time>2010-10-30T13:42:47Z</time>
      </trkpt>
      <trkpt lat="45.07792" lon="5.64106">
        <ele>570.4</ele>
        <time>2010-10-30T13:42:49Z</time>
      </trkpt>
      <trkpt lat="45.07791" lon="5.64114">
        <ele>569.8</ele>
        <time>2010-10-30T13:42:52Z</time>
      </trkpt>
      <trkpt lat="45.07788" lon="5.64124">
        <ele>568.8</ele>
        <time>2010-10-30T13:42:57Z</time>
      </trkpt>
      <trkpt lat="45.07788" lon="5.64126">
        <ele>568.6</ele>
        <time>2010-10-30T13:42:58Z</time>
      </trkpt>
      <trkpt lat="45.07786" lon="5.64131">
        <ele>567.8</ele>
        <time>2010-10-30T13:43:01Z</time>
      </trkpt>
      <trkpt lat="45.07784" lon="5.64136">
        <ele>567.4</ele>
        <time>2010-10-30T13:43:03Z</time>
      </trkpt>
      <trkpt lat="45.07781" lon="5.64147">
        <ele>565.6</ele>
        <time>2010-10-30T13:43:09Z</time>
      </trkpt>
      <trkpt lat="45.07777" lon="5.64154">
        <ele>564.6</ele>
        <time>2010-10-30T13:43:13Z</time>
      </trkpt>
      <trkpt lat="45.07773" lon="5.64158">
        <ele>564.2</ele>
        <time>2010-10-30T13:43:15Z</time>
      </trkpt>
      <trkpt lat="45.07767" lon="5.64167">
        <ele>563.6</ele>
        <time>2010-10-30T13:43:19Z</time>
      </trkpt>
      <trkpt lat="45.07765" lon="5.64172">
        <ele>563.2</ele>
        <time>2010-10-30T13:43:21Z</time>
      </trkpt>
      <trkpt lat="45.07764" lon="5.64174">
        <ele>563</ele>
        <time>2010-10-30T13:43:22Z</time>
      </trkpt>
      <trkpt lat="45.07763" lon="5.64184">
        <ele>561.8</ele>
        <time>2010-10-30T13:43:26Z</time>
      </trkpt>
      <trkpt lat="45.07763" lon="5.64186">
        <ele>561.6</ele>
        <time>2010-10-30T13:43:27Z</time>
      </trkpt>
      <trkpt lat="45.07764" lon="5.64199">
        <ele>559.4</ele>
        <time>2010-10-30T13:43:34Z</time>
      </trkpt>
      <trkpt lat="45.07764" lon="5.642">
        <ele>558.8</ele>
        <time>2010-10-30T13:43:35Z</time>
      </trkpt>
      <trkpt lat="45.07762" lon="5.64211">
        <ele>557</ele>
        <time>2010-10-30T13:43:40Z</time>
      </trkpt>
      <trkpt lat="45.07762" lon="5.64216">
        <ele>556.4</ele>
        <time>2010-10-30T13:43:42Z</time>
      </trkpt>
      <trkpt lat="45.07762" lon="5.64226">
        <ele>554.8</ele>
        <time>2010-10-30T13:43:46Z</time>
      </trkpt>
      <trkpt lat="45.07763" lon="5.64228">
        <ele>554.4</ele>
        <time>2010-10-30T13:43:47Z</time>
      </trkpt>
      <trkpt lat="45.07763" lon="5.64232">
        <ele>553.6</ele>
        <time>2010-10-30T13:43:49Z</time>
      </trkpt>
      <trkpt lat="45.07765" lon="5.64237">
        <ele>552.6</ele>
        <time>2010-10-30T13:43:52Z</time>
      </trkpt>
      <trkpt lat="45.07766" lon="5.64239">
        <ele>552.2</ele>
        <time>2010-10-30T13:43:53Z</time>
      </trkpt>
      <trkpt lat="45.07773" lon="5.64246">
        <ele>550.2</ele>
        <time>2010-10-30T13:43:58Z</time>
      </trkpt>
      <trkpt lat="45.07774" lon="5.64246">
        <ele>549.8</ele>
        <time>2010-10-30T13:43:59Z</time>
      </trkpt>
      <trkpt lat="45.07784" lon="5.64251">
        <ele>547.6</ele>
        <time>2010-10-30T13:44:05Z</time>
      </trkpt>
      <trkpt lat="45.0779" lon="5.64253">
        <ele>546.2</ele>
        <time>2010-10-30T13:44:08Z</time>
      </trkpt>
      <trkpt lat="45.07796" lon="5.64258">
        <ele>545.2</ele>
        <time>2010-10-30T13:44:11Z</time>
      </trkpt>
      <trkpt lat="45.07805" lon="5.64271">
        <ele>543.2</ele>
        <time>2010-10-30T13:44:16Z</time>
      </trkpt>
      <trkpt lat="45.07808" lon="5.64285">
        <ele>541.2</ele>
        <time>2010-10-30T13:44:21Z</time>
      </trkpt>
      <trkpt lat="45.07813" lon="5.64293">
        <ele>540</ele>
        <time>2010-10-30T13:44:24Z</time>
      </trkpt>
      <trkpt lat="45.07815" lon="5.64298">
        <ele>539.2</ele>
        <time>2010-10-30T13:44:26Z</time>
      </trkpt>
      <trkpt lat="45.07817" lon="5.64316">
        <ele>536.8</ele>
        <time>2010-10-30T13:44:32Z</time>
      </trkpt>
      <trkpt lat="45.07817" lon="5.64318">
        <ele>536.4</ele>
        <time>2010-10-30T13:44:33Z</time>
      </trkpt>
      <trkpt lat="45.07814" lon="5.64325">
        <ele>535.2</ele>
        <time>2010-10-30T13:44:36Z</time>
      </trkpt>
      <trkpt lat="45.07813" lon="5.64331">
        <ele>533.8</ele>
        <time>2010-10-30T13:44:39Z</time>
      </trkpt>
      <trkpt lat="45.07814" lon="5.64342">
        <ele>531.8</ele>
        <time>2010-10-30T13:44:44Z</time>
      </trkpt>
      <trkpt lat="45.07814" lon="5.64344">
        <ele>531.4</ele>
        <time>2010-10-30T13:44:45Z</time>
      </trkpt>
      <trkpt lat="45.07812" lon="5.64357">
        <ele>528.2</ele>
        <time>2010-10-30T13:44:52Z</time>
      </trkpt>
      <trkpt lat="45.07809" lon="5.64361">
        <ele>527</ele>
        <time>2010-10-30T13:44:55Z</time>
      </trkpt>
      <trkpt lat="45.07804" lon="5.64362">
        <ele>525.8</ele>
        <time>2010-10-30T13:44:58Z</time>
      </trkpt>
      <trkpt lat="45.07795" lon="5.64359">
        <ele>524</ele>
        <time>2010-10-30T13:45:03Z</time>
      </trkpt>
      <trkpt lat="45.07791" lon="5.64356">
        <ele>523</ele>
        <time>2010-10-30T13:45:06Z</time>
      </trkpt>
      <trkpt lat="45.07788" lon="5.64354">
        <ele>522.2</ele>
        <time>2010-10-30T13:45:08Z</time>
      </trkpt>
      <trkpt lat="45.07786" lon="5.64353">
        <ele>522</ele>
        <time>2010-10-30T13:45:09Z</time>
      </trkpt>
      <trkpt lat="45.0778" lon="5.64353">
        <ele>520.4</ele>
        <time>2010-10-30T13:45:13Z</time>
      </trkpt>
      <trkpt lat="45.07767" lon="5.64353">
        <ele>517.8</ele>
        <time>2010-10-30T13:45:21Z</time>
      </trkpt>
      <trkpt lat="45.07765" lon="5.64354">
        <ele>517.4</ele>
        <time>2010-10-30T13:45:22Z</time>
      </trkpt>
      <trkpt lat="45.07757" lon="5.64354">
        <ele>515.6</ele>
        <time>2010-10-30T13:45:27Z</time>
      </trkpt>
      <trkpt lat="45.07748" lon="5.64353">
        <ele>514</ele>
        <time>2010-10-30T13:45:32Z</time>
      </trkpt>
      <trkpt lat="45.07747" lon="5.64352">
        <ele>513.6</ele>
        <time>2010-10-30T13:45:33Z</time>
      </trkpt>
      <trkpt lat="45.07745" lon="5.64351">
        <ele>513.2</ele>
        <time>2010-10-30T13:45:34Z</time>
      </trkpt>
      <trkpt lat="45.07739" lon="5.6435">
        <ele>511.2</ele>
        <time>2010-10-30T13:45:40Z</time>
      </trkpt>
      <trkpt lat="45.07733" lon="5.64359">
        <ele>509.4</ele>
        <time>2010-10-30T13:45:45Z</time>
      </trkpt>
      <trkpt lat="45.07732" lon="5.64361">
        <ele>509</ele>
        <time>2010-10-30T13:45:46Z</time>
      </trkpt>
      <trkpt lat="45.07731" lon="5.64362">
        <ele>508.6</ele>
        <time>2010-10-30T13:45:47Z</time>
      </trkpt>
      <trkpt lat="45.07728" lon="5.64367">
        <ele>507.4</ele>
        <time>2010-10-30T13:45:50Z</time>
      </trkpt>
      <trkpt lat="45.07724" lon="5.64381">
        <ele>505.8</ele>
        <time>2010-10-30T13:45:54Z</time>
      </trkpt>
      <trkpt lat="45.07723" lon="5.64385">
        <ele>505.4</ele>
        <time>2010-10-30T13:45:55Z</time>
      </trkpt>
      <trkpt lat="45.07716" lon="5.64405">
        <ele>502.8</ele>
        <time>2010-10-30T13:46:01Z</time>
      </trkpt>
      <trkpt lat="45.07715" lon="5.64424">
        <ele>500.8</ele>
        <time>2010-10-30T13:46:06Z</time>
      </trkpt>
      <trkpt lat="45.07718" lon="5.64431">
        <ele>499.6</ele>
        <time>2010-10-30T13:46:09Z</time>
      </trkpt>
      <trkpt lat="45.07719" lon="5.64433">
        <ele>499.2</ele>
        <time>2010-10-30T13:46:10Z</time>
      </trkpt>
      <trkpt lat="45.07727" lon="5.64442">
        <ele>497.4</ele>
        <time>2010-10-30T13:46:15Z</time>
      </trkpt>
      <trkpt lat="45.07734" lon="5.6445">
        <ele>496</ele>
        <time>2010-10-30T13:46:19Z</time>
      </trkpt>
      <trkpt lat="45.07737" lon="5.64451">
        <ele>495.6</ele>
        <time>2010-10-30T13:46:20Z</time>
      </trkpt>
      <trkpt lat="45.07739" lon="5.64454">
        <ele>495.2</ele>
        <time>2010-10-30T13:46:21Z</time>
      </trkpt>
      <trkpt lat="45.07742" lon="5.64461">
        <ele>494.2</ele>
        <time>2010-10-30T13:46:24Z</time>
      </trkpt>
      <trkpt lat="45.07746" lon="5.64468">
        <ele>493.2</ele>
        <time>2010-10-30T13:46:27Z</time>
      </trkpt>
      <trkpt lat="45.07748" lon="5.6447">
        <ele>492.8</ele>
        <time>2010-10-30T13:46:28Z</time>
      </trkpt>
      <trkpt lat="45.07749" lon="5.6447">
        <ele>492.4</ele>
        <time>2010-10-30T13:46:29Z</time>
      </trkpt>
      <trkpt lat="45.07757" lon="5.64471">
        <ele>491</ele>
        <time>2010-10-30T13:46:33Z</time>
      </trkpt>
      <trkpt lat="45.07758" lon="5.64471">
        <ele>490.6</ele>
        <time>2010-10-30T13:46:34Z</time>
      </trkpt>
      <trkpt lat="45.07765" lon="5.64474">
        <ele>489</ele>
        <time>2010-10-30T13:46:38Z</time>
      </trkpt>
      <trkpt lat="45.07767" lon="5.64475">
        <ele>488.6</ele>
        <time>2010-10-30T13:46:39Z</time>
      </trkpt>
      <trkpt lat="45.07768" lon="5.64486">
        <ele>486.6</ele>
        <time>2010-10-30T13:46:44Z</time>
      </trkpt>
      <trkpt lat="45.07763" lon="5.64497">
        <ele>485.2</ele>
        <time>2010-10-30T13:46:48Z</time>
      </trkpt>
      <trkpt lat="45.07763" lon="5.64502">
        <ele>484.8</ele>
        <time>2010-10-30T13:46:49Z</time>
      </trkpt>
      <trkpt lat="45.07764" lon="5.64509">
        <ele>483.6</ele>
        <time>2010-10-30T13:46:52Z</time>
      </trkpt>
      <trkpt lat="45.07766" lon="5.64511">
        <ele>482.8</ele>
        <time>2010-10-30T13:46:54Z</time>
      </trkpt>
      <trkpt lat="45.07767" lon="5.6451">
        <ele>482.4</ele>
        <time>2010-10-30T13:46:55Z</time>
      </trkpt>
      <trkpt lat="45.07769" lon="5.6451">
        <ele>481.6</ele>
        <time>2010-10-30T13:46:57Z</time>
      </trkpt>
      <trkpt lat="45.07773" lon="5.64511">
        <ele>480.6</ele>
        <time>2010-10-30T13:47:00Z</time>
      </trkpt>
      <trkpt lat="45.07776" lon="5.64511">
        <ele>479.8</ele>
        <time>2010-10-30T13:47:02Z</time>
      </trkpt>
      <trkpt lat="45.07781" lon="5.64507">
        <ele>477.8</ele>
        <time>2010-10-30T13:47:07Z</time>
      </trkpt>
      <trkpt lat="45.07786" lon="5.64509">
        <ele>476.6</ele>
        <time>2010-10-30T13:47:13Z</time>
      </trkpt>
      <trkpt lat="45.07791" lon="5.64507">
        <ele>475.6</ele>
        <time>2010-10-30T13:47:17Z</time>
      </trkpt>
      <trkpt lat="45.07795" lon="5.64507">
        <ele>474.8</ele>
        <time>2010-10-30T13:47:20Z</time>
      </trkpt>
      <trkpt lat="45.07795" lon="5.64507">
        <ele>474.6</ele>
        <time>2010-10-30T13:47:21Z</time>
      </trkpt>
      <trkpt lat="45.078" lon="5.6451">
        <ele>473</ele>
        <time>2010-10-30T13:47:27Z</time>
      </trkpt>
      <trkpt lat="45.07803" lon="5.64513">
        <ele>472.2</ele>
        <time>2010-10-30T13:47:30Z</time>
      </trkpt>
      <trkpt lat="45.07808" lon="5.64514">
        <ele>471.4</ele>
        <time>2010-10-30T13:47:33Z</time>
      </trkpt>
      <trkpt lat="45.07809" lon="5.64515">
        <ele>471</ele>
        <time>2010-10-30T13:47:34Z</time>
      </trkpt>
      <trkpt lat="45.0781" lon="5.64516">
        <ele>470.8</ele>
        <time>2010-10-30T13:47:35Z</time>
      </trkpt>
      <trkpt lat="45.07812" lon="5.64521">
        <ele>470</ele>
        <time>2010-10-30T13:47:38Z</time>
      </trkpt>
      <trkpt lat="45.07814" lon="5.64525">
        <ele>469.4</ele>
        <time>2010-10-30T13:47:40Z</time>
      </trkpt>
      <trkpt lat="45.07815" lon="5.64527">
        <ele>469.2</ele>
        <time>2010-10-30T13:47:41Z</time>
      </trkpt>
      <trkpt lat="45.07816" lon="5.64534">
        <ele>468.2</ele>
        <time>2010-10-30T13:47:45Z</time>
      </trkpt>
      <trkpt lat="45.07817" lon="5.64536">
        <ele>467.8</ele>
        <time>2010-10-30T13:47:47Z</time>
      </trkpt>
      <trkpt lat="45.07817" lon="5.64539">
        <ele>467.4</ele>
        <time>2010-10-30T13:47:49Z</time>
      </trkpt>
      <trkpt lat="45.07817" lon="5.6454">
        <ele>467.2</ele>
        <time>2010-10-30T13:47:50Z</time>
      </trkpt>
      <trkpt lat="45.07817" lon="5.64542">
        <ele>467</ele>
        <time>2010-10-30T13:47:51Z</time>
      </trkpt>
      <trkpt lat="45.07818" lon="5.64546">
        <ele>466.6</ele>
        <time>2010-10-30T13:47:53Z</time>
      </trkpt>
      <trkpt lat="45.07818" lon="5.64549">
        <ele>466.4</ele>
        <time>2010-10-30T13:47:55Z</time>
      </trkpt>
      <trkpt lat="45.07817" lon="5.64553">
        <ele>466</ele>
        <time>2010-10-30T13:47:57Z</time>
      </trkpt>
      <trkpt lat="45.07818" lon="5.6456">
        <ele>465</ele>
        <time>2010-10-30T13:48:02Z</time>
      </trkpt>
      <trkpt lat="45.07818" lon="5.64564">
        <ele>465</ele>
        <time>2010-10-30T13:48:04Z</time>
      </trkpt>
      <trkpt lat="45.07818" lon="5.64566">
        <ele>464.8</ele>
        <time>2010-10-30T13:48:05Z</time>
      </trkpt>
      <trkpt lat="45.07818" lon="5.64568">
        <ele>464.6</ele>
        <time>2010-10-30T13:48:06Z</time>
      </trkpt>
      <trkpt lat="45.0782" lon="5.64572">
        <ele>464.6</ele>
        <time>2010-10-30T13:48:08Z</time>
      </trkpt>
      <trkpt lat="45.07817" lon="5.64578">
        <ele>464</ele>
        <time>2010-10-30T13:48:12Z</time>
      </trkpt>
      <trkpt lat="45.07816" lon="5.64579">
        <ele>464</ele>
        <time>2010-10-30T13:48:13Z</time>
      </trkpt>
      <trkpt lat="45.07816" lon="5.64581">
        <ele>463.6</ele>
        <time>2010-10-30T13:48:16Z</time>
      </trkpt>
      <trkpt lat="45.07817" lon="5.64584">
        <ele>463.2</ele>
        <time>2010-10-30T13:48:18Z</time>
      </trkpt>
      <trkpt lat="45.07814" lon="5.6459">
        <ele>462.8</ele>
        <time>2010-10-30T13:48:21Z</time>
      </trkpt>
      <trkpt lat="45.07813" lon="5.64593">
        <ele>462.8</ele>
        <time>2010-10-30T13:48:22Z</time>
      </trkpt>
      <trkpt lat="45.07812" lon="5.64595">
        <ele>462.8</ele>
        <time>2010-10-30T13:48:23Z</time>
      </trkpt>
      <trkpt lat="45.07805" lon="5.64607">
        <ele>462.6</ele>
        <time>2010-10-30T13:48:29Z</time>
      </trkpt>
      <trkpt lat="45.07801" lon="5.6461">
        <ele>462.4</ele>
        <time>2010-10-30T13:48:32Z</time>
      </trkpt>
      <trkpt lat="45.07797" lon="5.64615">
        <ele>462</ele>
        <time>2010-10-30T13:48:36Z</time>
      </trkpt>
      <trkpt lat="45.07792" lon="5.64624">
        <ele>461.2</ele>
        <time>2010-10-30T13:48:43Z</time>
      </trkpt>
      <trkpt lat="45.07792" lon="5.64625">
        <ele>461.2</ele>
        <time>2010-10-30T13:48:44Z</time>
      </trkpt>
      <trkpt lat="45.07791" lon="5.64631">
        <ele>460.6</ele>
        <time>2010-10-30T13:48:47Z</time>
      </trkpt>
      <trkpt lat="45.07796" lon="5.64638">
        <ele>460.2</ele>
        <time>2010-10-30T13:48:50Z</time>
      </trkpt>
      <trkpt lat="45.07799" lon="5.64643">
        <ele>459.8</ele>
        <time>2010-10-30T13:48:52Z</time>
      </trkpt>
      <trkpt lat="45.07801" lon="5.64652">
        <ele>459.2</ele>
        <time>2010-10-30T13:48:56Z</time>
      </trkpt>
      <trkpt lat="45.07802" lon="5.64655">
        <ele>459</ele>
        <time>2010-10-30T13:48:57Z</time>
      </trkpt>
      <trkpt lat="45.07803" lon="5.64657">
        <ele>459</ele>
        <time>2010-10-30T13:48:58Z</time>
      </trkpt>
      <trkpt lat="45.07808" lon="5.64673">
        <ele>458</ele>
        <time>2010-10-30T13:49:04Z</time>
      </trkpt>
      <trkpt lat="45.07809" lon="5.64677">
        <ele>457.8</ele>
        <time>2010-10-30T13:49:05Z</time>
      </trkpt>
      <trkpt lat="45.07812" lon="5.64687">
        <ele>457.2</ele>
        <time>2010-10-30T13:49:09Z</time>
      </trkpt>
      <trkpt lat="45.07817" lon="5.64698">
        <ele>456.6</ele>
        <time>2010-10-30T13:49:13Z</time>
      </trkpt>
      <trkpt lat="45.07818" lon="5.64701">
        <ele>456.4</ele>
        <time>2010-10-30T13:49:14Z</time>
      </trkpt>
      <trkpt lat="45.07824" lon="5.64722">
        <ele>455</ele>
        <time>2010-10-30T13:49:21Z</time>
      </trkpt>
      <trkpt lat="45.07826" lon="5.64725">
        <ele>454.8</ele>
        <time>2010-10-30T13:49:22Z</time>
      </trkpt>
      <trkpt lat="45.07832" lon="5.64738">
        <ele>454.2</ele>
        <time>2010-10-30T13:49:26Z</time>
      </trkpt>
      <trkpt lat="45.07835" lon="5.64748">
        <ele>453.8</ele>
        <time>2010-10-30T13:49:29Z</time>
      </trkpt>
      <trkpt lat="45.07836" lon="5.64751">
        <ele>453.6</ele>
        <time>2010-10-30T13:49:30Z</time>
      </trkpt>
      <trkpt lat="45.07837" lon="5.64763">
        <ele>453</ele>
        <time>2010-10-30T13:49:34Z</time>
      </trkpt>
      <trkpt lat="45.07837" lon="5.6477">
        <ele>452.8</ele>
        <time>2010-10-30T13:49:36Z</time>
      </trkpt>
      <trkpt lat="45.07837" lon="5.64774">
        <ele>452.6</ele>
        <time>2010-10-30T13:49:37Z</time>
      </trkpt>
      <trkpt lat="45.07838" lon="5.64786">
        <ele>452</ele>
        <time>2010-10-30T13:49:41Z</time>
      </trkpt>
      <trkpt lat="45.07843" lon="5.64801">
        <ele>451.4</ele>
        <time>2010-10-30T13:49:46Z</time>
      </trkpt>
      <trkpt lat="45.07845" lon="5.64806">
        <ele>451.2</ele>
        <time>2010-10-30T13:49:48Z</time>
      </trkpt>
      <trkpt lat="45.07846" lon="5.64809">
        <ele>451</ele>
        <time>2010-10-30T13:49:49Z</time>
      </trkpt>
      <trkpt lat="45.07849" lon="5.64817">
        <ele>450.6</ele>
        <time>2010-10-30T13:49:52Z</time>
      </trkpt>
      <trkpt lat="45.07853" lon="5.64823">
        <ele>450.2</ele>
        <time>2010-10-30T13:49:55Z</time>
      </trkpt>
      <trkpt lat="45.07854" lon="5.64826">
        <ele>450.2</ele>
        <time>2010-10-30T13:49:56Z</time>
      </trkpt>
      <trkpt lat="45.07858" lon="5.64833">
        <ele>449.8</ele>
        <time>2010-10-30T13:49:59Z</time>
      </trkpt>
      <trkpt lat="45.07865" lon="5.64845">
        <ele>449</ele>
        <time>2010-10-30T13:50:04Z</time>
      </trkpt>
      <trkpt lat="45.07867" lon="5.64847">
        <ele>449</ele>
        <time>2010-10-30T13:50:05Z</time>
      </trkpt>
      <trkpt lat="45.07875" lon="5.64859">
        <ele>448.2</ele>
        <time>2010-10-30T13:50:10Z</time>
      </trkpt>
      <trkpt lat="45.07876" lon="5.64861">
        <ele>448</ele>
        <time>2010-10-30T13:50:11Z</time>
      </trkpt>
      <trkpt lat="45.07877" lon="5.64864">
        <ele>448</ele>
        <time>2010-10-30T13:50:12Z</time>
      </trkpt>
      <trkpt lat="45.07878" lon="5.64866">
        <ele>447.8</ele>
        <time>2010-10-30T13:50:13Z</time>
      </trkpt>
      <trkpt lat="45.0788" lon="5.64871">
        <ele>447.4</ele>
        <time>2010-10-30T13:50:15Z</time>
      </trkpt>
      <trkpt lat="45.07882" lon="5.64876">
        <ele>447</ele>
        <time>2010-10-30T13:50:17Z</time>
      </trkpt>
      <trkpt lat="45.07883" lon="5.6488">
        <ele>446.8</ele>
        <time>2010-10-30T13:50:19Z</time>
      </trkpt>
      <trkpt lat="45.07885" lon="5.6489">
        <ele>446</ele>
        <time>2010-10-30T13:50:23Z</time>
      </trkpt>
      <trkpt lat="45.07885" lon="5.64893">
        <ele>445.8</ele>
        <time>2010-10-30T13:50:24Z</time>
      </trkpt>
      <trkpt lat="45.07888" lon="5.64912">
        <ele>444.4</ele>
        <time>2010-10-30T13:50:30Z</time>
      </trkpt>
      <trkpt lat="45.07889" lon="5.64918">
        <ele>444</ele>
        <time>2010-10-30T13:50:32Z</time>
      </trkpt>
      <trkpt lat="45.0789" lon="5.64925">
        <ele>443.4</ele>
        <time>2010-10-30T13:50:34Z</time>
      </trkpt>
      <trkpt lat="45.07893" lon="5.64944">
        <ele>442.2</ele>
        <time>2010-10-30T13:50:40Z</time>
      </trkpt>
      <trkpt lat="45.07894" lon="5.64946">
        <ele>442</ele>
        <time>2010-10-30T13:50:41Z</time>
      </trkpt>
      <trkpt lat="45.07895" lon="5.64963">
        <ele>441.2</ele>
        <time>2010-10-30T13:50:46Z</time>
      </trkpt>
      <trkpt lat="45.07894" lon="5.64974">
        <ele>440.4</ele>
        <time>2010-10-30T13:50:50Z</time>
      </trkpt>
      <trkpt lat="45.07893" lon="5.64979">
        <ele>440</ele>
        <time>2010-10-30T13:50:52Z</time>
      </trkpt>
      <trkpt lat="45.0789" lon="5.65">
        <ele>439</ele>
        <time>2010-10-30T13:50:58Z</time>
      </trkpt>
      <trkpt lat="45.0789" lon="5.65016">
        <ele>438</ele>
        <time>2010-10-30T13:51:03Z</time>
      </trkpt>
      <trkpt lat="45.07889" lon="5.65025">
        <ele>437.4</ele>
        <time>2010-10-30T13:51:06Z</time>
      </trkpt>
      <trkpt lat="45.07887" lon="5.6503">
        <ele>437</ele>
        <time>2010-10-30T13:51:08Z</time>
      </trkpt>
      <trkpt lat="45.0788" lon="5.65043">
        <ele>435.4</ele>
        <time>2010-10-30T13:51:15Z</time>
      </trkpt>
      <trkpt lat="45.07877" lon="5.65047">
        <ele>434.8</ele>
        <time>2010-10-30T13:51:17Z</time>
      </trkpt>
      <trkpt lat="45.0787" lon="5.65056">
        <ele>433.4</ele>
        <time>2010-10-30T13:51:22Z</time>
      </trkpt>
      <trkpt lat="45.07861" lon="5.65063">
        <ele>432</ele>
        <time>2010-10-30T13:51:27Z</time>
      </trkpt>
      <trkpt lat="45.07859" lon="5.65064">
        <ele>431.6</ele>
        <time>2010-10-30T13:51:28Z</time>
      </trkpt>
      <trkpt lat="45.0785" lon="5.65076">
        <ele>430</ele>
        <time>2010-10-30T13:51:34Z</time>
      </trkpt>
      <trkpt lat="45.07846" lon="5.6508">
        <ele>429.4</ele>
        <time>2010-10-30T13:51:36Z</time>
      </trkpt>
      <trkpt lat="45.0784" lon="5.65086">
        <ele>428.2</ele>
        <time>2010-10-30T13:51:40Z</time>
      </trkpt>
      <trkpt lat="45.07832" lon="5.65096">
        <ele>426.6</ele>
        <time>2010-10-30T13:51:45Z</time>
      </trkpt>
      <trkpt lat="45.07831" lon="5.65097">
        <ele>426.4</ele>
        <time>2010-10-30T13:51:46Z</time>
      </trkpt>
      <trkpt lat="45.07824" lon="5.65107">
        <ele>424.6</ele>
        <time>2010-10-30T13:51:51Z</time>
      </trkpt>
      <trkpt lat="45.07816" lon="5.65113">
        <ele>423.4</ele>
        <time>2010-10-30T13:51:55Z</time>
      </trkpt>
      <trkpt lat="45.07814" lon="5.65114">
        <ele>423</ele>
        <time>2010-10-30T13:51:56Z</time>
      </trkpt>
      <trkpt lat="45.07804" lon="5.65114">
        <ele>421.4</ele>
        <time>2010-10-30T13:52:01Z</time>
      </trkpt>
      <trkpt lat="45.07797" lon="5.65113">
        <ele>420.6</ele>
        <time>2010-10-30T13:52:04Z</time>
      </trkpt>
      <trkpt lat="45.07795" lon="5.65113">
        <ele>420.2</ele>
        <time>2010-10-30T13:52:05Z</time>
      </trkpt>
      <trkpt lat="45.07783" lon="5.65113">
        <ele>418.8</ele>
        <time>2010-10-30T13:52:10Z</time>
      </trkpt>
      <trkpt lat="45.07779" lon="5.65113">
        <ele>418</ele>
        <time>2010-10-30T13:52:12Z</time>
      </trkpt>
      <trkpt lat="45.07772" lon="5.65114">
        <ele>417.2</ele>
        <time>2010-10-30T13:52:15Z</time>
      </trkpt>
      <trkpt lat="45.07762" lon="5.65116">
        <ele>415.6</ele>
        <time>2010-10-30T13:52:20Z</time>
      </trkpt>
      <trkpt lat="45.0776" lon="5.65117">
        <ele>415.4</ele>
        <time>2010-10-30T13:52:21Z</time>
      </trkpt>
      <trkpt lat="45.07751" lon="5.65116">
        <ele>414.2</ele>
        <time>2010-10-30T13:52:25Z</time>
      </trkpt>
      <trkpt lat="45.07744" lon="5.65116">
        <ele>413.4</ele>
        <time>2010-10-30T13:52:28Z</time>
      </trkpt>
      <trkpt lat="45.0774" lon="5.65115">
        <ele>412.8</ele>
        <time>2010-10-30T13:52:30Z</time>
      </trkpt>
      <trkpt lat="45.07726" lon="5.65109">
        <ele>411</ele>
        <time>2010-10-30T13:52:36Z</time>
      </trkpt>
      <trkpt lat="45.07723" lon="5.65107">
        <ele>410.4</ele>
        <time>2010-10-30T13:52:38Z</time>
      </trkpt>
      <trkpt lat="45.07719" lon="5.65106">
        <ele>409.8</ele>
        <time>2010-10-30T13:52:40Z</time>
      </trkpt>
      <trkpt lat="45.07715" lon="5.65105">
        <ele>409.2</ele>
        <time>2010-10-30T13:52:42Z</time>
      </trkpt>
      <trkpt lat="45.07705" lon="5.651">
        <ele>408</ele>
        <time>2010-10-30T13:52:47Z</time>
      </trkpt>
      <trkpt lat="45.07696" lon="5.65092">
        <ele>406.8</ele>
        <time>2010-10-30T13:52:52Z</time>
      </trkpt>
      <trkpt lat="45.07689" lon="5.65084">
        <ele>405.8</ele>
        <time>2010-10-30T13:52:56Z</time>
      </trkpt>
      <trkpt lat="45.07687" lon="5.65082">
        <ele>405.6</ele>
        <time>2010-10-30T13:52:57Z</time>
      </trkpt>
      <trkpt lat="45.07672" lon="5.65074">
        <ele>404.2</ele>
        <time>2010-10-30T13:53:04Z</time>
      </trkpt>
      <trkpt lat="45.0766" lon="5.65068">
        <ele>403.2</ele>
        <time>2010-10-30T13:53:09Z</time>
      </trkpt>
      <trkpt lat="45.07654" lon="5.65065">
        <ele>402.6</ele>
        <time>2010-10-30T13:53:12Z</time>
      </trkpt>
      <trkpt lat="45.07648" lon="5.65062">
        <ele>402</ele>
        <time>2010-10-30T13:53:15Z</time>
      </trkpt>
      <trkpt lat="45.07638" lon="5.65053">
        <ele>401</ele>
        <time>2010-10-30T13:53:20Z</time>
      </trkpt>
      <trkpt lat="45.07634" lon="5.65051">
        <ele>400.6</ele>
        <time>2010-10-30T13:53:22Z</time>
      </trkpt>
      <trkpt lat="45.0762" lon="5.65046">
        <ele>399.2</ele>
        <time>2010-10-30T13:53:28Z</time>
      </trkpt>
      <trkpt lat="45.07607" lon="5.65042">
        <ele>398</ele>
        <time>2010-10-30T13:53:34Z</time>
      </trkpt>
      <trkpt lat="45.07601" lon="5.6504">
        <ele>397.6</ele>
        <time>2010-10-30T13:53:37Z</time>
      </trkpt>
      <trkpt lat="45.07592" lon="5.65037">
        <ele>396.8</ele>
        <time>2010-10-30T13:53:41Z</time>
      </trkpt>
      <trkpt lat="45.07581" lon="5.65034">
        <ele>396</ele>
        <time>2010-10-30T13:53:46Z</time>
      </trkpt>
      <trkpt lat="45.07579" lon="5.65033">
        <ele>395.8</ele>
        <time>2010-10-30T13:53:47Z</time>
      </trkpt>
      <trkpt lat="45.07566" lon="5.65028">
        <ele>394.8</ele>
        <time>2010-10-30T13:53:53Z</time>
      </trkpt>
      <trkpt lat="45.07562" lon="5.65026">
        <ele>394.4</ele>
        <time>2010-10-30T13:53:55Z</time>
      </trkpt>
      <trkpt lat="45.07554" lon="5.65025">
        <ele>393.8</ele>
        <time>2010-10-30T13:53:59Z</time>
      </trkpt>
      <trkpt lat="45.07544" lon="5.65026">
        <ele>393</ele>
        <time>2010-10-30T13:54:04Z</time>
      </trkpt>
      <trkpt lat="45.07542" lon="5.65026">
        <ele>393</ele>
        <time>2010-10-30T13:54:05Z</time>
      </trkpt>
      <trkpt lat="45.07528" lon="5.65027">
        <ele>391.8</ele>
        <time>2010-10-30T13:54:12Z</time>
      </trkpt>
      <trkpt lat="45.07526" lon="5.65027">
        <ele>391.6</ele>
        <time>2010-10-30T13:54:13Z</time>
      </trkpt>
      <trkpt lat="45.07515" lon="5.65027">
        <ele>390.6</ele>
        <time>2010-10-30T13:54:18Z</time>
      </trkpt>
      <trkpt lat="45.07506" lon="5.65023">
        <ele>390</ele>
        <time>2010-10-30T13:54:22Z</time>
      </trkpt>
      <trkpt lat="45.07501" lon="5.65019">
        <ele>389.4</ele>
        <time>2010-10-30T13:54:25Z</time>
      </trkpt>
      <trkpt lat="45.07489" lon="5.65018">
        <ele>388.4</ele>
        <time>2010-10-30T13:54:31Z</time>
      </trkpt>
      <trkpt lat="45.07476" lon="5.65024">
        <ele>387.2</ele>
        <time>2010-10-30T13:54:37Z</time>
      </trkpt>
      <trkpt lat="45.0747" lon="5.65027">
        <ele>386.8</ele>
        <time>2010-10-30T13:54:40Z</time>
      </trkpt>
      <trkpt lat="45.07461" lon="5.65032">
        <ele>385.6</ele>
        <time>2010-10-30T13:54:45Z</time>
      </trkpt>
      <trkpt lat="45.07459" lon="5.65033">
        <ele>385.4</ele>
        <time>2010-10-30T13:54:46Z</time>
      </trkpt>
      <trkpt lat="45.07457" lon="5.65042">
        <ele>384.8</ele>
        <time>2010-10-30T13:54:49Z</time>
      </trkpt>
      <trkpt lat="45.07457" lon="5.65045">
        <ele>384.6</ele>
        <time>2010-10-30T13:54:50Z</time>
      </trkpt>
      <trkpt lat="45.07459" lon="5.65058">
        <ele>383.4</ele>
        <time>2010-10-30T13:54:55Z</time>
      </trkpt>
      <trkpt lat="45.07462" lon="5.65068">
        <ele>382.4</ele>
        <time>2010-10-30T13:54:59Z</time>
      </trkpt>
      <trkpt lat="45.07464" lon="5.65071">
        <ele>382.2</ele>
        <time>2010-10-30T13:55:00Z</time>
      </trkpt>
      <trkpt lat="45.0747" lon="5.65085">
        <ele>381.2</ele>
        <time>2010-10-30T13:55:05Z</time>
      </trkpt>
      <trkpt lat="45.0747" lon="5.65088">
        <ele>380.8</ele>
        <time>2010-10-30T13:55:06Z</time>
      </trkpt>
      <trkpt lat="45.07469" lon="5.65091">
        <ele>380.6</ele>
        <time>2010-10-30T13:55:07Z</time>
      </trkpt>
      <trkpt lat="45.07465" lon="5.65098">
        <ele>379.8</ele>
        <time>2010-10-30T13:55:10Z</time>
      </trkpt>
      <trkpt lat="45.07463" lon="5.651">
        <ele>379.6</ele>
        <time>2010-10-30T13:55:11Z</time>
      </trkpt>
      <trkpt lat="45.07455" lon="5.65109">
        <ele>378.4</ele>
        <time>2010-10-30T13:55:16Z</time>
      </trkpt>
      <trkpt lat="45.07451" lon="5.65113">
        <ele>377.8</ele>
        <time>2010-10-30T13:55:18Z</time>
      </trkpt>
      <trkpt lat="45.07442" lon="5.65127">
        <ele>376.2</ele>
        <time>2010-10-30T13:55:24Z</time>
      </trkpt>
      <trkpt lat="45.07441" lon="5.6513">
        <ele>376</ele>
        <time>2010-10-30T13:55:25Z</time>
      </trkpt>
      <trkpt lat="45.07435" lon="5.65146">
        <ele>374.6</ele>
        <time>2010-10-30T13:55:30Z</time>
      </trkpt>
      <trkpt lat="45.07434" lon="5.6515">
        <ele>374.4</ele>
        <time>2010-10-30T13:55:31Z</time>
      </trkpt>
      <trkpt lat="45.0743" lon="5.65166">
        <ele>373.2</ele>
        <time>2010-10-30T13:55:36Z</time>
      </trkpt>
      <trkpt lat="45.07429" lon="5.65176">
        <ele>372.4</ele>
        <time>2010-10-30T13:55:39Z</time>
      </trkpt>
      <trkpt lat="45.07428" lon="5.6519">
        <ele>371.4</ele>
        <time>2010-10-30T13:55:43Z</time>
      </trkpt>
      <trkpt lat="45.07426" lon="5.65203">
        <ele>370.4</ele>
        <time>2010-10-30T13:55:47Z</time>
      </trkpt>
      <trkpt lat="45.07425" lon="5.65209">
        <ele>370</ele>
        <time>2010-10-30T13:55:49Z</time>
      </trkpt>
      <trkpt lat="45.0742" lon="5.65224">
        <ele>368.6</ele>
        <time>2010-10-30T13:55:55Z</time>
      </trkpt>
      <trkpt lat="45.07418" lon="5.65226">
        <ele>368.4</ele>
        <time>2010-10-30T13:55:56Z</time>
      </trkpt>
      <trkpt lat="45.07413" lon="5.65235">
        <ele>367.6</ele>
        <time>2010-10-30T13:56:00Z</time>
      </trkpt>
      <trkpt lat="45.07409" lon="5.65247">
        <ele>366.8</ele>
        <time>2010-10-30T13:56:04Z</time>
      </trkpt>
      <trkpt lat="45.07407" lon="5.65254">
        <ele>366.4</ele>
        <time>2010-10-30T13:56:06Z</time>
      </trkpt>
      <trkpt lat="45.07402" lon="5.65274">
        <ele>365</ele>
        <time>2010-10-30T13:56:12Z</time>
      </trkpt>
      <trkpt lat="45.07402" lon="5.65277">
        <ele>364.8</ele>
        <time>2010-10-30T13:56:13Z</time>
      </trkpt>
      <trkpt lat="45.07398" lon="5.65296">
        <ele>363.6</ele>
        <time>2010-10-30T13:56:19Z</time>
      </trkpt>
      <trkpt lat="45.07397" lon="5.653">
        <ele>363.4</ele>
        <time>2010-10-30T13:56:20Z</time>
      </trkpt>
      <trkpt lat="45.07393" lon="5.65319">
        <ele>362.2</ele>
        <time>2010-10-30T13:56:26Z</time>
      </trkpt>
      <trkpt lat="45.07392" lon="5.65325">
        <ele>361.8</ele>
        <time>2010-10-30T13:56:28Z</time>
      </trkpt>
      <trkpt lat="45.07388" lon="5.65343">
        <ele>360.6</ele>
        <time>2010-10-30T13:56:34Z</time>
      </trkpt>
      <trkpt lat="45.07385" lon="5.65352">
        <ele>360</ele>
        <time>2010-10-30T13:56:37Z</time>
      </trkpt>
      <trkpt lat="45.07382" lon="5.6536">
        <ele>359.4</ele>
        <time>2010-10-30T13:56:40Z</time>
      </trkpt>
      <trkpt lat="45.07375" lon="5.65377">
        <ele>358.2</ele>
        <time>2010-10-30T13:56:46Z</time>
      </trkpt>
      <trkpt lat="45.07373" lon="5.65382">
        <ele>357.8</ele>
        <time>2010-10-30T13:56:48Z</time>
      </trkpt>
      <trkpt lat="45.07366" lon="5.65399">
        <ele>356.8</ele>
        <time>2010-10-30T13:56:54Z</time>
      </trkpt>
      <trkpt lat="45.07365" lon="5.65402">
        <ele>356.8</ele>
        <time>2010-10-30T13:56:55Z</time>
      </trkpt>
      <trkpt lat="45.07357" lon="5.65422">
        <ele>355.4</ele>
        <time>2010-10-30T13:57:03Z</time>
      </trkpt>
      <trkpt lat="45.07353" lon="5.65435">
        <ele>354.6</ele>
        <time>2010-10-30T13:57:08Z</time>
      </trkpt>
      <trkpt lat="45.07349" lon="5.65445">
        <ele>354</ele>
        <time>2010-10-30T13:57:12Z</time>
      </trkpt>
      <trkpt lat="45.07347" lon="5.65449">
        <ele>353.6</ele>
        <time>2010-10-30T13:57:14Z</time>
      </trkpt>
      <trkpt lat="45.07339" lon="5.65463">
        <ele>352.8</ele>
        <time>2010-10-30T13:57:20Z</time>
      </trkpt>
      <trkpt lat="45.07338" lon="5.65466">
        <ele>352.6</ele>
        <time>2010-10-30T13:57:21Z</time>
      </trkpt>
      <trkpt lat="45.07329" lon="5.65486">
        <ele>351.6</ele>
        <time>2010-10-30T13:57:28Z</time>
      </trkpt>
      <trkpt lat="45.07327" lon="5.65488">
        <ele>351.4</ele>
        <time>2010-10-30T13:57:29Z</time>
      </trkpt>
      <trkpt lat="45.07323" lon="5.65502">
        <ele>350.8</ele>
        <time>2010-10-30T13:57:34Z</time>
      </trkpt>
      <trkpt lat="45.07321" lon="5.65515">
        <ele>350.2</ele>
        <time>2010-10-30T13:57:38Z</time>
      </trkpt>
      <trkpt lat="45.07319" lon="5.65524">
        <ele>349.8</ele>
        <time>2010-10-30T13:57:41Z</time>
      </trkpt>
      <trkpt lat="45.07316" lon="5.6554">
        <ele>349</ele>
        <time>2010-10-30T13:57:46Z</time>
      </trkpt>
      <trkpt lat="45.07316" lon="5.65542">
        <ele>349</ele>
        <time>2010-10-30T13:57:47Z</time>
      </trkpt>
      <trkpt lat="45.07308" lon="5.65562">
        <ele>348</ele>
        <time>2010-10-30T13:57:54Z</time>
      </trkpt>
      <trkpt lat="45.07307" lon="5.65565">
        <ele>347.8</ele>
        <time>2010-10-30T13:57:55Z</time>
      </trkpt>
      <trkpt lat="45.07302" lon="5.6558">
        <ele>347.2</ele>
        <time>2010-10-30T13:58:00Z</time>
      </trkpt>
      <trkpt lat="45.07301" lon="5.65589">
        <ele>347</ele>
        <time>2010-10-30T13:58:03Z</time>
      </trkpt>
      <trkpt lat="45.07302" lon="5.65596">
        <ele>346.8</ele>
        <time>2010-10-30T13:58:05Z</time>
      </trkpt>
      <trkpt lat="45.07311" lon="5.65609">
        <ele>346.4</ele>
        <time>2010-10-30T13:58:10Z</time>
      </trkpt>
      <trkpt lat="45.07313" lon="5.65612">
        <ele>346.2</ele>
        <time>2010-10-30T13:58:11Z</time>
      </trkpt>
      <trkpt lat="45.07321" lon="5.65623">
        <ele>345.8</ele>
        <time>2010-10-30T13:58:16Z</time>
      </trkpt>
      <trkpt lat="45.07326" lon="5.6563">
        <ele>345.6</ele>
        <time>2010-10-30T13:58:19Z</time>
      </trkpt>
      <trkpt lat="45.07329" lon="5.65637">
        <ele>345.4</ele>
        <time>2010-10-30T13:58:22Z</time>
      </trkpt>
      <trkpt lat="45.07336" lon="5.65653">
        <ele>344.8</ele>
        <time>2010-10-30T13:58:28Z</time>
      </trkpt>
      <trkpt lat="45.07338" lon="5.65655">
        <ele>344.8</ele>
        <time>2010-10-30T13:58:29Z</time>
      </trkpt>
      <trkpt lat="45.07344" lon="5.65676">
        <ele>344.4</ele>
        <time>2010-10-30T13:58:36Z</time>
      </trkpt>
      <trkpt lat="45.07346" lon="5.65691">
        <ele>344</ele>
        <time>2010-10-30T13:58:41Z</time>
      </trkpt>
      <trkpt lat="45.07348" lon="5.65703">
        <ele>343.6</ele>
        <time>2010-10-30T13:58:45Z</time>
      </trkpt>
      <trkpt lat="45.07347" lon="5.65708">
        <ele>343.6</ele>
        <time>2010-10-30T13:58:47Z</time>
      </trkpt>
      <trkpt lat="45.07344" lon="5.65715">
        <ele>343.2</ele>
        <time>2010-10-30T13:58:51Z</time>
      </trkpt>
    </trkseg>
  </trk>
</gpx>